ECMWFFLT1_850_thetae_000.txt.gz
Theta_e
356 356 356 355 356 354 351 352 354 353 354 355 353 351 353 355 353 354 357 357 354 352 350 350 349 349 348 347 345 344 345 345 344 346 344 342 342 342 341 342 342 344 346 346 345 345 343 342 342 341 340 337 335 334 334 333 332 334 335 332 333 334 334
356 355 356 355 355 354 351 352 353 353 354 353 350 348 352 355 351 350 356 355 350 349 350 350 349 350 349 347 347 346 345 345 345 346 344 342 341 341 340 341 342 340 340 343 344 343 342 342 341 340 339 337 335 334 334 333 333 334 335 334 334 334 334
354 354 355 355 355 354 352 351 350 349 350 351 350 349 351 353 350 346 349 351 346 345 348 349 348 350 350 349 348 347 346 347 347 346 345 344 341 340 341 341 340 340 339 339 340 340 341 341 340 338 337 337 336 335 334 335 334 333 334 334 335 334 334
353 353 354 355 356 354 350 347 343 343 347 350 351 350 348 347 346 344 344 346 346 344 345 347 346 347 348 347 346 345 345 345 346 345 344 345 344 342 342 340 340 341 341 339 338 336 335 337 337 336 334 333 334 335 335 335 335 335 335 335 335 334 334
353 353 353 354 356 356 353 347 342 342 347 349 350 351 347 343 343 344 343 343 344 346 344 344 348 348 343 342 342 340 341 343 345 345 344 345 345 343 341 340 340 341 341 340 339 333 327 329 332 332 331 331 333 336 336 335 335 335 335 335 335 334 334
352 352 353 354 355 357 357 350 345 344 347 348 351 351 348 346 346 347 346 343 343 347 345 343 349 349 342 339 339 338 339 342 345 346 345 344 343 341 342 341 339 340 342 343 342 335 328 328 330 329 331 334 337 338 338 336 335 335 335 335 335 334 334
352 353 354 354 355 356 356 353 349 347 347 349 351 353 351 350 351 351 352 349 347 349 351 349 349 347 340 338 338 337 338 340 343 345 344 343 341 341 343 340 334 337 344 346 345 340 332 330 331 328 328 333 336 336 333 330 329 332 332 331 331 332 333
352 354 355 355 355 354 354 354 351 349 350 349 351 354 353 352 353 354 355 356 355 354 355 356 355 348 338 336 336 335 335 335 337 340 342 343 344 344 343 338 330 334 344 347 345 341 334 331 332 329 326 328 331 331 328 322 321 324 326 327 329 331 332
352 355 356 356 355 354 353 354 353 351 353 353 353 355 354 354 355 355 356 358 360 360 357 358 359 353 341 335 335 333 334 335 335 338 344 344 343 342 338 334 330 335 345 347 342 338 334 331 330 326 324 325 328 328 326 321 319 320 322 325 328 328 328
353 354 357 355 354 354 352 352 354 354 355 357 355 353 353 353 355 357 358 359 360 362 361 358 359 358 347 335 333 334 336 337 337 339 344 345 345 341 332 329 332 337 344 344 338 334 331 329 328 324 320 319 320 321 321 320 320 321 322 323 324 322 321
352 351 356 356 353 354 353 353 354 354 357 358 356 351 349 350 353 357 359 361 361 361 362 360 359 360 357 346 342 343 344 347 347 346 348 349 347 341 331 326 330 335 340 340 337 334 330 324 321 320 320 319 320 320 319 319 320 321 322 323 322 320 320
353 352 356 356 355 355 355 356 358 356 356 355 353 351 349 348 349 354 357 360 361 361 363 363 359 360 362 358 354 353 357 359 358 355 355 355 349 337 328 326 326 328 333 334 334 334 330 323 318 319 325 327 326 325 322 318 319 321 322 323 323 320 320
352 354 356 356 357 357 358 361 360 358 354 351 350 351 350 350 350 351 353 355 357 360 360 361 362 363 361 358 356 357 358 358 356 353 353 356 353 340 328 326 324 323 325 326 326 327 327 325 322 321 326 327 326 327 325 320 319 322 323 323 323 322 320
351 353 355 357 357 356 360 364 362 358 354 351 350 351 351 352 352 350 350 349 351 355 356 357 361 362 357 355 359 360 357 353 355 355 352 356 356 344 329 326 325 322 322 323 324 325 325 326 325 323 324 325 324 325 326 324 321 322 324 323 322 323 322
354 354 355 356 354 351 355 361 361 357 354 351 351 353 353 352 351 350 349 349 348 350 353 355 357 358 358 359 360 362 361 359 359 358 355 356 355 345 331 327 326 323 323 324 324 325 326 327 327 325 323 323 323 323 325 325 322 322 324 323 322 325 325
356 354 355 352 350 347 347 350 352 354 353 351 350 353 352 350 349 349 348 348 347 348 351 355 358 360 363 362 360 360 362 361 358 356 355 355 354 345 335 332 328 325 325 325 324 325 327 328 329 327 322 322 324 325 325 324 322 322 325 324 323 326 327
355 355 356 349 346 350 350 345 345 349 349 346 347 349 351 350 349 349 350 351 349 349 353 358 361 363 364 364 362 360 361 360 358 356 355 355 353 347 341 336 331 328 327 326 326 326 326 325 327 328 324 321 323 326 326 324 322 323 324 323 323 327 329
357 356 358 354 350 353 353 346 344 345 344 344 348 351 350 349 348 349 354 358 359 359 360 361 364 365 365 365 364 363 362 360 359 358 357 356 354 350 346 341 335 331 330 329 329 330 326 323 326 328 324 319 323 328 328 324 323 324 324 323 324 328 331
356 358 360 359 357 356 355 355 356 354 352 356 359 358 354 355 357 356 359 362 363 364 364 363 365 365 365 364 363 362 362 360 359 359 358 356 354 352 349 345 339 335 333 332 333 331 324 321 325 329 326 320 323 329 328 324 325 327 327 327 328 331 333
353 357 359 358 360 358 356 358 359 356 356 360 362 362 362 364 364 361 361 361 360 360 361 361 363 365 364 362 361 360 360 360 359 358 357 355 354 351 349 346 342 338 334 333 332 328 323 322 324 328 327 324 325 329 327 323 326 330 330 332 333 332 331
351 355 355 357 359 358 355 355 355 354 356 359 360 360 361 361 360 358 359 358 355 355 356 356 359 362 361 359 359 359 360 360 359 358 357 355 353 351 349 346 343 340 336 333 330 326 324 324 323 325 329 329 328 328 325 323 328 332 333 334 334 330 326
349 351 352 353 353 352 352 352 352 351 352 354 355 355 354 355 357 360 360 355 348 347 348 348 352 356 355 354 356 358 360 360 359 358 357 355 353 351 348 345 343 341 339 335 332 330 327 325 323 324 330 333 330 328 326 325 329 334 334 333 330 326 322
348 349 351 353 352 349 348 348 348 348 348 349 348 348 350 353 356 355 350 344 337 335 337 340 343 346 348 350 353 356 359 360 359 357 356 355 354 351 347 345 342 341 340 338 337 336 332 327 323 325 332 335 332 329 327 326 328 333 333 328 324 322 321
346 350 353 354 351 348 347 347 348 346 348 350 347 341 341 343 343 339 335 332 331 330 333 335 337 342 347 349 348 352 356 358 356 356 355 354 353 350 347 344 341 340 339 339 338 337 335 332 330 333 337 337 333 331 329 329 331 331 328 323 321 321 322
346 349 352 351 349 347 347 348 348 347 350 350 343 336 335 334 333 332 331 332 332 332 333 335 337 340 342 342 344 349 353 354 354 354 353 353 352 349 345 342 340 339 339 339 339 339 338 337 337 338 338 337 335 333 330 331 333 330 323 321 320 320 322
349 349 352 352 351 349 347 346 348 350 350 344 336 333 334 333 333 333 333 334 335 334 335 336 336 337 336 336 342 347 350 351 351 351 352 352 350 347 344 341 339 338 338 338 339 339 339 337 336 337 336 335 334 332 329 330 331 327 323 322 323 323 325
352 353 354 353 348 346 345 344 345 345 342 337 335 336 336 335 336 336 335 335 335 334 335 335 335 335 334 336 341 345 347 349 350 351 351 351 350 346 342 339 336 333 332 333 336 337 337 336 334 334 334 333 333 332 330 330 329 326 324 326 327 327 327
353 353 351 347 344 345 346 344 340 338 338 337 338 338 338 338 338 337 336 335 333 333 333 334 335 335 334 338 344 347 348 349 350 350 350 350 349 345 339 335 333 330 328 331 333 334 335 335 334 333 333 333 332 331 330 327 325 324 325 327 328 326 325
349 348 344 340 340 344 345 342 338 338 338 339 339 338 338 338 338 337 335 333 332 333 332 332 334 335 335 340 346 349 349 348 349 349 348 348 348 344 337 332 330 328 327 329 332 334 334 334 333 333 333 332 331 329 327 324 323 325 326 327 327 326 326
342 340 340 339 339 340 339 337 336 336 337 338 340 339 338 337 336 336 336 336 335 335 334 335 335 336 339 343 347 349 349 348 348 348 346 346 345 341 335 331 329 328 326 328 332 334 334 333 332 331 331 331 330 328 325 324 324 325 326 326 327 328 329
341 339 339 339 339 339 337 335 334 335 335 335 336 336 337 337 336 338 338 339 339 339 338 338 338 339 343 345 346 346 347 348 347 347 346 345 342 338 332 329 328 328 327 329 332 334 332 332 332 331 330 330 329 326 324 325 325 325 325 327 328 329 330
342 342 339 336 335 338 339 335 333 333 334 334 333 333 334 334 334 336 338 338 339 340 341 341 340 339 342 343 343 343 344 346 346 346 345 343 339 334 330 329 331 330 327 329 333 333 332 332 332 332 331 331 329 326 324 324 326 327 328 329 329 329 328
336 336 336 333 331 334 335 334 332 331 332 332 332 334 335 333 332 335 339 341 342 344 345 343 341 341 342 344 345 345 345 345 343 342 341 339 336 333 332 333 334 333 330 332 334 334 333 333 333 332 331 330 331 330 327 325 326 327 328 329 329 327 327
335 334 334 332 331 331 332 332 331 330 331 332 332 334 336 335 335 337 341 346 349 349 347 345 344 345 346 346 345 345 344 343 341 340 337 335 334 335 335 335 335 335 335 334 334 335 334 334 333 332 331 331 331 330 327 325 325 326 328 329 329 328 326
337 335 333 331 330 329 330 330 329 329 330 332 333 335 336 337 339 342 348 352 353 352 350 348 347 347 347 346 345 344 344 342 341 339 337 336 336 336 336 336 336 336 335 334 333 333 333 333 333 332 331 330 329 326 325 326 328 329 328 328 327 326 324
335 333 333 332 330 329 329 328 328 329 330 331 333 335 336 338 342 347 352 354 353 353 352 350 349 348 347 347 345 344 343 342 340 339 338 338 339 339 337 336 335 334 334 333 332 331 331 331 332 331 328 328 328 327 326 328 329 328 327 325 325 324 323
332 334 334 332 330 330 330 329 329 329 330 331 333 334 336 339 342 347 351 353 354 354 352 350 348 347 346 346 345 344 343 342 340 340 340 339 339 338 336 335 334 334 333 332 331 329 328 327 328 326 324 325 327 326 326 327 327 326 325 325 324 323 321
329 332 333 331 330 329 330 331 332 332 331 332 333 334 337 340 342 344 348 351 352 352 351 349 346 345 344 344 343 343 343 341 340 340 340 339 337 335 334 333 333 333 331 330 329 327 324 323 323 323 321 323 325 325 326 326 326 326 326 325 323 322 321

ECMWFFLT1_850_thetae_003.txt.gz
Theta_e
348 347 347 350 351 351 354 357 358 356 355 354 355 355 355 355 356 356 356 358 359 361 360 356 357 358 359 357 354 350 345 342 345 345 348 352 354 355 354 353 351 351 351 350 349 349 347 346 344 342 341 341 341 340 339 337 335 335 336 334 333 335 336
347 348 346 348 352 352 354 356 357 357 356 355 355 355 356 356 356 355 357 359 359 360 360 359 358 358 359 360 359 355 348 342 344 344 346 351 352 353 354 353 352 350 350 350 349 348 347 345 343 342 342 341 340 340 339 337 335 335 337 336 334 334 335
347 351 349 348 352 354 355 355 356 357 357 357 356 356 356 356 355 355 357 359 359 359 361 362 360 358 358 359 359 358 352 345 343 342 345 349 350 352 354 353 351 350 349 349 348 347 347 345 343 343 342 340 340 340 339 339 337 336 336 337 336 335 335
342 348 349 349 351 355 356 355 355 357 356 356 356 356 356 356 355 356 357 359 359 360 361 362 362 360 358 358 358 359 357 349 343 340 344 348 350 352 353 352 350 349 349 348 347 347 345 344 344 342 341 340 341 341 339 339 338 337 337 336 336 336 335
339 342 346 350 353 356 358 356 355 356 356 355 355 355 357 357 357 358 358 358 359 360 361 361 361 360 360 358 357 359 359 353 344 342 344 347 351 353 352 351 351 349 349 347 345 342 338 337 337 336 337 339 340 340 339 338 338 337 337 336 336 336 336
338 342 348 351 353 356 360 358 355 355 355 355 354 355 357 358 357 358 359 358 358 360 362 362 361 361 361 360 358 359 360 355 347 344 344 347 352 353 351 351 350 349 349 346 341 339 335 331 328 327 331 335 337 338 339 339 336 333 336 337 336 336 336
338 344 348 350 352 357 360 358 356 355 354 354 355 357 358 356 354 355 357 358 356 358 362 362 360 360 361 361 360 359 359 358 351 344 345 349 352 353 351 351 349 348 348 343 337 336 334 329 324 322 323 325 328 330 334 336 331 326 331 335 336 336 336
338 344 347 348 351 355 358 359 356 354 353 353 353 356 356 353 352 353 356 357 355 356 360 360 358 359 361 361 361 359 358 359 355 347 347 350 351 352 351 349 346 344 344 340 334 331 328 325 325 324 322 320 320 321 326 330 326 321 324 330 333 336 337
338 344 347 349 349 352 356 358 356 354 353 351 351 352 353 352 352 352 354 356 354 354 356 356 354 356 360 362 362 360 358 359 356 351 349 350 352 351 349 345 343 341 340 337 332 328 325 325 325 326 325 322 319 319 321 323 323 321 320 322 326 331 334
343 345 346 349 349 350 353 357 357 354 352 350 347 349 352 352 351 351 352 352 352 352 353 352 351 353 357 362 363 362 360 357 356 354 350 348 349 348 346 344 341 339 337 334 330 327 326 326 324 325 326 325 322 320 320 321 322 322 321 320 320 323 329
343 343 349 354 353 352 354 356 357 355 352 349 345 347 351 352 351 350 350 349 349 351 351 350 350 350 354 361 363 363 362 359 358 356 350 347 349 347 344 343 341 338 336 332 328 326 327 327 326 325 326 328 326 322 320 321 321 322 321 321 322 321 326
339 339 345 354 358 357 355 356 357 355 352 349 346 346 350 352 351 349 349 349 348 349 350 352 352 350 351 359 363 363 362 361 360 355 344 346 354 351 344 343 342 338 334 330 328 326 326 328 328 326 325 328 329 326 322 321 322 324 321 322 328 327 324
339 341 348 357 360 360 359 357 357 357 353 351 349 348 349 352 352 349 348 350 349 348 351 354 354 350 348 354 359 360 361 362 360 353 341 345 352 350 346 344 340 334 330 329 329 327 327 328 328 327 325 326 327 327 325 321 322 326 323 322 329 329 323
339 345 356 364 362 360 361 359 357 357 357 355 353 351 351 353 355 352 349 351 351 350 353 354 353 351 349 351 354 356 359 361 361 355 346 346 348 345 345 344 338 332 327 328 329 327 326 328 328 328 327 326 327 327 327 324 322 326 326 322 323 324 323
341 349 358 364 364 363 362 360 359 359 359 360 356 355 355 356 357 356 352 352 353 353 353 353 352 354 353 351 352 353 357 362 363 359 353 348 346 341 341 342 338 332 327 328 331 330 327 327 328 328 328 328 328 328 328 327 322 324 326 323 321 323 324
337 346 353 355 359 363 362 360 361 360 361 364 362 360 362 360 359 358 356 356 357 356 355 353 355 358 356 353 350 350 356 363 364 362 357 352 348 343 341 341 338 333 329 330 336 337 331 326 327 328 329 328 327 327 328 327 323 323 324 324 324 325 326
334 337 339 340 350 361 363 363 365 366 367 368 366 365 365 363 362 362 361 362 362 360 357 356 359 362 360 358 355 355 361 365 365 363 360 356 353 350 347 345 343 340 335 334 340 339 332 326 327 328 328 328 327 326 326 326 326 326 323 323 325 326 326
334 334 334 338 348 360 364 364 367 372 372 370 368 367 366 366 366 365 364 365 364 363 360 360 363 364 362 360 359 361 365 367 365 364 361 358 357 355 354 353 352 350 347 345 344 338 330 326 326 326 326 327 325 325 328 328 329 329 325 324 326 326 325
336 332 335 344 348 356 364 366 369 374 374 371 369 369 367 367 368 367 366 366 366 365 363 363 366 367 365 363 362 364 366 366 366 364 361 358 358 357 357 356 355 354 353 350 344 336 331 328 326 325 325 324 325 328 330 331 331 331 327 325 327 327 326
333 331 339 348 349 352 361 366 368 371 374 373 369 369 370 370 370 369 368 367 368 366 364 366 369 370 369 367 366 366 365 364 364 361 360 359 358 358 358 356 355 355 353 350 344 337 333 329 327 325 324 325 328 329 331 332 333 332 329 326 325 326 327
334 340 347 351 351 353 361 366 365 368 373 372 369 370 371 371 372 370 367 367 369 368 366 368 371 371 368 366 365 365 364 362 361 360 359 359 359 358 357 355 355 355 353 350 342 336 332 328 327 327 327 328 330 330 331 334 334 333 330 326 324 325 328
337 345 349 351 355 357 360 361 362 366 369 369 368 370 371 372 372 368 365 367 370 370 369 370 371 370 368 366 365 364 363 362 361 360 359 359 358 358 357 355 355 354 353 350 342 335 333 331 330 331 331 330 329 329 332 335 334 331 329 327 326 327 330
337 340 343 347 354 358 358 358 362 368 370 369 369 370 372 372 369 367 368 370 372 372 372 371 371 369 368 366 365 364 363 361 360 359 359 359 358 357 355 354 353 352 351 349 345 340 338 336 335 334 332 331 331 331 333 336 335 332 330 331 329 328 330
337 336 340 347 352 358 360 361 364 368 368 369 369 370 371 371 371 371 371 371 373 373 372 371 370 369 368 366 364 361 358 356 358 359 358 357 355 353 352 351 350 350 349 347 346 344 342 340 339 336 334 335 336 336 335 336 336 333 332 334 331 328 330
339 337 343 348 352 359 362 361 363 366 367 368 369 370 371 370 370 371 370 372 373 371 371 371 367 364 364 361 358 356 351 351 357 358 355 353 351 350 350 349 349 349 347 346 346 345 342 341 340 338 338 338 339 339 338 338 337 334 334 335 332 328 329
341 340 344 347 352 359 362 362 364 365 366 366 366 367 368 368 370 371 371 373 372 369 372 369 358 350 351 350 351 352 349 348 353 353 350 349 350 351 350 348 348 348 346 344 344 344 343 342 341 340 340 340 340 340 339 338 337 336 336 334 332 330 330
345 345 347 352 356 361 363 363 364 363 363 364 364 365 367 368 369 371 370 370 370 369 367 359 343 336 337 337 341 344 343 347 351 351 349 350 351 351 349 347 347 345 343 344 344 343 343 343 342 341 340 340 339 339 338 337 336 336 335 332 331 330 328
349 348 350 355 358 360 361 360 360 361 361 363 363 365 367 369 370 371 370 369 367 361 350 338 333 333 335 336 336 338 344 350 352 352 351 352 352 351 348 347 346 341 338 341 343 341 341 341 339 338 338 337 337 336 336 335 334 334 334 331 329 328 325
351 352 356 360 359 360 360 360 362 365 365 365 364 365 367 365 362 362 361 360 354 343 334 332 333 334 335 337 339 345 350 352 352 352 352 352 352 349 347 347 345 338 334 339 341 339 338 338 336 336 336 335 335 335 334 334 333 332 331 329 326 325 324
357 357 359 359 358 359 360 360 362 363 361 358 356 355 352 345 339 341 347 349 344 335 332 333 334 334 336 337 341 348 351 352 351 352 353 352 350 348 346 345 343 336 334 336 337 336 337 338 336 335 335 334 335 335 334 334 333 330 327 325 323 325 327
355 354 354 355 358 361 362 362 363 362 361 359 356 352 346 337 337 346 354 354 348 338 333 333 334 334 335 336 342 348 350 350 350 351 351 350 349 348 346 343 340 335 333 333 334 336 337 338 337 336 335 334 334 334 334 334 332 329 325 324 325 327 328
348 348 349 351 353 356 357 359 360 361 362 362 360 357 353 350 349 350 350 347 342 336 334 335 334 335 338 343 347 348 349 350 349 349 350 349 348 347 345 342 339 336 333 332 334 336 337 338 336 335 334 333 332 333 333 333 333 331 329 327 326 327 328
349 347 347 347 347 348 350 352 353 353 353 353 352 350 350 352 352 344 338 337 337 336 336 336 335 340 347 350 350 350 350 350 348 347 347 347 346 346 344 341 338 336 334 334 335 336 337 336 334 333 332 332 332 332 333 334 334 333 332 329 326 327 329
354 351 347 345 345 346 347 348 349 350 352 353 353 350 347 348 347 340 337 339 338 336 337 340 343 347 350 350 350 350 349 348 346 345 345 344 344 343 341 339 337 337 337 336 335 336 336 334 333 332 332 332 332 332 333 334 335 335 335 331 327 327 328
353 352 350 346 343 343 346 348 349 349 349 351 352 351 349 349 349 347 348 350 349 346 345 347 349 350 349 349 349 348 348 346 345 344 344 343 342 340 340 338 337 337 338 337 336 336 336 335 335 334 333 333 333 333 333 334 335 335 334 330 326 325 326
348 350 350 349 345 342 340 341 341 340 342 346 347 347 348 351 353 353 353 354 354 351 351 351 350 349 348 347 347 346 346 345 344 344 343 342 341 339 339 338 338 338 338 337 336 335 335 335 335 335 333 333 333 333 332 332 332 331 329 327 326 327 326
345 347 348 349 349 347 343 339 336 334 336 341 343 346 351 354 355 354 353 353 353 352 352 351 349 348 348 347 346 346 345 344 343 343 342 341 340 339 338 338 338 337 337 336 335 334 333 332 332 333 333 333 332 331 329 328 328 329 329 329 329 328 327
340 343 344 346 348 348 347 346 344 342 341 340 338 342 348 350 351 352 352 351 352 352 350 349 349 349 348 347 346 345 344 343 343 342 341 341 340 338 337 338 337 336 335 334 334 333 332 330 330 332 333 331 329 329 328 327 327 329 329 329 328 327 326

ECMWFFLT1_850_thetae_006.txt.gz
Theta_e
348 349 349 349 350 350 350 349 350 351 352 355 356 356 357 356 357 358 358 358 359 359 359 357 354 353 353 355 356 354 350 346 346 348 349 351 353 354 352 349 349 350 349 343 342 344 342 343 345 343 343 341 336 332 329 325 326 327 325 323 326 329 331
346 350 350 351 351 349 349 349 349 349 351 356 358 357 358 357 357 358 358 359 359 359 359 357 355 353 353 355 355 355 353 347 343 344 347 350 354 355 351 346 345 349 350 346 344 343 342 343 343 343 342 340 335 331 326 322 320 322 321 320 321 323 326
345 352 353 351 352 351 349 349 349 350 352 356 358 357 357 357 357 358 357 358 360 360 359 358 356 354 354 354 354 353 353 349 344 343 345 348 353 354 351 348 347 349 349 347 345 344 343 343 343 342 341 337 332 328 323 320 319 320 322 326 328 325 323
348 352 350 349 349 350 350 350 350 353 355 357 356 355 355 357 357 357 357 358 359 359 360 359 358 355 354 354 354 353 352 350 348 347 344 345 347 348 349 350 351 351 347 344 344 343 342 342 342 340 336 333 331 327 321 321 323 323 324 331 335 331 326
348 349 348 347 348 349 351 351 352 353 354 356 356 354 354 356 356 356 356 357 359 359 359 360 359 357 354 353 353 354 352 349 351 350 345 343 344 343 345 349 352 350 346 342 343 342 341 341 340 337 334 332 330 324 321 324 329 329 327 330 333 329 327
348 346 346 347 346 347 350 351 353 353 354 357 358 356 356 358 357 357 357 357 359 359 358 360 361 358 355 354 354 355 353 352 353 351 345 344 345 342 342 347 350 349 344 342 343 341 341 340 339 338 336 332 327 322 322 326 330 332 330 328 327 326 327
348 347 347 347 346 347 350 353 353 353 354 358 360 357 356 358 358 357 357 357 359 360 360 362 362 359 354 354 356 358 356 354 354 352 347 346 346 341 341 344 347 348 345 343 343 342 342 341 338 339 337 332 325 322 325 327 328 330 331 328 326 325 326
346 350 348 347 345 347 351 353 353 352 354 357 359 358 358 357 357 357 357 357 358 361 362 362 363 359 355 354 357 359 358 356 355 353 350 348 346 342 341 342 344 346 345 344 343 343 344 342 338 337 337 331 325 323 324 327 329 330 328 326 326 326 325
343 348 346 344 343 344 348 351 352 353 355 357 359 359 358 357 358 357 356 357 358 361 362 362 362 361 358 356 357 359 359 358 357 355 353 351 348 344 342 341 341 343 344 344 344 343 344 342 338 336 335 333 327 325 324 326 330 331 328 325 326 326 325
342 343 342 342 344 346 349 351 352 353 353 354 357 358 359 358 358 358 357 356 358 359 361 361 362 362 360 358 359 359 358 357 357 357 356 354 350 346 342 341 340 341 344 344 344 344 344 343 340 336 335 334 331 327 325 324 326 330 328 326 326 325 323
346 345 346 347 347 348 349 350 352 353 353 354 356 357 358 358 358 358 357 356 357 358 359 360 361 361 361 360 361 360 358 358 357 357 357 357 353 348 343 341 341 342 344 344 345 344 343 342 341 338 335 335 332 328 326 324 323 326 326 324 324 323 322
348 349 348 347 346 343 343 345 346 347 350 352 356 357 357 357 357 359 358 358 358 357 358 360 361 362 361 361 361 360 358 357 356 356 357 357 356 353 347 342 341 341 342 344 344 344 344 342 341 339 337 335 332 327 326 325 324 325 324 322 321 322 323
349 348 346 344 344 342 342 345 344 343 345 349 353 357 357 356 357 359 358 358 358 357 356 359 361 361 360 360 359 358 359 358 354 355 356 356 355 354 350 345 344 343 341 342 344 344 343 342 340 339 338 336 331 326 326 327 327 327 325 322 321 322 324
349 350 348 347 347 344 343 345 345 344 346 348 352 356 357 357 357 358 356 355 357 357 355 356 359 359 357 358 359 358 358 357 355 355 355 355 355 353 350 347 347 346 343 341 342 344 343 341 340 338 336 336 332 327 326 328 328 328 327 324 322 322 323
348 350 353 355 353 349 346 346 347 345 346 350 354 357 356 357 358 357 354 353 354 355 355 355 355 355 353 356 359 359 357 356 356 356 356 355 354 352 349 347 347 347 345 342 341 342 342 341 339 338 336 336 333 328 327 329 329 329 328 327 324 323 324
340 342 346 355 360 359 356 354 355 353 353 355 357 357 356 355 355 354 353 354 353 353 353 354 354 354 352 353 355 357 356 357 357 357 356 354 353 351 349 348 348 347 346 344 340 339 341 341 341 340 338 336 333 330 328 330 330 329 329 328 327 324 324
337 334 336 348 356 359 358 357 358 361 362 361 359 356 354 352 353 353 352 353 352 351 351 351 352 351 350 350 351 352 354 357 359 359 356 354 353 352 351 350 349 348 347 346 343 340 342 344 344 342 339 336 333 329 328 329 329 330 330 329 328 325 324
335 336 338 341 345 349 353 355 354 355 360 362 360 357 354 352 351 352 353 352 351 350 349 350 351 350 350 350 349 351 354 357 361 361 359 356 355 355 354 352 350 349 348 348 346 343 345 346 345 342 339 337 334 329 328 329 329 329 330 330 329 326 324
335 337 339 339 338 342 348 354 353 352 355 359 359 358 355 352 350 351 352 351 350 349 349 349 351 350 351 351 351 352 354 357 361 361 360 358 358 358 358 356 353 351 349 349 347 346 347 347 345 344 340 336 334 331 329 329 329 330 331 331 329 326 325
336 336 337 340 341 340 345 354 358 356 354 356 359 359 357 355 352 351 352 352 351 350 350 351 352 351 352 353 353 352 353 355 358 357 357 358 359 360 360 358 356 354 351 350 350 349 350 349 347 344 340 337 336 335 333 331 330 330 331 332 330 329 328
337 336 336 338 342 346 351 358 363 363 361 359 360 361 360 358 354 353 353 354 354 351 350 352 353 354 354 353 353 352 352 352 352 352 353 356 358 359 360 358 358 356 354 354 353 352 352 350 348 345 342 340 339 337 336 334 333 332 332 333 332 331 330
337 337 335 336 341 349 355 357 359 363 364 362 360 361 362 362 360 358 357 357 356 354 352 351 354 356 355 354 354 353 353 353 352 352 352 352 354 356 358 360 361 359 358 356 354 353 352 350 348 345 343 341 340 338 337 336 336 334 334 334 332 331 331
334 335 335 336 336 343 350 351 350 356 361 361 359 358 361 365 365 364 362 360 359 359 356 354 356 359 358 357 355 355 355 355 354 354 353 352 353 356 359 362 362 361 360 358 355 353 352 350 348 346 345 343 341 339 337 337 336 335 334 333 331 331 332
333 333 334 336 335 338 346 347 345 350 356 360 359 358 360 365 367 367 365 364 364 363 361 360 360 361 361 361 359 359 359 358 357 356 355 355 357 360 363 363 363 361 360 358 356 354 351 349 348 347 346 343 341 339 337 336 336 335 334 333 333 334 333
332 333 333 335 334 337 344 346 344 347 353 358 359 360 362 366 369 369 367 366 366 366 366 365 363 363 364 363 363 363 362 361 359 359 359 360 362 363 363 361 360 360 359 358 357 355 352 350 348 346 345 344 343 341 338 337 338 338 337 337 336 335 334
332 333 334 336 335 335 341 346 350 353 355 357 359 362 366 367 369 370 369 368 368 368 369 368 366 365 366 367 367 367 365 363 362 362 363 364 363 361 360 358 358 357 357 355 355 354 352 349 346 345 344 344 343 341 340 340 340 339 338 338 337 336 335
339 339 336 337 336 333 339 348 354 355 356 357 358 363 368 370 371 372 371 369 370 369 370 371 370 369 369 369 369 367 365 365 365 364 364 362 361 359 359 357 355 354 353 353 352 350 349 347 345 344 344 343 342 342 341 340 340 339 339 338 337 336 335
344 342 340 339 339 339 344 354 357 355 358 363 365 366 369 371 372 373 371 370 372 373 372 373 372 370 370 370 369 367 367 365 364 363 361 359 359 359 357 353 352 352 351 350 349 347 347 347 345 343 343 342 342 341 340 339 338 338 338 338 337 335 332
346 343 340 339 344 351 356 360 359 358 362 367 369 370 372 372 372 372 371 372 373 372 371 371 372 370 368 366 365 364 364 363 361 359 356 355 356 356 353 351 350 349 348 347 346 345 345 345 344 342 342 341 341 340 338 338 337 336 335 335 335 333 331
344 341 337 335 343 355 363 363 362 362 365 368 370 371 372 372 373 373 373 373 371 370 370 370 369 366 361 357 355 355 355 354 352 349 346 346 349 351 350 349 348 346 345 346 346 344 343 343 342 341 341 340 338 337 336 336 336 334 333 333 332 330 328
344 343 343 343 346 354 360 362 364 365 366 368 368 369 370 371 373 373 371 371 370 369 367 365 363 360 356 353 353 352 350 348 346 346 346 348 351 351 349 348 347 345 343 345 345 343 342 342 341 339 338 337 336 335 334 335 335 334 333 332 329 327 325
347 348 352 354 354 354 357 361 362 363 365 366 366 368 369 370 371 371 369 369 367 362 357 357 359 359 356 355 355 352 350 349 351 352 352 352 352 350 347 346 346 343 342 343 342 340 340 340 338 336 336 335 335 334 335 335 334 333 332 330 326 324 323
350 354 355 353 354 356 357 358 359 359 362 365 366 367 368 368 368 367 365 364 359 351 345 348 351 351 350 350 350 350 351 352 353 353 353 353 351 349 347 346 345 344 342 340 338 337 338 338 337 336 336 336 335 334 335 335 334 332 330 327 324 323 323
350 352 349 347 350 356 356 355 356 355 355 357 360 362 363 364 364 362 359 353 346 339 337 338 337 338 341 342 344 347 351 353 353 352 352 352 351 349 347 345 344 343 341 337 336 337 338 338 338 337 336 335 334 333 334 335 333 332 329 327 325 325 325
347 349 350 350 352 355 356 355 355 355 356 357 360 362 363 362 361 359 353 343 335 333 334 336 339 342 344 345 346 347 350 353 352 352 352 352 350 348 346 345 343 342 339 336 335 336 337 338 338 336 334 334 333 332 333 334 334 333 331 329 328 327 326
344 346 348 347 344 345 349 349 350 352 354 358 360 360 359 357 357 356 349 340 335 335 335 339 343 345 346 348 348 348 350 351 350 349 350 350 348 346 345 344 342 341 339 336 335 335 337 337 336 334 333 333 333 333 333 333 334 334 332 331 329 327 326
346 347 348 346 343 345 348 348 347 349 350 352 355 357 356 354 355 355 351 344 341 340 339 340 343 345 348 351 350 348 349 348 347 347 347 346 346 346 345 343 341 339 339 337 335 335 337 336 335 335 335 334 334 333 333 334 334 333 331 330 329 327 327
345 346 348 350 350 350 352 350 348 349 350 352 354 354 354 353 353 352 350 347 345 344 342 339 342 347 350 351 350 348 347 346 346 346 344 344 345 344 343 342 340 338 338 338 336 336 336 336 336 335 335 335 335 333 333 334 333 330 329 329 329 328 328

ECMWFFLT1_850_thetae_009.txt.gz
Theta_e
346 346 347 348 349 349 349 350 351 352 353 354 354 355 355 355 356 356 356 356 357 357 357 356 354 352 352 350 346 344 343 343 343 343 343 345 347 350 351 348 345 344 343 343 345 343 342 342 340 341 342 342 342 342 342 341 337 332 329 328 329 331 326
346 346 347 348 349 349 349 349 350 352 352 353 354 355 356 356 356 356 356 356 357 357 357 357 356 354 354 353 350 347 345 345 345 344 342 344 347 349 350 347 342 343 343 342 343 343 342 342 341 342 342 342 342 343 340 334 327 325 325 325 326 329 326
346 347 347 348 349 349 349 350 350 351 352 353 354 355 356 356 356 356 356 356 357 358 357 357 357 356 355 356 353 350 347 346 346 345 343 344 347 349 349 346 342 343 343 342 344 343 342 342 343 343 343 343 343 343 339 329 321 319 322 323 324 326 324
347 348 349 349 349 349 349 350 350 351 352 352 354 355 356 356 356 355 355 355 357 357 358 358 357 357 356 356 356 353 348 347 347 346 344 345 347 348 347 346 344 344 343 343 344 343 342 342 343 343 344 345 342 342 340 330 321 318 320 321 322 322 321
347 349 350 350 350 350 350 350 350 351 352 353 354 354 355 356 355 355 355 355 356 357 358 358 357 358 357 356 357 354 350 347 348 347 345 346 347 347 347 346 344 344 342 342 344 343 342 341 342 343 345 345 342 342 341 331 320 318 320 320 320 321 320
347 347 348 350 350 350 350 350 350 351 351 352 353 353 354 355 354 354 354 355 357 358 358 358 358 358 358 357 357 356 352 349 349 347 345 346 346 346 347 345 343 342 341 341 343 343 342 342 343 344 344 344 343 343 341 331 321 318 321 320 321 322 321
346 346 346 348 349 350 351 351 350 350 350 351 352 353 353 353 354 354 354 355 357 358 358 359 358 358 358 358 357 356 353 350 349 347 345 344 343 343 345 345 343 340 339 341 343 343 342 343 344 345 345 344 344 343 338 331 323 320 321 322 321 322 322
345 345 346 347 348 349 349 350 349 349 350 351 351 352 353 354 355 355 355 356 356 358 358 358 359 358 358 358 357 356 353 351 349 347 345 343 341 340 343 344 343 340 339 341 343 344 343 344 345 345 345 345 343 341 336 332 327 322 321 322 322 322 323
343 344 346 347 347 348 349 348 347 347 349 350 350 351 353 355 356 356 357 357 357 358 358 358 359 359 358 358 357 355 354 352 350 347 346 345 341 339 340 343 343 341 340 342 343 344 344 344 344 344 344 344 343 340 337 335 331 326 323 322 323 323 323
343 343 346 347 347 349 348 348 348 349 349 350 350 351 353 355 357 358 358 358 357 357 358 358 359 359 359 359 357 356 354 352 350 347 346 347 343 338 338 340 342 342 341 341 342 344 345 344 344 343 343 344 343 341 339 337 332 328 325 323 324 324 323
344 345 346 347 348 349 349 348 350 350 350 351 352 353 354 356 357 357 357 357 357 357 358 358 359 360 359 359 358 357 355 353 349 346 346 346 344 339 338 339 341 341 341 340 341 342 344 345 344 344 344 344 344 342 340 338 333 329 326 325 325 325 323
345 346 346 347 347 347 347 348 350 351 351 352 353 354 355 356 356 356 356 356 356 357 358 358 359 360 360 359 358 357 355 353 349 346 344 344 342 340 339 339 340 340 340 339 339 340 343 345 345 344 344 344 345 343 341 338 334 330 328 327 325 326 325
346 347 346 347 347 346 346 348 349 350 351 351 352 354 355 356 356 357 356 356 356 356 357 358 359 360 360 360 358 357 356 353 348 344 343 343 342 341 340 340 340 340 340 339 339 339 341 343 344 344 344 344 345 344 342 338 335 332 330 328 326 326 326
346 347 346 347 346 346 346 346 348 349 350 351 352 354 357 358 357 357 357 357 357 357 357 357 358 360 360 360 360 358 356 352 346 343 342 341 342 343 343 342 342 342 343 343 341 339 339 340 342 344 344 345 345 345 343 340 337 334 332 330 327 326 327
348 346 347 348 347 347 348 347 349 351 351 352 352 354 357 358 357 358 357 357 357 356 357 357 357 359 360 360 360 358 355 352 347 344 343 342 342 344 346 347 347 347 347 346 343 341 341 341 342 344 345 345 345 345 344 342 339 337 335 332 328 326 327
349 348 348 350 349 348 348 348 350 352 352 353 354 355 358 358 358 358 357 357 357 357 357 357 357 359 360 361 361 359 356 353 349 347 346 344 343 345 348 351 352 351 350 348 346 345 344 344 344 345 346 346 346 346 345 343 341 339 337 333 329 327 328
348 349 349 349 350 348 346 345 345 348 350 352 354 355 357 358 358 358 358 358 357 357 356 356 357 359 360 360 360 360 358 355 352 350 348 346 346 349 352 354 354 354 352 351 349 348 347 346 346 346 346 347 348 347 346 344 343 341 339 334 331 328 328
347 348 348 347 348 344 340 338 340 344 348 349 351 353 353 355 357 357 358 358 357 357 357 356 356 358 359 359 360 360 359 357 355 353 351 349 351 353 356 356 356 356 355 353 352 350 349 349 348 347 347 348 349 348 347 345 344 342 340 336 332 331 331
347 348 349 345 343 342 338 336 340 344 346 346 347 349 350 353 357 358 358 358 357 357 356 356 357 357 358 359 359 359 359 358 357 356 354 353 354 355 357 357 357 357 356 355 353 352 351 351 351 350 349 349 350 349 348 347 345 343 340 337 335 334 334
343 347 349 344 340 341 341 341 345 347 346 345 347 347 348 350 353 355 356 357 357 357 357 357 357 357 358 358 358 359 358 358 358 357 356 356 356 357 358 358 357 357 357 356 355 353 353 353 353 353 352 352 351 350 349 348 346 343 340 339 337 335 334
336 341 346 346 344 343 344 347 350 348 343 343 347 349 349 349 350 353 355 357 357 357 357 357 357 357 357 357 357 358 358 359 358 357 357 357 358 358 358 358 358 357 357 357 355 354 354 353 353 353 353 353 351 350 349 348 347 344 341 340 338 334 332
336 336 340 346 349 350 350 352 351 347 341 341 346 349 350 351 351 353 355 356 357 357 356 357 356 356 356 356 357 357 357 358 357 357 358 358 358 359 358 358 358 358 357 356 355 355 354 353 352 353 353 353 352 350 349 348 347 344 340 339 338 334 332
333 334 335 339 346 351 354 353 350 347 345 345 346 348 350 352 353 355 356 356 357 357 356 355 354 354 355 355 355 356 356 356 355 357 358 359 359 359 358 358 359 359 358 357 356 356 355 354 354 353 352 352 352 351 350 348 346 343 340 339 337 335 334
330 331 331 331 334 339 345 347 345 344 346 348 348 348 349 352 354 356 356 356 356 356 355 354 354 353 353 354 354 354 354 354 355 357 359 359 359 359 359 360 360 360 359 358 357 357 356 356 355 354 353 352 352 352 350 348 345 342 340 339 338 336 334
332 332 330 329 331 332 333 338 339 340 341 345 348 350 350 352 354 356 356 356 355 355 354 353 353 352 351 351 352 353 353 354 355 357 358 358 359 359 360 361 362 361 360 359 359 359 358 357 356 355 354 352 352 351 348 346 344 342 341 340 338 336 334
335 336 334 330 330 331 333 336 337 339 340 341 342 346 349 351 355 357 356 355 354 354 353 353 352 352 351 350 350 352 352 353 355 356 357 358 359 360 361 362 361 360 360 360 360 360 359 359 358 355 353 352 351 348 346 345 343 342 341 340 338 336 335
341 340 340 338 336 334 334 339 342 341 342 343 344 347 351 354 358 358 357 355 355 353 352 352 351 351 350 350 351 353 353 353 356 357 357 357 359 360 361 360 358 358 360 360 361 360 360 360 357 353 351 351 349 346 345 344 342 341 340 339 337 337 336
343 341 340 342 345 344 340 341 347 349 346 342 338 341 348 353 357 359 358 357 355 354 353 352 352 352 351 352 353 355 355 356 357 358 357 358 359 359 358 357 358 358 360 361 361 361 361 359 355 352 351 349 347 345 343 342 341 341 340 339 339 338 337
345 344 342 340 345 355 358 356 357 359 359 355 351 351 355 358 357 357 358 359 357 355 355 355 354 353 353 356 359 358 359 360 359 358 358 358 358 357 357 358 359 360 361 361 361 361 360 358 355 352 350 347 345 343 342 342 341 340 339 339 339 338 337
345 344 343 340 339 350 361 364 365 364 362 361 362 363 363 364 366 365 361 359 359 359 358 358 358 360 361 362 363 362 362 363 361 359 358 358 357 357 358 359 361 361 360 358 357 357 355 354 353 351 347 345 343 342 342 342 340 338 337 337 338 338 338
348 345 346 344 339 340 345 352 359 363 364 363 363 362 360 362 365 366 366 365 365 365 366 367 367 367 367 367 366 365 364 363 361 360 360 359 359 360 361 362 361 360 357 354 353 352 351 350 350 348 345 343 343 342 342 341 339 337 335 334 335 336 336
349 348 348 347 345 342 341 341 343 349 359 363 363 363 363 362 363 363 363 368 371 370 371 372 370 367 366 366 366 365 364 363 362 361 361 361 361 362 362 361 359 355 353 352 351 350 348 348 347 346 344 343 343 342 341 339 336 335 334 333 333 333 333
350 350 349 349 349 348 348 348 345 344 350 356 358 361 362 362 364 364 361 363 368 370 371 370 365 362 361 361 360 359 360 360 360 360 361 361 362 361 360 359 356 352 351 350 349 348 346 345 344 344 343 343 342 341 339 336 334 334 334 333 332 331 330
347 350 351 350 350 349 349 351 351 351 352 354 357 360 360 361 364 362 358 357 358 362 366 366 363 363 361 358 356 356 357 358 358 359 361 360 359 358 357 355 353 351 349 348 346 345 344 343 343 342 341 340 339 338 335 334 334 334 333 332 331 329 327
344 347 350 351 351 350 350 349 350 352 352 353 357 359 358 358 360 359 356 353 350 351 354 355 356 358 357 355 355 356 357 359 360 359 358 355 354 354 354 352 351 349 346 345 345 344 343 342 341 339 337 338 337 335 335 334 334 333 332 331 329 327 325
343 342 346 349 351 352 351 350 351 352 352 353 356 357 355 354 354 352 350 346 342 341 343 343 346 351 353 354 355 356 357 358 358 356 353 350 350 351 350 349 348 346 344 342 342 341 340 339 335 332 332 335 335 335 335 334 332 333 333 331 328 326 325
345 345 346 347 349 351 352 352 353 353 354 355 355 355 354 352 349 348 345 340 336 336 337 341 349 355 356 355 354 353 352 352 351 351 350 349 349 349 347 346 346 344 342 340 338 337 335 334 332 331 332 333 333 334 334 333 332 333 333 332 330 328 327
344 347 348 348 349 350 350 352 354 352 353 354 354 355 354 348 344 345 343 338 340 343 343 348 356 358 355 354 354 352 350 348 348 349 350 349 349 348 346 345 344 343 341 338 336 335 334 333 334 334 334 334 334 333 332 333 333 333 333 332 331 328 326

ECMWFFLT1_850_thetae_012.txt.gz
Theta_e
341 343 344 346 348 348 349 349 349 349 350 350 350 350 351 351 351 352 352 352 352 352 353 353 352 351 351 349 347 346 345 343 339 337 338 339 340 343 345 345 345 346 346 345 343 340 341 345 345 345 345 346 344 341 339 339 339 339 337 337 335 332 329
343 343 343 345 347 348 349 349 349 350 350 350 350 351 351 351 352 352 352 352 352 352 352 352 352 351 351 350 348 347 345 341 339 337 337 338 339 341 344 345 344 345 345 344 341 340 341 344 345 344 344 345 343 340 339 339 339 339 338 337 335 332 330
343 344 344 344 346 347 348 349 349 349 350 351 351 351 351 351 351 352 352 352 352 352 352 352 352 352 352 351 349 347 344 340 339 339 337 337 338 340 343 346 345 345 345 344 342 341 342 344 345 344 343 343 342 340 339 338 339 339 339 338 335 331 329
342 344 345 344 345 345 347 349 348 350 350 350 351 351 351 352 352 352 352 352 352 352 352 352 352 353 352 352 351 348 343 339 338 340 339 338 338 340 342 345 345 345 346 345 343 343 343 343 345 344 342 343 341 339 339 339 340 340 339 337 335 330 327
343 344 345 345 346 345 346 348 348 349 350 350 351 351 351 352 353 353 353 353 353 352 352 352 352 353 353 353 352 348 344 338 337 341 342 341 339 340 342 344 344 344 346 346 345 344 343 342 344 343 342 341 341 339 339 340 341 340 337 332 329 327 324
343 344 345 345 346 346 346 347 347 348 349 350 351 351 352 353 353 354 354 353 354 353 353 353 353 354 354 354 352 350 347 342 338 340 344 343 341 341 342 343 344 344 345 346 345 344 344 342 343 343 341 341 341 340 340 341 342 339 333 325 322 322 321
343 344 345 345 347 347 346 347 347 347 348 349 351 351 353 353 353 354 354 354 354 354 354 354 354 354 354 354 353 352 351 347 341 340 343 345 343 342 343 343 343 343 345 346 345 343 343 343 343 342 341 341 342 341 341 341 342 339 334 325 319 319 320
343 344 344 344 345 346 347 347 347 347 348 350 351 352 353 353 354 354 354 355 355 355 355 355 355 355 354 354 353 353 352 350 346 342 343 345 345 344 345 344 343 343 345 346 345 343 343 343 343 343 342 342 342 342 342 342 342 341 338 328 319 318 320
343 344 345 345 345 346 347 347 347 348 348 350 350 351 352 353 354 354 354 355 355 355 355 355 355 355 354 353 353 353 353 352 350 346 344 345 346 346 346 345 344 344 345 347 345 343 342 343 343 343 343 343 342 342 342 343 342 342 341 331 320 319 321
343 343 344 346 345 346 347 346 348 348 349 350 350 351 352 353 353 354 354 355 355 355 356 356 356 355 354 354 353 354 354 354 353 350 347 346 345 346 347 347 346 345 345 346 346 343 342 343 343 343 344 344 343 342 343 343 343 342 342 334 323 319 321
342 343 344 345 345 346 347 347 348 348 349 350 350 351 352 353 354 354 354 355 355 356 356 356 356 356 355 355 354 355 356 355 354 352 350 348 344 344 347 348 347 345 345 346 345 343 343 344 344 343 343 344 343 343 343 344 343 343 343 337 327 321 322
342 343 343 344 345 345 347 347 348 349 349 350 350 351 352 352 353 353 354 355 355 356 357 356 356 356 356 355 355 356 356 356 354 353 352 349 346 343 346 349 348 346 345 345 343 342 343 344 344 342 342 343 344 344 344 344 344 344 343 339 331 324 323
343 343 342 344 344 345 346 348 348 349 349 350 351 352 352 352 353 354 354 355 355 356 356 356 356 356 356 357 357 357 357 356 355 353 352 350 347 344 345 348 349 348 346 344 343 342 343 343 344 342 341 343 345 346 345 345 345 344 343 341 335 329 325
342 342 342 344 344 344 347 347 348 349 349 350 351 351 352 352 352 353 354 354 355 355 356 356 356 357 357 357 357 357 357 356 354 353 351 350 349 347 346 347 349 349 347 345 343 341 341 342 343 343 344 345 346 346 346 346 345 345 344 342 339 334 328
341 342 342 344 343 345 346 346 348 349 349 350 350 351 352 352 352 353 353 353 354 354 355 356 356 357 357 358 358 357 357 356 355 354 352 352 351 349 348 348 350 351 349 347 344 342 342 344 344 345 346 346 347 347 347 347 346 345 344 343 341 337 331
339 341 342 343 344 344 345 346 347 348 348 349 349 350 351 351 352 352 353 353 354 354 354 355 356 357 357 358 358 357 357 357 356 355 354 352 352 350 349 350 352 353 351 349 347 345 345 347 347 348 347 347 347 348 348 348 346 345 345 344 343 340 335
341 342 343 342 344 345 346 346 347 347 348 349 348 349 349 349 349 350 352 354 354 354 355 355 356 357 357 358 357 357 358 357 356 356 355 353 352 352 352 353 354 354 353 352 350 349 348 348 349 348 348 348 348 348 348 348 347 346 346 345 344 342 337
343 342 343 344 344 345 346 346 347 348 348 348 348 348 348 348 349 349 351 352 353 354 355 356 357 358 358 358 357 357 357 357 356 356 356 355 354 353 354 355 356 356 355 354 353 350 349 350 349 349 348 348 348 348 348 348 347 347 346 346 345 343 339
345 342 343 345 344 345 346 346 347 348 348 348 348 348 348 348 348 349 350 351 352 354 355 357 357 358 358 358 358 358 357 356 357 357 356 356 355 355 355 356 357 356 356 355 354 351 350 351 350 350 349 348 347 347 348 348 347 347 347 347 346 343 341
342 342 342 344 343 344 346 346 346 347 347 347 347 345 346 346 347 347 348 350 353 355 356 357 357 357 357 357 357 357 356 356 357 356 356 356 356 357 357 357 357 357 356 355 354 353 352 352 351 350 349 349 348 347 348 348 347 347 347 347 347 344 342
345 345 344 343 344 344 345 346 347 346 346 346 345 344 345 346 347 347 349 351 354 355 356 356 356 356 357 357 357 358 357 357 357 356 357 357 357 358 358 357 357 357 356 355 354 354 353 352 352 351 350 350 350 349 349 348 347 348 348 349 348 345 342
344 345 345 344 342 341 344 345 345 345 345 343 343 344 345 346 346 348 350 353 354 355 356 356 356 356 356 356 357 357 357 357 356 357 358 358 358 358 358 357 357 356 356 355 355 355 354 353 353 353 352 352 351 350 350 349 349 349 350 350 349 346 343
337 340 344 346 345 342 339 340 343 344 344 342 344 344 343 344 346 347 350 353 354 356 356 356 357 357 357 357 357 357 357 357 356 357 358 358 358 358 358 358 357 356 355 355 355 355 355 354 354 354 354 353 352 352 351 350 351 351 351 351 349 347 343
337 336 338 341 346 347 343 341 343 343 341 341 342 343 341 342 346 348 351 353 355 356 356 356 357 356 356 356 356 356 357 357 356 357 358 358 358 358 358 358 357 355 355 355 355 355 354 354 355 355 355 354 354 353 352 352 352 352 353 352 350 348 344
341 341 338 336 340 345 345 346 345 344 345 342 340 340 341 345 349 352 353 354 355 356 357 357 356 356 356 356 356 356 357 357 357 357 357 358 358 358 358 357 356 356 355 355 355 355 355 355 356 356 356 355 355 354 353 353 354 353 353 352 350 347 344
340 341 343 341 338 338 340 343 344 344 344 342 338 338 340 344 350 353 353 353 354 355 356 355 354 354 354 354 355 356 356 357 357 357 357 358 357 358 358 357 356 356 356 356 356 356 357 357 357 357 357 356 355 355 354 354 354 353 351 349 347 345 342
340 340 343 347 348 344 338 336 339 343 345 345 344 344 345 345 347 348 348 349 351 352 352 351 351 351 351 353 355 356 356 356 357 357 357 357 358 358 358 357 357 357 356 356 356 357 357 358 357 357 357 356 355 355 355 354 353 351 349 347 345 344 342
339 338 339 343 349 351 349 342 337 341 350 354 353 353 355 355 353 350 350 350 351 351 350 350 351 351 351 353 355 356 356 356 356 357 357 357 358 359 359 358 357 357 356 356 356 357 358 358 358 358 357 356 356 356 355 354 351 349 347 345 344 343 341
340 339 339 339 343 351 358 359 350 345 350 355 357 359 360 361 360 357 354 353 353 353 354 354 355 355 355 355 356 356 356 356 356 357 358 358 358 359 359 359 358 358 358 358 358 358 358 358 358 358 357 356 356 356 354 351 348 346 344 342 341 341 340
339 338 338 339 340 343 351 359 359 357 356 357 359 360 360 362 364 362 360 358 356 355 355 355 355 356 356 356 356 356 356 355 356 356 357 358 359 360 360 360 360 360 360 360 360 359 359 359 357 357 357 357 356 354 351 348 345 343 341 340 339 339 338
343 341 339 339 340 339 341 346 351 357 359 360 361 362 362 362 363 363 363 362 359 357 356 355 355 355 355 355 355 355 355 355 354 355 356 357 358 361 361 360 361 361 360 360 360 360 359 360 358 356 357 357 355 352 348 345 343 342 340 339 339 339 338
347 347 347 345 344 343 342 342 343 346 349 352 355 358 362 363 362 363 365 366 364 363 360 356 355 354 354 353 354 353 353 354 354 354 356 357 359 361 361 361 361 361 361 360 360 360 360 359 355 353 355 356 353 350 347 344 342 341 339 338 339 339 338
347 348 349 349 349 348 346 346 346 345 345 346 345 346 350 352 351 349 352 357 358 358 359 359 358 357 356 354 353 353 353 354 354 355 356 358 361 362 362 362 362 362 360 359 358 359 359 355 351 352 355 353 350 347 345 343 342 340 338 336 336 338 338
346 348 349 349 349 349 348 348 347 347 348 348 347 345 344 343 341 338 339 346 350 352 358 362 363 362 360 358 355 353 353 354 355 357 359 361 362 362 362 362 361 360 358 355 354 355 354 351 350 352 353 351 348 345 343 342 341 340 337 335 333 334 336
345 347 349 350 350 349 349 348 347 347 348 349 349 349 348 346 345 345 346 353 358 360 361 362 363 364 362 360 360 359 358 358 358 358 361 362 363 363 362 359 356 355 355 354 352 352 354 353 353 353 352 349 347 345 343 342 341 337 335 333 332 332 333
346 346 348 349 350 350 350 349 349 349 349 351 352 352 352 351 350 350 350 351 353 355 356 358 361 362 361 362 362 358 356 358 360 361 362 363 362 361 357 354 353 354 354 355 354 354 354 353 352 351 348 347 346 345 343 342 339 334 332 332 331 330 330
346 347 348 349 350 351 351 351 351 351 352 352 353 353 354 354 354 353 354 354 354 354 354 355 358 362 363 362 359 353 350 352 357 360 359 358 357 356 354 354 355 354 353 354 353 352 350 349 347 346 345 344 344 343 341 339 335 332 331 331 329 328 328
346 347 348 348 350 351 351 351 351 351 352 351 349 348 350 352 354 354 353 355 356 357 358 359 360 361 359 356 352 350 351 354 356 355 353 351 352 353 353 354 353 351 351 351 350 348 347 345 344 343 342 342 341 339 337 335 333 332 332 331 329 327 326

ECMWFFLT1_850_thetae_015.txt.gz
Theta_e
341 343 344 346 347 347 347 347 347 348 348 348 347 347 348 348 349 350 350 351 351 351 351 351 351 351 351 351 350 350 350 349 348 347 347 347 345 344 345 345 345 343 343 343 344 344 344 344 346 346 347 347 346 345 344 343 342 341 338 336 336 337 335
340 342 344 345 346 347 347 347 347 347 347 347 347 347 348 348 348 349 349 350 351 351 351 351 351 351 350 350 350 351 350 350 349 348 347 347 345 344 344 344 345 344 343 343 343 344 344 344 345 346 346 346 345 344 344 344 343 341 338 337 337 337 336
338 340 342 344 346 346 346 347 347 347 347 347 347 348 348 348 347 348 349 350 350 350 351 351 351 351 350 350 350 351 350 349 349 349 348 347 345 344 343 343 344 345 345 344 343 343 344 344 346 345 344 345 345 344 344 344 342 340 338 338 338 338 336
338 339 341 342 345 345 346 347 347 347 347 347 347 347 347 347 347 348 348 349 349 349 350 350 350 350 349 350 350 350 350 349 349 349 348 347 345 344 343 343 343 344 345 346 344 343 344 345 346 345 344 344 345 344 344 344 342 340 338 338 338 338 337
339 339 339 340 343 345 346 346 346 347 347 347 347 347 347 347 347 349 349 348 348 348 348 349 349 349 349 349 350 350 350 349 349 349 348 347 346 344 343 342 341 343 344 346 345 344 345 345 344 344 343 343 345 345 344 343 341 339 338 338 338 337 336
340 340 340 339 341 343 344 346 346 346 346 346 347 347 347 348 348 349 349 349 349 348 348 349 349 349 349 349 350 350 350 350 349 349 348 348 347 345 343 340 339 340 342 344 346 345 345 345 344 343 341 342 344 345 344 342 340 339 338 338 338 336 334
340 341 341 340 340 342 343 345 345 345 346 346 347 347 348 349 349 349 349 349 349 349 350 350 349 349 349 350 350 350 351 350 349 349 349 348 348 346 343 340 337 337 339 342 344 345 345 345 344 342 341 341 343 345 344 342 339 338 337 338 338 336 334
341 341 341 341 341 341 342 343 344 345 346 347 347 348 348 348 349 349 350 350 350 350 350 349 349 349 350 350 351 350 350 350 350 349 349 349 349 347 343 339 336 336 338 339 342 345 345 345 345 343 342 342 342 344 344 342 339 337 337 338 338 337 334
341 341 341 342 342 342 342 342 343 344 346 347 347 348 348 349 349 349 350 350 350 350 350 350 349 350 350 351 351 351 351 351 350 350 350 350 350 346 340 337 336 336 337 338 340 343 345 345 345 344 344 343 343 344 344 342 340 337 337 338 338 337 335
341 340 341 342 342 343 342 342 343 344 345 347 347 348 348 348 349 349 350 350 351 350 350 350 350 350 351 351 351 352 351 351 351 351 351 351 349 345 339 336 336 336 337 338 339 342 344 345 345 345 345 345 344 344 343 342 341 338 338 338 338 338 337
341 340 341 341 341 343 343 343 343 344 345 346 347 348 348 349 349 350 350 351 350 350 350 350 351 351 352 352 352 352 352 352 352 352 352 351 350 347 341 338 337 337 337 338 340 342 344 345 345 345 346 345 345 344 343 343 341 340 339 338 339 339 339
340 341 341 341 342 342 343 343 343 344 345 345 346 348 348 349 350 350 351 351 350 351 351 351 352 352 352 352 353 352 352 352 352 352 352 352 351 349 346 342 338 337 338 340 341 342 344 345 344 344 345 346 345 344 343 343 342 341 340 339 340 340 341
338 340 340 341 342 342 342 343 344 344 344 345 345 347 348 349 350 350 351 351 351 351 351 351 352 353 353 353 353 353 352 352 352 353 352 352 351 351 350 347 342 338 338 341 343 344 345 345 344 343 344 346 346 345 344 345 344 342 342 341 341 341 341
336 338 339 341 341 342 343 342 343 345 345 345 346 346 348 349 350 350 351 351 351 352 352 352 353 353 353 353 353 353 353 353 353 353 353 352 352 352 351 350 347 342 339 340 343 345 346 346 345 344 344 345 346 346 345 346 345 344 343 342 342 342 342
335 336 338 340 340 341 343 342 343 344 344 346 346 346 347 349 350 351 351 351 352 352 352 352 353 353 353 354 354 354 353 354 353 354 353 353 353 352 352 352 350 346 343 340 341 343 346 346 346 345 345 345 346 347 347 347 346 345 344 344 344 343 343
334 335 336 339 340 341 342 342 343 344 344 345 346 346 347 348 349 351 351 351 352 351 352 353 353 354 354 354 354 353 354 355 354 354 354 354 353 353 353 353 352 350 347 343 341 341 343 346 347 347 346 345 346 347 347 347 346 345 344 345 345 344 344
335 336 336 337 339 340 342 342 343 344 345 345 346 346 347 347 348 349 350 351 351 351 352 353 354 354 354 353 353 354 355 355 355 355 354 354 354 354 354 355 354 353 351 348 344 340 340 343 347 348 347 346 346 347 347 346 345 345 345 345 346 346 346
338 337 336 338 339 340 341 341 342 344 345 345 346 347 347 348 348 349 350 351 350 351 352 353 354 354 353 353 353 355 356 356 356 356 355 354 354 355 355 356 355 354 353 351 348 343 340 341 343 346 347 347 347 347 346 344 343 345 346 346 347 348 347
341 338 337 337 339 340 341 342 341 343 344 345 346 347 347 348 348 348 349 350 350 351 352 353 354 353 353 353 354 355 356 356 357 356 355 355 355 356 356 357 356 355 354 353 351 347 343 339 339 342 345 348 348 346 344 342 342 344 346 346 347 348 348
342 340 338 337 339 340 340 341 342 342 343 344 344 346 346 348 348 348 348 349 350 352 352 353 353 353 353 354 354 355 356 357 357 356 356 355 356 357 357 357 356 356 355 354 353 351 346 341 339 340 342 345 346 345 344 342 342 343 345 347 348 349 348
344 343 341 339 339 340 340 342 342 342 343 344 344 345 347 348 348 348 348 350 351 351 351 352 351 352 352 353 354 355 356 356 356 356 356 357 357 357 357 357 357 356 356 356 355 352 348 343 341 340 340 342 344 345 345 343 342 343 345 347 349 349 348
342 343 343 343 341 340 341 341 341 342 343 343 344 345 346 348 348 348 349 350 350 351 351 351 351 352 352 353 354 355 355 355 356 355 356 357 358 358 357 357 357 356 356 356 355 354 351 347 345 343 341 340 341 344 344 342 342 344 345 348 350 350 348
339 340 341 342 343 343 343 342 342 343 343 343 344 345 346 347 347 348 349 350 350 351 351 351 352 352 352 353 353 353 354 355 355 355 356 357 358 358 358 357 357 357 357 357 356 355 353 350 348 346 342 340 340 342 342 341 342 344 346 349 351 350 349
343 341 339 338 341 343 344 344 344 343 344 345 345 345 345 346 347 348 348 349 350 350 351 352 352 351 350 351 351 351 352 354 355 355 356 357 358 358 358 358 357 357 357 357 356 355 353 352 351 348 344 340 339 340 341 341 342 344 348 350 351 350 349
344 344 342 340 340 340 342 345 345 345 345 345 345 346 346 346 346 347 348 348 349 349 350 350 350 349 350 349 350 350 351 353 355 355 355 356 357 357 358 357 357 358 357 357 357 355 354 354 353 351 346 343 341 341 342 344 344 346 350 352 352 351 349
341 341 342 342 341 340 340 342 345 346 347 346 345 346 347 347 348 347 347 348 348 349 349 348 348 348 349 348 349 351 353 354 355 355 355 356 356 356 357 357 357 358 357 357 357 356 355 355 354 352 350 348 346 345 346 347 348 349 352 353 353 351 350
341 340 341 340 341 343 341 340 341 343 345 346 346 347 347 348 349 349 348 349 348 348 347 345 346 347 347 348 350 351 352 353 354 355 355 355 355 356 357 357 358 358 358 357 357 357 356 356 355 355 354 352 351 350 350 350 350 352 354 354 353 352 350
339 339 341 339 340 341 342 342 342 341 341 342 345 346 347 348 349 349 350 351 349 347 345 346 347 347 347 349 351 352 354 354 354 355 356 356 357 357 357 358 358 358 358 357 357 357 357 356 356 355 355 354 353 352 352 353 353 354 355 354 353 353 351
335 336 337 338 340 339 338 341 342 342 342 343 345 348 348 348 348 348 350 351 350 349 350 350 351 350 351 352 353 353 354 354 355 356 356 357 358 357 358 358 358 358 358 358 358 358 357 357 356 356 355 354 354 354 354 355 355 355 354 354 353 353 351
334 334 334 334 338 338 338 340 342 342 342 341 343 348 350 351 351 349 348 349 349 350 352 353 353 353 353 354 354 354 355 355 355 356 356 357 358 358 358 358 358 358 358 358 358 358 357 357 356 356 356 355 355 355 355 355 355 354 353 352 351 350 348
334 335 334 335 337 339 340 342 343 345 345 343 342 344 348 353 355 354 353 351 349 350 352 352 353 354 355 355 355 355 355 355 355 356 356 357 358 358 358 358 358 359 358 358 358 358 357 357 357 356 356 356 356 357 356 355 355 354 352 349 347 346 344
337 336 337 338 339 342 343 343 344 346 348 350 350 350 351 355 357 358 358 357 356 355 354 353 353 353 353 355 355 355 356 356 356 355 356 356 357 357 358 358 358 358 359 358 358 358 358 357 357 357 357 356 356 357 356 356 355 354 350 347 345 343 341
340 340 339 338 340 342 344 345 346 346 347 348 351 353 356 359 361 361 361 361 361 360 359 358 357 355 354 354 354 354 356 355 355 356 356 355 356 356 357 357 358 359 359 359 358 358 358 357 357 357 357 356 355 355 356 356 354 350 347 345 344 342 340
345 344 342 342 342 342 342 343 344 345 346 346 346 347 349 353 357 360 361 362 362 362 362 361 360 359 358 357 355 355 354 354 355 356 355 355 355 355 356 357 358 358 359 358 358 358 358 358 358 357 357 356 354 354 356 355 351 347 344 344 343 341 339
346 346 345 345 344 344 345 345 344 344 344 345 346 347 346 347 348 350 352 356 359 362 363 363 363 362 361 361 360 358 356 355 355 355 353 353 352 353 355 356 356 358 359 358 359 358 358 357 357 357 356 354 353 355 356 352 347 344 343 343 342 340 338
345 346 346 346 346 347 348 347 347 347 347 346 347 347 347 348 347 346 345 347 351 355 359 361 362 362 362 361 359 358 356 354 353 352 352 352 352 353 354 355 357 358 358 358 359 358 357 358 358 356 354 353 355 356 352 347 343 343 343 343 342 339 338
346 346 347 347 347 348 349 349 349 348 348 348 348 348 349 349 350 350 350 350 350 352 355 357 359 358 358 358 356 354 353 352 352 350 350 351 352 353 354 355 357 358 358 358 358 357 357 358 357 355 353 354 354 352 348 345 343 343 343 342 340 336 335
347 347 347 348 349 349 350 350 349 348 348 349 348 347 347 348 350 351 352 353 353 354 355 357 359 358 358 357 357 356 355 354 354 354 352 352 354 355 355 356 357 357 357 356 355 356 358 358 356 354 353 351 348 347 346 345 343 341 340 338 335 332 331

ECMWFFLT1_850_thetae_018.txt.gz
Theta_e
342 345 345 346 347 347 347 347 346 346 346 345 345 345 345 346 347 347 346 345 344 343 344 346 347 347 348 348 348 348 348 348 348 348 347 346 344 344 344 344 344 343 343 343 342 342 342 342 345 347 347 347 346 347 348 348 346 344 343 342 340 339 336
340 343 344 345 346 346 346 347 346 347 346 346 345 344 345 345 345 346 346 345 344 342 344 345 346 347 347 348 348 348 349 349 348 348 348 347 346 344 344 344 344 344 343 343 343 343 342 342 344 347 347 347 346 346 347 347 346 344 343 342 340 338 336
339 341 342 344 345 345 346 346 346 347 346 346 346 345 345 344 343 345 344 345 345 343 344 345 346 347 347 348 348 348 349 349 350 349 349 348 347 346 346 345 345 344 344 344 343 343 342 341 343 346 347 347 346 346 345 346 345 343 343 342 339 337 336
338 339 340 342 344 344 345 346 345 346 346 346 346 345 344 343 342 344 344 344 344 343 343 344 345 346 347 348 348 348 348 349 349 350 349 349 348 348 348 347 345 345 344 343 343 343 343 342 342 345 347 347 347 346 345 344 343 342 343 342 339 337 336
337 338 339 339 342 343 344 345 345 346 346 345 346 345 344 343 343 344 344 344 344 343 341 342 344 346 347 348 348 347 347 348 349 349 349 349 349 349 349 347 346 345 344 343 342 343 342 342 342 343 346 347 347 346 344 344 343 342 343 342 339 337 337
338 337 338 338 340 342 342 344 345 345 346 345 346 346 345 345 345 345 345 345 345 344 343 345 346 347 348 348 348 348 348 348 348 349 349 350 350 349 349 348 346 345 344 343 342 342 342 343 343 342 344 345 347 347 345 344 343 343 342 342 340 337 337
339 338 338 338 338 340 341 342 344 344 345 345 345 345 346 346 346 346 345 346 345 345 345 346 346 347 348 348 349 349 348 348 348 348 349 349 350 349 349 348 346 346 345 343 342 341 341 342 342 342 342 344 345 346 346 343 343 343 342 341 340 337 337
339 339 339 339 338 339 340 341 342 343 344 345 345 346 346 346 346 346 346 346 346 346 345 344 344 345 347 348 349 349 348 349 349 348 348 349 349 349 349 348 347 347 346 344 341 340 340 340 340 340 341 343 344 346 346 344 342 342 342 341 340 338 337
338 339 339 340 339 338 339 340 341 343 344 345 345 345 346 346 346 346 346 347 346 347 345 344 344 344 346 348 348 349 349 349 349 348 349 349 349 349 349 349 348 348 347 345 342 340 339 339 339 338 340 342 344 345 345 344 341 341 342 341 340 339 336
338 338 338 340 339 339 339 339 340 342 343 345 345 345 346 346 346 346 346 347 347 347 345 344 344 345 346 347 348 349 349 349 349 349 349 350 349 349 349 349 349 348 348 347 345 342 338 337 338 337 338 340 343 345 345 344 341 340 341 342 341 340 337
337 337 337 339 339 339 339 339 340 341 342 344 344 345 346 345 346 346 346 347 347 346 346 345 346 346 347 347 348 349 349 349 349 349 350 350 350 350 349 349 349 349 349 348 347 345 340 337 336 336 337 338 341 343 345 345 343 340 339 341 342 341 338
334 336 336 338 338 339 339 339 340 340 340 342 343 345 345 345 346 346 346 347 346 346 346 346 346 347 347 348 349 349 348 349 349 349 349 349 350 350 349 349 349 349 349 349 348 346 342 338 336 335 337 338 340 342 343 344 344 341 339 340 341 341 339
333 335 335 337 338 338 339 340 340 340 340 341 342 344 344 345 345 346 346 346 346 347 347 347 347 347 348 348 349 349 349 348 348 349 349 350 350 350 349 350 350 350 349 349 348 346 341 337 335 335 336 338 339 341 342 343 344 343 341 340 340 341 341
332 334 334 336 338 338 339 339 340 341 340 340 341 342 344 345 345 345 345 346 346 347 347 347 347 348 348 348 349 349 349 348 348 349 349 349 349 350 350 350 350 350 350 350 348 345 340 336 335 336 336 338 340 340 341 342 343 344 344 343 342 342 341
331 331 331 333 335 337 339 339 340 341 340 341 341 341 343 344 345 345 346 346 346 347 347 347 347 348 348 348 348 349 349 349 349 349 350 350 350 350 351 350 350 351 350 350 349 345 339 336 335 336 337 338 339 340 341 342 342 343 344 344 344 343 342
328 329 330 330 331 334 336 338 339 340 340 342 341 341 342 343 344 345 345 346 346 346 347 347 348 348 348 348 348 349 349 350 350 350 350 350 351 351 351 351 351 351 351 350 349 346 342 339 337 337 338 339 340 341 341 342 342 342 343 344 345 344 343
329 330 331 330 330 332 333 336 338 339 340 341 341 342 342 342 343 344 345 346 346 346 347 347 348 348 348 348 348 349 350 350 350 351 350 350 351 351 351 351 351 351 351 351 350 348 346 343 339 337 338 340 341 342 343 343 342 342 342 344 345 345 344
330 330 329 330 331 333 333 334 337 339 340 340 341 342 342 343 343 343 344 345 345 346 347 347 348 348 348 349 350 350 350 351 351 351 351 351 350 351 351 351 351 352 351 351 350 350 349 346 341 338 338 340 342 343 344 343 343 343 342 343 344 345 345
329 328 327 330 333 336 336 335 335 337 338 339 341 341 342 342 343 343 344 344 344 346 347 347 348 348 349 350 350 350 350 351 351 351 351 351 351 351 352 351 352 352 351 351 351 351 351 348 344 341 339 339 340 343 344 344 343 344 344 344 345 345 345
330 329 329 332 337 340 340 338 336 336 337 339 340 340 342 343 342 343 343 344 345 346 347 347 348 348 349 350 350 351 351 351 352 352 351 352 351 352 352 351 352 352 352 352 351 351 351 350 348 346 343 340 339 340 341 342 343 344 345 346 346 346 346
333 335 335 337 340 340 340 340 338 336 337 338 339 341 342 343 343 344 344 345 345 346 347 348 348 348 349 350 351 351 352 352 352 352 352 352 352 353 352 352 352 352 352 352 351 351 352 352 351 349 346 343 342 341 340 340 341 344 346 347 347 347 348
336 337 338 339 340 340 340 341 340 339 338 338 339 341 342 343 343 344 345 345 346 346 347 348 348 349 349 350 351 352 352 353 353 353 353 353 353 353 353 353 353 352 353 352 351 352 352 352 352 351 350 348 347 346 342 340 343 346 348 349 349 349 349
339 339 340 340 340 341 340 340 340 341 340 339 339 340 341 342 343 344 345 345 346 347 348 348 348 349 349 350 351 351 351 352 353 353 353 353 354 354 353 353 353 353 353 353 352 352 352 352 353 353 352 351 350 349 346 345 347 348 349 350 350 350 350
344 343 343 341 340 341 340 341 341 341 341 341 340 340 341 342 343 344 345 346 346 347 348 348 348 349 350 350 349 350 351 352 353 354 354 354 354 354 354 354 354 353 353 353 352 352 352 353 353 354 354 354 353 351 349 349 350 350 350 350 351 351 351
349 350 348 344 342 340 339 340 341 342 343 343 342 341 341 342 343 344 345 346 347 347 348 348 348 348 349 348 349 350 351 352 353 354 354 354 353 353 353 353 354 354 354 354 353 353 354 354 354 354 355 355 354 353 353 352 352 351 351 351 351 351 351
347 349 350 349 346 343 340 339 339 342 344 345 345 344 343 343 343 345 345 346 346 347 347 347 347 347 348 348 349 351 351 352 353 353 353 353 352 353 353 353 354 355 355 354 355 355 355 356 355 355 355 355 355 355 354 354 353 352 352 352 351 351 351
342 343 344 346 346 345 344 342 341 342 344 346 346 346 345 345 344 345 346 347 347 347 346 346 346 347 348 349 350 351 351 352 352 352 352 353 353 354 355 355 355 356 356 356 355 356 356 356 356 356 356 356 356 356 355 355 354 353 353 352 351 351 351
339 340 340 341 342 344 347 347 345 344 344 344 346 346 346 346 345 345 346 346 347 347 346 347 349 349 350 351 351 351 351 351 351 352 352 354 355 355 355 356 356 356 356 356 356 356 356 357 357 357 357 357 356 356 356 355 355 354 353 353 352 352 352
335 335 336 337 338 340 345 348 350 351 349 347 346 346 347 347 347 347 347 347 347 347 347 348 349 349 350 351 352 352 352 352 351 352 353 354 355 355 355 356 357 357 357 357 356 357 357 357 357 357 357 357 357 356 356 356 355 355 354 353 353 352 352
332 332 333 333 335 338 340 343 348 353 355 355 353 350 349 349 349 348 348 348 348 348 348 348 349 349 350 350 351 351 351 352 352 353 353 354 354 355 355 355 356 357 357 357 357 357 357 357 357 358 357 357 357 356 356 356 355 355 354 354 353 353 353
331 332 332 333 334 336 338 340 343 346 350 355 357 357 356 355 353 352 351 350 349 349 349 349 349 349 349 349 350 350 350 350 351 352 352 353 354 355 355 355 356 357 356 357 357 357 357 356 357 357 358 357 357 357 356 356 355 355 355 354 354 353 353
334 334 333 332 331 332 335 339 340 341 344 348 352 355 358 359 359 358 356 355 354 353 352 351 350 351 351 350 350 351 351 351 351 351 352 353 354 355 355 355 356 356 356 357 357 357 358 357 356 357 357 357 357 357 356 355 355 355 355 354 354 353 353
338 337 336 335 333 332 333 333 335 337 340 342 344 347 350 354 357 359 360 359 359 359 357 356 353 352 352 353 352 352 352 352 352 352 353 353 353 354 355 356 356 357 356 357 357 357 358 358 357 357 357 357 357 357 356 355 355 355 355 354 354 353 353
342 342 341 340 339 337 337 335 336 337 338 340 342 342 344 346 349 351 353 356 358 360 361 360 358 355 354 353 353 353 354 354 354 354 353 353 354 354 354 355 356 356 356 356 356 357 357 357 357 357 357 357 357 356 355 354 354 354 354 354 353 353 352
344 343 343 343 343 342 341 342 342 342 341 342 342 342 343 344 344 345 346 347 350 353 356 359 360 359 357 355 354 353 353 353 354 354 354 354 354 354 354 355 355 355 355 355 355 355 356 356 356 356 357 357 356 355 355 354 354 354 353 353 352 352 350
345 345 345 346 345 344 344 344 344 345 345 345 344 344 344 343 343 344 344 345 345 347 349 353 355 357 358 357 356 354 353 353 353 353 353 354 354 354 355 354 355 355 355 356 356 356 356 356 356 356 356 356 356 356 355 355 356 354 353 352 350 349 348
345 346 347 347 347 346 345 343 342 342 342 342 341 340 340 341 342 343 344 344 345 346 346 347 349 350 352 354 354 355 355 355 354 354 353 353 353 354 354 355 355 355 355 356 357 357 357 357 357 357 356 356 356 355 353 354 355 354 352 352 350 347 345
346 347 347 348 348 347 344 341 339 338 339 339 338 338 338 338 339 341 343 344 345 346 347 348 348 348 349 349 350 351 352 353 354 355 355 354 353 353 353 354 355 355 355 355 356 356 357 357 357 357 357 356 355 354 353 353 354 353 353 351 348 345 343

ECMWFFLT1_850_thetae_021.txt.gz
Theta_e
348 349 349 349 349 349 348 346 345 343 343 344 343 341 341 341 341 342 341 340 342 343 343 344 344 343 343 343 343 344 344 344 343 342 341 341 341 340 339 338 338 338 337 338 338 339 339 340 340 340 341 340 341 343 345 346 346 347 347 346 344 343 342
348 348 349 349 349 348 347 347 346 344 342 342 342 341 343 342 340 340 339 338 339 339 341 343 343 343 342 341 342 344 345 345 345 345 345 344 344 343 342 341 341 340 339 339 339 340 340 341 341 342 342 342 341 343 345 346 346 347 347 347 346 344 342
345 347 347 348 348 347 347 347 346 345 344 342 342 341 342 341 340 339 338 337 337 337 340 341 342 342 342 341 341 342 344 345 345 346 345 345 345 346 345 344 343 341 341 341 341 341 341 341 342 343 342 342 342 343 345 345 346 347 347 347 347 345 343
342 344 346 346 346 346 347 347 346 346 345 344 342 341 341 340 339 339 339 338 336 336 336 338 339 341 342 342 342 342 343 344 344 345 345 345 345 346 347 346 344 343 342 341 341 341 341 341 342 343 343 343 342 342 344 345 345 346 347 347 347 345 343
340 341 344 345 345 346 346 346 346 345 345 345 344 342 341 340 341 341 341 340 339 337 336 336 336 338 340 341 341 342 342 342 344 344 344 345 345 346 347 346 345 344 343 342 341 341 340 341 342 343 343 342 342 342 344 345 344 345 346 346 346 345 343
339 339 340 341 343 344 344 345 345 345 345 345 344 343 342 341 342 341 341 341 341 340 340 340 339 338 338 339 339 341 341 342 343 344 344 345 345 345 346 346 346 345 344 343 342 342 341 341 341 342 343 342 341 342 343 344 344 344 345 345 345 344 342
337 337 336 338 340 342 343 344 345 345 345 345 345 345 344 344 343 343 342 342 341 342 342 342 342 341 339 338 339 339 339 341 342 343 344 345 345 345 345 345 345 344 344 344 343 343 343 342 341 341 342 343 342 342 343 344 344 343 344 344 344 343 342
335 336 335 336 337 339 341 342 343 344 346 345 346 346 346 346 345 344 343 343 342 342 343 343 343 343 342 341 341 340 339 340 341 342 343 345 345 346 345 345 345 344 345 345 345 344 344 343 341 341 341 342 342 342 342 343 343 343 344 343 342 342 341
335 337 337 337 337 338 340 340 340 343 345 345 345 345 345 346 346 345 344 344 343 343 343 343 343 343 342 343 342 342 342 342 342 342 343 344 345 345 346 346 345 345 345 345 345 345 345 343 342 341 340 341 342 342 342 342 342 343 343 342 342 342 341
334 335 336 337 338 338 338 339 340 341 343 344 344 345 345 345 345 345 345 345 344 344 343 343 344 343 343 343 343 344 344 344 344 344 344 345 345 346 346 346 346 345 345 345 346 345 345 344 344 342 341 340 341 342 342 342 342 342 343 342 341 341 341
331 333 334 336 337 337 337 338 339 339 341 342 343 344 345 344 345 345 345 345 345 344 344 345 344 344 343 343 344 344 344 344 345 345 345 346 346 346 346 346 346 346 346 346 346 346 345 345 345 344 342 340 340 341 341 342 342 342 342 342 341 340 340
330 331 332 334 335 336 337 337 338 338 339 340 342 343 344 344 344 345 345 345 344 345 345 345 345 345 344 344 345 345 344 344 345 345 345 346 346 346 346 346 347 346 346 346 346 346 346 346 345 344 342 340 339 339 340 340 341 341 342 342 341 339 339
329 329 330 332 333 335 337 337 338 338 338 339 340 341 342 343 344 344 344 344 344 345 346 346 346 345 345 345 345 345 344 344 344 344 344 345 345 345 346 346 347 347 346 346 346 347 347 347 346 344 343 341 339 338 339 339 340 340 341 342 342 340 339
328 329 329 330 331 333 335 336 337 338 338 338 339 340 341 342 342 342 343 343 344 345 345 345 345 345 345 345 345 345 344 344 344 344 344 345 344 344 345 345 347 347 347 347 347 347 347 347 347 345 344 343 341 339 338 338 339 339 340 342 342 341 340
328 328 329 329 329 331 332 334 336 337 337 338 339 339 340 341 342 342 342 343 344 344 344 345 344 345 345 345 345 345 344 345 345 344 344 345 345 345 345 345 346 347 347 347 347 348 348 348 348 347 345 345 343 341 339 337 337 337 338 340 341 341 341
327 327 328 328 329 329 330 331 332 334 336 338 338 339 340 340 341 341 342 343 343 344 344 344 344 345 345 345 345 345 345 346 345 345 345 346 346 345 345 346 346 346 347 347 348 348 349 348 349 348 348 346 344 342 340 338 336 336 337 339 340 341 341
327 328 328 327 328 329 329 329 330 332 335 336 337 338 339 339 340 341 342 343 343 343 344 344 344 344 344 345 345 345 346 346 346 346 346 346 346 346 346 346 347 347 347 347 348 349 349 349 349 349 349 347 345 343 341 338 336 335 336 338 339 341 341
327 327 327 327 327 327 328 329 329 331 333 333 335 337 338 339 340 340 341 342 342 343 343 344 344 344 344 344 345 346 346 346 347 346 346 346 347 346 347 347 347 347 347 348 348 349 349 349 350 349 349 348 345 343 340 338 336 335 336 337 338 340 341
327 327 327 327 327 327 327 327 329 332 335 335 335 335 336 338 339 340 341 341 342 343 344 343 343 343 344 345 346 346 346 347 347 346 347 347 347 347 347 347 347 347 347 348 348 349 349 350 350 350 350 349 347 343 340 337 336 335 336 337 338 340 341
326 326 327 327 327 327 327 327 328 331 335 338 337 335 336 338 339 339 340 341 342 344 344 344 344 344 345 345 346 346 347 347 347 346 347 347 347 348 348 347 347 347 348 349 349 349 349 350 350 350 350 349 347 343 340 338 336 335 336 337 338 339 340
328 327 328 327 328 327 327 327 328 328 333 339 338 336 336 337 338 339 340 341 342 342 343 344 344 345 346 346 347 347 347 347 347 347 347 347 347 348 348 348 348 348 349 349 349 350 350 350 350 351 350 350 348 345 343 341 338 335 337 338 339 340 341
330 329 329 328 327 327 328 328 328 329 335 339 339 337 336 337 338 339 340 341 341 341 342 343 344 345 346 346 346 347 347 347 347 348 348 348 348 349 349 348 348 348 349 349 349 350 352 352 351 350 351 351 349 348 348 347 341 335 336 337 339 341 343
332 331 330 330 328 329 329 330 331 334 338 341 340 338 337 336 338 339 340 341 341 342 343 343 344 345 345 345 346 346 347 347 348 348 348 348 349 349 349 349 349 349 349 350 350 350 351 352 352 352 352 352 351 350 350 350 345 339 338 339 340 342 344
335 335 335 333 332 332 333 334 335 338 341 341 340 339 338 337 338 339 340 341 341 342 343 343 344 344 344 345 345 345 346 347 347 348 349 349 349 349 349 349 349 350 350 350 350 350 351 352 353 354 354 353 351 351 351 351 349 345 344 344 344 344 345
342 342 342 339 338 337 338 338 338 339 342 343 341 341 339 338 339 339 340 341 341 342 343 343 343 344 344 345 345 345 346 346 347 348 348 349 349 349 349 350 350 350 351 351 351 351 352 353 354 356 356 354 354 354 352 352 352 350 350 350 349 348 348
350 350 348 345 343 342 340 340 339 341 342 343 343 342 341 340 340 340 340 341 342 342 343 342 343 343 344 345 346 346 347 347 348 348 348 349 349 349 350 350 351 351 351 351 352 352 353 355 355 355 355 355 355 355 353 352 353 352 352 352 352 351 351
353 354 352 347 344 343 342 340 341 342 343 344 344 344 343 342 342 341 341 342 342 342 343 343 344 344 345 346 347 348 348 348 349 349 348 349 349 350 351 351 352 352 352 352 353 354 355 356 356 355 355 356 356 356 355 352 352 352 352 353 353 354 353
350 353 355 353 349 345 343 342 342 343 344 345 345 345 345 344 343 343 343 343 344 344 344 344 345 345 345 346 347 348 349 349 349 350 350 351 351 352 352 352 353 353 353 353 354 354 356 356 356 357 357 357 357 356 356 354 352 351 352 353 353 354 354
346 349 353 355 355 351 348 345 343 343 344 344 345 346 346 346 345 345 345 345 345 345 345 346 346 346 347 347 347 348 348 349 349 350 351 351 351 352 353 353 354 354 354 354 354 355 356 356 356 357 358 357 357 357 356 355 355 353 353 354 354 355 355
345 346 348 351 354 355 352 349 346 346 346 346 346 346 346 346 346 346 346 346 346 346 346 347 347 348 348 348 348 348 349 349 349 350 351 351 352 353 353 354 354 354 354 354 355 355 356 356 357 358 358 357 357 357 357 357 357 355 355 355 355 355 355
344 345 346 348 350 353 352 352 351 351 351 352 352 349 348 347 347 347 347 347 347 347 347 347 348 348 349 349 350 350 350 350 350 350 351 351 352 352 353 354 354 355 355 355 355 356 356 358 358 358 357 357 356 356 357 357 357 355 355 356 355 355 355
344 345 345 345 347 348 349 350 351 352 353 356 357 356 355 354 351 350 349 349 349 348 348 348 348 348 348 349 350 350 350 351 351 352 352 352 352 352 353 353 354 354 355 355 356 356 356 357 357 357 357 357 357 357 356 357 356 356 355 355 355 355 355
345 345 344 344 345 346 346 346 347 347 348 351 354 356 357 358 358 357 356 356 356 355 354 353 352 351 350 350 350 350 351 351 351 352 352 352 352 353 353 354 354 355 355 356 356 357 357 357 357 357 357 357 357 357 357 357 356 356 356 355 355 355 355
344 345 345 345 345 346 346 345 344 344 344 345 347 348 350 352 353 354 355 356 357 358 359 359 359 357 354 351 350 351 351 351 351 351 352 352 352 352 353 354 354 354 355 355 355 356 356 356 356 356 355 355 356 357 357 356 356 356 356 356 355 355 354
343 344 345 345 346 346 346 345 343 343 342 343 343 343 344 344 345 346 346 347 348 350 352 355 358 359 358 356 354 353 352 352 352 352 352 352 352 352 353 353 353 354 355 355 355 355 355 355 355 355 354 355 355 356 356 355 355 354 355 356 355 355 354
344 344 344 344 345 346 345 344 342 341 340 340 341 341 341 342 342 342 342 343 343 343 344 346 349 351 354 355 356 355 356 355 355 355 354 353 353 352 352 352 352 353 353 354 355 355 356 356 356 357 357 357 356 356 355 355 355 353 355 355 355 355 355
344 344 343 343 344 345 344 344 343 342 341 340 339 339 340 340 340 341 341 341 342 342 343 343 343 344 345 346 348 349 350 351 352 354 354 355 355 355 355 354 354 353 352 353 354 354 355 356 357 357 357 357 357 357 357 357 357 356 355 355 355 355 355
343 344 344 343 343 343 344 344 344 345 345 344 342 340 340 340 341 341 341 342 342 342 341 341 339 339 338 338 338 339 339 340 342 344 346 348 350 351 352 353 353 353 353 353 353 353 354 355 356 357 357 357 357 358 357 357 357 356 356 356 355 354 353

ECMWFFLT1_850_thetae_024.txt.gz
Theta_e
350 352 353 355 356 356 356 357 357 357 358 357 353 349 347 345 345 344 342 340 340 341 341 341 340 340 341 341 340 341 341 341 341 341 341 340 339 338 337 337 338 338 338 337 337 337 337 337 337 337 337 340 343 342 341 342 344 347 347 346 347 348 347
349 350 352 354 355 357 357 357 357 356 355 355 352 350 349 346 344 343 340 338 339 339 339 340 340 340 341 341 341 340 340 340 340 341 342 341 338 338 337 337 337 337 337 337 336 336 336 337 337 337 337 340 342 343 342 342 344 347 348 347 347 348 348
347 349 351 353 355 356 357 357 358 357 355 354 352 350 349 345 342 340 339 337 337 337 338 338 338 339 340 340 340 340 340 340 340 341 341 339 338 338 338 337 337 337 337 336 337 337 336 336 337 338 338 339 341 342 342 342 344 347 348 346 346 348 347
347 348 350 352 354 356 357 357 358 357 356 353 349 346 346 344 341 340 339 337 336 335 336 336 337 337 338 338 338 339 338 339 340 340 339 338 339 340 339 339 338 337 338 338 338 338 338 338 337 338 339 339 340 342 343 342 344 347 347 345 345 346 347
346 347 349 352 354 355 356 356 357 357 355 353 349 345 343 344 344 342 339 338 336 335 334 334 335 335 336 336 336 336 336 336 338 338 337 338 340 341 341 341 340 339 340 340 340 339 339 339 339 339 339 340 341 342 343 343 343 344 346 345 345 345 345
343 347 348 350 352 354 355 355 355 355 355 354 354 351 348 349 348 345 342 340 338 336 335 334 334 334 334 335 335 335 334 334 335 336 336 337 340 342 343 342 342 342 342 342 341 340 340 339 339 340 340 341 341 342 342 342 342 342 344 346 345 344 343
339 346 348 348 351 352 354 354 354 354 355 355 355 355 354 354 352 350 348 345 341 339 338 335 333 333 333 334 333 334 334 334 334 335 335 337 338 340 341 342 343 343 343 344 343 342 340 339 339 340 341 341 341 342 342 341 341 341 342 345 345 344 342
337 345 348 348 350 350 352 354 353 354 354 354 355 355 355 355 354 353 352 348 344 344 342 338 336 334 333 333 332 332 332 332 333 333 334 336 337 338 339 340 341 342 343 343 343 341 341 340 340 340 341 341 341 341 341 341 341 340 342 344 345 344 342
337 347 349 348 348 349 350 352 354 354 353 354 354 354 355 355 354 352 350 349 350 349 345 342 341 337 333 333 331 331 332 332 332 332 333 334 335 336 337 338 339 340 341 342 342 341 341 341 342 341 341 342 341 341 341 341 341 340 341 343 344 345 343
342 349 350 347 345 346 347 349 352 352 353 354 353 352 354 355 354 353 350 350 350 348 346 346 346 343 338 335 333 332 332 332 332 332 332 333 333 334 334 336 337 338 338 339 341 341 340 341 342 343 342 342 342 342 340 340 341 341 341 342 343 344 344
346 348 348 347 346 345 345 347 349 348 350 352 350 351 353 353 354 354 352 352 350 348 348 348 349 347 343 339 338 336 334 334 334 334 333 332 332 333 334 335 337 337 336 337 339 340 341 341 342 343 343 343 342 342 340 339 340 341 341 341 341 343 344
347 347 346 345 345 345 345 346 347 345 345 346 348 350 351 351 353 354 354 353 352 352 352 351 350 349 346 343 341 341 339 338 337 336 336 335 335 336 336 337 338 338 337 337 338 340 342 341 341 342 343 343 343 342 341 339 338 339 341 341 341 341 343
341 342 344 342 341 341 343 343 343 342 341 342 346 350 350 350 351 352 353 354 353 353 354 353 352 350 347 345 343 343 341 340 340 340 339 339 339 339 339 339 339 340 340 340 339 340 342 342 341 341 342 343 344 344 343 340 338 338 339 340 341 341 342
337 337 341 342 339 337 337 337 338 338 338 341 346 349 350 351 351 350 351 353 354 353 353 354 354 351 350 347 345 344 341 341 341 341 341 341 342 341 342 342 341 341 344 344 342 341 342 343 342 341 341 343 344 344 344 343 340 338 338 339 340 341 341
335 333 336 342 344 340 334 334 335 334 335 337 342 347 349 350 351 350 350 352 353 353 353 354 354 352 350 349 346 344 343 343 343 342 342 342 342 342 343 343 343 343 345 346 345 343 343 344 344 343 343 343 344 345 345 345 343 339 337 337 338 339 341
332 331 329 336 344 340 332 331 331 331 332 333 336 342 346 349 350 350 351 351 353 352 353 353 353 352 350 349 347 345 345 345 344 343 343 342 342 343 343 343 344 345 345 346 345 344 345 345 345 345 344 344 344 345 346 345 344 341 336 335 336 338 339
329 331 329 331 338 335 328 328 328 328 330 330 329 334 340 343 345 347 350 352 352 352 352 352 353 351 349 349 348 348 347 345 344 344 343 343 343 343 343 344 345 345 346 347 346 346 345 346 347 346 347 347 346 345 346 346 344 342 338 334 335 337 337
330 332 330 332 338 337 327 327 329 327 328 328 329 331 333 337 342 345 348 351 352 352 352 352 352 350 348 349 350 349 347 344 344 344 343 344 344 344 345 345 345 347 347 347 347 347 346 346 347 347 347 349 349 347 347 347 345 343 339 334 333 336 336
331 332 330 331 340 341 333 329 329 329 328 328 328 329 330 335 339 340 342 347 352 354 353 353 353 350 348 349 349 349 346 345 345 344 344 344 345 346 346 345 345 346 346 347 348 348 348 348 348 350 351 350 351 351 347 347 347 345 342 338 334 333 335
332 334 334 332 336 339 335 330 328 328 329 328 329 333 335 337 337 338 342 347 351 351 351 352 353 352 349 347 347 347 345 344 345 344 345 346 346 346 347 345 345 346 345 348 348 348 353 353 351 355 357 353 354 356 353 349 348 346 345 343 339 335 335
333 334 336 337 337 337 332 328 327 328 328 328 330 333 337 339 342 345 347 350 349 347 347 350 351 351 349 346 345 345 344 343 344 344 345 346 346 346 346 345 346 345 346 349 348 349 356 356 353 357 359 356 355 359 358 354 350 347 347 346 343 340 337
334 336 341 344 341 335 330 327 329 329 328 328 329 332 336 341 346 349 350 351 350 348 347 347 348 349 347 345 343 343 342 343 344 344 345 346 346 347 346 346 346 346 347 349 349 351 355 355 355 358 359 357 356 357 358 358 355 350 348 347 345 343 339
338 340 343 341 336 332 330 329 329 329 329 330 330 332 338 343 347 349 349 351 352 352 349 346 346 346 345 343 342 342 343 344 343 344 345 346 346 346 346 346 346 346 348 348 350 352 353 353 356 359 359 357 356 355 357 359 357 352 350 348 345 343 338
345 344 342 338 334 333 334 332 331 331 331 332 333 335 338 343 346 347 348 350 353 354 353 347 343 342 342 342 343 344 345 345 345 345 345 345 346 346 346 347 347 348 349 348 349 351 352 353 356 357 357 358 358 356 357 358 356 354 353 350 346 344 339
352 348 343 340 338 337 336 334 334 334 335 336 336 339 340 341 344 346 347 348 351 354 355 349 343 343 343 344 346 346 345 345 344 345 344 344 345 346 346 348 349 349 350 349 349 351 353 356 357 356 356 359 359 358 358 358 358 356 354 351 349 347 343
350 347 344 344 343 341 339 340 338 340 344 343 339 340 341 339 341 344 345 346 348 352 355 351 346 345 344 344 344 344 343 344 343 343 344 344 345 346 347 347 348 349 349 350 352 353 354 356 358 357 358 360 359 358 358 359 358 358 357 354 352 351 349
348 348 348 348 347 344 344 344 342 343 346 344 340 341 341 338 340 342 344 344 344 347 352 352 347 343 342 343 343 343 343 343 343 344 345 346 346 347 348 348 349 349 349 351 355 357 356 356 357 357 359 359 359 358 359 358 358 358 358 357 355 353 352
349 350 351 351 350 349 349 348 344 343 344 343 342 343 342 340 340 341 341 342 342 343 348 352 351 346 343 342 342 344 345 344 345 345 346 346 347 348 349 349 350 349 349 352 356 357 357 356 355 356 358 359 359 358 359 358 357 357 357 357 356 355 353
350 351 351 352 352 352 352 351 347 344 344 345 345 344 343 342 341 341 341 343 344 346 351 356 356 353 350 346 344 345 347 346 346 346 346 347 347 348 348 348 349 350 350 352 355 356 358 358 357 357 359 359 359 359 359 359 358 358 357 357 356 355 355
349 350 351 351 352 352 352 353 352 348 346 345 345 346 349 349 345 344 344 344 343 346 350 353 353 352 350 348 347 347 349 351 349 347 347 348 347 348 349 349 350 352 353 354 356 357 360 361 359 359 360 359 359 359 359 359 359 359 358 357 356 355 354
348 349 350 351 351 352 353 354 354 353 351 350 347 346 349 350 347 345 345 345 343 343 345 346 346 346 347 347 347 347 349 351 351 349 348 349 350 350 350 350 352 353 354 357 359 360 361 362 360 360 360 359 359 360 359 359 360 359 358 357 356 355 355
347 348 349 350 351 352 353 353 354 354 353 352 351 349 349 347 346 345 345 345 345 345 345 346 346 346 347 347 348 348 349 351 353 353 351 350 352 354 353 353 354 354 355 359 361 360 361 362 361 361 360 360 360 360 360 360 360 359 359 359 357 357 356
347 348 348 349 349 350 352 352 353 353 353 353 352 353 352 351 351 350 349 349 348 347 347 347 347 347 348 349 350 350 350 351 354 356 357 354 354 356 357 358 358 359 360 361 361 360 361 362 361 361 360 360 361 361 360 360 360 360 360 359 358 357 357
346 347 348 348 349 349 350 350 350 351 352 352 352 353 354 354 354 354 355 355 355 355 355 353 351 349 349 349 350 350 351 352 353 355 359 360 359 359 361 361 361 361 361 361 360 360 361 361 361 361 360 360 360 360 360 361 361 361 361 359 358 358 358
346 347 347 348 348 348 348 348 348 349 349 349 350 351 351 351 352 354 355 356 357 359 360 359 358 357 354 354 355 353 352 353 353 351 354 358 359 359 360 359 359 360 361 361 361 361 361 361 361 361 360 361 360 360 361 361 361 361 361 361 359 357 357
346 346 347 347 346 346 346 346 346 347 347 347 348 348 348 349 349 350 352 353 354 356 358 359 360 360 359 359 360 359 357 358 358 357 356 357 358 359 358 357 356 357 357 358 359 359 359 360 360 360 360 361 361 361 361 361 361 361 361 361 360 358 357
345 346 346 346 346 346 346 346 346 346 346 346 346 346 347 348 348 348 350 351 352 354 355 354 353 352 353 352 353 353 353 355 356 356 356 357 359 360 359 359 358 357 356 355 356 356 356 357 356 357 357 358 359 359 359 360 361 360 360 361 360 359 358
344 345 345 345 346 346 347 347 347 346 346 346 346 346 347 348 348 348 348 348 348 350 350 348 345 345 344 341 341 341 341 342 343 344 345 346 349 350 350 351 353 355 354 351 351 352 353 354 354 355 355 356 357 357 357 357 358 358 359 359 359 358 358

ECMWFFLT1_850_thetae_027.txt.gz
Theta_e
342 345 350 353 357 356 358 361 361 361 361 362 362 360 359 360 359 361 359 349 342 340 338 337 337 337 336 336 336 335 335 336 336 336 336 336 337 340 343 347 348 344 343 348 346 340 337 340 348 351 346 341 338 341 341 341 344 344 344 346 348 349 349
343 343 347 350 354 357 357 361 362 361 362 362 363 361 361 360 360 361 359 351 341 340 338 338 338 337 337 336 336 335 335 335 335 336 336 336 336 337 339 343 345 342 340 344 349 349 344 338 340 343 342 339 338 340 341 342 344 344 344 346 349 350 349
343 340 344 346 351 356 358 360 362 363 362 363 363 362 362 361 358 357 356 351 345 340 339 338 338 339 337 337 337 336 336 336 335 336 336 336 337 337 338 339 341 342 341 338 343 350 350 346 339 336 339 338 337 339 341 343 344 344 343 346 349 350 349
341 339 341 343 348 357 358 359 362 364 363 363 363 363 362 362 359 355 351 348 343 340 339 338 338 338 338 338 338 337 337 337 337 337 337 338 338 338 339 339 339 340 341 338 337 342 349 351 346 338 337 338 337 337 339 342 344 343 343 345 348 349 349
340 340 342 343 348 355 360 359 360 364 363 362 363 363 363 362 362 360 354 348 343 339 336 337 338 338 338 338 338 338 338 338 338 338 338 339 340 341 339 338 338 336 336 337 337 337 341 348 349 344 338 337 338 338 338 339 341 342 342 344 348 349 348
338 340 341 342 343 350 358 360 360 362 362 362 363 364 363 363 362 361 358 353 348 343 338 336 337 338 338 338 337 338 338 338 339 338 339 339 339 341 340 337 337 337 335 336 337 337 336 339 344 345 342 339 338 341 342 339 339 341 341 343 347 348 347
337 339 341 341 342 348 357 360 359 361 361 360 362 363 364 363 363 362 361 358 352 348 343 339 338 336 336 337 337 337 337 337 338 337 338 339 338 338 338 337 337 337 336 336 336 337 336 336 338 341 343 342 341 342 343 341 339 340 341 342 345 346 346
338 341 341 342 344 348 354 359 359 359 361 360 360 363 363 363 363 362 361 360 357 355 350 344 338 334 334 335 336 336 337 336 337 337 336 337 338 337 337 337 337 336 336 336 335 336 337 336 337 339 342 345 344 341 343 343 340 340 341 341 342 344 344
338 340 341 341 343 345 348 355 358 358 359 360 360 362 363 363 363 362 362 362 359 358 356 351 345 338 333 333 334 334 335 335 335 335 335 335 336 337 337 336 336 335 335 335 336 336 337 337 339 339 340 343 344 342 341 341 340 339 341 341 340 342 343
338 339 340 341 342 344 346 351 357 358 358 360 360 360 362 363 363 363 362 362 361 359 357 355 355 351 340 332 332 333 333 333 334 333 333 334 334 335 335 335 335 334 333 335 336 336 337 338 339 340 340 341 342 342 340 340 339 338 339 340 340 341 341
343 345 344 344 343 346 347 349 356 357 357 359 359 359 361 361 362 363 362 362 361 360 360 358 359 360 352 337 332 333 332 332 333 333 333 333 333 333 333 334 336 335 333 332 334 336 338 337 338 340 340 339 340 341 340 339 338 338 338 339 340 341 342
344 347 347 347 346 347 347 349 355 358 357 359 359 358 360 360 362 362 361 362 361 359 360 360 359 361 358 349 339 335 332 331 332 332 332 332 332 334 334 335 338 342 339 334 332 335 339 339 337 337 338 338 338 339 340 339 338 338 337 338 339 342 342
340 345 349 349 348 349 348 349 354 359 359 358 360 358 358 359 360 360 360 360 360 359 360 361 360 360 361 358 351 342 335 332 331 331 331 332 332 334 335 336 342 349 349 343 337 336 339 341 339 335 336 337 336 338 338 339 339 339 338 337 339 340 341
337 344 348 349 349 350 352 352 353 358 361 359 357 358 358 358 358 359 360 359 358 359 360 359 361 361 361 362 358 351 343 336 333 331 331 332 332 332 334 336 342 349 353 351 347 342 342 346 345 339 336 337 338 338 338 339 339 340 339 338 337 339 341
334 338 342 347 350 352 352 354 354 354 360 360 357 358 358 357 357 358 358 359 359 358 358 359 360 360 361 363 359 354 349 346 342 337 335 335 334 332 332 335 339 344 350 353 354 349 346 349 353 350 344 340 339 339 339 340 340 339 340 340 337 338 341
331 333 336 342 352 353 349 350 350 345 349 355 356 358 359 356 357 357 358 358 358 357 357 357 359 360 361 362 360 355 353 352 349 346 342 340 339 335 332 335 338 341 344 350 355 355 350 351 357 359 355 349 345 342 341 340 340 340 339 339 339 337 339
331 334 333 333 343 351 348 347 344 335 335 340 343 350 356 358 358 357 356 358 357 357 356 356 357 359 360 361 361 358 356 353 350 348 346 343 341 341 338 339 340 341 342 346 353 356 354 353 356 359 361 359 353 348 346 342 339 339 339 339 339 339 337
332 332 334 332 334 342 347 351 348 342 338 338 338 341 346 351 356 357 356 356 356 357 356 355 357 359 359 360 361 360 358 353 350 348 347 345 344 344 343 344 344 344 345 345 347 351 353 353 352 353 358 361 359 355 353 350 343 340 340 339 338 339 339
334 332 334 335 333 333 340 347 351 351 352 351 350 350 347 348 352 355 355 355 356 355 356 355 356 357 360 360 360 360 358 354 350 348 346 345 346 346 347 347 346 346 347 346 347 348 349 349 349 348 351 356 358 357 357 355 349 343 342 341 339 338 340
335 335 334 335 335 336 337 340 345 349 348 346 346 347 349 352 353 354 354 355 355 356 355 356 356 356 358 360 359 360 359 355 351 349 347 346 347 347 348 347 346 346 346 348 349 349 349 349 349 349 349 350 355 358 357 357 355 351 346 344 343 340 340
335 335 335 334 338 345 350 350 350 351 351 348 346 344 345 348 352 354 355 355 355 355 356 355 356 356 357 358 358 359 359 356 352 351 350 349 349 349 347 346 346 346 348 351 353 352 352 352 351 352 352 351 354 356 357 358 359 356 351 348 345 344 343
332 333 333 335 342 350 352 346 343 345 343 340 342 345 344 344 347 352 354 355 355 356 356 355 356 355 356 357 357 358 358 357 355 353 351 351 350 348 348 348 348 349 350 353 358 360 358 357 356 358 357 355 354 355 356 359 361 359 356 354 350 347 346
333 333 339 344 349 352 348 345 347 348 342 335 336 343 346 344 345 349 352 355 355 355 356 357 355 354 355 357 359 359 360 359 357 354 352 351 350 348 348 349 351 352 352 353 358 363 362 361 360 361 362 360 357 355 355 358 361 361 359 358 355 351 349
348 347 352 354 354 354 355 356 357 351 343 338 338 343 347 345 346 349 351 354 356 356 357 357 357 355 353 357 361 362 363 362 359 355 353 351 349 348 351 354 353 354 353 352 356 362 364 363 362 361 362 362 360 357 354 355 359 360 360 359 358 355 353
355 354 355 352 353 357 357 351 345 340 339 341 344 349 351 347 346 349 352 354 355 356 357 358 359 358 356 358 362 362 362 362 360 357 354 352 351 353 355 355 355 354 354 353 355 358 360 363 364 363 361 361 361 360 357 355 357 359 358 359 359 358 357
354 353 352 352 354 355 351 346 348 353 355 358 359 359 359 355 350 350 354 356 354 357 358 358 359 361 360 360 362 362 361 360 360 360 358 356 355 355 355 355 355 355 355 356 358 359 360 362 363 364 364 363 362 361 359 358 359 359 358 357 358 359 359
354 353 352 354 355 353 350 353 362 363 361 360 358 354 355 357 356 353 354 356 355 355 358 359 360 362 362 361 363 364 363 362 361 361 360 357 353 353 354 355 357 357 358 360 363 363 363 364 363 363 364 364 364 363 361 360 359 359 357 354 356 359 359
352 352 352 354 356 356 356 360 364 362 361 360 359 357 356 355 356 357 357 357 357 357 357 359 361 362 363 363 363 364 365 365 363 360 357 355 355 356 357 358 361 363 363 364 365 365 365 366 365 364 364 364 364 364 363 362 361 360 357 355 356 359 359
351 353 353 354 357 357 357 358 360 360 360 359 360 363 363 360 358 359 359 358 359 358 357 359 362 363 364 364 364 364 365 366 365 362 358 358 358 359 359 359 361 365 365 364 365 365 366 366 366 365 365 365 364 364 363 362 361 360 360 358 357 358 359
352 353 353 354 356 355 355 357 358 359 359 358 356 356 361 363 362 360 362 364 363 361 360 359 361 364 364 365 364 364 363 365 366 366 363 362 360 359 358 358 359 363 364 364 365 365 365 365 365 365 364 364 363 363 362 362 362 362 361 360 360 359 358
351 351 352 354 355 354 354 357 357 357 358 358 355 352 357 366 366 366 368 367 364 363 364 363 363 366 367 367 367 366 364 365 368 368 367 366 364 363 363 363 363 364 364 364 364 364 364 364 364 364 363 363 363 362 361 361 361 361 361 360 360 360 359
349 350 351 353 353 354 355 356 356 355 356 356 355 354 356 360 363 365 366 364 363 364 364 364 366 367 367 367 369 367 365 366 367 368 368 367 366 366 365 365 365 365 365 364 364 363 363 363 363 363 362 363 363 362 362 362 361 360 361 361 360 360 360
349 350 350 352 352 353 354 355 355 354 354 355 356 356 356 356 358 360 360 360 361 360 358 358 362 364 364 366 367 367 366 366 366 367 367 367 367 366 366 366 365 364 364 364 364 363 363 363 363 362 362 362 362 362 362 362 362 361 362 362 362 361 361
349 350 350 351 352 352 352 353 353 353 353 354 355 355 356 357 358 358 359 360 360 359 357 356 360 363 365 365 365 366 366 365 365 366 366 366 366 365 365 365 365 364 364 364 363 363 363 363 362 362 362 361 362 362 362 362 363 363 363 363 363 362 362
349 349 350 351 350 350 350 350 351 352 352 353 353 353 354 355 356 356 358 360 360 362 362 360 361 364 365 365 365 365 365 365 365 365 365 366 365 364 365 364 363 363 363 363 363 363 363 363 363 363 363 362 362 362 362 363 362 362 362 362 362 363 362
349 349 350 350 349 349 348 348 349 349 350 350 351 352 352 353 354 355 356 357 359 360 362 362 363 363 364 363 363 362 362 363 363 363 363 364 363 363 363 362 362 362 362 363 364 362 362 362 362 362 362 363 363 363 363 363 363 363 363 363 362 362 362
348 349 349 348 349 349 348 348 347 348 348 348 349 350 350 352 352 352 353 354 356 357 359 360 362 362 362 363 363 363 363 364 364 364 363 362 362 362 363 362 362 361 361 361 363 364 364 363 362 362 362 361 362 362 362 363 363 363 363 363 363 363 363
347 348 348 349 350 350 350 349 349 348 348 348 348 349 350 350 350 350 351 351 353 354 355 356 357 357 357 357 359 360 359 359 360 361 360 360 360 360 360 360 360 360 360 357 353 352 356 358 358 359 360 360 361 361 361 361 361 362 361 361 361 361 362

ECMWFFLT1_850_thetae_030.txt.gz
Theta_e
342 349 351 348 350 351 350 351 353 355 355 358 361 361 361 360 359 359 358 355 349 345 344 345 345 344 344 343 341 338 338 337 335 335 337 337 337 340 342 344 346 347 347 347 345 344 346 347 347 344 341 339 338 340 340 340 341 342 344 345 346 347 349
340 346 349 348 349 350 350 350 352 353 355 360 363 361 361 361 359 358 359 356 351 345 342 342 342 342 341 341 341 340 339 337 335 334 335 336 335 336 337 338 342 345 344 345 347 347 345 346 347 346 344 342 339 338 339 340 340 340 342 344 344 345 347
340 342 348 349 349 348 350 351 352 353 355 359 364 362 361 361 359 358 358 357 355 351 344 339 338 339 339 339 339 338 337 336 336 335 334 334 333 333 335 336 338 343 344 344 349 352 352 349 348 348 348 346 343 339 338 339 340 340 341 342 344 345 346
342 340 344 348 349 350 351 351 352 355 356 359 364 363 362 361 360 358 358 357 356 354 349 340 337 337 337 337 336 335 335 334 334 334 333 333 333 333 334 336 338 342 346 346 347 351 354 354 352 350 350 349 347 343 339 338 338 340 341 342 343 344 345
344 340 341 347 349 349 350 351 354 358 359 361 365 364 362 362 361 359 359 359 357 353 347 341 339 338 337 335 334 334 333 333 333 333 333 333 333 333 334 336 338 340 344 348 349 348 351 354 354 352 351 350 348 347 343 339 337 338 341 342 343 343 344
345 341 341 347 349 348 348 349 352 358 362 362 363 364 363 361 361 361 361 362 360 356 350 345 342 340 339 337 335 334 333 333 333 333 334 334 333 334 334 335 339 340 342 346 349 349 348 349 352 354 353 351 349 348 346 341 338 338 339 341 343 343 343
344 340 341 346 348 348 349 352 354 357 361 360 359 363 364 362 362 362 363 365 363 359 355 350 345 342 341 339 336 336 335 334 334 334 334 334 334 335 335 336 339 340 342 344 346 347 347 346 347 351 354 353 350 348 346 341 338 337 338 339 340 342 342
344 343 342 344 345 345 348 352 353 352 355 356 356 361 364 363 362 362 364 366 364 362 359 355 350 345 341 339 337 337 337 335 335 335 334 335 335 335 336 338 339 340 343 346 346 346 346 345 344 346 351 352 350 348 346 344 341 339 340 340 338 339 340
343 344 341 342 343 344 345 348 349 348 351 352 353 360 364 364 363 363 364 366 365 365 362 358 354 349 344 342 340 339 339 338 337 336 336 336 336 336 336 338 340 341 344 346 347 346 345 344 344 343 345 348 349 347 344 343 344 343 343 342 339 338 338
342 343 340 341 343 346 347 347 349 349 349 351 354 360 364 365 364 363 363 365 366 366 364 360 355 352 347 343 342 341 340 340 339 337 337 337 336 337 337 337 338 341 343 345 347 348 345 343 344 343 342 343 345 346 343 341 343 345 346 345 342 339 338
341 342 341 342 342 345 348 348 349 349 349 353 358 362 365 365 365 364 364 364 365 366 366 363 361 359 354 346 342 341 339 339 339 338 337 337 337 336 337 338 338 339 342 345 347 346 345 344 344 343 342 341 341 342 342 341 342 344 346 346 344 342 339
344 343 340 341 342 344 345 344 345 346 348 354 360 362 363 364 365 364 364 364 364 365 366 365 365 365 360 353 346 343 341 338 338 340 338 336 337 336 337 338 339 339 341 344 346 346 345 345 344 342 341 339 339 340 340 340 341 342 343 344 346 345 342
347 345 342 342 344 345 345 344 345 346 347 352 359 362 363 364 365 365 364 364 364 363 364 365 364 364 363 360 353 349 345 338 336 339 339 337 337 338 339 340 340 342 344 345 347 347 345 345 344 342 339 337 336 337 338 340 341 342 342 343 345 345 343
345 346 345 345 344 344 345 345 348 350 350 353 359 361 362 363 365 365 364 364 364 363 363 363 363 362 363 363 359 355 350 342 335 336 337 337 337 338 341 343 343 346 349 349 350 350 348 347 345 343 341 339 337 335 336 339 340 342 343 342 343 344 344
341 343 345 346 345 342 341 341 343 349 355 360 361 361 361 362 363 364 364 364 364 363 362 362 363 362 361 362 361 359 355 349 342 337 335 336 338 338 339 342 345 347 350 352 352 351 350 351 351 349 345 343 340 338 338 339 339 340 341 341 341 342 344
339 339 342 346 346 344 345 347 349 353 359 361 361 361 361 360 362 363 363 363 363 363 363 361 362 361 361 360 360 359 358 355 350 344 340 337 337 337 338 340 344 348 350 351 353 352 351 353 354 354 352 349 346 343 342 342 341 340 338 339 339 339 342
336 337 341 347 349 348 350 352 355 359 361 360 359 360 360 359 360 361 362 363 362 362 363 362 361 361 360 360 361 360 359 357 354 351 347 341 338 337 337 338 341 344 348 350 352 352 352 353 354 355 355 356 353 349 347 344 342 341 338 337 337 337 339
334 336 339 346 350 351 352 350 346 347 355 359 359 359 360 359 359 359 360 361 361 362 362 361 361 361 361 360 361 361 360 358 357 355 351 347 343 340 338 337 339 342 345 348 350 352 353 353 353 353 354 357 357 355 352 347 342 340 339 338 337 336 338
334 334 333 337 342 346 351 351 343 340 348 356 357 358 359 359 359 359 359 358 359 360 360 360 360 360 361 361 361 361 361 360 359 356 354 351 348 345 342 340 339 341 343 346 348 350 351 352 352 351 351 353 355 355 354 351 347 343 342 342 341 339 339
334 336 337 336 336 341 348 351 351 351 352 355 355 356 357 356 356 356 357 357 357 358 358 359 359 359 361 361 361 361 362 362 361 359 357 354 352 350 348 345 342 341 343 345 348 349 350 350 350 350 349 348 350 352 354 354 354 351 349 347 346 345 343
334 334 334 334 338 346 350 349 351 351 350 350 351 351 352 355 356 356 355 356 356 357 358 358 357 358 358 360 361 361 362 363 362 361 360 358 357 354 352 350 348 346 346 348 349 349 348 348 349 349 349 348 349 351 353 355 356 356 355 353 351 349 347
337 339 340 344 348 350 350 348 348 345 343 346 349 345 344 346 351 355 356 356 356 356 357 357 357 356 357 358 360 360 361 362 362 362 361 361 360 358 356 355 353 351 350 351 352 353 351 349 350 351 352 353 353 353 353 354 356 357 357 356 356 355 352
351 352 352 354 354 353 351 349 349 346 342 345 347 346 348 347 345 348 352 355 356 356 356 356 356 356 356 357 359 360 360 361 362 362 362 361 361 360 359 359 357 356 355 355 356 357 356 353 352 352 353 354 355 354 353 353 355 356 357 358 359 358 356
356 355 353 353 357 361 358 351 347 340 337 344 348 348 350 352 348 347 348 352 355 355 356 356 355 356 356 356 358 359 359 360 361 362 362 362 363 363 362 360 359 358 359 358 357 358 359 359 358 356 356 356 355 355 355 354 354 355 356 358 360 360 360
355 355 353 354 359 361 354 347 349 347 348 359 365 363 360 357 352 348 346 349 354 355 356 356 355 356 357 357 358 359 360 360 361 361 362 363 364 365 363 361 360 360 361 360 358 359 359 361 362 362 360 359 358 358 357 356 355 354 354 356 360 361 361
353 353 353 354 357 356 349 349 359 364 363 364 365 364 364 362 358 354 348 348 353 355 356 357 356 357 357 357 359 360 360 361 361 361 363 365 365 365 363 361 361 361 362 361 360 360 359 360 362 364 364 363 362 361 359 358 358 356 355 355 359 360 360
351 352 352 351 352 355 354 355 363 366 364 360 358 360 364 362 358 355 352 350 352 354 356 358 357 357 357 357 359 361 361 362 361 363 365 366 367 366 365 364 363 362 363 363 363 362 361 361 361 363 365 365 365 363 361 361 360 359 358 357 358 359 359
352 353 354 351 352 358 358 357 360 361 361 361 361 362 367 367 362 357 353 352 355 356 356 358 359 359 358 359 359 360 362 364 363 364 366 367 368 368 367 366 365 365 364 365 366 365 364 363 363 363 364 365 365 365 365 364 364 362 361 360 360 360 359
352 354 354 353 355 358 356 357 360 360 361 362 359 355 357 365 367 362 358 357 359 359 357 358 360 360 359 360 360 360 362 365 367 367 367 368 369 369 367 366 366 367 367 366 367 367 366 366 365 364 364 364 364 365 365 365 365 365 364 363 362 361 361
351 352 353 353 354 356 355 357 360 360 360 362 359 351 349 361 367 364 363 364 362 360 359 358 359 361 361 361 361 361 361 365 368 369 369 370 370 370 369 368 366 367 368 367 367 367 367 367 366 365 365 365 364 364 365 365 365 365 365 364 364 364 363
350 352 353 353 355 356 355 356 359 358 357 359 358 354 354 364 368 366 367 369 365 363 361 359 360 363 363 362 363 363 363 364 367 369 369 369 370 370 370 369 367 367 367 367 367 366 366 366 367 367 366 365 364 364 364 364 364 364 364 364 363 363 363
350 351 351 352 354 354 354 356 358 357 356 357 359 357 358 364 368 367 368 370 367 365 364 363 363 365 365 365 365 365 365 365 366 369 369 369 369 370 369 369 369 367 367 367 367 367 366 366 366 367 367 366 365 364 363 363 363 363 363 363 363 363 362
349 351 351 352 353 353 354 356 356 356 356 356 357 358 359 361 363 363 363 365 365 364 363 364 367 368 367 368 368 366 366 367 366 367 368 368 368 369 368 368 369 368 367 367 366 366 365 364 364 365 365 365 365 364 363 362 362 362 361 362 362 363 362
349 351 351 352 353 352 353 354 355 355 356 355 355 357 357 358 359 360 360 361 362 362 361 363 366 368 367 368 367 368 367 367 366 367 368 368 367 368 368 367 366 367 367 366 366 365 364 364 363 363 363 364 364 364 363 363 363 363 363 363 363 363 363
348 350 351 352 352 351 351 352 353 354 354 353 353 355 355 356 357 358 360 360 361 362 362 362 363 366 366 366 366 366 366 367 367 366 367 367 366 366 367 366 365 365 365 364 364 364 364 364 364 363 363 363 364 363 363 363 363 363 363 363 363 363 363
346 350 352 351 351 350 349 349 351 352 351 351 352 353 354 355 356 357 358 360 361 363 363 361 362 364 365 364 364 365 365 366 365 365 365 365 365 364 365 365 365 365 365 365 365 364 364 364 364 363 364 364 364 364 363 363 364 364 364 364 363 364 363
346 350 352 350 350 351 350 348 349 350 349 350 352 353 353 353 353 353 355 357 359 361 362 363 364 365 364 364 364 363 363 364 365 364 363 364 365 365 365 364 364 365 365 364 364 364 364 364 363 362 362 362 362 362 362 362 362 363 363 364 363 363 364
347 348 350 351 351 352 351 350 350 350 349 350 351 351 351 351 351 351 352 355 357 359 360 361 363 363 363 364 363 362 362 364 365 364 362 362 364 365 364 364 364 363 362 362 362 362 362 363 363 363 363 362 363 363 362 363 363 363 363 363 363 363 363

ECMWFFLT1_850_thetae_033.txt.gz
Theta_e
353 354 355 354 354 354 354 354 354 354 354 354 355 356 356 357 356 356 355 355 354 353 352 351 349 348 345 342 339 338 337 335 333 333 332 331 331 331 331 333 336 338 342 345 345 343 341 341 342 340 340 340 340 339 338 339 341 344 346 346 346 347 347
351 352 354 354 354 355 355 354 354 354 353 354 356 356 357 357 357 357 356 355 355 353 352 351 350 347 344 339 337 337 336 335 334 332 332 331 331 331 332 333 335 337 339 342 343 343 343 341 339 338 339 340 341 341 341 340 341 341 343 344 345 345 345
350 351 352 353 353 354 355 354 354 354 353 354 356 357 358 358 357 357 356 356 355 354 353 352 350 348 344 340 337 336 335 335 334 333 332 331 331 331 333 334 335 337 339 341 342 342 342 342 340 338 339 339 340 341 341 341 340 340 340 341 343 344 344
349 349 350 351 352 352 354 354 354 353 353 354 355 356 358 358 358 358 357 356 356 355 354 352 350 349 346 342 338 336 336 335 334 333 332 331 332 332 333 335 336 337 339 340 340 340 341 342 341 340 339 340 339 339 340 340 339 339 339 340 340 341 342
348 349 350 350 352 352 354 354 354 354 354 354 354 355 356 357 358 358 357 357 357 356 355 353 351 349 348 346 342 337 335 334 333 333 333 332 332 332 333 335 336 337 337 337 338 338 340 341 341 342 341 341 340 339 339 340 340 338 338 339 340 340 341
348 348 350 350 350 351 352 353 354 354 354 354 354 354 355 357 358 359 358 358 358 357 356 354 352 351 349 348 346 341 337 336 334 333 333 332 332 332 332 334 335 335 334 334 335 336 337 340 341 342 342 342 342 342 340 340 340 339 337 337 338 339 340
348 349 349 350 350 350 349 350 352 353 353 354 354 354 355 356 358 359 359 359 358 358 357 356 354 352 351 349 347 344 341 338 336 334 333 332 332 332 331 332 333 333 332 333 333 333 336 339 341 343 343 343 343 344 342 340 340 339 338 337 337 338 340
346 348 348 349 349 349 348 349 350 350 351 352 354 355 355 356 358 359 360 360 359 359 359 358 356 354 352 350 348 345 342 339 338 336 335 334 333 332 331 332 332 331 332 332 333 333 335 337 340 344 346 347 345 343 343 342 341 340 339 338 337 336 338
345 347 346 347 347 348 348 348 348 349 349 350 353 356 358 359 360 360 360 360 359 360 359 358 357 355 352 351 349 347 344 343 341 338 338 337 336 334 332 332 332 332 332 332 332 333 334 336 339 342 346 348 348 346 344 342 341 341 339 337 337 336 336
343 345 345 346 347 348 349 349 350 350 350 351 352 355 357 360 361 361 361 361 360 360 360 359 358 356 354 351 349 348 347 345 343 341 340 339 337 336 334 333 332 332 332 332 333 334 335 337 339 342 344 346 347 347 345 342 340 340 339 337 336 337 336
342 344 346 347 347 348 349 350 351 350 350 351 352 354 355 358 361 362 362 362 361 361 361 360 359 358 356 353 350 348 347 346 345 344 342 339 338 336 334 334 333 333 333 333 334 335 336 337 340 343 344 343 343 344 343 342 340 338 337 336 336 336 336
342 343 347 348 348 349 349 349 349 348 349 352 355 357 357 357 360 362 362 362 362 362 362 361 360 359 358 356 353 351 348 346 345 344 342 340 338 337 336 335 334 334 334 334 334 336 337 338 340 342 343 342 340 340 339 339 339 338 337 336 336 336 336
342 343 348 349 349 349 348 348 348 348 349 353 357 359 358 357 359 362 363 362 361 362 363 363 363 362 360 359 357 354 350 347 344 342 341 340 338 338 337 336 336 335 335 335 335 336 337 338 340 340 340 339 339 338 337 337 338 338 337 337 337 337 336
342 343 347 348 347 348 349 349 350 351 352 355 359 360 358 357 358 360 362 362 361 362 363 364 365 364 363 362 360 357 353 347 343 340 340 339 339 339 338 338 338 337 336 336 336 337 338 338 339 339 340 339 338 338 337 337 338 338 337 337 338 338 337
343 343 345 346 346 348 349 351 353 353 354 356 357 359 357 355 356 360 362 362 363 362 363 365 366 365 365 364 363 360 356 350 345 341 340 340 340 339 338 338 338 338 338 338 338 338 339 339 339 340 340 341 340 340 340 340 339 338 337 337 337 337 338
346 346 347 346 345 346 347 349 351 350 350 352 352 352 353 354 357 361 363 363 363 363 363 364 365 366 366 365 364 363 360 355 350 345 342 341 340 339 339 338 338 339 340 340 339 339 340 341 343 342 342 342 342 342 342 342 340 338 337 337 336 336 337
348 348 348 348 347 347 347 346 346 346 347 349 348 350 354 358 360 361 363 364 364 364 363 363 365 365 366 366 365 364 362 359 355 350 346 342 340 339 338 338 338 339 340 341 341 340 341 343 345 345 343 343 343 343 343 342 340 339 338 338 338 338 338
349 349 349 349 349 348 348 348 347 347 347 347 348 351 358 362 364 364 363 364 364 364 364 363 364 365 365 366 365 364 363 362 360 356 351 346 343 340 338 338 340 341 341 342 342 340 340 342 344 345 345 344 344 344 343 342 340 340 340 340 340 340 340
346 348 347 348 350 349 348 347 347 346 346 347 349 353 359 361 362 363 364 364 364 364 364 364 364 363 364 365 364 364 363 363 362 360 357 353 349 345 341 341 342 342 341 341 342 342 340 339 340 342 344 345 344 343 342 342 341 341 342 343 342 343 343
342 345 348 349 351 354 354 352 353 353 354 357 357 358 361 362 361 362 362 362 364 364 364 364 363 363 363 363 363 364 363 363 361 361 360 358 354 351 349 346 344 342 341 341 343 344 343 340 338 339 341 343 343 343 342 341 340 341 343 345 345 345 345
350 352 355 354 352 355 357 356 357 359 359 360 360 359 359 360 360 360 361 361 363 363 363 364 363 363 363 363 363 363 363 363 362 360 360 359 358 356 354 351 348 345 344 345 345 344 342 341 339 338 337 339 342 344 344 342 342 343 344 346 347 348 349
360 360 360 359 356 353 353 352 351 353 355 356 354 352 352 352 352 354 357 358 360 361 362 362 362 363 362 363 363 363 362 363 362 361 360 359 359 358 357 356 354 350 349 348 348 346 345 344 343 341 340 340 343 345 345 344 346 348 348 350 351 352 353
360 361 360 360 359 355 352 349 346 344 346 350 351 350 350 350 350 352 353 354 355 356 358 360 361 362 362 362 362 362 362 362 362 361 361 360 359 358 358 357 357 354 353 352 351 350 349 348 347 346 345 345 345 346 345 346 349 351 352 354 355 356 357
354 357 358 357 355 352 349 345 342 340 339 339 339 341 344 348 351 354 355 356 355 352 352 354 357 359 360 361 360 361 361 362 361 362 361 361 360 359 359 359 358 358 356 354 353 353 351 351 351 351 350 349 349 348 349 350 351 353 354 356 357 358 359
351 352 353 352 351 350 348 346 348 350 348 345 342 341 341 342 347 351 353 355 358 356 352 350 352 354 357 358 359 359 360 361 362 362 362 361 361 360 360 360 359 359 359 357 356 355 354 354 354 353 353 352 352 352 352 353 354 355 355 356 356 358 360
353 351 350 351 353 351 348 351 354 352 350 354 358 357 353 347 346 349 353 353 355 358 358 354 351 351 352 355 357 358 358 359 360 362 362 362 362 362 362 361 361 361 360 360 359 358 357 356 355 355 355 354 354 354 354 354 355 356 356 357 357 358 359
353 351 351 354 357 355 352 352 351 344 342 346 348 348 352 351 347 347 350 351 351 354 358 358 356 354 352 352 354 356 357 357 358 360 362 362 363 362 363 362 362 362 361 361 361 361 360 359 358 357 356 356 356 356 356 356 356 357 357 357 358 358 359
350 350 349 352 356 357 354 352 348 343 345 343 337 338 347 353 352 348 345 346 347 349 353 356 358 357 355 354 354 354 356 357 357 359 361 362 362 363 363 363 362 362 362 362 362 362 362 361 360 359 359 359 359 359 359 359 359 359 359 359 359 360 360
351 352 351 352 355 355 355 355 354 353 353 351 345 342 344 349 356 358 353 347 344 344 348 354 357 358 358 357 355 355 355 356 358 360 360 361 362 362 362 363 363 363 362 363 363 364 363 363 362 361 360 360 360 360 361 361 361 362 363 363 363 362 362
349 351 352 352 354 355 355 357 359 357 356 355 351 347 348 356 364 366 362 356 351 348 350 353 356 359 359 358 358 356 356 356 358 360 362 362 362 362 363 363 363 363 364 364 365 365 365 364 364 363 362 362 361 361 362 362 364 364 365 366 366 365 364
347 349 351 352 352 352 352 356 358 357 356 355 353 353 357 363 368 368 365 363 359 356 356 356 356 358 360 360 359 358 357 358 359 361 363 362 363 363 363 364 365 365 366 367 367 367 366 366 365 365 365 365 364 363 362 363 364 365 365 365 365 365 364
345 348 350 352 353 351 350 353 356 356 355 354 354 357 359 362 366 367 366 366 365 362 359 357 357 358 360 362 361 359 359 360 360 362 364 364 364 364 364 365 366 367 368 368 369 368 367 367 367 367 367 367 367 366 365 364 363 364 364 364 364 364 364
343 345 349 352 353 351 350 351 354 355 354 352 353 357 358 359 362 364 364 365 367 366 362 359 360 361 363 364 362 361 361 361 362 364 366 366 367 367 367 367 368 368 369 370 369 369 369 368 368 368 368 369 368 367 367 366 365 365 364 363 364 364 363
342 344 348 351 352 351 349 349 351 354 353 351 352 354 354 355 357 359 359 359 360 361 362 363 364 365 366 365 363 363 363 362 363 365 367 368 369 368 368 369 369 369 370 370 370 370 369 369 369 368 368 368 368 368 367 367 366 366 365 364 364 363 362
343 344 348 352 352 351 350 348 349 352 351 350 352 354 354 355 356 357 358 358 358 359 361 363 365 367 368 367 366 365 364 364 365 366 368 369 369 369 369 369 369 369 369 369 369 369 368 368 369 368 367 366 366 366 366 365 365 365 365 364 364 363 363
344 345 349 351 351 351 350 348 348 348 348 350 352 353 354 355 355 355 357 359 362 363 361 361 364 366 366 366 366 365 364 364 366 367 368 368 368 368 368 368 368 368 368 368 368 368 367 368 368 367 367 365 364 364 364 364 364 364 364 364 364 363 363
345 345 346 349 351 352 350 349 348 347 348 351 351 351 352 353 353 354 356 359 362 364 361 360 363 366 365 363 364 364 364 364 366 367 367 367 367 367 368 368 367 367 368 368 367 366 366 366 366 365 366 365 364 364 364 364 364 364 363 363 363 363 363
345 344 345 346 350 352 351 350 350 349 349 350 350 350 350 350 350 353 355 356 359 361 362 363 366 368 366 364 364 366 365 364 366 367 366 367 367 366 367 367 367 366 366 365 364 364 365 364 364 364 364 363 363 362 362 362 362 361 361 361 360 360 360

ECMWFFLT1_850_thetae_036.txt.gz
Theta_e
349 351 352 353 353 353 353 353 352 352 352 352 352 351 352 351 351 351 351 351 351 350 350 350 349 350 350 350 349 348 346 344 344 343 342 342 340 338 337 336 336 336 335 334 332 332 333 335 340 342 341 339 338 338 337 338 340 342 344 344 344 343 343
349 351 352 352 354 354 353 353 352 352 352 352 352 351 352 351 351 351 351 351 351 351 350 349 349 349 349 349 349 348 346 344 343 342 342 341 341 340 338 336 335 335 334 332 331 333 333 335 339 341 341 340 338 338 337 337 337 339 342 344 344 344 343
349 351 351 352 353 353 354 353 352 353 352 352 353 352 352 352 351 352 351 351 351 351 351 350 350 350 349 350 350 348 346 345 344 342 340 340 340 339 338 338 336 334 333 332 331 333 333 334 338 340 340 339 338 338 338 338 337 337 339 341 343 343 342
350 351 352 352 353 353 353 353 352 352 352 352 353 352 352 352 352 352 352 352 352 351 351 351 350 350 350 350 350 349 348 347 345 343 340 339 338 338 338 338 336 335 333 331 331 333 334 333 334 337 338 337 338 339 339 339 339 339 339 340 341 342 341
350 351 352 353 353 353 353 353 353 352 352 352 352 352 352 353 352 353 353 352 352 351 352 351 351 350 350 350 350 349 347 347 345 344 340 339 337 337 337 336 333 333 332 330 330 332 334 334 333 335 336 336 336 337 337 338 339 339 340 340 340 340 340
351 352 353 353 354 354 353 353 353 352 352 352 351 352 353 353 353 353 353 353 353 352 352 352 351 351 351 350 350 349 348 347 346 344 342 339 337 335 333 331 331 331 330 330 331 332 334 335 334 333 334 335 334 335 335 337 337 338 338 339 339 340 340
350 352 353 353 354 353 354 353 353 352 352 351 351 353 353 353 354 354 354 354 354 354 353 353 352 352 351 351 350 350 349 348 346 345 342 341 339 336 332 330 330 330 330 330 330 332 333 335 336 335 335 335 334 334 335 336 336 336 336 337 338 338 338
350 352 352 353 353 353 353 353 353 353 352 352 353 353 354 354 354 354 355 355 354 355 354 354 354 353 353 352 351 350 349 347 345 343 343 343 342 339 335 333 331 330 330 330 330 331 332 334 335 335 335 334 334 334 334 335 336 335 336 336 336 336 337
350 351 351 353 353 353 354 353 353 353 353 353 353 354 354 354 354 354 355 355 355 355 355 355 355 354 354 353 352 350 349 347 345 343 343 344 343 341 339 335 333 332 331 331 330 331 332 333 334 333 334 333 333 333 333 334 334 334 335 335 335 335 335
350 350 350 352 352 352 353 353 353 353 352 352 353 354 354 354 354 355 355 356 355 356 356 355 355 355 354 354 353 351 350 348 346 343 344 344 343 342 340 338 335 334 332 332 331 331 331 333 333 332 332 332 332 332 333 333 334 334 335 336 336 335 334
348 349 349 350 351 352 353 353 353 353 352 353 353 353 354 354 355 356 356 356 356 357 357 356 356 356 355 355 354 352 351 349 347 345 344 343 342 341 339 339 337 336 334 333 332 331 332 332 332 332 332 332 332 332 333 333 333 334 335 335 335 336 335
347 348 348 349 350 350 351 353 353 353 353 353 352 352 353 353 355 356 357 357 357 357 357 357 357 356 355 356 355 354 352 351 349 346 344 342 341 339 339 339 338 337 335 334 333 332 331 332 332 331 331 331 332 332 332 333 334 334 335 335 336 337 337
347 347 347 349 349 349 350 352 353 354 352 352 352 352 353 353 355 355 356 357 356 357 357 357 357 357 356 356 356 355 354 352 350 348 346 344 341 340 338 338 339 338 336 335 334 333 333 332 332 331 331 331 332 332 333 333 334 335 336 337 337 337 337
347 346 347 349 348 348 349 350 351 353 353 352 352 353 353 354 354 354 356 356 356 357 358 358 358 358 358 357 357 356 356 353 352 349 347 345 343 341 340 339 339 338 336 336 335 334 333 332 332 331 331 332 332 332 333 333 335 335 337 338 338 338 338
346 346 346 348 348 349 348 349 350 351 351 352 352 353 353 354 354 354 355 356 356 357 357 358 358 359 359 359 359 358 357 355 354 352 350 348 346 344 343 341 341 339 338 337 336 335 334 333 332 332 332 332 332 333 333 334 335 335 335 335 337 336 337
345 346 346 346 348 348 348 348 349 349 350 351 351 352 352 352 354 354 355 357 357 358 358 358 360 360 360 360 359 359 358 357 356 355 353 351 348 347 345 344 344 343 341 339 338 336 335 334 334 333 332 333 333 334 334 334 334 334 334 334 335 335 336
343 345 346 345 346 347 347 347 348 349 349 349 349 349 349 350 353 355 356 358 359 359 360 360 360 360 361 361 360 360 359 359 358 356 355 354 351 350 348 347 346 345 343 342 340 339 337 336 335 334 333 333 334 334 334 334 334 333 334 334 334 336 337
342 344 344 345 345 345 347 347 348 349 348 348 348 348 348 349 351 353 355 357 358 360 360 361 361 361 361 361 361 360 359 360 360 359 358 356 355 353 351 350 349 348 346 344 342 341 339 338 337 335 334 335 334 334 334 334 334 333 334 335 335 337 338
342 343 344 345 346 345 346 347 347 349 347 347 348 346 347 349 351 353 355 355 357 359 360 362 362 361 362 361 361 361 361 361 361 361 360 359 358 357 355 354 352 350 348 346 344 343 342 340 338 336 336 335 335 334 334 333 332 333 333 334 336 338 340
346 346 346 346 345 346 347 348 348 348 349 350 349 348 350 352 354 354 355 355 357 358 359 361 361 361 361 361 362 362 362 362 363 363 363 362 361 360 358 356 354 351 349 348 347 346 344 342 339 338 337 337 335 334 334 333 332 332 333 334 336 339 342
353 351 349 348 348 348 348 349 349 349 350 351 352 353 354 356 357 357 356 356 356 357 358 360 360 361 362 361 362 363 362 364 363 363 364 364 363 362 360 359 356 353 351 350 349 347 345 343 342 339 338 338 337 337 336 334 334 335 335 337 338 341 344
357 356 355 354 354 353 353 352 351 351 351 351 352 353 355 356 356 355 354 354 354 355 357 359 360 362 362 362 363 363 363 364 364 364 365 363 364 363 362 361 359 357 354 351 350 348 347 345 344 343 341 341 341 342 339 337 338 340 341 341 343 346 348
358 358 358 358 357 357 357 355 355 355 355 355 355 356 356 355 355 354 354 354 356 357 359 360 362 362 362 363 363 362 364 364 363 364 364 364 364 364 362 362 361 359 357 355 352 351 349 347 346 344 344 344 345 344 343 341 343 345 346 346 347 349 351
356 358 359 359 357 356 355 355 354 354 355 356 358 358 357 358 358 359 360 362 363 363 362 362 363 363 363 363 363 363 364 363 364 363 363 363 363 363 362 363 361 361 360 358 356 353 351 349 347 346 345 345 345 345 345 346 347 349 350 350 351 352 352
356 356 356 357 358 356 355 354 353 353 352 352 354 355 354 355 356 358 360 361 362 363 363 364 363 363 363 364 363 364 363 363 363 363 362 363 363 363 363 362 362 361 360 360 358 357 355 353 352 350 348 347 346 345 346 347 349 350 352 353 354 354 354
356 355 354 353 353 350 348 346 344 344 345 345 349 352 352 352 352 354 355 357 357 359 360 361 362 362 362 362 362 363 363 363 363 362 363 363 362 362 363 362 362 361 361 360 360 359 358 357 355 354 353 351 350 349 349 349 350 351 353 353 355 355 356
354 354 355 354 350 345 341 339 336 334 333 334 337 341 343 345 347 350 353 354 355 356 357 357 359 359 359 359 360 360 361 362 362 362 362 362 361 362 362 362 362 361 361 361 360 360 359 359 357 357 356 355 354 353 352 352 352 353 354 354 355 356 356
350 351 353 353 352 347 341 337 336 335 333 332 331 330 332 334 337 342 348 350 352 353 354 354 356 357 357 358 356 356 356 357 359 361 361 362 361 362 362 361 361 361 361 361 361 360 360 359 359 359 358 358 357 356 355 355 355 355 356 355 355 356 357
350 350 350 351 353 353 350 343 340 340 341 340 338 334 332 330 330 334 341 346 350 350 350 350 352 353 356 357 356 354 353 353 354 357 359 360 360 361 362 362 362 362 362 361 361 361 361 360 360 360 360 360 359 358 357 358 357 357 358 357 358 358 359
350 349 349 348 350 352 353 352 349 348 346 345 343 340 338 338 339 341 346 350 353 352 349 348 347 348 351 356 357 356 354 353 352 354 355 358 360 360 361 362 362 362 363 362 362 361 361 362 362 361 361 361 361 361 361 360 360 359 359 360 360 360 360
349 350 348 345 345 347 349 351 353 352 351 349 347 345 346 350 353 356 360 361 360 358 356 352 349 347 348 352 356 356 356 355 355 354 355 356 359 360 361 362 362 363 364 363 363 363 362 363 363 362 363 363 362 363 363 362 362 362 361 361 361 361 361
348 350 349 346 345 344 345 347 349 349 350 348 347 346 350 355 358 361 364 364 364 364 361 358 356 353 352 354 356 356 358 358 356 355 356 356 359 360 361 362 363 364 364 364 364 365 364 364 364 364 364 364 364 364 364 364 364 363 363 363 363 363 363
347 350 350 349 347 346 346 345 344 345 347 348 347 348 350 354 357 359 361 362 364 365 364 362 361 358 357 357 356 356 359 359 358 358 357 358 360 362 362 363 364 363 364 365 364 365 366 365 365 366 365 365 365 365 365 364 364 365 365 365 364 363 364
347 349 350 349 348 347 348 348 345 345 347 349 351 351 352 353 355 357 358 358 360 361 362 363 363 363 361 359 358 359 359 360 359 359 360 360 363 364 364 364 365 364 365 365 365 365 366 366 366 366 366 366 366 365 366 366 366 367 367 366 365 365 364
345 346 348 349 349 348 348 349 347 345 347 350 351 352 354 355 355 356 356 356 356 357 358 359 363 366 367 364 363 361 360 361 361 360 361 363 364 364 366 365 366 365 364 364 365 366 366 367 367 367 367 367 367 366 367 367 367 367 367 367 367 366 366
342 344 345 347 350 350 350 350 347 345 347 349 351 351 353 354 355 355 354 355 357 358 358 357 361 366 368 366 366 364 363 362 362 362 363 364 365 366 366 366 367 367 366 366 367 367 368 369 370 369 369 368 369 368 368 368 368 367 367 366 365 365 364
340 342 343 345 347 350 350 350 348 346 346 350 350 350 350 352 353 353 353 353 356 359 361 360 361 365 368 367 366 365 365 364 364 363 364 366 367 367 367 367 369 369 369 370 370 370 370 370 369 368 368 369 369 369 368 367 366 366 365 364 364 364 363
338 341 343 344 345 347 349 350 349 347 347 349 350 349 349 350 351 352 353 353 354 358 360 360 360 363 366 367 366 366 366 365 365 364 365 367 369 370 369 369 370 370 370 371 371 370 370 369 368 368 367 368 367 367 367 367 365 364 364 363 364 363 364

ECMWFFLT1_850_thetae_039.txt.gz
Theta_e
345 348 348 350 350 350 350 350 349 349 349 350 350 350 350 351 351 352 351 352 351 351 351 351 352 352 352 351 350 350 350 350 350 349 347 344 342 341 340 340 339 339 338 337 336 335 335 335 335 334 334 334 334 335 337 337 337 338 342 343 342 342 342
345 347 349 349 351 350 351 350 350 350 349 350 350 350 350 350 351 351 351 351 351 351 351 351 351 351 351 351 351 351 351 350 350 350 349 346 344 342 341 341 340 339 338 337 336 335 335 335 335 334 334 334 334 336 338 338 337 337 339 342 342 341 342
344 346 348 349 350 350 351 350 350 350 350 350 350 349 350 350 351 351 351 351 351 351 351 351 351 351 351 351 351 351 351 350 350 350 349 347 344 343 342 341 341 340 339 338 337 336 335 335 334 333 334 334 334 335 337 338 337 337 337 339 340 341 341
344 347 348 349 350 349 350 351 350 350 350 350 350 350 350 350 351 351 351 351 351 351 352 351 351 351 350 350 351 351 351 351 350 349 348 347 345 344 343 342 341 341 340 338 337 336 336 336 334 332 333 334 335 335 336 337 338 337 336 337 338 339 340
344 346 348 349 350 350 350 351 350 351 350 350 350 350 350 350 350 351 351 351 351 351 351 351 351 351 350 350 350 350 351 351 350 349 348 347 346 345 344 342 341 341 340 339 338 337 337 337 334 332 333 334 334 335 335 335 337 337 337 336 336 338 338
345 346 347 348 349 350 350 351 351 351 351 351 350 351 350 350 351 350 351 351 351 351 351 351 351 351 350 350 350 350 350 350 350 349 348 347 346 346 344 341 340 339 339 339 338 337 336 337 335 333 332 333 333 335 335 335 336 337 338 338 338 338 338
344 346 347 347 349 350 351 350 351 351 351 350 351 351 350 350 350 351 351 351 351 351 351 351 351 351 350 350 350 349 350 350 349 349 347 346 347 345 343 341 339 338 338 339 338 336 335 335 335 332 331 332 333 333 333 333 334 335 337 337 338 338 339
343 345 347 348 349 350 350 351 351 351 351 351 351 351 351 350 351 351 351 351 351 351 351 351 351 351 351 350 350 350 350 349 348 348 347 347 346 345 343 341 340 339 339 339 337 336 335 333 332 331 330 331 333 333 332 332 333 333 334 335 336 337 338
343 344 345 347 348 349 350 350 351 352 351 351 351 351 351 351 351 350 351 351 351 351 351 351 350 350 350 350 350 350 350 349 349 348 347 347 347 345 342 340 339 339 339 338 336 335 334 332 332 331 330 330 332 333 333 332 332 332 333 334 334 335 335
343 344 344 347 347 349 350 350 351 351 351 352 352 351 351 351 351 351 351 351 351 351 351 350 351 351 350 350 350 350 350 350 349 349 348 348 347 345 342 340 339 338 337 335 335 333 332 331 332 331 331 331 331 332 333 333 332 332 332 333 333 334 334
343 344 344 347 348 349 350 351 352 351 351 352 352 352 352 351 352 351 351 351 351 351 351 351 351 351 350 351 350 350 351 350 350 350 349 349 348 345 343 341 340 338 335 334 333 332 331 331 331 331 331 331 330 331 333 333 332 332 331 332 332 333 333
344 345 345 347 347 349 350 350 351 351 351 352 351 352 352 352 352 352 351 352 352 351 351 351 351 351 351 351 351 351 351 351 351 350 350 350 349 347 345 343 341 338 335 334 332 332 331 330 330 330 330 330 330 330 331 332 332 331 331 331 331 332 332
345 346 346 347 348 350 350 350 350 351 351 351 352 352 352 352 352 352 352 352 352 352 352 352 351 351 351 352 351 351 351 351 352 351 351 351 349 348 346 344 342 339 336 334 333 332 332 331 331 331 330 330 330 330 330 331 332 331 331 331 331 331 332
346 346 346 349 349 350 351 351 350 351 352 351 352 351 352 352 353 353 353 353 353 353 353 352 352 352 352 352 352 352 352 352 353 352 352 351 350 349 348 346 345 342 338 335 334 333 332 332 331 330 330 330 330 329 330 330 331 331 331 331 331 331 331
345 347 347 349 350 350 351 352 351 352 352 351 352 352 352 352 353 353 353 353 353 354 353 353 353 353 353 353 353 353 353 353 353 353 353 353 351 350 349 348 347 346 343 339 336 333 332 331 331 331 331 331 330 330 330 330 330 331 330 330 331 331 331
345 346 348 348 349 351 351 351 351 352 352 352 352 352 352 352 352 352 353 354 353 354 354 354 354 354 353 354 353 353 353 353 354 353 354 354 353 352 350 350 349 348 346 343 340 336 334 333 333 332 332 331 331 331 330 330 330 330 330 330 330 331 332
345 345 348 347 348 350 351 351 352 351 352 353 352 352 352 351 352 352 353 354 354 354 354 354 354 354 354 354 353 354 354 354 354 354 354 354 355 353 352 352 350 350 348 346 343 339 336 335 334 334 333 332 332 331 331 331 331 330 330 331 331 332 332
345 345 347 347 348 349 350 351 351 352 352 352 351 351 351 350 352 353 353 354 354 355 355 354 355 355 355 355 354 355 355 354 355 355 355 355 355 355 355 353 352 351 350 348 346 343 339 338 336 335 334 334 333 332 332 332 331 332 332 331 332 332 333
343 345 345 347 348 348 350 350 350 351 351 351 351 350 349 350 350 351 352 353 354 355 355 356 356 356 355 355 355 355 355 355 355 356 356 357 357 357 356 355 354 353 352 350 348 346 344 340 338 337 336 336 335 335 334 333 333 332 332 332 332 333 334
342 344 345 346 347 347 348 349 350 351 351 351 350 349 350 350 350 350 351 353 355 355 355 356 357 356 356 354 354 355 355 355 356 357 358 358 358 358 357 357 356 355 354 353 351 349 347 344 341 339 337 337 336 336 336 335 334 334 334 333 333 334 335
343 344 344 345 346 347 347 348 348 350 350 350 351 351 351 351 351 352 352 352 354 354 355 356 356 355 355 354 355 356 356 357 358 358 359 359 359 359 358 358 358 357 356 356 355 353 351 349 346 342 339 338 337 338 337 336 335 335 334 334 335 335 338
344 344 344 344 345 346 347 348 348 348 349 350 351 352 352 352 352 352 352 352 353 354 355 355 356 356 356 355 357 357 357 358 358 359 360 359 359 360 359 360 360 359 359 358 358 357 355 354 350 346 342 340 339 339 338 336 335 336 336 335 337 339 341
350 345 345 345 346 346 346 347 347 348 348 349 349 350 350 351 352 352 352 353 354 355 355 356 357 357 357 357 357 357 358 358 359 360 360 360 360 360 360 361 361 361 361 361 360 360 358 357 354 351 347 344 340 340 339 336 335 337 337 338 340 342 343
356 354 351 347 347 347 347 347 347 348 349 349 350 350 350 350 350 350 351 352 352 354 355 357 357 357 357 357 357 357 358 358 359 360 360 361 361 361 361 361 362 362 362 362 361 361 360 359 357 355 352 349 346 343 342 340 338 338 339 339 341 343 344
357 358 357 355 353 351 351 352 351 351 351 351 352 352 351 351 352 352 352 353 353 354 354 356 357 357 357 358 356 357 357 357 359 360 361 362 361 362 362 362 362 362 362 363 362 362 361 361 359 358 356 355 352 350 349 346 345 344 343 342 343 344 345
356 357 357 357 357 357 358 357 356 356 355 354 356 356 355 354 355 354 355 355 355 356 355 356 356 357 357 357 357 358 358 358 359 361 361 362 362 362 362 362 363 363 362 362 362 362 362 362 361 360 359 357 357 355 354 352 351 350 349 348 348 348 348
356 356 355 353 353 354 356 358 357 357 357 357 359 360 359 358 358 358 359 359 359 358 359 359 359 358 359 359 358 359 359 360 360 361 361 363 362 362 363 363 362 363 362 362 362 362 362 362 362 361 360 359 359 357 356 356 355 354 353 353 352 351 351
354 355 355 353 351 347 348 349 349 349 349 350 354 356 357 359 359 360 361 360 360 361 360 360 361 361 360 361 361 361 361 362 362 363 362 363 363 363 363 363 363 363 363 363 362 362 362 362 362 362 361 360 360 359 358 358 357 356 356 355 355 354 354
351 352 353 353 352 349 345 341 340 339 338 338 340 342 346 348 352 355 356 358 358 359 358 358 358 359 359 360 360 360 361 361 362 362 362 363 363 363 363 362 363 363 362 363 363 362 362 362 362 362 361 361 360 360 359 359 358 358 358 357 357 356 356
349 350 349 349 350 350 348 345 342 339 336 334 332 331 332 334 336 339 343 346 350 353 354 354 354 355 355 354 355 357 358 357 358 359 360 361 361 361 362 362 363 363 363 363 363 363 362 362 362 362 361 361 361 360 360 360 360 359 359 359 359 358 358
349 349 349 348 347 347 347 347 345 342 339 337 335 333 331 330 329 330 334 339 341 344 347 348 349 349 350 350 349 351 353 355 356 356 357 357 357 357 359 360 361 362 362 362 363 363 362 362 362 362 362 361 361 361 361 360 361 360 360 360 360 360 360
349 350 349 349 348 346 345 345 343 341 339 338 337 335 334 333 332 333 336 340 343 346 348 349 350 349 347 347 346 347 349 353 354 355 356 356 356 356 355 357 359 360 361 362 362 363 363 362 362 362 362 362 362 362 362 361 361 362 362 362 363 362 362
346 348 350 349 348 347 346 346 345 345 343 342 342 340 338 337 338 338 340 342 345 348 351 354 356 356 352 350 348 348 348 351 353 356 356 356 356 356 357 357 359 360 361 362 362 362 363 363 362 363 363 362 363 363 363 363 363 363 364 365 364 364 364
343 346 349 350 349 348 346 346 348 349 348 349 350 349 348 347 347 347 347 348 347 348 350 352 357 359 359 356 353 352 353 354 355 357 358 358 357 357 358 359 360 360 361 362 363 363 363 363 363 363 363 364 363 363 364 364 365 365 365 365 364 364 364
341 344 347 348 349 350 348 346 348 350 350 350 350 352 352 351 350 350 348 347 346 346 346 347 351 357 360 359 356 356 356 357 358 360 359 358 358 358 358 360 361 362 362 363 363 364 364 365 364 365 365 365 365 365 365 365 365 365 364 364 364 364 365
339 343 345 346 349 350 349 348 347 348 350 349 349 350 350 350 350 350 348 346 346 346 347 348 350 353 358 362 360 358 359 360 360 361 360 360 359 359 360 360 362 363 363 364 364 365 365 365 365 365 366 366 366 366 366 366 365 365 365 366 366 366 366
335 341 343 344 346 348 350 349 348 347 348 349 349 349 349 349 349 349 349 348 348 348 350 353 353 353 359 364 364 361 361 362 362 361 362 361 362 361 361 362 362 363 364 364 365 365 364 364 365 365 365 366 368 368 367 367 366 366 367 367 367 367 367
327 335 341 343 344 346 348 348 348 347 347 347 348 348 349 348 348 348 348 349 349 348 350 353 354 356 359 364 366 365 364 364 364 363 363 363 363 363 363 362 362 363 364 364 365 365 364 364 366 366 367 368 368 367 366 367 367 367 367 367 366 366 365

ECMWFFLT1_850_thetae_042.txt.gz
Theta_e
346 347 348 348 348 347 347 347 347 347 347 347 348 348 349 350 350 350 350 350 350 350 349 350 350 350 350 349 349 349 349 349 349 349 349 347 346 345 344 342 340 339 339 338 336 335 335 336 336 337 337 337 336 335 335 335 335 336 337 337 338 341 343
345 347 347 348 348 348 348 347 347 348 347 347 348 348 349 349 349 350 350 350 350 350 350 350 350 350 350 349 349 349 349 349 350 349 349 348 347 346 345 343 341 340 340 339 337 337 336 336 336 336 337 337 336 336 336 335 334 335 336 337 337 339 341
344 345 346 347 348 348 348 348 347 348 347 347 348 348 349 349 349 349 349 349 350 350 350 350 349 350 349 349 349 349 349 350 350 350 349 347 346 345 345 344 342 341 340 340 339 338 337 336 336 336 337 337 337 337 337 336 335 335 336 337 336 337 339
343 345 346 346 347 348 348 348 348 348 348 348 348 348 348 349 349 349 349 349 350 349 350 350 349 350 350 350 349 349 349 350 349 349 348 347 346 345 345 344 343 342 341 340 340 339 338 337 337 337 336 336 337 337 337 336 335 336 337 337 337 336 337
343 344 345 345 347 347 348 348 348 348 348 348 348 348 348 349 349 349 349 349 349 349 349 349 350 350 350 350 350 349 349 349 350 349 348 347 347 346 346 345 344 343 341 340 340 340 339 339 337 337 336 335 336 335 335 335 335 335 336 337 337 336 336
342 343 344 345 345 347 347 348 348 348 348 348 348 348 348 349 349 349 350 349 350 349 349 349 350 350 350 350 350 349 349 349 350 350 349 348 347 347 346 345 345 344 342 341 340 340 340 339 338 337 336 335 335 334 334 334 334 334 335 336 337 336 336
342 342 344 344 345 346 346 348 348 348 349 349 348 348 349 349 349 349 349 350 350 350 350 350 350 350 350 350 350 350 350 350 350 350 349 348 348 347 346 346 346 345 344 343 341 340 340 340 339 338 337 336 335 334 333 333 334 334 335 335 336 336 337
342 343 343 344 344 345 346 347 348 348 349 349 349 349 349 349 349 349 350 350 350 350 350 350 350 350 350 350 350 350 350 350 350 349 349 348 348 347 346 346 346 345 345 344 342 340 340 339 339 338 337 336 335 334 333 332 333 334 335 335 335 336 337
342 343 343 344 344 344 346 346 347 348 349 349 349 349 349 349 349 349 349 349 350 350 350 349 350 349 350 350 350 350 350 350 350 350 349 349 348 347 346 345 345 345 345 343 341 340 339 338 337 337 337 336 335 334 333 331 332 333 334 334 334 334 335
341 342 342 344 344 344 345 346 347 348 349 349 349 349 349 349 349 349 349 350 349 350 350 349 350 350 350 350 349 349 350 350 350 350 349 348 348 347 345 344 344 344 343 341 340 339 338 337 337 336 336 335 334 333 332 330 331 332 333 333 333 333 332
339 341 342 343 343 344 345 346 348 348 349 350 349 349 349 349 350 349 349 350 350 350 350 349 350 350 350 350 350 350 350 350 350 350 349 348 348 347 346 345 345 343 342 341 340 339 337 337 336 336 334 332 331 331 330 329 329 330 332 332 333 332 332
337 339 341 342 342 344 345 346 348 348 349 350 349 350 349 349 349 349 349 350 350 350 350 350 350 350 350 350 350 350 350 350 350 349 349 349 348 348 347 346 345 343 342 341 340 339 337 336 336 335 333 331 329 329 329 329 329 330 330 331 332 333 333
336 338 339 341 342 343 345 346 347 348 349 350 349 350 349 349 349 350 350 350 350 350 350 350 350 350 350 350 350 350 350 350 350 349 349 348 348 348 347 346 345 344 342 341 340 339 338 337 336 334 332 330 329 329 328 328 329 329 330 330 331 332 332
334 337 338 340 342 343 345 346 347 349 349 349 350 350 349 350 350 350 350 349 350 350 350 350 350 350 350 350 350 350 350 350 350 349 349 349 348 348 348 347 346 345 343 342 341 339 338 337 336 334 332 331 330 329 329 329 329 329 329 329 330 331 331
331 336 338 339 341 343 344 346 347 348 349 349 350 350 350 350 350 350 350 350 350 350 350 350 350 350 350 350 350 350 350 349 349 349 349 349 349 349 348 348 347 346 345 344 342 340 338 338 337 336 335 333 332 331 330 330 329 329 329 329 329 330 330
329 336 339 339 341 343 344 346 347 348 349 350 349 350 350 350 350 350 350 350 350 350 350 350 350 350 350 350 350 350 349 349 349 349 349 349 349 349 349 349 348 347 346 345 343 342 340 339 338 337 336 334 333 333 332 331 330 329 328 328 328 329 329
331 337 339 340 341 342 343 346 347 348 349 350 349 350 350 350 351 351 350 350 350 350 350 350 350 350 350 350 350 350 349 350 350 349 349 349 350 350 350 350 349 349 348 346 345 343 342 341 339 337 336 335 335 334 334 332 330 329 329 329 328 329 329
336 338 340 341 341 343 344 345 347 348 349 350 350 349 350 351 351 351 351 351 351 351 351 351 351 351 351 350 350 350 350 350 350 350 350 350 350 350 351 351 351 350 350 348 346 345 344 342 340 337 336 336 335 335 334 332 331 330 330 329 329 329 329
339 339 340 342 342 343 345 346 347 348 348 349 350 349 350 351 350 351 351 351 351 351 351 351 351 351 351 351 350 351 350 350 350 350 350 350 350 351 351 351 352 352 351 350 348 346 345 343 341 338 338 337 336 335 334 333 332 331 331 331 330 330 330
340 342 341 343 344 343 345 346 347 348 349 349 349 349 350 350 350 351 351 351 351 351 351 352 352 351 351 351 351 351 351 351 351 351 351 351 351 351 352 352 352 353 352 352 351 350 348 345 342 340 338 338 337 336 335 335 333 333 333 332 332 332 332
339 343 343 344 346 345 346 348 348 348 349 349 349 350 350 350 351 351 351 351 352 352 352 352 352 352 352 351 352 352 351 352 352 351 351 351 351 352 353 353 353 354 354 354 354 353 351 348 346 344 341 339 338 337 337 336 335 335 335 334 334 335 335
339 341 344 344 345 346 346 347 348 349 349 349 350 350 350 351 351 351 351 352 352 352 352 352 352 352 351 352 352 352 352 352 352 352 352 353 353 353 353 354 354 355 355 356 356 356 355 354 352 349 346 344 343 341 338 336 335 336 336 335 336 337 337
343 340 343 344 345 347 348 348 349 349 350 350 350 350 350 351 351 351 352 352 352 352 352 352 352 352 352 352 352 352 353 352 352 353 353 353 354 354 354 355 355 356 357 357 357 357 357 356 356 354 351 349 348 345 340 336 335 336 336 336 338 338 339
349 344 343 344 345 346 347 349 349 350 350 350 350 351 351 351 351 351 352 352 352 352 352 352 352 351 352 352 351 352 352 352 353 353 353 354 354 355 356 356 357 358 358 358 358 358 358 358 358 357 356 355 353 350 347 343 340 340 340 340 340 341 340
353 349 345 344 345 346 347 348 349 350 350 350 351 351 351 351 351 351 351 352 352 352 353 352 351 351 351 351 351 352 352 352 353 353 354 354 355 356 357 358 358 359 359 359 359 359 360 360 360 360 360 359 358 356 355 353 350 348 348 347 346 346 345
354 353 351 347 346 346 346 347 348 349 349 349 350 351 351 351 351 351 351 351 352 352 352 352 350 350 350 350 351 352 352 353 354 354 355 355 356 357 358 358 359 359 359 360 360 360 361 360 360 361 361 361 361 360 359 358 357 355 354 353 352 351 350
353 355 354 352 351 348 347 347 347 348 348 348 349 349 350 350 350 351 352 352 352 352 352 351 351 350 350 351 352 353 353 354 355 355 356 357 356 357 358 358 359 360 360 361 361 361 361 361 361 362 362 362 362 361 361 360 359 358 357 356 355 355 353
352 354 355 356 355 353 351 350 349 348 348 348 348 348 348 349 349 350 351 351 352 352 352 351 352 352 352 352 353 354 355 356 356 357 357 358 358 358 359 359 360 360 361 361 361 361 362 362 362 362 362 362 362 362 362 361 360 360 359 358 357 357 356
350 351 353 356 357 357 356 355 354 354 352 351 350 349 349 349 350 350 351 351 352 352 352 352 353 353 354 355 355 356 356 356 357 358 358 358 359 359 359 359 360 360 361 361 362 362 362 362 362 363 362 362 362 362 362 361 361 361 360 359 359 358 358
349 349 350 352 354 356 358 358 358 359 359 358 356 354 353 352 352 353 353 353 354 355 355 355 356 356 356 357 357 357 358 358 359 359 359 360 360 360 360 361 361 361 361 362 362 362 363 363 363 363 363 363 362 362 361 361 361 361 360 360 360 359 359
348 348 348 349 350 352 354 357 358 358 360 361 361 360 358 356 356 357 358 358 359 359 359 359 359 359 359 359 359 359 359 360 360 360 360 360 360 360 361 361 361 362 361 362 362 362 362 363 363 363 363 363 362 362 361 361 361 361 361 360 360 359 359
347 348 348 349 349 349 350 352 354 355 357 358 360 360 360 359 359 360 360 360 360 360 360 360 359 359 359 359 359 358 358 358 358 357 358 359 360 360 360 360 361 361 361 361 362 362 362 362 362 363 363 363 363 363 362 361 361 361 361 361 361 360 361
347 348 348 349 349 350 350 350 351 352 353 354 355 356 356 356 356 357 357 357 357 356 357 357 356 356 355 354 354 354 354 354 354 355 355 356 358 359 359 359 360 360 360 361 361 361 361 361 362 362 362 363 363 362 362 362 362 362 362 361 362 362 362
344 347 348 348 349 350 351 351 352 352 352 352 352 352 351 350 349 349 349 348 348 348 350 351 351 351 350 349 349 349 349 350 351 352 353 355 357 358 358 359 359 360 360 360 360 360 361 361 361 362 362 362 363 362 362 362 362 362 362 363 363 363 364
338 345 348 348 348 348 349 350 351 351 351 351 351 350 350 349 347 347 346 343 342 342 341 342 344 346 347 347 347 346 346 347 349 351 353 355 356 358 358 358 359 359 360 359 360 361 361 361 362 362 363 363 363 363 363 363 364 364 364 364 364 365 365
328 339 346 347 347 348 348 347 348 349 348 349 349 348 349 349 348 348 347 346 346 346 343 342 342 345 348 349 348 348 349 349 350 353 354 356 357 358 358 358 358 359 360 360 361 361 362 362 363 363 364 364 364 365 365 364 364 365 365 365 365 365 365
319 330 340 345 346 347 348 347 347 348 348 347 347 347 347 348 348 347 347 347 348 348 348 348 347 348 353 355 354 355 356 356 355 355 357 358 359 359 359 359 359 359 360 361 361 362 363 364 364 364 364 364 364 365 365 365 365 365 365 366 366 365 366
314 321 333 343 345 345 347 347 347 347 347 347 347 347 347 346 346 346 346 345 344 344 346 350 351 353 357 360 361 360 360 361 360 359 359 360 360 360 360 361 360 360 361 362 362 363 364 364 365 364 364 364 364 365 366 366 367 367 367 367 366 367 366

ECMWFFLT1_850_thetae_045.txt.gz
Theta_e
350 351 350 350 350 349 349 348 348 348 348 348 348 348 348 348 348 347 347 347 347 348 348 348 348 348 348 348 348 348 348 348 347 346 345 345 345 342 338 337 337 337 338 339 339 338 337 336 335 336 337 338 339 340 340 340 341 341 340 339 338 338 339
349 350 350 350 350 349 349 348 348 348 348 348 347 347 348 347 347 346 346 347 347 347 348 348 348 348 348 348 348 349 349 348 348 347 347 346 345 343 341 339 339 339 339 339 339 339 338 337 336 336 336 338 338 339 339 339 339 340 340 339 338 337 337
348 349 350 350 350 349 349 348 348 348 348 348 347 347 347 347 346 345 346 347 347 348 348 348 348 348 348 348 349 349 349 349 349 348 348 347 346 345 343 342 341 341 342 341 340 339 339 338 337 336 336 337 338 338 338 338 338 339 340 340 339 338 337
345 346 348 349 349 349 349 349 348 348 348 347 347 347 347 347 346 346 346 346 347 347 348 348 348 348 348 348 348 349 349 349 349 349 348 347 346 346 345 344 343 343 343 342 341 340 339 339 338 337 337 337 337 338 338 338 338 338 339 340 340 340 338
343 344 347 349 349 349 349 349 348 348 348 348 347 347 347 347 347 347 347 346 347 347 347 347 348 348 348 348 348 348 348 349 349 348 348 348 347 347 346 345 345 344 343 342 341 340 339 339 339 338 337 337 337 337 337 338 338 338 339 339 340 340 340
343 344 347 348 348 349 349 348 348 348 348 348 348 347 347 347 347 347 347 347 347 347 348 348 348 348 348 348 348 348 349 348 349 349 348 348 348 347 347 346 345 343 343 342 342 341 340 340 340 339 338 337 337 337 336 337 337 338 339 339 339 340 339
343 344 344 345 347 348 348 348 348 348 348 348 348 348 348 347 347 348 348 348 348 348 348 348 348 348 348 348 348 348 348 348 349 348 349 349 348 348 347 346 345 343 343 342 341 341 341 340 340 339 339 338 337 336 336 336 336 337 338 338 338 338 338
341 341 341 343 345 347 348 347 348 348 348 348 348 348 348 348 348 348 348 348 348 348 348 348 348 348 348 348 348 348 348 348 349 349 348 349 349 348 348 347 345 344 344 343 342 341 341 340 340 339 339 338 337 337 336 335 335 336 336 337 337 337 337
340 339 339 341 343 346 347 346 347 349 348 348 348 348 348 347 348 348 347 348 347 348 348 348 348 348 348 348 348 348 348 348 349 349 349 349 348 348 348 348 347 345 344 343 343 342 341 341 340 339 339 338 337 337 336 335 335 335 335 335 335 336 336
340 339 338 341 343 345 347 347 348 349 348 348 348 348 348 347 348 348 347 348 348 348 348 348 348 348 348 348 348 348 348 348 348 349 349 349 348 348 348 348 348 346 345 344 344 342 341 341 341 340 340 339 338 337 336 335 334 334 333 333 333 334 335
341 340 340 341 343 344 346 348 348 348 348 348 348 348 348 347 348 348 348 348 348 348 348 348 348 348 348 348 348 349 348 348 348 349 349 349 348 348 348 348 348 346 344 344 343 341 340 340 340 339 339 339 338 336 336 335 334 333 333 332 332 332 333
337 340 341 342 343 344 345 346 346 346 347 348 348 348 348 347 348 348 348 348 348 348 348 348 348 348 348 348 349 349 349 348 348 348 349 349 348 348 348 348 347 346 344 343 342 340 339 338 338 338 337 337 337 335 334 334 334 333 332 332 331 331 332
330 335 339 341 343 343 344 345 345 346 346 347 347 347 348 348 348 348 348 348 348 348 348 348 348 348 348 349 349 349 349 348 348 348 348 348 348 348 348 348 347 346 345 343 342 341 339 337 336 336 336 336 335 334 333 333 333 333 332 331 331 330 330
329 332 335 339 342 343 343 344 345 346 346 347 347 348 348 348 348 348 348 348 348 349 348 348 349 348 348 349 349 349 348 348 348 348 348 348 348 348 348 348 348 347 346 345 343 341 339 337 336 335 335 335 333 333 332 332 332 331 330 330 330 329 330
334 333 334 337 339 341 343 343 344 345 346 346 347 348 348 348 348 348 348 348 348 348 349 348 348 348 348 349 349 349 348 348 348 347 348 348 348 348 348 348 348 347 347 346 344 342 341 339 338 336 335 334 333 332 332 331 330 330 329 329 328 329 329
341 335 334 335 335 337 340 342 343 344 345 346 347 347 348 348 348 348 348 349 348 348 349 348 348 348 349 349 349 348 348 348 348 347 348 348 348 348 348 348 348 348 348 347 346 345 343 341 339 337 335 334 333 332 332 331 330 329 328 328 328 328 329
349 341 336 334 333 333 335 339 342 344 345 346 347 347 348 347 348 348 348 348 348 349 348 348 348 348 349 349 348 348 348 348 348 348 347 348 348 348 348 348 348 348 348 348 348 347 345 343 342 338 336 335 334 333 333 331 329 329 329 329 329 329 329
354 349 341 336 333 332 333 337 341 344 345 345 346 347 347 347 348 348 348 349 348 349 349 348 348 348 349 349 349 348 348 348 348 348 348 347 348 348 348 348 348 348 348 348 348 348 347 346 344 340 338 338 335 335 334 331 329 330 329 329 329 329 329
356 353 345 337 334 332 333 336 339 341 343 344 346 346 347 347 348 348 348 349 349 349 349 349 348 349 349 349 349 349 349 349 349 348 348 348 348 348 348 348 348 348 348 348 349 349 348 348 347 344 342 340 338 336 335 332 330 330 329 329 329 329 329
355 355 347 338 335 335 335 335 337 340 342 343 345 346 347 347 348 348 349 349 349 349 349 349 349 349 349 349 349 349 349 349 349 349 348 348 348 348 348 348 348 349 349 349 349 349 349 349 349 348 345 343 340 338 337 335 332 330 330 330 329 330 330
354 355 350 342 339 338 335 335 337 341 343 344 346 348 348 348 349 349 349 349 349 349 349 349 349 349 349 349 350 349 350 350 349 349 349 348 348 348 348 348 349 349 349 349 350 350 350 350 350 350 349 346 344 342 339 336 333 332 331 331 331 331 331
354 354 351 345 341 339 336 335 338 341 343 345 347 348 348 348 349 349 349 349 349 349 349 349 349 350 350 350 350 349 350 350 350 349 349 349 349 349 349 349 349 349 349 350 350 350 351 351 351 351 351 348 348 346 341 337 335 334 333 333 333 333 333
353 354 350 344 342 341 338 338 341 343 346 348 348 348 348 348 349 349 350 350 349 349 350 349 350 350 349 350 350 350 350 350 350 349 349 349 349 349 349 349 349 349 350 350 351 351 352 352 352 353 352 351 351 349 344 339 337 336 335 335 335 336 336
352 353 350 343 342 343 340 341 343 344 346 348 348 348 348 349 350 350 350 350 349 350 350 350 350 350 350 350 350 350 350 350 349 349 349 349 349 349 350 350 350 350 350 351 351 352 352 353 354 354 354 354 354 352 349 346 343 340 339 340 340 340 339
352 352 351 345 344 345 342 342 344 344 346 347 348 348 348 349 350 350 350 350 350 350 350 350 350 350 349 350 350 350 350 349 349 349 349 349 350 349 350 350 350 351 351 351 352 353 353 354 354 355 356 356 356 355 353 353 351 346 344 345 345 345 344
351 351 351 348 346 346 345 344 345 345 347 347 347 348 349 349 350 350 350 350 350 350 350 350 349 349 349 350 350 350 350 350 349 350 350 350 350 350 351 351 352 352 353 353 354 354 355 355 356 356 357 357 358 357 357 357 356 353 351 351 350 350 350
351 352 352 350 348 347 347 347 346 346 347 347 347 348 349 349 350 349 350 350 350 350 349 348 348 349 349 350 350 350 350 350 350 350 351 351 351 351 352 352 353 353 354 354 355 355 356 357 357 358 358 358 359 359 359 359 359 358 357 356 355 355 355
350 351 352 352 351 348 348 349 348 348 349 348 348 349 349 349 350 350 350 350 349 349 348 348 348 349 349 349 350 350 351 351 351 351 351 352 352 352 353 353 354 355 355 355 356 356 357 358 358 359 359 359 360 360 360 361 360 360 360 360 359 358 357
348 350 352 352 352 351 350 350 349 350 350 349 349 350 349 350 350 350 350 350 349 349 348 349 349 349 349 350 350 351 351 350 351 351 352 352 353 353 354 354 355 355 356 356 356 357 358 359 359 359 360 360 360 360 361 361 361 361 361 361 360 359 359
348 350 351 353 354 353 353 352 351 350 351 350 351 350 350 351 350 350 350 350 349 349 349 349 350 349 350 350 350 350 351 351 352 352 353 353 354 354 355 356 356 357 357 357 357 358 358 359 359 360 360 360 361 361 361 362 362 362 362 361 361 360 360
347 349 351 353 354 355 355 354 353 352 351 351 351 351 350 351 351 351 351 351 350 350 349 349 350 350 350 350 351 351 352 353 353 354 354 355 355 356 357 357 357 357 358 358 358 358 359 359 360 360 361 361 362 362 362 362 362 362 362 361 361 360 360
346 347 350 352 354 355 357 357 355 353 352 351 351 351 351 351 351 351 351 351 351 351 350 350 350 350 350 351 352 353 353 354 355 355 356 356 357 357 358 358 358 359 359 359 359 359 360 360 360 360 361 361 362 362 362 362 362 362 362 362 361 361 360
342 346 348 350 353 354 356 358 358 357 355 354 352 351 351 351 352 352 352 352 351 351 351 351 351 351 352 353 354 354 355 355 356 357 358 358 358 359 359 359 359 360 360 360 360 360 360 360 360 361 361 361 361 361 362 362 362 362 362 362 362 361 361
333 342 347 349 352 353 354 355 357 357 357 357 356 355 354 353 353 353 353 353 352 352 352 353 353 354 355 355 356 357 357 358 359 359 359 359 359 359 359 359 360 360 360 360 360 360 360 361 361 361 361 361 361 361 362 362 362 362 362 362 362 361 361
324 335 344 347 349 350 351 352 353 354 355 355 356 357 358 357 358 358 358 358 358 357 357 358 358 359 359 359 360 359 359 360 359 359 359 358 358 359 359 359 359 360 360 360 360 360 361 361 361 361 361 361 362 361 361 362 362 362 362 362 362 362 361
319 328 339 345 347 348 348 349 349 350 351 351 352 354 354 356 357 358 359 361 361 361 361 360 360 360 360 360 359 359 358 358 357 357 356 356 356 357 357 358 359 359 360 360 360 360 361 361 361 361 362 362 362 362 362 362 362 363 363 362 363 363 362
315 320 330 340 345 346 347 347 347 347 348 348 349 349 349 351 352 353 354 355 356 357 358 358 359 359 358 358 357 356 355 354 353 353 353 352 354 356 357 358 358 358 359 359 359 359 360 360 361 361 361 362 363 363 363 363 363 364 364 363 363 363 364
312 316 325 336 343 345 346 346 346 346 346 346 346 346 346 346 346 347 349 349 350 351 351 351 351 351 351 352 352 351 351 350 349 350 352 352 354 356 357 358 359 359 359 359 358 359 360 360 361 362 362 363 363 363 364 364 364 364 364 364 365 364 364

ECMWFFLT1_850_thetae_048.txt.gz
Theta_e
348 350 352 354 356 356 357 357 357 357 357 357 357 356 356 355 355 354 351 346 344 345 346 347 347 347 347 347 346 345 345 343 342 340 339 339 339 340 338 336 336 336 335 334 333 334 336 340 343 340 339 341 342 341 343 344 344 344 344 344 344 343 342
346 348 350 353 355 355 356 357 357 357 357 357 357 356 356 356 354 353 351 347 345 345 346 347 347 347 347 347 346 346 345 344 343 343 343 344 344 342 340 338 337 337 336 336 334 334 336 338 340 339 339 341 342 341 342 345 345 344 344 344 344 344 343
344 346 348 351 354 354 355 356 356 357 356 357 357 356 355 354 352 350 349 348 345 345 346 347 347 347 347 347 347 346 346 346 346 347 347 347 346 343 340 338 338 339 339 337 335 335 336 338 339 339 339 339 341 341 342 344 344 343 343 343 344 344 342
342 344 346 349 353 354 354 356 356 356 356 356 356 354 353 352 351 350 349 347 345 344 344 345 346 347 347 346 347 347 347 347 348 348 348 348 347 345 343 340 340 341 340 337 336 337 337 338 339 339 339 338 339 340 341 343 343 343 343 342 344 344 340
341 343 344 348 352 354 355 355 355 355 356 356 355 354 353 353 352 352 350 347 345 344 344 344 345 346 346 346 346 347 347 347 348 348 348 349 348 347 346 344 343 343 341 338 338 338 338 339 339 339 339 339 340 340 341 341 341 342 342 342 344 343 340
338 340 342 345 349 352 354 355 355 355 354 354 355 355 355 355 354 353 351 347 346 346 345 344 345 346 346 346 346 346 347 347 348 348 348 349 349 348 347 346 345 344 343 340 339 340 340 340 339 339 339 340 340 339 340 340 340 341 341 343 344 342 342
336 340 340 341 345 350 353 354 354 354 354 354 355 356 356 356 355 354 353 351 348 348 347 344 344 345 345 346 346 347 347 347 347 348 348 349 349 349 348 347 346 345 345 344 343 342 342 341 340 339 339 339 339 339 339 338 338 339 340 342 343 341 342
335 339 340 340 342 345 350 354 354 353 354 354 354 355 356 355 355 355 355 354 352 350 349 348 346 344 344 345 345 346 346 347 347 347 348 348 349 349 349 348 346 346 346 346 345 343 342 342 340 339 338 339 338 339 339 338 338 339 339 341 342 340 340
335 337 341 342 341 342 348 353 354 354 354 354 353 355 355 355 355 355 355 355 354 352 350 350 350 347 344 344 345 345 346 346 347 347 348 348 348 349 349 348 347 346 346 346 345 344 342 342 341 339 338 338 338 338 338 338 339 339 338 339 339 338 338
335 339 343 343 340 343 348 352 354 354 354 355 354 354 355 355 355 355 355 355 355 353 352 352 354 352 347 344 344 345 346 346 347 347 347 348 349 349 350 350 349 347 346 346 347 345 342 341 341 340 338 338 338 338 338 338 338 338 337 337 336 336 336
336 341 345 344 342 345 348 351 354 354 354 355 354 354 355 355 355 356 355 355 354 355 355 354 355 355 352 347 345 345 345 345 347 348 347 348 350 351 351 352 353 350 346 345 347 347 343 340 340 339 338 338 338 337 337 337 337 337 337 336 335 334 333
341 345 350 349 348 349 348 350 354 355 355 355 354 354 354 354 355 355 355 355 355 354 356 356 355 356 355 352 349 347 345 345 347 348 348 347 350 353 353 354 354 353 348 344 345 347 344 340 339 339 338 338 338 338 337 337 337 336 336 337 335 333 332
338 340 346 349 348 349 350 352 355 356 355 355 354 354 354 355 355 354 355 355 355 355 356 356 356 357 356 355 352 349 346 345 346 347 348 347 349 353 355 354 355 355 352 346 344 346 346 342 339 338 339 338 338 339 338 338 338 337 336 336 336 334 332
340 337 340 344 347 348 350 353 356 357 356 355 355 354 355 355 354 354 355 355 355 356 356 356 357 357 357 356 354 351 347 346 346 346 347 348 348 351 354 355 355 356 355 350 344 346 347 345 341 338 338 339 338 339 339 339 339 338 336 336 335 334 332
348 343 340 341 346 349 352 353 356 359 356 354 355 355 354 355 354 354 355 355 355 355 355 357 357 357 357 356 353 351 348 348 347 346 346 347 347 348 350 353 354 354 354 350 345 345 346 346 345 341 337 338 338 338 339 339 338 337 336 335 334 333 331
354 352 350 347 346 348 350 353 356 357 355 353 354 355 355 355 355 355 355 355 356 355 355 357 357 357 357 355 352 350 349 349 348 346 346 347 347 347 348 350 350 351 351 349 345 345 345 346 347 345 341 337 337 338 337 337 336 335 334 333 332 332 331
355 357 358 358 354 351 349 351 354 357 355 350 351 354 354 355 355 355 355 356 356 355 356 356 356 356 355 354 353 351 349 348 347 347 346 346 346 347 347 348 349 348 349 348 347 346 345 346 346 347 347 343 339 337 336 334 334 333 332 331 330 330 330
355 356 357 359 360 359 355 350 350 356 356 350 349 352 354 355 356 355 355 356 356 356 356 356 357 356 354 354 353 351 348 347 347 347 347 346 347 347 347 347 348 348 348 348 348 347 346 347 346 346 348 348 345 342 339 334 332 331 331 330 329 329 329
352 354 356 358 359 360 359 353 348 352 355 352 350 352 352 354 355 354 355 356 356 356 356 357 358 356 354 354 353 350 348 347 347 347 347 347 346 346 347 347 348 348 348 348 348 348 347 347 347 346 346 348 347 345 342 338 333 330 330 329 328 329 329
346 349 352 355 357 359 360 356 348 347 353 355 352 351 352 353 354 354 355 356 356 356 356 357 359 357 354 352 351 349 348 347 347 348 347 347 347 347 346 347 347 348 348 348 349 348 348 348 348 347 347 347 345 343 343 341 335 330 330 330 329 329 329
342 344 348 353 357 358 359 357 350 343 349 355 353 352 354 354 355 355 355 356 356 357 357 357 359 358 354 351 350 349 348 347 347 347 348 347 347 347 347 347 348 348 348 349 349 348 348 348 348 348 347 347 346 344 342 339 335 331 330 330 330 330 330
339 341 345 350 355 357 358 358 351 343 344 352 354 353 354 355 356 355 355 356 356 356 357 358 358 358 355 351 349 348 347 347 347 348 348 348 348 348 347 347 348 348 348 349 350 350 349 348 348 349 348 347 346 346 343 339 335 333 331 330 330 331 331
338 341 345 350 354 357 358 355 351 345 344 351 353 352 353 355 355 355 355 355 356 357 357 357 357 356 353 350 348 347 347 347 347 348 348 348 348 348 348 347 347 348 348 348 350 352 350 348 348 348 348 347 347 346 344 340 336 334 331 331 331 331 332
340 342 346 351 355 357 357 354 350 347 348 352 353 352 353 355 355 355 355 355 356 357 357 357 356 353 351 349 348 347 347 347 347 348 348 349 349 348 348 348 348 348 348 347 349 351 351 349 349 348 348 348 348 347 345 342 340 337 333 333 333 333 334
339 342 346 352 355 356 357 356 351 348 350 354 353 351 354 355 354 355 356 356 357 357 358 357 354 351 348 348 347 347 347 348 347 348 348 348 349 349 348 348 348 348 348 348 348 350 350 350 350 350 350 350 350 349 347 345 345 342 337 336 336 336 336
335 340 347 353 354 354 357 357 353 351 352 353 353 353 355 355 355 355 356 357 358 358 357 354 350 348 348 348 348 348 348 348 348 348 349 349 349 349 349 349 349 349 348 348 348 349 350 350 351 352 353 353 353 352 350 349 349 347 342 339 339 339 340
336 341 347 352 353 354 357 358 355 352 352 353 353 354 355 355 355 356 356 356 356 355 354 352 349 348 349 348 348 348 348 348 348 348 349 349 349 349 350 349 349 349 349 349 350 350 349 351 353 355 356 356 357 356 354 353 353 352 347 344 343 343 345
335 340 345 351 353 354 357 359 356 352 352 354 354 355 355 355 355 357 356 354 352 351 352 354 351 349 348 348 348 349 348 348 349 349 349 350 349 350 350 349 350 351 351 351 353 354 352 352 354 357 359 359 359 359 358 357 356 355 354 351 350 349 350
332 339 345 349 352 354 356 359 359 356 353 355 356 354 355 357 356 355 353 349 349 352 354 354 351 349 348 348 348 349 349 348 349 349 349 350 350 350 350 350 351 353 353 353 355 357 356 355 355 356 358 360 360 359 360 360 359 358 357 357 356 355 355
332 339 344 348 352 354 356 358 361 361 356 355 357 356 357 358 357 353 351 350 351 354 355 354 351 349 349 349 348 349 349 349 349 350 350 350 350 350 350 350 351 354 355 353 354 357 357 357 358 358 359 360 361 361 361 362 361 360 359 359 360 359 359
330 336 341 347 351 354 356 357 359 361 360 358 357 357 358 360 358 353 353 354 351 352 355 355 353 351 349 349 349 350 349 349 350 350 350 351 351 351 351 351 351 354 355 355 355 357 358 359 360 361 362 362 362 363 363 363 363 362 361 360 360 361 361
328 336 342 346 350 354 357 358 357 359 361 360 359 359 359 360 360 356 354 354 352 352 355 355 352 350 350 349 350 350 350 351 351 350 351 351 351 352 352 352 353 354 354 356 359 360 361 361 362 363 363 363 363 364 364 364 365 365 364 362 361 362 361
325 334 341 344 346 351 355 358 358 358 360 360 361 361 361 362 363 360 356 353 352 353 355 355 352 350 350 349 350 350 351 351 351 351 352 352 352 353 353 352 353 355 354 355 359 360 361 363 363 363 363 363 363 364 364 364 365 366 365 364 362 362 362
322 331 340 344 345 348 351 355 357 357 357 358 359 361 363 363 364 363 358 353 352 353 353 353 352 350 350 351 351 352 352 352 352 352 354 354 353 355 357 357 356 357 357 356 358 361 362 362 363 363 363 364 364 364 365 365 365 366 366 365 364 363 362
319 326 336 342 345 346 348 352 355 356 357 358 357 359 361 360 359 359 356 352 352 352 351 351 351 351 352 354 356 357 356 355 355 355 357 360 359 358 360 362 361 362 362 360 360 361 362 362 363 363 363 364 364 365 365 365 365 365 365 365 365 363 362
317 323 332 341 345 345 346 348 351 354 357 358 357 358 358 356 355 355 355 355 354 353 352 352 352 353 356 359 361 362 360 358 360 360 360 364 365 361 358 360 362 363 364 365 364 362 362 363 364 364 365 365 365 365 365 366 366 365 365 364 363 362 362
316 319 328 339 344 344 345 346 347 350 352 354 356 357 357 358 358 358 358 359 359 357 357 358 356 357 361 364 365 365 362 359 360 361 360 362 366 364 359 358 360 361 361 363 364 363 362 362 363 363 363 364 365 365 365 364 364 364 364 363 362 361 361
317 317 323 334 341 343 344 344 345 347 348 348 351 353 354 356 358 358 358 361 361 362 363 362 360 360 364 366 366 366 366 363 363 364 364 363 364 363 361 359 359 360 360 361 362 362 362 361 360 361 361 362 363 364 364 363 363 362 363 362 362 362 362

ECMWFFLT1_850_thetae_051.txt.gz
Theta_e
346 346 350 352 353 353 354 357 359 360 360 360 360 359 357 357 357 357 359 359 354 346 341 338 337 337 336 335 332 332 328 327 327 325 326 326 327 337 344 342 336 331 336 342 341 339 338 338 346 352 352 346 342 342 343 344 344 344 344 342 343 342 342
347 346 349 352 354 353 353 356 360 361 361 361 360 360 358 358 359 358 359 360 356 349 343 339 339 339 337 337 336 335 334 332 331 330 329 330 331 337 343 344 342 335 332 340 347 347 344 338 335 342 349 347 344 342 342 343 344 343 344 343 343 342 340
346 345 347 351 353 353 354 355 359 361 360 361 362 360 359 359 359 359 360 361 358 353 348 343 341 340 339 339 338 338 337 336 336 335 334 335 336 339 344 343 341 339 334 335 345 350 349 345 337 333 339 345 347 346 342 342 344 344 344 343 342 343 342
346 346 345 349 351 353 355 356 358 362 360 361 362 361 361 360 360 360 360 361 360 356 351 345 341 342 342 341 340 340 339 339 338 338 337 341 341 341 345 345 340 340 342 340 343 348 351 351 345 335 334 340 345 346 344 342 343 344 345 344 342 341 341
345 345 344 347 349 352 356 355 356 362 361 360 362 362 361 360 360 361 361 361 361 357 352 347 345 343 343 343 343 342 342 342 341 341 340 343 347 346 348 350 345 343 347 347 346 349 351 352 346 337 335 337 340 343 343 341 341 343 344 344 342 341 342
341 343 344 346 348 352 355 354 354 360 361 360 362 362 361 361 361 361 361 361 361 361 358 355 350 345 343 344 345 344 345 345 344 345 345 344 348 351 350 350 350 348 349 351 350 351 353 352 347 339 337 338 339 343 345 341 340 342 344 344 343 342 345
336 339 343 345 347 349 351 353 353 355 359 359 361 362 362 361 361 361 361 361 362 362 362 359 354 349 345 345 346 346 346 346 346 346 346 346 349 351 349 349 351 352 353 352 352 353 354 352 349 343 339 337 339 345 348 343 339 342 343 342 343 343 344
332 336 340 344 347 348 349 352 352 353 356 357 358 361 361 360 361 361 361 362 361 362 362 361 358 354 347 344 345 347 346 346 346 345 345 348 351 352 350 348 350 353 354 354 353 354 355 352 348 345 342 340 339 343 347 346 340 342 347 344 341 343 342
332 334 338 342 345 346 347 349 351 352 354 356 358 360 360 361 361 361 361 361 362 363 362 360 360 357 350 345 344 346 346 346 347 346 345 349 352 353 353 352 350 351 353 353 354 355 355 353 349 347 344 342 341 340 343 346 342 342 348 346 339 340 342
333 333 336 340 343 345 346 346 348 350 353 356 358 359 360 361 361 360 361 361 361 362 361 360 360 360 355 349 345 346 348 347 347 348 348 351 354 355 355 355 353 353 352 351 352 354 355 354 352 349 344 341 342 340 338 342 342 339 342 343 340 338 339
333 333 334 338 341 343 345 345 347 351 355 357 358 359 360 360 361 361 360 361 361 360 361 360 359 360 359 354 351 352 350 347 349 352 351 352 355 355 355 355 355 356 354 352 352 353 354 354 352 350 346 341 340 341 338 337 338 337 337 340 341 339 337
333 333 335 338 341 343 341 343 347 351 356 358 357 357 360 360 360 361 360 360 360 360 361 360 359 359 360 359 357 356 353 350 351 354 354 353 355 355 355 355 355 355 356 355 354 354 354 354 350 348 348 344 340 340 338 336 336 336 336 341 344 342 339
336 335 337 339 340 340 340 340 346 350 354 358 358 357 358 360 360 359 359 360 360 360 359 359 359 358 360 360 359 357 356 353 351 354 356 355 355 355 355 355 354 354 355 356 356 354 354 354 351 347 345 343 341 340 339 337 337 336 335 338 344 345 342
338 338 340 342 344 345 344 344 350 355 357 358 359 357 358 359 359 358 360 360 359 360 360 358 359 359 360 361 360 358 357 355 352 352 355 357 355 355 356 356 355 353 354 356 356 355 354 354 353 350 347 344 341 340 340 337 337 337 336 335 338 344 345
341 341 341 343 346 348 349 351 354 359 361 360 359 358 356 358 358 358 359 360 360 359 359 359 358 358 360 361 360 359 356 356 355 354 354 355 356 354 356 356 355 354 354 356 357 356 354 353 354 353 352 350 344 341 341 340 337 336 337 336 334 338 343
349 349 347 347 350 350 350 351 355 360 361 361 359 357 357 357 358 359 359 360 360 359 358 359 358 359 360 361 360 360 358 356 357 355 353 353 354 354 355 356 357 355 355 355 358 357 354 353 353 355 356 355 351 345 343 343 341 338 335 335 334 334 338
352 353 353 354 356 357 355 353 353 358 362 362 359 358 357 358 358 359 359 360 359 359 358 359 359 360 360 361 362 362 360 358 358 357 354 352 352 352 353 356 358 357 355 356 358 357 356 355 355 355 356 357 355 350 347 345 345 342 335 333 334 334 333
349 350 352 353 356 359 360 357 353 356 360 361 361 358 356 357 359 358 358 358 359 358 359 359 360 360 361 362 362 362 360 358 359 358 354 351 350 349 349 354 358 358 357 358 360 359 358 356 356 355 356 356 357 355 352 350 348 344 338 333 333 334 334
347 347 348 350 351 354 358 359 358 358 359 360 361 359 357 357 358 359 358 358 359 358 359 360 361 361 361 363 363 362 359 357 358 357 354 351 349 347 347 350 355 359 360 359 361 361 358 355 354 355 355 356 358 357 355 355 353 347 338 334 334 333 334
344 344 345 346 348 351 355 358 361 362 361 360 359 359 358 356 357 359 358 357 358 359 358 360 360 362 362 363 364 363 360 357 357 355 353 351 349 348 347 347 349 355 359 361 361 359 355 353 354 353 352 354 357 359 357 356 357 351 340 333 333 333 333
340 341 343 345 346 348 351 355 359 361 361 360 358 357 358 357 357 358 358 358 359 358 358 359 360 362 363 363 365 364 360 358 358 356 353 352 350 349 347 346 346 350 356 360 360 358 353 351 353 354 350 350 354 358 358 356 357 356 347 337 332 332 331
337 338 340 341 343 345 349 354 358 359 361 361 359 356 357 356 356 357 357 357 359 359 359 359 361 363 363 364 365 365 362 359 357 356 354 352 350 349 347 346 346 347 351 356 360 360 356 351 352 355 353 350 351 355 357 356 355 356 352 341 333 332 332
334 335 337 339 342 343 347 353 358 359 360 361 358 354 355 357 355 356 357 357 358 359 360 359 360 363 364 364 365 365 362 360 357 356 354 352 350 349 347 346 346 346 349 354 358 362 361 356 354 355 357 354 349 349 354 355 354 352 347 341 334 332 332
332 334 336 338 343 345 346 352 358 358 359 362 358 352 352 356 355 355 357 358 358 359 360 360 362 363 364 364 365 365 362 359 357 356 353 351 349 348 347 347 347 347 347 350 355 360 362 360 358 357 359 358 352 346 346 351 352 348 343 339 335 333 333
331 335 338 340 343 345 346 351 355 357 357 360 358 352 351 355 357 356 357 357 358 360 361 361 362 364 365 364 366 365 363 360 359 356 352 350 348 347 348 349 348 348 347 347 352 357 360 361 361 361 360 359 357 351 344 346 351 350 343 338 336 335 335
328 333 338 342 345 347 350 352 355 357 359 359 356 351 350 355 357 357 357 358 359 360 360 361 362 365 366 365 366 366 365 363 360 355 351 349 347 348 350 351 351 351 348 347 351 356 358 359 360 361 361 359 360 357 349 345 348 349 345 340 337 336 336
327 331 335 339 345 349 351 352 355 359 360 358 355 351 351 356 358 357 358 358 359 360 360 361 363 365 366 366 366 366 366 364 360 356 353 352 349 350 351 351 352 352 349 350 355 357 358 358 358 360 360 358 359 360 357 352 349 348 346 340 338 337 338
327 332 336 341 346 349 350 353 356 359 360 356 355 354 354 355 357 357 359 359 359 360 361 362 363 366 366 366 365 366 366 365 362 359 359 357 353 353 352 351 353 354 351 353 359 359 359 359 358 359 360 359 359 360 361 358 355 352 348 343 341 339 339
324 328 332 338 343 347 350 353 356 360 361 357 355 355 355 355 357 358 359 359 359 360 361 362 364 365 366 365 365 366 367 366 363 361 361 361 356 353 353 352 355 357 354 354 359 362 361 361 361 360 360 360 360 360 361 362 360 358 354 349 346 344 343
322 325 329 335 341 346 350 354 357 360 362 360 356 355 355 357 359 359 359 359 359 361 362 364 364 366 366 365 364 366 368 367 364 360 361 361 357 355 354 353 355 359 358 357 359 363 363 363 363 362 361 361 361 360 361 362 362 362 359 354 349 348 348
321 323 328 333 340 346 350 354 358 360 361 361 357 354 355 358 359 359 359 360 361 360 363 364 365 366 367 366 365 366 367 367 364 361 362 362 359 356 354 353 355 360 360 359 360 363 364 364 364 362 362 362 362 361 361 362 363 363 362 358 355 353 353
320 323 327 332 338 344 351 356 358 359 361 362 358 355 356 358 359 360 362 363 362 361 362 364 366 367 367 366 366 366 366 366 364 363 364 363 361 358 355 354 358 361 362 361 362 363 364 364 364 363 363 363 363 362 363 363 364 364 363 361 360 358 357
319 323 327 330 335 341 349 355 357 359 362 363 360 358 358 358 360 363 364 364 364 363 363 365 366 367 367 367 366 366 366 366 365 365 365 364 363 361 359 358 361 363 363 363 363 363 363 363 363 363 363 363 364 364 364 364 364 365 365 364 363 362 360
318 323 326 329 334 339 345 353 357 359 361 363 362 361 361 360 362 364 365 366 365 364 366 367 367 367 368 367 366 366 367 366 364 365 365 365 364 365 364 362 362 363 362 362 362 363 363 363 363 363 364 364 364 364 365 366 365 365 366 366 366 364 364
317 321 324 327 333 338 342 349 355 357 360 363 362 363 364 364 364 365 366 366 365 364 367 368 367 367 368 368 367 366 366 366 364 364 366 366 364 364 364 364 363 364 364 362 362 363 363 364 364 364 364 364 364 364 365 365 365 365 366 366 367 367 366
316 320 322 326 333 338 340 346 352 356 359 361 361 363 364 364 364 366 366 365 365 366 367 367 367 368 368 368 367 366 365 366 365 365 365 366 365 364 364 364 363 364 365 364 361 361 362 363 364 364 364 364 364 364 364 364 365 364 365 366 366 367 367
316 319 321 325 331 337 340 344 350 354 357 359 361 362 362 363 364 364 364 365 365 366 367 367 367 368 368 367 367 366 366 365 366 366 366 367 366 364 363 363 363 363 364 364 362 360 360 361 363 364 363 363 364 364 364 364 364 365 366 365 366 366 366
316 318 320 322 326 334 339 342 346 350 353 355 358 359 360 361 362 363 364 365 365 365 366 367 366 366 366 366 366 366 366 366 366 367 366 367 367 364 362 362 364 363 364 364 365 364 363 362 363 363 363 364 364 364 364 364 365 365 366 366 366 365 365

ECMWFFLT1_850_thetae_054.txt.gz
Theta_e
353 354 354 354 355 356 356 356 355 354 352 353 355 355 354 354 355 355 355 356 354 351 347 342 334 330 327 325 325 326 326 326 327 327 327 327 328 330 331 331 328 327 326 326 326 326 328 332 336 338 339 340 340 341 341 343 344 343 343 342 342 345 346
353 354 351 350 352 355 357 357 356 353 352 354 356 355 354 354 354 355 355 357 356 353 350 345 339 334 331 327 326 325 326 326 327 327 327 327 327 328 330 331 330 328 326 327 329 329 330 333 336 335 335 337 339 341 340 341 342 343 343 342 341 341 340
352 353 352 351 354 354 357 357 355 354 354 355 355 357 356 354 355 355 356 357 357 356 353 348 342 338 335 332 328 326 325 325 325 326 326 327 327 327 329 330 330 330 329 330 334 338 339 338 337 336 332 332 336 340 341 341 341 342 342 341 341 341 340
351 352 352 352 354 354 355 357 353 354 357 357 357 357 356 356 356 356 356 357 358 358 356 351 346 342 338 335 333 330 328 326 324 325 325 326 326 326 327 328 328 331 333 332 332 338 345 345 343 341 336 332 332 337 341 342 341 340 341 341 342 341 341
352 349 350 353 353 355 357 356 354 356 359 358 358 357 357 356 356 357 357 358 360 359 356 353 349 346 341 337 335 334 333 330 328 327 325 325 326 326 327 328 328 331 335 336 334 335 342 348 348 346 343 336 332 333 338 342 342 340 340 340 342 342 342
348 348 352 354 354 355 356 355 354 357 358 359 358 358 358 357 357 358 357 359 362 361 359 357 354 349 345 340 337 335 335 334 332 331 329 328 329 330 330 329 331 333 335 338 338 337 340 345 348 348 347 342 336 332 335 338 341 340 340 340 341 341 341
341 349 354 353 353 355 354 353 354 356 358 358 357 358 359 358 357 357 357 360 363 363 362 361 357 353 349 343 340 337 337 336 335 334 335 334 334 335 335 335 336 338 338 339 341 342 342 344 347 349 349 347 342 337 335 336 337 339 339 339 340 340 340
339 346 352 353 353 353 352 353 355 357 358 357 357 357 358 359 357 357 358 360 363 364 364 363 360 357 352 347 343 341 339 338 337 337 338 337 338 339 340 342 342 342 343 344 344 345 346 346 346 347 349 349 347 343 340 338 335 335 337 338 339 340 339
337 340 348 353 352 352 352 354 355 357 358 356 356 356 358 358 358 357 359 359 362 364 365 364 362 358 354 351 346 344 342 340 340 339 338 339 339 340 341 344 346 345 345 346 348 348 348 349 348 347 346 348 349 346 344 341 338 335 335 336 338 339 340
337 337 341 348 351 351 353 355 357 358 357 356 355 355 357 358 358 357 357 359 361 364 366 364 362 360 357 352 348 345 344 344 343 342 341 340 340 340 343 346 349 347 345 348 351 352 351 350 351 348 346 347 349 349 347 344 341 338 336 335 336 337 338
334 336 336 339 346 350 353 356 356 355 354 354 353 354 355 357 359 357 358 359 360 363 366 365 365 363 359 353 350 348 346 344 345 344 343 342 343 344 348 352 353 351 348 349 350 352 353 352 352 350 348 348 350 351 349 346 343 339 336 335 336 336 336
334 336 335 333 341 350 353 352 352 351 352 352 353 354 354 357 359 359 358 358 358 361 366 366 365 364 362 359 356 352 349 346 346 346 345 344 345 349 352 355 356 355 352 350 349 351 354 354 352 350 348 347 349 351 351 349 346 341 336 335 336 336 336
341 336 336 336 338 347 352 351 349 349 350 352 353 355 356 357 359 359 358 357 357 361 365 366 365 364 363 363 359 355 352 349 347 346 347 346 347 351 354 355 357 357 355 353 352 352 353 355 353 350 349 347 346 349 351 350 347 343 339 336 336 336 337
347 339 335 336 338 343 350 351 350 349 350 352 353 354 356 357 358 359 358 358 360 361 364 366 365 363 363 363 360 357 354 350 347 348 350 350 349 352 353 355 355 357 357 356 355 354 354 355 355 353 351 349 347 348 351 351 348 345 342 338 336 337 338
350 349 345 349 352 351 351 351 352 352 351 351 352 354 356 357 358 360 360 361 361 362 363 365 364 363 363 363 360 356 353 352 351 350 351 352 352 351 352 354 355 356 356 356 356 356 355 355 356 355 353 352 350 348 350 351 349 346 344 340 336 336 338
349 349 350 353 355 356 356 354 353 353 352 351 351 354 357 357 360 361 361 362 362 362 363 364 364 363 363 363 359 355 354 354 353 352 351 352 352 351 351 353 355 355 356 356 356 356 356 355 355 356 354 353 354 352 351 352 349 344 343 341 338 335 336
346 347 348 349 350 352 356 358 355 354 357 357 356 356 356 358 361 361 361 361 362 363 362 363 363 362 362 362 360 357 355 355 354 353 352 351 351 351 351 352 354 354 355 356 356 355 356 355 355 356 356 355 355 353 351 349 347 343 342 342 340 336 335
345 345 346 348 348 348 351 355 357 357 357 358 359 359 358 359 360 360 361 361 361 362 362 362 363 362 362 362 361 359 356 355 355 354 353 351 350 350 351 351 353 355 355 355 355 355 355 355 354 355 356 357 357 356 353 348 344 343 342 342 342 339 336
343 343 345 347 347 346 344 345 352 358 359 359 359 357 356 357 358 358 359 360 360 361 361 361 362 362 361 362 362 360 358 356 355 354 352 350 349 350 350 351 352 355 355 355 355 355 355 355 355 354 355 356 358 358 356 352 347 344 344 342 340 340 338
340 341 343 343 344 346 344 340 344 352 357 360 359 355 354 354 354 356 359 357 358 361 360 361 361 362 361 362 362 361 360 357 356 354 352 350 350 351 351 351 351 354 355 355 355 355 355 354 354 354 354 355 356 357 358 356 352 349 347 344 340 339 338
337 338 339 340 341 342 343 343 342 345 352 357 359 357 355 354 352 354 358 357 357 359 360 360 361 361 361 361 361 362 360 358 357 355 354 352 352 352 352 351 350 352 355 356 355 356 356 356 355 355 354 353 354 355 357 357 356 354 353 348 343 340 339
335 335 336 337 338 340 342 344 345 347 350 356 358 358 357 355 353 352 354 356 357 358 359 360 361 361 361 361 362 362 361 360 358 357 356 355 354 353 352 352 351 351 353 356 356 356 356 357 357 357 356 354 353 354 356 357 357 357 356 352 346 344 345
331 332 334 335 337 338 341 343 344 346 348 353 357 359 359 357 353 349 351 355 356 357 358 359 360 361 361 361 361 362 362 362 360 359 358 357 355 354 353 353 352 352 352 355 357 359 359 359 359 360 359 357 354 354 354 356 357 357 357 355 351 350 351
329 330 331 333 334 336 339 343 344 345 346 348 352 356 359 358 354 349 350 353 355 355 356 357 359 360 361 361 361 362 363 362 362 360 360 359 358 356 355 354 353 353 353 354 356 360 361 361 360 360 360 359 357 354 352 352 354 356 356 355 354 354 353
328 328 329 331 333 335 339 343 345 346 348 349 351 355 359 360 357 351 350 352 354 355 355 357 359 361 361 361 361 362 363 363 363 362 361 360 359 358 358 357 355 354 353 353 356 360 361 361 362 361 361 360 359 356 351 351 353 355 354 353 352 353 353
326 327 328 330 334 339 342 344 345 347 349 351 353 357 360 361 361 357 353 353 354 355 355 357 359 361 361 361 362 363 364 365 365 363 362 362 361 361 361 360 359 358 356 355 356 358 359 361 362 363 363 362 361 359 355 352 352 352 352 350 350 349 350
325 326 327 328 334 340 342 344 346 347 349 351 354 359 361 362 361 359 355 354 354 355 356 358 360 361 362 362 363 364 364 366 365 365 365 364 362 363 363 363 361 360 358 357 357 356 357 358 360 363 363 362 361 361 358 355 352 351 350 348 346 346 347
324 327 329 332 337 339 340 343 345 347 349 350 354 359 360 361 360 357 354 355 355 356 357 359 360 361 362 364 363 364 366 366 366 366 366 365 365 364 363 363 363 362 360 359 358 356 355 356 358 360 362 362 361 361 360 358 356 353 352 349 347 345 346
322 325 328 332 336 338 339 341 344 347 349 350 354 359 361 362 360 355 353 355 357 356 357 359 361 361 361 364 364 366 368 368 367 367 366 366 366 364 362 363 366 366 362 359 358 358 355 355 356 358 360 361 361 360 361 360 359 357 356 355 353 350 348
321 324 326 329 333 335 338 340 342 346 350 352 355 359 361 363 363 355 353 357 357 356 358 359 361 361 362 363 364 365 368 369 368 368 367 366 367 365 362 364 367 367 364 360 359 359 357 355 355 356 357 359 360 360 360 359 359 359 358 359 358 357 353
319 323 325 327 331 334 337 339 341 344 349 353 357 359 360 363 364 358 355 358 357 357 358 359 361 362 362 364 365 365 368 369 368 369 367 366 366 366 365 366 366 366 364 362 361 360 358 356 355 356 356 357 358 359 358 358 357 358 358 358 358 358 356
318 323 324 326 330 333 336 338 342 345 349 354 358 361 361 360 361 358 356 358 358 358 358 359 361 362 363 365 365 366 367 369 368 368 368 367 366 367 367 366 365 364 364 364 361 360 359 357 356 357 356 355 356 358 358 358 358 358 358 357 356 357 357
317 320 323 324 327 330 332 336 340 344 349 354 358 361 360 360 361 360 358 359 359 358 359 361 361 362 363 365 366 366 367 369 368 369 368 368 368 368 366 365 364 365 365 364 362 361 359 358 358 357 357 355 356 357 357 358 358 359 358 357 356 357 358
317 318 321 323 325 329 331 333 336 342 347 353 358 361 361 361 364 364 360 360 360 359 359 361 362 363 364 366 367 367 368 368 369 368 368 368 368 367 366 366 366 365 364 362 360 360 359 358 358 358 357 357 356 357 357 358 358 358 358 357 354 354 357
317 317 320 322 324 328 330 330 333 340 346 352 358 361 362 364 366 365 362 360 360 359 360 362 363 364 365 366 367 367 368 368 368 368 367 368 368 367 366 367 365 365 365 363 360 359 360 359 358 358 359 359 359 357 356 356 355 356 358 358 356 356 358
317 317 320 321 323 327 329 330 333 338 344 351 356 359 362 364 366 366 364 362 361 361 361 363 364 364 365 367 367 367 367 368 368 367 367 367 367 366 366 367 366 366 366 365 361 361 361 360 359 359 360 361 360 358 356 355 355 355 357 359 360 360 360
317 317 320 321 322 325 328 332 334 337 343 349 353 356 361 363 364 366 366 364 362 361 361 364 366 365 366 367 367 366 367 368 367 367 367 368 366 366 366 366 367 366 366 365 363 363 363 362 360 360 360 360 361 360 359 356 356 357 359 360 362 363 363
318 317 319 321 321 323 327 330 332 335 342 348 350 353 359 361 361 363 365 363 362 361 361 362 363 365 366 366 366 366 367 367 367 367 367 367 367 366 366 366 365 365 365 365 364 363 363 363 362 361 361 361 361 361 361 360 359 359 361 363 365 366 365

ECMWFFLT1_850_thetae_057.txt.gz
Theta_e
354 354 353 354 355 353 352 351 350 350 352 353 353 353 354 354 354 354 354 353 351 348 343 338 333 328 328 330 330 330 329 329 332 334 332 331 330 329 329 329 329 328 327 327 327 328 330 333 334 334 335 337 338 339 339 340 341 342 342 344 348 350 349
354 354 353 353 354 354 354 353 352 352 352 352 354 354 354 354 354 354 354 353 352 350 346 340 336 330 327 326 328 329 329 328 328 330 330 329 328 328 328 327 326 326 326 325 325 326 327 328 328 329 330 333 336 338 338 339 340 342 341 341 343 344 344
352 354 353 353 355 354 354 354 353 353 352 352 353 354 355 355 355 354 355 355 354 351 349 344 339 334 329 326 326 327 328 329 327 328 328 328 327 327 327 327 327 326 326 326 326 325 326 326 326 327 328 330 332 336 338 338 338 339 341 340 340 340 340
351 354 353 353 354 354 354 354 353 353 352 352 353 353 354 354 354 355 354 355 354 353 351 348 343 339 333 329 326 326 326 328 328 327 327 327 327 327 327 327 327 327 327 327 326 326 325 326 326 327 328 329 330 332 336 339 338 338 339 339 339 339 338
352 353 352 352 353 354 354 353 353 353 353 353 354 353 355 355 354 354 354 354 355 354 352 350 347 343 338 333 329 326 325 326 327 327 327 327 326 327 326 327 326 327 327 326 327 326 325 325 326 329 331 331 331 330 332 336 338 339 339 338 338 338 338
351 351 352 353 354 354 354 354 354 354 354 354 354 354 355 355 355 354 354 355 354 354 354 352 350 347 343 338 333 329 327 325 325 326 326 327 327 327 327 327 327 327 327 327 327 326 325 326 327 329 333 334 334 333 331 331 335 338 340 340 338 338 338
351 351 352 354 355 355 355 356 356 355 355 356 354 355 355 355 355 354 354 355 354 355 354 353 352 350 347 344 337 333 330 328 327 325 326 326 327 327 327 327 327 327 327 326 326 326 326 328 329 330 333 336 336 336 334 331 332 334 337 339 339 338 338
351 351 353 354 354 355 356 356 357 356 356 356 355 355 355 355 355 354 354 354 354 355 355 354 354 353 351 348 343 338 334 331 330 327 326 325 325 326 325 326 326 326 326 326 325 325 324 327 330 331 334 337 336 336 335 335 332 332 334 336 338 339 339
352 352 353 354 353 354 355 355 356 355 355 355 355 354 354 354 355 355 354 355 355 355 355 355 355 354 354 351 348 344 339 336 334 331 329 326 325 325 324 324 325 325 325 325 325 325 324 325 328 331 333 335 336 336 336 336 334 333 333 334 334 336 338
353 353 352 352 351 352 353 353 355 356 356 355 355 354 354 355 355 355 355 355 356 356 356 356 356 356 355 354 352 349 345 340 337 335 332 331 329 327 326 326 326 325 324 324 324 325 325 326 328 331 333 335 337 337 335 336 336 334 333 334 334 334 335
351 352 352 352 351 352 354 354 355 356 356 355 354 355 356 355 356 355 356 356 356 357 357 357 358 357 356 356 355 353 350 346 342 338 336 334 333 331 330 329 328 327 326 326 326 326 327 328 331 333 335 336 337 337 336 336 336 335 334 334 334 334 334
349 352 352 351 351 353 354 355 356 356 356 355 355 357 357 356 356 356 354 356 357 358 358 358 359 360 359 358 358 357 354 350 347 342 339 336 336 334 333 332 331 331 331 330 330 330 331 332 334 336 338 337 337 339 337 337 337 336 335 334 334 334 334
349 351 353 353 352 352 354 355 355 355 355 355 355 356 357 357 356 355 355 356 357 357 358 359 359 361 361 360 360 358 357 354 350 346 341 339 338 336 336 335 335 335 334 334 335 336 337 339 339 339 339 339 340 340 339 339 338 337 337 336 335 334 334
348 350 352 354 356 355 354 353 353 353 353 354 354 355 356 355 355 355 356 356 357 357 357 358 359 361 362 362 361 360 359 356 353 349 345 342 340 339 338 338 338 338 338 338 339 339 341 342 342 342 341 341 341 342 342 342 341 339 338 338 337 336 336
345 347 349 349 353 356 356 354 354 354 353 354 355 356 355 355 354 355 356 357 357 357 357 357 358 360 362 363 362 361 360 357 355 352 349 346 344 342 341 340 340 341 341 341 342 342 344 345 345 345 344 344 344 345 345 345 344 341 339 338 338 339 338
342 343 344 344 346 349 353 355 357 357 357 356 356 356 356 356 355 355 356 358 358 357 357 357 358 360 362 363 363 362 361 360 357 355 353 350 346 344 343 342 343 343 344 344 345 345 346 347 347 348 348 347 346 347 347 346 346 343 340 339 339 339 340
338 340 341 341 341 342 345 350 355 357 357 358 356 355 355 355 356 356 356 357 358 358 358 358 358 360 361 363 363 363 363 362 359 357 355 352 349 346 345 345 345 346 347 347 347 348 349 349 349 350 351 350 349 348 348 347 346 344 341 340 339 340 340
336 336 338 339 339 339 342 345 348 353 356 358 358 356 354 355 356 357 357 358 358 358 358 358 359 360 361 362 364 364 363 362 361 358 356 354 351 349 347 347 347 348 349 349 350 350 351 351 351 351 352 352 351 350 349 348 346 344 342 340 340 340 341
332 333 334 336 337 338 340 341 342 345 349 353 357 357 357 357 356 356 358 358 358 358 357 357 358 359 361 363 364 365 364 363 362 359 357 355 353 351 349 349 349 349 351 350 351 352 353 353 352 352 353 354 353 352 350 349 348 346 343 340 339 340 340
330 330 331 332 333 335 337 338 339 341 343 349 355 357 357 357 357 357 358 359 358 359 357 357 357 358 361 363 364 364 364 363 362 360 358 357 355 354 353 351 350 351 351 351 352 353 353 354 354 353 353 354 354 353 353 351 348 347 345 343 341 340 340
328 328 329 329 331 332 333 335 339 341 342 346 352 357 357 357 357 357 358 358 358 359 357 354 355 357 360 363 364 364 364 363 362 361 359 358 357 355 354 353 352 352 352 353 353 353 353 354 354 354 354 354 354 355 354 353 350 348 347 345 343 340 340
326 326 327 328 329 329 330 334 338 341 342 343 347 353 355 357 358 358 357 357 356 356 357 355 355 356 359 362 364 364 364 364 362 361 360 358 358 357 356 355 353 352 353 353 353 354 354 354 355 354 353 354 354 355 355 354 353 351 349 347 344 342 342
324 324 325 327 328 327 329 335 339 341 342 342 343 345 348 352 355 357 357 357 355 353 353 355 357 356 358 362 364 364 364 363 362 362 361 359 359 357 357 356 354 353 353 354 354 355 355 355 355 355 355 354 354 355 355 355 354 354 352 350 347 345 344
322 322 323 325 327 328 331 335 339 341 342 342 342 343 345 349 354 356 356 358 357 354 351 352 355 357 357 359 362 363 364 363 362 361 361 359 358 357 357 357 356 354 353 353 354 355 355 355 355 355 355 354 354 353 354 355 355 355 354 353 351 349 347
321 321 321 323 326 328 331 334 337 340 342 342 342 343 344 347 351 355 355 357 359 358 355 351 351 355 357 357 360 363 363 363 362 361 361 360 358 357 357 357 356 355 354 354 354 355 355 356 355 356 356 355 354 353 353 354 355 355 355 354 354 353 350
321 320 320 321 324 327 330 332 335 338 341 341 341 343 345 346 348 352 355 356 357 358 358 355 352 354 357 357 358 362 363 362 362 361 361 361 359 358 358 357 356 356 355 354 354 355 356 356 355 356 355 355 355 355 353 352 353 353 354 355 355 354 353
321 321 319 319 322 326 329 331 334 337 339 341 342 343 345 347 348 351 354 357 357 357 357 356 356 355 356 357 359 362 363 362 362 362 361 361 360 359 358 357 357 357 356 355 355 355 356 356 356 355 356 355 355 355 355 354 352 351 351 353 355 355 354
321 321 321 320 321 324 326 330 333 336 338 341 342 343 345 346 347 350 354 357 358 356 354 355 356 356 355 356 359 361 363 362 362 362 362 361 360 360 359 358 357 357 357 356 356 355 355 356 356 356 356 356 356 356 355 355 353 352 351 351 351 352 354
321 321 321 320 320 322 325 327 331 334 336 338 340 343 345 346 347 349 353 357 358 358 357 356 355 356 355 354 356 360 362 363 363 362 362 362 361 360 360 360 358 358 358 358 357 356 356 356 356 357 356 357 357 357 356 355 354 354 352 351 351 350 351
320 321 321 319 319 321 323 325 330 333 335 337 338 341 344 346 347 349 352 357 358 359 360 358 357 358 357 353 354 356 358 361 363 363 363 363 362 362 362 361 360 360 360 360 358 357 356 356 356 358 358 359 359 358 358 356 355 354 353 352 352 351 349
321 321 321 319 318 320 322 325 329 333 335 336 338 341 344 346 347 349 353 357 359 360 361 360 360 362 359 355 353 354 357 361 363 363 363 363 362 363 363 362 362 362 361 361 360 359 358 357 357 357 359 360 359 359 358 357 357 356 354 353 353 352 351
320 321 321 319 318 320 322 325 328 332 335 336 338 341 344 346 348 350 354 357 360 361 361 360 361 364 361 355 354 355 357 362 364 364 364 364 364 364 364 363 363 363 363 363 361 360 359 358 357 358 358 359 359 358 358 358 357 357 355 354 354 353 352
320 320 321 319 318 320 323 325 328 332 334 336 338 341 344 347 349 351 354 358 360 361 362 360 360 364 362 355 354 356 357 362 364 364 364 365 364 365 365 364 364 364 364 364 363 362 361 359 358 358 358 358 358 358 357 357 358 357 357 355 355 355 353
319 320 319 318 318 320 322 324 328 331 333 335 338 341 344 346 350 353 356 359 360 363 364 360 359 364 363 357 356 360 361 362 363 364 365 366 366 367 367 366 365 365 365 364 363 363 361 360 359 359 357 356 356 357 358 358 358 357 355 354 354 353 353
319 319 319 318 318 320 321 323 327 330 332 335 338 342 345 347 350 354 357 359 361 365 366 363 361 365 364 358 358 361 362 363 364 365 365 366 367 367 367 366 366 366 365 365 364 362 360 359 358 356 355 355 354 355 357 358 356 354 351 350 349 349 349
318 319 319 318 318 319 321 323 327 330 331 334 338 341 345 348 351 353 356 358 361 364 365 365 366 366 363 360 361 362 362 364 364 365 366 367 367 367 367 367 367 367 366 366 365 363 362 360 357 355 355 355 354 352 353 352 352 351 352 352 352 352 350
318 319 319 318 318 319 321 324 328 331 331 333 335 338 343 347 350 352 354 356 359 363 364 365 366 367 363 361 363 364 363 364 365 366 367 367 367 368 368 368 368 368 367 367 366 365 365 364 361 359 357 356 355 353 352 351 351 352 354 354 355 356 355
319 319 319 318 318 319 320 324 327 330 330 330 332 334 339 343 347 350 353 355 358 362 363 364 366 368 366 363 363 364 364 364 365 367 368 368 368 368 367 368 368 368 368 368 368 367 367 366 364 362 360 358 357 355 353 352 352 352 353 354 355 356 357

ECMWFFLT1_850_thetae_060.txt.gz
Theta_e
353 354 352 352 352 350 350 350 350 350 350 350 350 350 350 349 348 347 348 348 347 345 342 342 343 341 338 335 333 333 334 334 334 337 340 341 341 338 334 333 334 333 334 334 335 336 336 337 337 337 338 339 339 340 340 340 341 342 344 344 345 347 347
353 353 353 352 352 350 350 350 350 350 350 350 350 350 350 349 349 349 348 349 348 347 344 342 342 342 339 335 333 333 333 333 333 334 338 340 340 338 334 332 332 331 331 331 332 335 336 337 338 338 337 338 338 338 339 340 340 341 342 342 343 344 345
353 353 353 352 352 351 350 350 350 350 350 350 351 350 350 350 350 350 349 350 349 348 346 343 341 341 339 336 333 333 332 333 333 333 335 335 336 336 333 331 330 329 328 328 328 331 332 334 336 337 337 336 336 337 337 338 339 341 341 341 341 342 342
352 353 352 352 352 351 350 350 349 350 350 350 351 350 351 351 350 350 350 350 350 349 348 346 344 342 339 337 334 332 332 332 332 332 332 331 331 332 332 331 329 328 327 327 326 327 327 329 330 330 331 331 333 336 337 338 338 339 340 341 341 340 340
352 353 352 352 352 351 350 350 349 350 350 350 351 350 351 351 351 351 351 351 351 350 350 348 347 344 342 339 335 331 330 331 331 331 331 330 329 331 332 330 329 328 327 326 326 325 326 326 326 327 327 327 329 332 335 337 338 338 339 339 340 339 339
351 352 352 352 353 352 351 350 350 350 350 351 351 351 351 351 352 352 351 351 351 351 351 350 349 347 344 341 336 332 330 330 331 331 330 330 329 330 330 329 328 327 326 326 326 326 326 326 326 326 326 326 326 328 330 333 336 338 339 339 338 339 338
351 351 352 352 352 353 352 351 350 349 350 351 351 352 351 352 352 352 352 352 352 352 352 351 350 349 347 344 340 335 331 329 329 330 330 329 329 328 328 327 327 327 326 327 326 326 326 326 326 326 325 325 326 327 329 330 332 335 338 339 338 338 337
351 350 352 351 352 353 353 352 352 351 350 351 351 351 352 351 352 352 353 353 353 353 353 352 352 351 349 347 343 339 335 330 328 327 328 329 329 328 327 327 327 326 326 326 327 326 326 326 327 326 325 325 325 326 328 330 331 333 334 336 338 338 338
350 351 351 351 351 351 352 353 353 352 352 350 350 351 351 352 352 353 353 353 354 353 353 353 353 352 351 349 347 343 339 335 332 328 326 327 327 328 328 327 327 327 327 327 327 326 326 326 327 326 325 325 325 326 327 329 332 333 333 333 334 336 337
349 350 350 351 351 351 351 352 353 353 352 351 351 351 352 353 353 353 353 353 353 354 354 354 354 353 352 351 350 347 343 340 337 333 329 326 325 326 326 327 327 327 327 326 326 326 326 327 327 327 326 325 325 325 326 328 330 333 334 333 332 333 334
349 349 350 350 350 352 351 352 353 353 353 352 352 352 352 353 353 353 354 354 354 354 354 354 353 353 353 352 351 350 347 344 341 338 333 329 326 325 325 326 326 326 326 326 326 327 326 326 326 326 326 325 325 325 326 328 329 330 332 333 333 332 331
347 349 350 350 350 352 351 352 353 353 353 353 353 353 352 353 353 353 353 354 354 354 354 355 354 354 353 353 352 351 350 348 345 341 338 333 330 327 326 326 326 326 326 325 326 326 326 326 326 326 325 324 324 325 326 327 328 330 331 333 333 333 333
340 343 347 350 351 352 353 353 353 353 353 353 353 353 353 353 353 353 353 354 353 354 354 354 354 354 354 353 353 352 352 351 349 347 343 338 335 331 329 327 327 326 326 325 325 325 325 325 325 325 325 324 324 325 325 327 328 330 331 333 335 335 335
334 336 340 344 347 350 352 354 354 355 355 354 354 353 353 354 354 353 353 353 354 354 354 354 354 354 354 353 353 353 352 352 352 351 348 344 340 336 334 332 330 329 327 326 325 325 325 325 325 325 325 325 324 325 326 327 329 330 332 334 336 337 337
331 332 333 336 339 342 346 349 352 354 355 355 355 355 354 354 355 354 354 354 354 355 354 355 355 354 355 355 354 354 354 353 353 353 352 350 346 343 339 336 334 332 330 329 328 327 326 325 326 326 326 326 326 326 326 328 330 332 334 335 337 338 338
329 329 330 331 332 335 338 342 346 349 352 354 356 356 356 355 355 355 355 354 355 354 354 355 356 355 356 355 355 355 354 354 354 354 354 353 351 349 346 342 339 336 334 333 331 330 329 328 328 328 328 328 329 329 330 331 332 334 335 336 337 339 339
327 327 328 328 329 330 333 337 341 344 347 351 353 355 356 356 357 356 356 355 355 355 356 356 356 357 356 356 356 356 356 356 355 355 355 355 355 354 351 348 345 341 338 336 334 333 332 331 330 330 331 331 332 333 333 334 334 335 336 337 338 339 340
325 326 326 326 327 328 331 334 338 340 343 346 348 351 354 356 357 357 357 356 355 355 356 356 357 358 358 357 357 357 358 357 357 358 358 357 357 357 355 353 350 346 343 340 337 336 335 334 333 333 334 334 334 335 336 337 337 337 336 337 339 341 342
323 324 324 324 325 327 330 333 335 337 340 342 344 346 350 353 355 356 357 357 357 356 356 356 357 357 358 359 358 359 359 359 360 360 359 360 360 359 357 356 352 350 347 344 341 339 339 337 337 336 336 337 337 338 338 339 339 339 338 338 339 341 343
322 322 322 322 323 325 329 332 335 337 339 340 341 343 346 350 353 355 356 356 357 357 357 356 356 356 357 358 359 360 360 361 361 360 360 361 361 361 360 358 356 353 350 347 345 343 342 341 340 340 340 340 340 341 342 342 341 340 340 339 339 341 343
321 321 322 321 321 323 326 330 333 335 337 339 339 341 345 350 352 354 355 356 356 357 357 357 356 356 357 357 358 358 359 359 361 360 361 362 362 362 362 360 358 356 353 351 348 346 344 344 343 343 343 342 343 344 344 344 342 341 340 339 340 342 344
321 321 322 322 321 322 323 326 329 332 335 337 338 339 342 348 352 354 355 356 356 357 357 357 357 357 357 357 357 357 357 357 358 360 361 362 362 363 362 362 360 358 356 353 351 349 347 347 346 346 345 345 346 346 347 346 344 343 342 340 341 344 346
321 321 322 323 323 322 323 325 327 330 333 335 337 339 340 344 349 353 354 354 356 356 356 356 357 357 357 357 358 357 358 357 358 359 360 361 363 363 362 362 362 360 358 356 353 351 350 349 348 348 348 348 349 349 349 347 345 344 342 342 343 346 348
320 320 321 323 324 323 322 324 326 328 331 334 336 338 339 341 345 349 351 353 354 355 355 356 356 356 357 357 358 357 358 358 358 359 359 361 362 361 362 362 362 361 360 357 355 354 352 351 351 350 350 351 351 351 351 349 347 345 344 344 346 348 350
319 320 320 321 323 324 323 323 325 327 330 332 334 336 338 339 341 344 347 349 352 354 355 356 357 356 356 356 356 357 358 357 356 356 357 360 361 362 362 363 362 362 360 359 357 355 353 352 352 352 352 352 353 353 352 351 349 348 347 346 347 350 351
319 319 320 321 322 324 323 322 324 326 329 331 332 334 335 337 339 341 343 346 349 351 352 354 356 357 357 356 355 355 356 355 355 354 355 358 360 362 363 363 363 363 361 360 358 356 355 354 353 353 353 354 354 354 353 353 352 351 350 348 348 350 352
318 319 319 320 322 323 323 323 323 325 328 330 332 333 334 335 336 338 340 343 346 348 349 352 354 355 357 358 357 356 355 354 354 355 356 357 359 362 363 363 363 363 361 361 359 357 356 355 354 354 354 354 355 355 354 354 353 352 352 351 350 350 352
317 318 319 320 321 321 322 323 323 325 327 329 331 333 334 335 335 337 339 341 343 346 347 349 352 354 356 358 358 357 357 356 355 355 355 357 360 362 363 363 363 363 362 361 360 358 357 356 355 355 355 355 355 355 355 354 354 354 353 352 352 352 351
317 318 319 319 320 320 321 321 322 324 326 328 331 333 334 335 336 337 339 340 342 345 345 347 349 352 355 357 357 358 357 357 357 356 356 356 359 360 362 363 363 363 362 361 360 359 358 357 356 355 355 355 355 355 355 355 354 355 353 352 353 352 352
315 318 319 318 319 320 319 319 321 323 326 328 331 333 334 336 336 337 338 340 342 344 345 345 347 350 353 356 357 357 357 357 357 357 357 356 357 358 360 362 363 363 362 361 360 360 358 357 356 356 355 355 355 355 356 355 355 355 354 353 354 353 352
314 316 318 318 319 319 319 319 320 323 325 328 330 333 334 335 337 337 338 340 341 344 346 347 347 349 352 356 356 357 357 357 357 357 357 358 358 359 360 362 363 362 362 361 360 359 359 358 357 356 356 355 355 355 355 356 356 355 355 353 353 353 353
314 315 317 318 318 319 319 318 319 322 325 328 330 332 334 335 337 338 339 341 342 345 347 349 350 350 353 355 358 358 358 359 359 358 358 359 360 360 361 362 363 362 362 361 360 359 359 358 358 357 356 355 355 355 355 355 356 355 355 354 353 353 352
313 314 315 316 318 318 319 318 319 321 324 327 330 332 334 336 337 339 341 342 344 346 349 352 353 353 354 356 358 359 359 359 359 359 359 359 360 362 362 362 363 362 362 361 361 360 359 359 358 357 357 356 355 355 355 355 356 355 355 355 353 352 351
313 313 314 315 317 318 319 319 319 319 322 327 330 331 334 335 337 339 341 343 344 347 349 352 353 354 355 356 358 359 359 358 359 360 360 359 359 361 362 363 363 362 362 362 361 361 360 359 359 358 358 357 356 356 355 356 356 355 355 353 351 349 349
312 313 313 314 316 318 319 318 318 318 321 326 329 331 334 335 337 339 341 343 345 346 348 350 352 354 356 357 359 360 359 358 358 359 360 360 360 360 361 362 362 362 362 362 362 361 361 360 360 359 359 358 357 356 356 356 355 353 350 347 346 345 346
311 312 313 314 316 319 319 319 318 318 320 324 328 331 334 336 337 338 340 343 344 345 347 349 351 353 355 359 361 362 361 359 358 359 361 361 360 360 362 363 363 362 362 362 362 362 362 361 360 360 360 359 358 357 356 356 354 351 350 350 349 347 346
311 312 313 314 317 319 319 318 318 318 319 323 328 331 333 335 337 338 340 342 343 345 346 348 350 352 356 360 363 364 363 362 362 363 362 361 359 360 362 363 363 362 363 362 362 363 362 362 362 361 361 360 360 359 358 357 356 355 354 354 353 353 351
311 313 314 315 317 319 319 319 318 317 319 323 327 329 333 335 337 338 340 342 343 345 346 348 349 352 355 359 362 364 364 365 365 364 363 361 361 361 362 362 362 363 363 363 364 363 363 363 363 363 362 362 361 361 360 358 357 356 355 355 354 354 353

ECMWFFLT1_850_thetae_063.txt.gz
Theta_e
351 351 351 350 350 350 350 351 351 350 350 350 349 348 348 347 347 347 347 347 346 346 345 341 340 342 343 342 340 338 336 335 336 336 335 335 335 336 338 338 338 339 341 339 336 336 337 337 338 339 338 338 338 338 339 340 341 340 342 344 344 344 345
352 351 351 351 351 350 350 351 350 350 350 350 350 349 349 348 348 347 347 347 347 347 347 344 341 340 341 340 339 339 336 333 334 335 335 334 334 334 334 335 335 335 338 338 336 335 335 336 338 339 339 337 337 338 338 339 340 340 341 343 342 342 343
351 352 352 351 351 351 351 350 350 351 350 351 350 350 349 348 348 348 347 347 348 347 347 345 343 341 339 339 338 337 337 334 333 334 333 333 333 331 331 333 334 333 335 337 336 335 336 335 337 338 339 339 337 338 339 339 339 340 340 340 341 340 342
352 353 352 352 352 350 351 350 350 351 350 350 351 350 350 349 349 348 348 348 349 347 347 346 345 343 340 340 338 336 335 334 333 333 333 333 332 331 332 333 334 333 333 334 335 335 335 336 336 337 337 338 337 338 338 338 339 340 340 340 340 340 340
352 354 352 353 353 351 351 350 350 350 350 350 350 350 350 349 349 348 348 348 348 348 348 347 346 345 343 342 339 336 334 333 333 332 332 333 332 332 333 332 333 332 331 332 333 333 334 335 336 337 337 338 338 337 337 338 338 338 339 340 340 340 340
349 353 352 353 353 352 352 351 351 350 349 350 350 350 350 349 349 349 348 348 348 348 348 348 347 346 345 344 342 339 334 333 333 333 332 333 332 332 332 330 330 330 329 330 331 331 331 333 334 335 335 335 335 334 334 335 337 338 338 338 340 341 341
348 350 353 353 352 353 352 350 351 350 350 350 350 350 350 350 350 349 348 348 348 348 348 347 347 347 346 346 345 342 337 333 333 333 333 333 332 332 331 330 330 328 328 328 328 328 328 329 330 330 330 329 328 328 328 330 332 335 337 338 338 339 340
346 349 352 353 352 352 352 351 351 350 350 349 349 350 350 350 350 349 349 349 348 348 347 347 348 347 348 347 346 345 341 335 332 332 333 333 333 333 332 331 330 328 328 328 327 327 326 326 326 326 326 326 326 326 326 326 327 329 332 335 337 338 339
342 348 350 352 352 352 352 351 351 350 350 349 349 350 350 350 350 350 350 349 348 348 347 347 348 347 348 348 347 347 345 341 335 332 332 333 333 333 332 332 331 329 328 328 327 327 326 326 326 326 325 325 325 325 325 325 325 325 327 330 333 335 337
335 340 346 350 350 352 352 351 351 350 350 350 349 349 350 350 350 350 350 350 349 349 348 348 348 348 349 349 348 348 347 345 341 335 332 331 332 332 332 332 332 331 330 328 328 327 326 327 326 326 326 325 326 326 325 326 325 324 326 328 330 331 333
331 332 338 344 348 350 351 351 351 350 350 349 349 350 350 350 350 350 350 350 350 350 349 349 349 349 349 349 349 349 348 348 346 342 336 330 329 330 331 332 332 332 332 330 329 327 327 327 326 326 326 326 326 326 326 326 325 324 325 325 327 329 330
330 330 332 334 339 345 348 350 351 351 350 350 349 350 350 350 350 350 351 350 350 350 350 350 349 349 349 349 350 349 350 350 349 347 342 336 330 328 329 331 332 332 333 331 330 328 327 327 326 327 327 326 327 326 326 326 326 326 325 324 326 327 329
327 328 330 331 334 338 342 345 347 349 351 350 349 350 349 350 351 351 351 350 351 351 351 351 350 350 350 350 350 351 351 351 351 349 347 343 339 333 328 328 329 331 331 331 331 330 328 328 327 326 327 326 327 327 326 326 326 326 325 324 325 326 328
325 326 328 331 333 335 337 340 342 345 349 350 351 350 350 351 351 351 352 351 351 352 351 352 351 351 352 351 351 352 351 351 351 351 350 348 346 342 337 332 328 328 329 329 331 330 329 328 327 326 327 327 326 326 326 326 326 325 326 324 324 325 327
324 324 325 327 329 331 333 336 339 341 344 347 350 351 351 352 351 352 352 351 352 353 352 353 352 352 353 352 352 352 352 352 352 352 351 350 349 349 345 341 337 332 330 329 329 328 329 328 328 327 326 326 326 326 326 326 325 325 325 325 324 325 325
323 323 323 323 325 327 329 332 335 338 341 343 346 349 351 352 352 352 353 352 352 353 352 353 353 353 353 352 352 353 352 353 352 352 352 352 351 351 350 348 345 341 338 334 331 329 328 328 329 328 327 326 325 325 325 325 325 324 324 325 325 324 325
322 322 323 323 324 326 328 329 330 332 337 340 343 345 348 351 352 353 353 353 353 353 352 353 353 354 353 353 354 353 353 353 353 352 353 352 352 352 351 351 350 348 345 342 339 336 333 330 329 329 328 327 326 325 325 325 324 325 324 325 324 325 325
321 321 322 323 323 325 327 329 328 328 330 334 338 342 345 348 351 353 354 354 353 354 353 353 353 353 353 353 354 354 353 353 353 353 353 353 352 352 352 352 352 350 349 348 346 344 340 337 334 332 330 329 329 328 328 327 327 326 326 326 326 326 327
321 320 321 321 322 323 325 326 327 327 326 327 331 337 342 344 347 350 353 355 355 354 354 353 354 353 353 354 354 354 354 353 354 353 353 353 353 353 352 352 352 352 352 351 350 348 346 344 342 339 336 334 333 332 331 331 331 330 329 329 329 330 330
321 320 320 320 321 322 323 325 325 326 327 327 326 329 335 340 343 347 350 353 355 355 355 354 354 354 354 354 354 354 354 354 354 354 353 353 353 353 353 353 353 353 353 353 352 351 351 350 348 346 344 340 338 336 334 334 334 333 333 332 332 333 333
320 320 319 320 321 321 322 323 324 324 326 326 326 326 327 334 341 344 346 351 354 355 355 355 354 355 354 354 354 355 355 355 355 355 354 354 354 354 354 354 354 355 355 354 355 355 355 354 352 351 349 346 343 341 339 337 336 336 336 335 335 335 336
319 319 319 319 320 321 321 323 322 323 324 326 327 326 325 329 336 339 342 347 351 353 354 355 354 355 356 356 356 356 356 356 356 356 356 355 355 355 355 355 356 356 356 356 357 357 358 357 355 354 352 349 347 345 342 340 339 338 338 337 338 338 338
317 318 318 318 319 320 321 322 322 322 324 326 327 328 327 329 331 333 337 342 347 350 352 354 355 355 355 357 357 357 357 357 357 357 357 357 357 357 357 357 357 358 358 358 358 359 359 359 359 358 354 352 350 347 345 342 340 340 340 339 340 340 340
316 316 317 317 319 320 320 322 322 322 323 325 327 329 330 330 330 331 333 337 343 348 350 351 353 355 355 356 356 357 357 358 359 359 359 359 358 358 359 359 358 359 359 359 359 360 360 360 360 360 358 355 352 349 347 344 341 342 341 341 341 341 342
314 315 315 316 318 319 320 320 322 322 322 324 327 329 330 329 330 332 333 334 337 344 348 349 351 353 354 355 355 356 356 357 358 359 360 360 360 359 359 359 359 359 360 360 360 360 360 360 360 360 360 358 356 352 349 347 343 343 342 342 342 343 344
313 314 315 315 317 319 319 319 321 321 321 322 325 329 330 329 330 332 333 334 334 338 343 346 348 350 352 353 354 355 356 355 356 356 357 358 359 359 359 359 359 360 360 360 360 361 361 361 360 360 361 360 358 355 352 349 345 344 344 343 343 344 345
312 313 314 314 316 317 319 319 320 320 320 321 323 327 330 330 329 330 332 333 333 334 337 340 345 347 349 351 352 354 355 356 355 355 356 356 357 358 358 359 359 360 360 360 361 361 361 361 361 361 361 361 359 357 354 352 349 346 344 344 344 345 347
311 312 313 314 315 316 317 318 319 320 320 320 322 325 328 330 330 331 332 333 334 334 334 336 340 343 346 349 350 352 354 355 355 356 355 355 356 355 356 357 357 359 359 359 360 360 361 361 361 361 361 361 360 359 357 355 352 349 348 346 346 347 347
310 310 311 313 315 315 316 317 318 319 319 320 321 324 327 329 331 332 333 334 334 334 334 334 337 340 343 347 348 350 352 353 355 357 357 357 356 354 354 355 355 356 357 358 359 360 360 361 361 361 361 360 360 360 358 356 355 352 350 348 347 347 348
310 310 310 311 313 314 315 316 317 318 318 319 320 323 325 328 330 332 333 334 335 335 335 335 336 337 339 344 346 348 349 350 353 355 357 359 359 356 355 355 354 355 355 356 358 360 360 361 362 362 361 361 361 360 359 358 357 354 353 351 350 349 348
310 309 309 309 311 313 314 315 316 317 318 319 320 322 325 327 329 331 333 334 335 336 337 337 337 336 337 340 344 346 348 348 350 353 355 358 360 360 357 356 356 356 356 356 358 360 360 362 362 362 362 362 361 361 360 359 358 357 355 353 351 350 350
309 309 309 309 309 311 313 314 315 316 318 319 320 321 324 327 329 331 333 335 335 336 338 339 339 338 337 338 341 344 347 348 349 350 353 356 359 361 360 358 357 357 357 357 358 359 361 361 361 362 361 361 361 361 360 360 358 357 356 355 354 353 351
309 308 308 309 309 309 311 313 314 315 317 319 320 321 323 326 329 330 333 335 336 337 338 339 339 339 338 338 339 342 346 347 348 351 353 354 357 359 360 360 359 358 358 358 358 359 360 360 361 361 360 360 361 361 360 360 359 358 357 357 355 354 353
308 308 308 308 308 309 310 312 313 315 316 319 320 321 322 325 328 330 332 335 336 337 338 338 339 339 339 339 340 341 344 347 350 352 355 355 356 357 358 359 360 359 358 357 358 358 358 358 360 360 360 360 361 361 361 361 360 359 358 358 357 356 354
307 307 307 308 308 309 310 311 313 315 316 318 320 320 322 324 325 328 332 335 336 337 337 338 338 338 338 340 342 342 344 347 352 355 356 357 357 357 357 358 358 358 356 354 354 354 354 354 356 358 359 359 360 360 361 361 360 359 359 358 358 357 355
307 307 307 308 308 309 310 312 313 315 317 318 318 319 322 323 324 326 331 334 336 336 337 338 339 338 337 338 341 343 345 348 353 356 358 358 358 358 357 357 357 357 356 354 352 352 352 351 351 352 355 358 359 360 360 359 359 359 359 359 358 358 357
307 307 307 308 309 309 310 312 314 315 317 318 318 318 320 322 323 326 331 334 336 336 337 338 339 339 338 336 338 342 346 349 354 358 360 360 359 359 358 358 357 357 356 356 356 357 356 354 353 353 355 357 360 360 359 359 359 360 359 359 358 358 357
307 307 308 309 309 310 311 312 314 316 317 318 318 318 319 321 322 326 331 334 335 336 337 338 339 340 339 337 338 340 344 348 353 358 361 361 361 362 360 359 358 358 357 357 358 359 359 358 358 357 357 359 360 360 360 360 360 360 360 360 359 358 358

ECMWFFLT1_850_thetae_066.txt.gz
Theta_e
351 349 350 349 349 350 351 351 351 350 350 349 349 349 348 348 348 348 348 348 348 347 347 347 346 344 341 338 337 339 342 340 338 338 338 338 338 337 336 335 337 340 343 344 344 343 341 339 339 338 338 339 340 341 341 341 341 341 341 342 344 346 345
349 349 351 349 349 350 350 351 351 350 350 350 349 349 349 348 348 348 348 348 348 348 347 347 346 345 344 341 338 338 341 342 339 337 337 337 337 335 335 334 335 337 340 342 343 343 342 339 338 338 338 339 339 339 340 340 340 341 341 341 342 344 344
343 346 350 350 349 350 350 350 351 351 351 350 349 349 349 349 348 349 349 348 348 347 347 347 347 346 346 344 340 337 339 342 341 338 336 336 335 334 334 334 334 336 338 340 341 342 342 338 337 338 338 338 339 339 339 339 339 340 341 341 341 342 343
339 343 347 350 350 350 350 350 350 351 351 351 351 350 349 349 348 349 348 348 349 348 347 347 347 346 346 346 343 339 337 340 341 339 336 334 333 333 333 333 334 335 336 337 339 340 341 339 337 336 337 338 339 338 338 338 338 339 340 340 340 340 341
337 341 344 348 350 350 350 349 350 350 351 350 350 350 350 349 349 349 349 349 349 348 348 348 348 348 347 347 346 343 338 337 339 339 338 335 333 332 332 332 332 333 333 334 337 339 339 339 338 336 336 337 338 339 338 338 338 338 339 340 340 340 340
333 338 342 347 349 351 350 350 350 349 350 351 350 350 350 350 349 349 349 348 348 348 348 348 348 348 348 347 347 345 342 338 337 338 338 337 334 332 331 331 331 332 332 332 334 336 337 338 338 337 336 336 337 337 337 338 337 338 338 338 339 339 339
331 335 340 346 349 351 350 350 351 349 350 350 349 350 350 350 350 349 349 349 348 349 348 348 348 348 348 348 348 347 345 342 339 337 337 337 335 332 331 331 330 331 331 331 333 336 336 336 337 338 336 336 337 337 337 337 337 337 337 337 337 338 339
331 333 337 342 347 350 351 350 351 350 350 350 349 350 349 349 350 349 349 349 348 349 348 348 349 348 348 348 348 348 347 346 343 340 338 337 335 333 331 330 330 330 330 330 332 335 336 335 335 336 335 335 335 337 338 337 334 332 332 332 334 335 337
330 333 336 340 343 347 349 350 350 350 350 349 349 350 349 349 349 349 349 349 348 349 348 349 349 349 348 348 348 348 347 347 346 343 341 339 336 334 332 331 330 329 330 330 330 332 334 334 333 334 334 333 334 335 334 331 329 327 326 326 328 329 331
328 331 336 338 340 343 345 348 349 349 349 349 349 350 349 349 349 349 349 348 348 349 348 349 349 348 349 348 348 348 348 347 347 346 345 342 339 335 332 331 330 329 329 328 329 330 331 332 333 333 333 331 330 330 328 327 326 325 325 325 325 325 327
326 328 331 335 337 341 342 344 345 346 348 348 348 349 349 349 349 349 349 348 348 348 348 349 349 348 348 348 348 348 348 348 347 347 346 345 344 340 335 332 331 330 329 328 328 328 329 331 332 333 332 329 328 327 325 325 325 325 325 325 325 325 325
325 326 327 329 333 335 338 340 342 343 345 346 348 348 348 349 349 349 349 348 348 348 347 348 348 348 348 348 348 348 348 348 347 347 347 346 347 344 340 336 333 331 330 329 328 328 328 329 330 331 331 329 328 327 326 326 325 325 326 326 326 326 325
324 324 325 327 329 331 333 335 337 340 342 344 346 347 348 349 348 349 349 349 349 348 348 348 347 348 348 348 349 348 348 348 348 348 348 348 348 347 346 343 338 333 330 329 330 330 329 328 329 329 330 329 330 329 328 327 326 326 326 326 326 326 326
323 323 325 327 329 329 329 329 330 335 339 342 345 346 347 348 349 349 349 349 349 349 348 348 348 348 348 348 348 348 348 348 348 348 348 348 348 348 348 347 344 339 334 330 329 329 330 330 329 329 329 329 330 329 329 329 328 327 326 326 326 326 326
322 322 323 325 326 327 328 328 327 329 332 337 341 344 346 347 348 349 349 349 350 350 349 349 349 349 349 348 348 348 348 349 348 348 349 348 349 349 349 349 348 346 342 336 332 328 328 329 329 329 329 329 328 329 329 329 328 328 327 327 326 326 326
322 321 321 322 323 324 326 327 328 327 327 330 335 339 342 345 346 348 349 350 350 350 350 350 350 350 349 349 349 349 349 349 349 349 349 349 349 350 350 350 349 349 347 344 340 335 331 329 328 328 328 328 328 328 328 328 328 327 327 327 326 326 325
322 321 320 320 321 322 324 325 327 327 327 327 328 331 336 341 344 345 348 349 350 350 350 351 351 350 350 350 350 350 350 350 350 350 350 350 350 351 351 351 351 350 350 348 347 344 340 337 333 331 329 328 328 327 327 326 326 326 326 325 325 325 325
321 321 319 319 320 321 322 323 324 325 326 327 327 327 329 334 340 342 345 347 349 350 350 351 351 351 351 351 351 351 351 351 350 350 351 350 351 351 351 351 351 351 351 351 350 349 347 346 343 340 337 335 334 332 331 330 328 326 326 326 325 325 325
318 319 319 318 319 320 321 322 322 323 325 326 328 327 326 328 334 338 341 344 347 349 350 351 351 352 352 352 352 351 351 352 351 351 351 352 352 352 352 352 352 352 352 352 351 350 350 349 348 347 346 345 343 341 339 336 333 331 331 329 328 328 328
315 317 317 317 318 319 320 321 322 323 324 326 327 327 326 326 328 331 335 338 343 348 349 350 351 351 352 352 352 352 352 352 352 352 352 352 352 353 352 352 352 353 352 352 352 351 351 351 351 351 350 349 348 347 346 343 340 338 336 334 333 333 332
313 314 316 316 317 318 319 321 322 322 323 324 326 327 327 326 326 327 329 333 338 344 347 349 351 351 352 353 352 353 352 352 353 352 352 353 352 353 353 352 353 353 353 353 352 352 352 352 352 351 351 352 351 351 351 349 347 344 341 338 336 336 336
311 312 314 315 316 316 318 319 321 322 322 323 325 326 327 327 326 326 326 328 333 339 344 347 350 351 353 353 353 353 353 353 353 353 353 353 353 353 353 353 354 353 353 353 353 353 353 353 353 353 353 353 353 353 354 353 351 349 347 343 341 341 341
310 311 312 313 314 315 316 317 319 321 322 323 324 325 326 327 326 326 326 327 330 335 341 345 348 350 352 353 354 354 354 353 353 353 354 353 353 354 354 354 354 353 354 354 353 353 354 354 354 355 355 355 355 355 356 356 354 352 349 346 345 345 344
311 310 310 311 312 313 314 316 317 319 321 322 323 323 325 327 326 326 326 326 327 332 336 341 345 347 350 352 354 355 355 355 354 354 354 354 354 354 354 354 355 354 354 354 355 355 355 355 356 356 356 356 356 356 358 358 357 356 354 350 348 347 346
310 310 310 310 310 311 312 314 315 317 319 321 323 323 324 326 326 326 326 326 327 330 332 335 339 343 347 349 351 354 355 356 356 355 355 355 355 355 355 355 355 355 355 355 355 356 356 356 357 356 357 357 357 357 358 358 359 359 357 355 352 349 347
310 310 310 310 310 310 310 312 314 316 317 319 322 322 322 324 326 326 327 328 328 329 330 331 334 338 342 345 348 351 352 354 356 356 357 357 357 357 357 357 357 356 356 357 357 357 357 357 357 357 358 358 358 358 358 358 359 360 359 358 356 353 350
310 310 309 310 310 310 310 310 312 313 315 317 320 321 321 323 325 326 327 329 330 330 329 330 332 334 337 340 343 347 350 351 353 355 356 357 357 358 358 358 358 358 358 358 358 358 358 358 358 358 358 358 358 358 358 358 359 360 360 359 358 356 352
309 309 309 309 310 309 309 310 310 311 313 315 318 319 320 321 323 325 327 329 330 331 329 328 330 332 334 335 338 342 346 348 350 351 353 355 356 356 357 357 357 358 358 358 359 359 359 358 358 358 358 358 358 358 357 357 358 360 361 360 360 358 355
308 309 309 309 309 309 309 309 310 310 311 313 315 318 319 320 321 324 325 328 330 330 328 327 329 330 332 334 336 338 340 344 347 349 351 353 354 355 355 356 356 356 356 357 357 357 357 357 357 357 358 358 358 358 357 356 358 359 360 361 360 359 357
307 308 308 308 309 309 309 309 310 310 311 311 313 315 317 318 320 322 324 326 329 330 329 328 328 329 331 334 335 336 337 340 344 347 348 351 353 354 355 355 355 355 355 355 356 356 356 356 356 357 357 357 357 357 357 356 357 359 361 361 361 360 359
307 307 308 308 308 308 308 308 309 310 311 311 311 313 315 317 319 321 323 325 327 329 330 328 325 325 329 334 335 335 336 338 341 345 347 349 351 353 356 356 356 356 355 355 355 355 355 355 356 355 356 355 355 356 356 357 357 359 360 360 360 361 360
306 306 307 307 307 308 308 308 309 309 310 311 311 312 314 316 318 320 322 324 325 327 330 330 326 323 328 334 335 335 336 336 337 342 346 348 349 351 353 355 357 358 357 357 355 355 354 354 354 354 354 354 355 355 356 357 358 359 360 360 360 361 360
305 306 306 306 307 307 307 308 308 309 310 311 312 312 313 315 317 318 321 323 324 325 328 331 332 329 330 334 335 335 337 338 339 340 342 346 349 350 351 353 356 357 358 358 358 356 355 355 354 354 355 354 354 355 356 357 357 358 359 359 359 360 360
306 306 306 306 306 307 306 307 308 309 309 311 312 312 313 315 316 318 320 322 323 324 326 329 331 333 334 335 335 335 336 338 341 342 342 344 346 349 350 351 353 355 357 357 357 357 356 355 354 354 355 355 355 355 356 357 356 357 358 358 359 359 359
306 306 306 306 306 306 306 307 308 308 308 310 311 311 312 314 316 317 320 321 322 323 325 329 331 333 334 336 336 335 335 337 339 342 344 345 346 349 350 350 351 353 354 355 355 355 355 354 355 354 353 353 354 355 356 356 355 355 355 356 358 359 359
305 305 305 306 306 306 306 307 307 308 308 309 310 311 312 314 315 317 319 321 321 322 325 329 331 332 334 335 336 336 336 336 337 339 343 346 347 349 351 350 351 352 353 353 354 355 355 354 354 353 353 352 352 352 353 352 352 352 352 354 356 358 358
305 305 305 306 306 306 306 307 308 308 308 309 310 311 312 314 315 316 319 321 321 321 325 329 331 332 334 334 335 336 337 337 337 338 341 345 347 350 352 352 352 353 353 353 353 354 355 355 356 355 354 353 352 351 351 351 350 352 353 355 356 358 359
305 305 306 306 306 306 307 307 307 308 308 309 309 311 313 314 315 316 318 320 321 321 325 330 331 333 334 334 335 336 338 339 339 339 340 343 346 351 354 355 354 353 353 354 355 356 356 356 357 358 358 356 355 354 354 354 354 353 354 355 357 358 359

ECMWFFLT1_850_thetae_069.txt.gz
Theta_e
347 349 351 351 352 352 351 351 350 349 349 349 350 350 349 349 349 350 350 350 349 349 349 348 348 347 347 346 342 337 335 336 337 339 340 340 340 340 340 341 340 339 341 343 344 344 344 344 343 341 340 339 339 340 341 342 343 343 342 341 344 347 348
341 343 346 349 351 352 352 351 351 350 350 350 350 350 350 350 350 350 349 350 350 349 349 348 348 348 347 347 345 341 336 335 336 338 339 339 338 339 340 340 340 338 338 341 344 344 344 344 343 341 339 339 339 340 340 341 342 342 342 342 342 344 345
337 339 342 345 348 350 352 351 351 351 351 351 350 350 350 350 350 350 350 350 350 349 349 348 348 348 347 347 347 345 340 336 336 337 338 337 338 339 339 339 339 338 337 338 341 344 344 344 343 341 338 339 339 339 340 340 341 341 341 341 341 342 343
336 337 340 342 345 348 350 352 351 351 351 351 350 350 350 350 350 350 350 350 350 350 349 349 348 348 348 348 347 346 344 340 337 336 337 337 337 338 338 339 339 338 336 335 338 342 343 343 343 341 339 338 338 338 340 340 340 340 340 341 341 341 341
334 335 338 341 343 345 349 351 351 351 351 351 350 350 350 350 350 350 350 350 350 349 349 349 349 348 348 348 347 347 346 345 341 337 336 336 337 337 338 338 338 337 335 334 335 339 341 342 342 341 339 337 337 338 339 339 339 339 340 340 339 339 340
332 333 335 338 341 345 348 351 351 351 351 351 351 351 350 350 349 350 350 349 349 349 349 349 349 349 348 348 348 347 347 346 345 341 338 336 337 337 336 337 336 336 335 333 334 336 338 339 340 341 340 338 338 337 337 338 339 339 339 339 338 339 339
330 331 332 335 339 344 347 349 350 350 350 351 350 350 351 350 349 349 349 349 348 349 349 349 349 349 349 348 348 348 347 347 347 345 341 337 336 336 335 335 335 334 334 334 333 333 335 336 337 338 339 340 339 338 337 337 338 339 338 338 337 337 338
328 328 330 332 336 341 345 348 349 349 350 351 351 350 350 350 350 349 348 348 348 348 348 348 349 348 349 349 348 348 348 348 347 347 345 342 338 335 335 335 334 334 333 333 333 332 333 333 334 335 337 339 339 339 338 337 338 338 337 337 337 337 336
326 327 327 330 334 338 341 344 346 348 350 350 350 351 350 350 350 349 348 347 346 346 347 347 347 348 348 348 348 348 348 348 348 347 347 345 342 339 336 335 334 333 333 332 332 331 331 331 331 333 335 336 337 338 338 337 337 337 338 337 335 333 333
325 325 326 328 332 336 340 342 345 346 347 348 349 350 350 350 350 350 349 348 347 347 346 346 346 346 347 347 348 348 348 348 348 348 348 347 346 344 340 337 335 333 332 332 331 331 331 331 330 331 333 334 335 335 335 336 337 338 337 334 330 328 327
325 324 326 327 330 333 337 340 342 343 344 345 347 348 349 349 349 349 349 349 349 348 348 347 347 346 346 347 347 347 348 348 348 348 348 348 348 347 345 342 339 336 333 332 332 331 330 330 330 330 331 331 332 332 332 334 335 337 335 330 326 326 326
324 324 325 325 327 330 332 334 337 340 342 343 345 346 347 348 348 348 348 349 349 348 348 348 348 348 347 347 347 347 347 348 348 348 348 348 348 348 347 346 345 342 338 334 332 331 331 330 330 329 329 329 329 330 330 331 332 333 331 327 325 325 326
324 324 323 324 325 328 329 330 332 335 338 341 343 344 345 347 348 347 348 347 347 347 348 347 348 347 347 346 347 347 348 348 348 348 348 349 348 348 348 347 347 346 344 340 336 332 330 330 330 329 328 328 328 328 328 327 328 328 327 326 325 325 326
324 323 323 322 323 325 327 328 329 330 333 336 340 342 343 344 346 347 347 347 346 346 346 347 347 346 347 347 346 347 348 348 348 348 349 348 349 349 348 348 347 347 347 347 343 338 333 330 330 329 328 328 327 327 327 326 326 326 326 325 325 325 325
323 322 322 322 322 322 323 324 327 328 329 331 334 338 341 343 344 346 346 346 346 346 346 346 346 347 347 347 347 347 348 348 348 348 348 348 348 348 348 348 348 347 347 347 348 345 341 335 331 330 329 329 328 328 327 327 327 327 326 327 326 326 326
321 321 321 320 320 321 322 322 323 325 327 328 329 332 336 339 341 343 345 346 347 347 347 347 346 347 347 347 348 348 348 348 348 348 349 348 348 349 348 348 348 348 348 348 348 348 347 344 339 334 331 329 329 329 329 329 328 327 327 327 326 326 327
319 319 320 319 318 319 321 322 322 323 325 327 328 328 330 333 337 339 342 345 347 347 347 348 347 347 347 347 347 348 348 348 349 349 349 349 349 348 349 348 348 348 349 349 349 349 349 349 347 342 337 332 330 329 328 328 328 327 327 327 327 327 327
316 317 318 318 317 317 318 320 321 322 322 324 326 327 328 329 331 334 337 341 345 347 347 348 348 348 348 348 347 348 349 349 348 349 349 349 350 349 349 349 349 349 349 349 350 350 350 350 350 348 345 340 336 333 330 328 326 326 325 325 326 325 326
315 315 315 315 315 315 316 317 319 320 321 322 323 324 326 327 328 329 331 334 339 345 347 347 348 349 349 349 348 349 349 349 349 349 350 350 349 350 350 349 349 350 350 350 350 350 350 351 351 351 349 348 345 342 338 334 330 328 328 327 327 327 327
314 313 313 313 313 313 314 315 317 318 320 321 322 322 324 327 327 327 328 329 333 340 345 347 348 349 349 349 349 349 350 350 350 350 350 351 350 350 350 350 350 350 350 350 351 351 352 351 352 351 351 350 349 348 347 344 339 336 336 334 334 333 333
313 313 313 312 312 311 311 312 314 316 318 320 321 321 323 325 327 327 327 327 328 334 340 344 347 348 349 349 350 350 350 351 350 350 350 351 351 351 351 351 351 351 351 351 351 352 352 352 352 352 351 351 351 351 351 350 346 345 343 342 341 341 342
312 312 312 311 311 310 310 310 311 313 315 317 319 320 322 323 325 326 327 327 327 329 334 339 344 347 348 349 350 351 351 351 352 352 351 351 351 352 352 351 352 352 352 352 352 352 353 352 352 352 352 352 352 351 352 351 350 351 350 349 348 349 349
312 311 311 310 310 310 310 310 310 310 312 314 316 319 320 322 324 325 326 326 326 328 331 335 340 345 347 349 350 351 352 352 352 352 353 352 352 352 352 352 352 353 352 352 352 352 353 353 353 353 353 352 352 352 352 352 352 353 353 353 353 353 352
311 311 310 310 309 309 309 309 309 309 310 312 314 316 318 321 323 324 325 326 326 327 330 332 335 340 343 346 349 351 352 352 353 353 353 353 353 353 353 352 352 353 352 353 353 353 353 353 353 353 353 353 353 353 353 353 354 354 354 355 355 355 355
310 310 309 309 309 309 309 309 309 309 309 310 311 313 316 318 321 322 324 326 326 326 327 328 330 333 337 340 343 347 350 352 353 353 353 353 354 354 353 353 353 353 352 353 353 353 353 353 353 354 354 354 354 354 354 355 355 356 356 355 356 356 356
309 309 309 309 309 309 309 309 309 309 309 309 310 311 312 315 318 321 322 324 325 327 327 326 326 328 331 333 336 339 344 348 350 352 354 354 354 354 354 354 354 353 353 353 353 353 353 353 353 354 354 354 354 355 355 356 356 356 357 356 357 357 357
309 309 309 308 309 309 309 309 309 309 309 309 310 310 310 312 315 318 321 322 323 325 326 325 324 324 326 330 332 333 337 341 344 348 351 353 354 354 355 355 355 355 354 354 354 354 355 354 355 355 355 355 356 356 356 356 356 357 356 356 357 357 357
308 308 309 309 308 308 308 309 309 309 309 309 309 309 310 310 311 314 317 320 321 323 325 326 324 323 324 326 328 330 332 334 337 340 344 348 350 351 352 355 356 356 356 355 356 356 356 356 357 357 357 357 357 357 357 357 357 356 357 356 356 357 357
306 306 307 308 308 307 307 308 309 310 309 309 309 309 309 309 310 311 313 317 319 321 323 325 324 323 323 324 325 326 329 331 334 336 338 341 345 348 350 353 355 356 356 357 357 357 357 357 357 357 357 357 357 357 356 356 356 356 355 355 356 356 357
305 305 305 306 306 306 306 306 308 309 310 309 309 309 309 309 310 310 311 314 317 319 321 324 325 324 323 324 324 324 326 330 333 336 336 336 339 344 347 350 353 354 355 356 357 358 357 356 356 356 356 356 356 356 356 356 355 355 355 355 355 355 356
304 305 305 305 305 305 305 305 306 308 309 310 309 309 309 309 309 310 310 311 314 317 319 321 324 325 324 324 324 324 325 327 330 335 337 338 339 343 346 348 350 353 354 355 356 358 357 357 357 358 356 356 356 355 356 356 356 354 353 354 354 355 356
304 304 305 305 305 305 306 306 306 307 308 309 309 309 309 309 309 309 310 311 312 315 318 319 322 324 324 324 324 323 324 325 326 330 336 339 340 342 344 346 349 351 353 355 357 357 358 358 358 358 358 358 357 357 357 356 356 354 353 353 354 354 356
304 305 305 306 306 306 306 306 306 306 307 308 309 308 308 309 309 309 309 310 311 313 316 318 320 323 324 324 324 323 324 324 323 325 330 337 340 341 343 345 348 350 352 354 356 357 357 357 357 357 357 358 357 356 357 356 355 354 353 352 353 355 356
304 305 305 306 306 307 307 307 307 307 307 308 308 308 308 309 309 309 309 309 310 313 315 317 319 321 323 324 324 324 325 325 324 322 325 332 337 340 341 344 347 349 350 351 353 356 357 357 358 357 355 356 355 355 356 355 353 352 352 351 353 355 356
304 305 305 306 307 307 307 307 307 307 307 307 308 308 308 308 309 309 309 309 309 311 314 316 318 320 322 323 325 325 324 326 326 323 322 327 334 337 339 342 345 347 349 349 352 355 356 357 358 358 357 356 356 355 354 354 352 351 351 351 353 355 355
305 305 307 307 306 307 307 307 307 307 307 308 308 308 308 308 308 309 309 309 309 311 313 316 318 319 320 322 324 324 323 325 327 327 324 325 330 335 337 339 342 345 347 348 350 352 354 356 357 358 359 360 359 358 357 355 353 353 352 353 353 354 355
305 306 306 307 306 307 307 307 308 308 308 308 308 308 308 308 309 309 309 309 309 310 313 316 317 319 320 321 323 325 325 325 327 329 328 325 327 333 336 337 339 342 345 346 348 349 350 353 354 355 357 358 359 360 359 357 355 355 356 355 354 354 354
306 306 307 307 307 307 307 308 308 308 308 308 308 308 309 308 309 309 309 309 309 310 313 315 317 319 320 320 322 325 327 327 327 330 330 328 328 333 337 339 339 339 340 344 348 349 350 351 352 352 353 353 355 357 358 357 355 356 356 356 355 355 355

ECMWFFLT1_850_thetae_072.txt.gz
Theta_e
349 350 352 352 353 353 354 354 354 354 354 354 354 354 353 354 353 354 352 350 349 349 349 349 348 348 347 347 347 346 343 340 337 337 339 338 340 344 344 344 345 345 347 349 351 351 347 346 347 347 344 342 341 341 343 344 344 345 344 342 345 347 349
346 346 349 350 351 352 353 355 354 354 354 354 355 354 354 354 354 353 352 349 350 349 349 350 349 348 348 348 347 347 345 341 337 336 337 337 338 341 342 343 345 344 343 346 351 352 348 344 344 344 344 342 341 341 341 343 343 344 345 343 344 344 344
343 344 346 347 348 350 353 354 355 355 354 354 354 354 354 354 354 353 351 349 350 350 350 350 349 349 348 348 348 347 347 344 339 335 334 337 338 340 341 340 342 344 343 343 347 349 349 347 344 344 344 343 343 342 340 341 343 342 344 344 344 345 343
341 342 343 344 347 349 351 353 355 355 354 354 353 354 354 353 354 353 351 351 351 349 350 349 350 350 349 348 348 348 347 347 344 337 334 337 338 340 342 341 339 342 344 343 344 346 349 350 347 343 344 343 342 342 341 341 342 341 342 343 343 344 343
338 340 341 343 345 348 350 351 354 355 354 353 354 354 354 354 353 352 352 353 353 353 353 351 351 351 349 348 348 348 348 347 347 343 337 336 337 338 341 341 339 340 343 344 343 342 343 347 348 345 344 342 340 342 342 340 340 340 341 342 343 342 344
335 336 338 341 343 346 349 350 351 353 354 354 355 354 354 354 354 353 353 353 352 353 353 351 351 352 351 350 348 348 348 347 347 347 342 338 336 336 337 338 339 340 342 343 342 341 339 340 346 347 346 345 343 344 344 341 340 341 339 340 341 342 347
332 333 335 338 341 343 345 347 349 351 353 354 354 354 354 354 354 353 353 353 351 351 351 349 351 352 353 352 350 348 349 348 347 347 346 343 338 336 336 337 337 339 341 342 339 339 339 338 342 345 345 346 347 347 347 343 340 340 338 338 340 340 343
330 331 332 334 337 339 341 343 345 348 351 352 352 354 354 353 353 352 352 352 352 352 351 350 351 352 353 353 351 349 349 348 348 347 346 346 343 340 338 338 337 336 338 339 336 334 335 336 340 342 342 345 347 346 345 342 338 339 340 339 340 340 342
329 330 330 332 334 336 338 341 344 347 349 350 351 352 353 353 352 352 352 352 352 352 351 351 351 350 350 351 350 350 350 349 348 348 347 346 346 346 343 340 338 335 335 337 337 335 333 333 339 341 339 340 342 341 340 339 339 340 341 339 338 338 340
329 329 329 330 332 333 336 340 344 346 347 348 350 351 352 353 352 351 352 351 351 351 351 351 352 351 349 349 349 350 351 350 349 349 349 348 348 348 348 346 343 339 334 334 338 338 334 331 335 337 334 335 337 337 337 338 338 340 341 340 338 336 337
329 329 329 329 330 332 334 338 341 342 343 345 347 350 351 351 351 351 350 350 350 350 350 350 351 351 351 350 350 352 352 352 352 351 351 350 351 350 349 349 348 344 336 333 337 339 336 332 331 332 331 331 333 334 335 336 337 337 340 340 340 337 335
329 328 328 328 328 329 331 333 336 338 339 341 343 347 349 350 350 350 350 349 348 348 349 350 349 350 351 351 352 353 354 354 353 353 352 351 351 351 350 349 349 348 343 337 334 335 336 333 331 330 330 329 331 333 333 334 335 335 336 339 341 340 336
327 327 327 327 327 327 329 331 332 334 335 337 340 342 345 347 346 347 348 348 348 347 348 349 350 350 350 351 352 353 354 354 354 353 353 352 351 351 351 351 349 349 348 345 339 337 336 334 331 330 330 329 329 330 332 332 333 334 333 335 339 340 337
326 326 325 325 325 324 326 327 329 331 333 334 337 339 341 344 345 345 345 345 346 346 347 348 349 349 350 350 351 352 352 353 354 354 353 352 351 351 351 352 351 350 350 349 346 343 341 338 334 330 330 330 329 329 330 330 330 331 331 332 334 337 335
324 325 324 324 323 322 323 324 325 328 329 331 333 336 338 340 343 344 343 342 343 344 345 347 348 348 349 349 350 351 351 352 352 353 352 351 350 349 349 350 350 350 350 350 348 347 347 345 342 336 331 329 329 329 329 329 329 329 330 329 331 333 332
322 322 323 323 322 321 320 321 323 324 326 328 330 332 335 337 340 342 343 344 344 344 345 345 347 348 348 349 349 349 351 352 352 350 349 350 349 348 348 348 349 349 348 348 349 348 348 347 347 345 340 333 329 328 328 329 328 328 327 328 327 327 328
321 320 321 321 321 320 319 319 320 322 324 325 326 328 330 333 335 337 340 343 344 345 345 345 346 347 348 349 350 350 351 353 353 351 349 349 348 348 348 348 348 348 348 348 348 348 348 347 347 348 347 343 337 331 329 329 328 327 326 326 326 326 326
320 319 319 319 320 320 319 318 317 318 320 322 324 325 327 328 331 332 335 339 342 344 345 346 346 346 348 349 350 351 352 352 353 353 353 351 349 348 348 348 348 348 348 348 348 348 348 348 347 347 348 348 347 342 337 332 328 327 326 325 326 326 326
319 319 318 318 318 319 318 318 316 315 316 319 321 322 324 326 327 328 330 333 338 342 344 345 346 346 347 347 347 349 352 352 353 353 354 355 353 350 348 348 349 349 348 348 348 348 348 348 349 348 348 349 349 348 345 339 330 326 326 326 326 327 327
318 318 318 318 318 317 317 317 315 313 313 315 318 320 322 324 325 326 327 328 332 337 340 344 346 346 347 347 346 347 350 352 354 354 354 355 354 353 351 349 349 350 350 350 350 349 349 349 349 349 350 350 349 350 349 345 336 329 327 326 326 326 327
318 318 317 317 317 317 317 316 315 313 312 312 314 317 319 321 323 324 326 326 329 332 336 340 344 346 347 347 347 348 349 351 353 355 356 355 354 354 353 351 350 350 350 351 352 351 351 350 350 350 350 350 351 351 350 349 345 338 333 330 328 327 326
317 317 317 316 317 317 316 316 315 314 312 311 312 313 315 317 320 322 324 325 327 329 332 335 339 342 344 347 348 349 349 349 351 353 355 356 356 356 356 354 353 352 351 351 352 353 353 352 351 351 351 351 351 351 351 351 349 347 343 339 336 336 335
316 316 316 316 316 316 316 315 315 313 312 312 313 312 312 314 316 318 320 322 324 327 329 331 333 336 339 343 346 348 349 349 350 351 352 354 356 356 357 357 356 355 354 353 353 354 354 354 353 353 353 352 352 352 352 352 352 351 350 348 347 346 345
315 315 315 315 315 315 315 315 313 312 312 313 314 312 311 312 314 315 317 319 321 324 326 327 328 330 333 337 341 344 348 349 350 351 351 352 353 355 357 357 356 356 356 356 355 355 355 355 355 354 354 353 353 353 352 352 353 352 351 351 351 351 350
315 314 314 314 314 314 314 313 312 312 313 314 314 313 311 311 312 312 314 316 318 320 322 324 326 327 328 331 334 338 342 345 348 351 351 352 352 353 355 355 354 355 355 356 356 356 356 355 354 355 355 355 354 354 353 353 353 353 352 352 352 352 352
314 314 314 314 313 313 313 312 312 313 314 314 313 312 311 311 311 311 312 313 314 316 319 321 323 324 325 327 329 332 335 338 341 344 348 351 352 353 354 353 353 354 353 353 354 355 355 355 355 356 355 356 355 355 354 354 353 353 353 353 353 353 353
313 312 312 312 312 311 311 311 312 312 313 313 313 312 312 311 311 311 311 311 312 313 315 318 320 322 323 324 325 327 330 333 335 336 338 342 346 348 350 349 349 349 351 352 352 353 354 354 356 357 356 356 356 356 355 355 355 354 354 354 354 354 354
311 311 311 311 311 310 311 311 311 311 311 312 312 312 313 312 311 311 311 311 311 311 312 315 317 319 321 322 322 324 326 328 331 332 334 335 337 337 339 341 344 347 351 352 352 352 353 354 354 354 355 356 356 356 356 356 355 355 355 354 355 355 355
311 311 310 310 310 310 310 311 310 309 309 311 311 311 312 311 310 311 311 311 311 311 311 312 314 316 318 320 320 322 324 326 326 328 330 334 335 334 333 336 339 343 347 351 353 353 353 354 354 354 355 357 357 357 357 357 357 356 355 355 356 355 355
311 310 310 310 310 310 310 310 310 308 307 308 310 310 310 310 310 310 311 311 311 310 310 311 311 313 315 317 319 320 321 324 325 326 327 331 334 336 336 335 336 337 340 346 350 353 354 355 356 355 355 357 357 358 359 359 358 357 356 355 356 355 356
310 310 310 310 309 309 310 310 311 310 308 307 307 308 309 309 309 310 310 311 311 311 310 310 310 311 312 314 317 318 320 321 323 325 326 328 331 333 335 336 337 337 337 341 347 352 355 357 357 356 355 356 357 358 360 360 360 360 358 355 355 355 355
311 310 310 310 309 309 309 309 310 310 310 307 306 308 309 309 309 310 310 310 310 310 310 310 310 310 310 311 313 316 318 319 320 321 323 325 328 329 329 331 335 337 337 341 346 350 354 357 358 357 356 357 357 358 360 360 360 361 361 359 357 356 355
311 310 310 310 310 309 309 309 309 310 310 309 307 308 309 309 308 308 309 309 310 310 310 310 310 310 310 310 311 313 316 317 319 320 320 322 326 328 328 330 332 334 335 339 346 351 353 355 357 358 357 358 358 358 360 361 359 360 361 362 361 359 355
310 310 310 310 310 310 310 310 310 311 311 311 309 308 309 309 308 308 308 309 309 309 309 310 310 310 309 310 311 313 314 315 317 319 319 322 327 331 333 334 334 335 336 336 341 348 353 355 356 357 357 358 358 359 360 361 359 358 359 360 362 362 359
310 309 309 310 310 310 310 310 311 311 311 311 310 309 308 308 308 308 308 308 308 309 309 309 309 309 310 310 312 314 316 317 317 319 322 323 325 328 331 333 334 334 332 331 334 341 347 351 352 355 356 357 357 357 358 360 360 359 359 360 361 362 361
309 309 309 309 309 309 310 310 310 310 310 310 310 310 309 309 309 308 309 309 309 310 310 310 310 309 309 310 311 314 319 320 319 318 320 321 322 322 324 328 331 330 327 325 327 332 337 342 345 348 353 356 356 357 358 359 359 359 359 360 361 361 361
308 309 309 309 309 309 309 309 310 310 310 311 311 311 311 312 311 310 310 310 310 310 310 311 311 310 309 310 311 312 315 317 317 316 317 318 320 322 322 324 328 329 327 324 324 326 330 336 339 341 345 349 352 354 357 359 359 359 359 360 362 362 361
308 308 308 308 309 309 309 309 310 310 310 310 311 311 312 312 312 312 311 312 312 312 312 313 313 312 310 311 313 312 311 313 316 317 317 318 319 321 322 324 326 329 329 327 325 325 327 331 336 340 342 343 345 348 350 352 355 357 358 360 361 361 361

ECMWFFLT1_850_thetae_075.txt.gz
Theta_e
353 354 353 353 355 356 356 356 356 356 355 355 356 356 355 354 353 353 355 356 353 351 351 349 348 347 345 343 341 340 339 340 341 341 346 350 352 353 353 351 351 352 352 352 352 353 354 353 353 354 349 342 343 345 345 345 344 345 344 344 351 352 349
350 352 353 352 353 355 354 355 356 355 354 355 356 356 355 355 354 353 355 357 354 352 352 350 350 349 348 347 346 344 343 343 342 342 346 349 349 351 353 353 352 352 352 351 352 354 354 353 351 351 350 345 344 344 343 345 344 345 348 344 345 348 346
347 349 351 351 351 353 353 354 353 353 353 355 355 355 355 355 355 355 356 357 355 353 352 351 350 349 349 348 347 347 347 345 343 343 347 349 349 350 352 353 352 351 352 351 352 353 354 353 350 349 350 350 350 346 343 345 344 344 347 345 346 348 345
345 347 348 349 351 352 353 353 353 353 354 354 354 354 356 355 354 355 357 357 356 355 352 350 350 350 351 351 349 349 349 348 347 346 348 350 350 350 351 352 352 351 351 351 351 352 352 353 352 349 348 349 351 351 346 346 346 344 343 345 348 350 348
343 345 347 349 350 352 353 353 355 356 355 354 354 354 355 354 353 354 355 356 357 356 354 353 351 351 354 354 351 352 350 347 348 349 351 350 349 351 350 350 351 350 351 351 350 350 351 352 353 351 348 344 348 352 349 346 345 345 343 343 346 350 351
340 342 344 347 349 350 351 352 354 356 355 354 354 353 354 354 353 353 354 354 356 356 357 357 354 353 357 357 355 355 352 348 348 349 351 350 348 349 350 350 351 350 350 350 350 350 350 350 352 353 351 347 347 351 350 347 346 348 345 342 343 349 354
338 339 342 344 346 347 348 349 352 353 354 354 353 353 352 352 353 353 353 354 355 356 357 358 356 356 358 358 358 358 356 352 350 348 350 351 349 349 350 350 350 350 349 349 350 351 351 350 350 352 353 352 350 350 351 350 350 351 350 345 342 344 349
336 337 339 341 342 344 345 346 348 350 351 351 353 353 352 351 353 352 352 353 354 355 356 356 356 357 358 359 360 360 358 357 354 351 352 352 351 350 349 349 350 349 349 349 349 350 351 351 350 350 351 352 352 351 350 351 350 349 351 350 346 344 346
336 336 336 337 339 341 343 343 344 345 347 348 350 353 353 352 352 352 351 353 353 354 355 355 355 356 355 357 359 360 358 359 358 356 355 353 351 350 348 348 349 349 349 348 348 349 350 351 351 350 349 349 351 352 351 352 351 349 350 352 350 348 348
335 335 334 335 336 338 340 341 342 344 346 347 349 351 353 352 352 352 352 352 353 352 352 353 354 354 353 353 355 356 355 356 358 358 357 354 351 350 348 347 348 348 348 347 346 348 348 349 350 351 350 347 347 350 351 352 352 350 350 351 350 348 348
334 334 334 334 334 334 336 338 340 341 342 344 345 348 350 350 350 352 353 352 352 351 351 352 352 353 353 353 354 354 352 354 357 358 357 354 351 350 348 347 346 347 348 347 345 345 346 347 348 349 351 348 345 347 348 349 350 348 347 350 350 349 348
332 333 333 332 332 332 334 335 336 338 339 340 343 345 347 348 348 351 352 351 351 350 351 352 352 352 352 354 355 354 353 354 356 357 356 353 352 351 349 347 346 346 347 348 346 344 345 346 347 346 346 343 341 343 343 342 344 343 342 346 350 349 349
331 331 331 331 331 331 332 334 334 335 335 336 340 343 345 347 348 349 349 349 350 350 351 352 352 352 352 353 353 353 353 353 356 357 356 354 352 351 350 348 347 346 346 346 346 345 343 344 347 347 342 336 333 339 342 339 339 339 336 339 346 349 349
330 330 329 329 330 329 330 331 332 333 333 334 336 340 344 346 347 347 346 348 348 349 350 350 351 352 351 352 352 352 353 353 354 356 356 354 354 354 353 350 348 346 346 346 345 346 344 342 345 347 346 338 331 333 340 341 339 338 335 334 339 345 349
329 328 327 327 327 327 328 328 329 330 332 334 335 337 341 344 345 344 344 345 347 347 348 348 350 351 351 351 352 351 353 354 354 355 356 355 355 356 355 353 351 349 347 346 346 345 344 342 342 346 347 346 340 334 338 342 342 341 338 335 335 339 344
327 326 326 326 326 326 326 325 325 326 328 331 331 333 336 339 342 343 343 343 344 345 346 346 348 350 351 351 352 351 352 354 354 355 356 356 357 357 357 356 354 353 350 349 347 347 347 345 344 343 345 347 346 342 340 342 344 343 339 335 335 336 339
325 325 325 324 324 325 325 324 324 323 324 325 326 328 330 332 334 337 340 342 342 344 345 345 346 349 349 350 351 351 352 352 353 354 354 356 357 358 357 357 356 355 353 352 351 349 349 349 348 346 344 345 347 346 344 343 343 342 338 333 331 333 336
325 324 324 324 324 324 324 324 323 322 322 322 322 324 325 326 328 331 333 337 340 342 344 345 346 347 349 350 351 351 352 352 351 353 353 354 356 357 357 357 357 357 355 354 354 353 352 352 351 350 348 346 346 346 346 344 342 342 340 334 329 328 332
324 323 323 323 323 323 323 323 322 321 321 321 320 320 321 322 324 326 327 330 334 338 342 344 345 346 348 350 350 351 353 353 353 353 353 353 354 354 354 354 355 355 355 355 355 355 354 354 354 353 351 350 348 347 347 345 343 343 342 338 331 327 327
323 323 323 322 322 322 322 322 322 320 319 320 320 319 318 318 320 322 323 325 329 331 336 341 344 345 346 348 348 349 350 352 352 352 353 353 353 353 353 352 352 353 353 354 355 355 356 356 355 354 353 351 351 351 349 348 347 345 344 342 335 328 326
322 322 322 321 321 321 321 321 321 319 318 319 320 319 317 316 317 319 320 322 325 326 329 335 338 341 342 343 344 346 347 348 349 350 352 353 353 352 353 353 352 351 351 353 354 355 356 356 356 356 355 353 352 352 352 351 349 348 348 347 342 334 329
322 321 321 321 320 320 320 320 320 318 318 319 320 320 317 314 315 316 316 319 322 322 324 328 332 334 336 339 342 344 345 346 346 347 350 351 351 352 353 354 354 353 352 353 354 353 354 355 355 356 356 356 354 353 353 353 352 351 350 349 348 344 339
320 320 320 319 319 319 320 320 319 318 318 319 320 320 318 314 314 314 315 316 317 318 320 325 330 330 330 333 337 339 341 343 344 345 347 349 350 351 353 353 354 354 352 352 352 352 351 352 353 354 355 356 356 355 354 354 354 352 351 351 350 350 348
319 319 319 318 318 318 319 318 317 316 318 319 319 319 317 316 315 315 315 315 315 316 318 323 328 328 325 327 329 329 331 336 339 341 344 347 348 348 351 352 352 353 353 353 353 352 351 351 351 352 353 355 356 356 356 355 355 354 352 352 352 351 350
318 317 317 317 317 317 317 317 315 316 318 318 318 318 317 317 317 316 316 315 314 316 319 321 323 321 319 321 324 325 326 329 332 335 338 341 344 346 349 351 352 352 352 353 353 352 351 353 353 352 352 353 355 356 357 356 356 355 353 352 351 352 351
316 316 316 316 316 315 315 315 316 316 317 317 317 317 317 317 318 317 317 315 313 316 319 320 319 315 314 316 319 321 324 325 328 329 331 334 338 341 344 348 350 352 352 352 353 353 353 353 353 353 352 351 353 355 355 355 356 357 356 354 353 352 352
315 315 314 314 314 313 313 314 315 315 315 316 316 316 317 317 318 319 318 315 313 314 316 317 315 312 312 314 315 316 319 321 322 324 326 327 331 333 335 336 339 343 346 347 349 352 353 353 352 353 354 352 351 353 354 354 355 356 357 356 354 353 353
314 314 314 314 313 312 312 313 313 313 314 315 315 315 316 317 317 318 318 315 313 314 314 313 313 312 312 313 313 313 315 316 318 320 322 324 326 327 327 327 328 331 334 337 341 345 349 353 353 353 354 355 354 353 353 353 354 355 357 357 356 355 355
315 314 314 314 313 313 313 313 312 311 311 312 314 314 315 316 316 316 316 315 314 313 312 312 312 312 312 312 312 312 312 314 316 317 318 322 325 326 325 324 326 327 327 329 332 336 340 346 351 353 354 356 356 356 356 354 354 356 357 356 357 357 356
315 315 314 314 313 313 313 313 313 312 310 309 311 312 313 314 314 313 312 313 314 313 313 313 312 312 312 312 312 312 312 312 314 314 315 318 322 324 325 325 327 330 331 330 332 338 339 340 345 350 353 355 357 356 356 355 355 357 358 357 358 357 357
315 315 315 314 314 314 313 313 313 313 312 309 308 308 310 311 313 313 313 313 313 313 312 312 311 311 312 312 312 312 312 312 312 313 314 315 318 322 325 325 324 327 329 329 333 339 343 343 344 345 348 352 356 357 357 356 357 358 359 358 358 358 359
315 315 315 315 315 315 314 314 313 313 313 311 308 307 310 312 313 314 312 311 310 310 310 311 312 312 311 311 311 311 311 312 311 312 313 314 315 316 318 320 322 324 326 330 334 339 343 346 348 347 347 349 353 355 356 356 356 356 356 357 358 359 359
314 315 315 314 315 314 314 314 315 315 315 314 311 309 309 310 310 310 309 308 309 309 309 310 311 311 311 310 311 312 314 316 317 316 315 314 316 318 322 326 332 335 336 338 341 343 344 346 349 350 351 351 352 354 355 355 354 353 354 357 358 359 359
314 314 314 313 314 314 314 314 315 315 315 315 314 312 310 307 306 306 307 307 308 309 309 309 309 309 310 311 312 314 317 320 323 323 322 320 320 323 328 332 336 339 342 343 344 346 347 348 348 350 351 352 352 354 355 355 354 354 354 355 357 359 359
313 313 313 313 313 313 313 313 314 314 315 315 315 314 313 310 307 305 305 307 308 310 313 314 313 311 310 311 313 315 318 321 323 324 325 325 324 326 330 332 332 332 333 334 335 336 340 343 345 346 348 349 350 352 354 354 356 356 355 356 357 358 359
312 311 312 312 312 312 312 312 313 313 314 314 315 315 314 313 312 310 309 310 311 313 315 317 318 316 314 313 314 317 320 321 322 323 325 327 327 327 325 323 322 321 320 320 320 322 324 327 329 333 336 338 338 341 344 348 352 356 357 357 356 357 358
311 311 311 311 311 311 311 311 312 312 313 314 314 314 314 314 314 314 314 314 315 316 317 318 319 319 319 318 318 319 321 320 321 322 323 325 326 325 321 315 313 314 314 313 315 316 317 319 320 323 327 329 329 330 333 337 341 347 352 356 356 357 358
310 310 310 310 310 310 311 311 311 312 312 313 313 313 314 314 314 314 315 315 316 316 317 317 318 319 320 320 321 321 321 320 321 322 323 324 325 326 325 321 316 314 314 316 317 317 317 318 319 321 323 325 326 326 327 330 333 336 341 347 351 355 357

ECMWFFLT1_850_thetae_078.txt.gz
Theta_e
355 356 356 356 355 353 354 353 353 354 353 352 353 353 354 354 353 354 356 356 355 352 347 345 342 334 333 335 336 337 337 335 335 338 347 353 353 350 344 342 343 345 348 348 350 352 351 350 352 353 348 344 343 345 345 346 346 346 347 348 349 346 347
354 355 356 356 354 352 353 353 354 356 354 353 354 354 354 354 353 353 356 357 357 356 353 349 345 340 337 336 336 337 338 337 336 336 340 347 350 350 345 345 346 346 349 352 351 350 353 353 353 354 353 345 342 343 344 345 344 345 347 347 347 346 345
353 353 354 353 353 353 353 354 355 355 355 354 355 355 354 353 353 354 355 357 357 358 357 354 349 344 341 339 338 338 338 337 336 336 338 342 347 349 347 348 350 348 348 351 352 352 353 353 352 354 353 348 345 343 341 342 343 344 347 347 345 345 345
350 351 351 351 353 353 354 355 355 355 355 355 356 355 353 351 352 353 353 357 357 355 358 357 353 350 346 343 341 339 337 338 338 337 338 345 348 348 349 350 350 350 349 348 351 354 353 353 353 351 349 348 350 349 343 342 342 343 345 346 345 346 345
347 349 350 351 352 352 353 354 354 355 356 355 355 355 354 353 353 352 350 354 354 352 355 356 354 355 352 349 347 345 342 341 342 340 342 348 351 350 350 352 351 351 350 347 349 353 353 352 354 351 348 345 349 352 347 342 342 342 342 344 346 347 346
346 349 349 350 351 351 353 354 354 354 354 354 355 355 356 354 353 353 352 353 353 352 354 354 354 357 357 356 354 353 350 349 346 345 346 350 351 350 351 352 352 351 352 350 350 351 351 352 354 353 349 343 342 348 349 344 344 344 341 341 344 346 347
344 347 348 348 349 348 350 353 354 354 352 354 356 357 355 354 354 354 353 353 354 354 355 355 355 355 357 359 356 353 353 354 353 351 351 351 350 350 351 351 351 352 352 351 350 351 350 351 353 354 352 348 344 347 351 348 345 345 344 342 341 343 346
342 345 347 346 347 345 346 348 351 352 353 355 357 357 354 353 354 354 353 354 355 355 354 354 354 354 354 356 354 353 353 353 354 354 355 353 351 350 351 351 350 351 351 351 351 351 351 349 350 352 354 353 350 350 352 351 347 347 349 345 340 340 344
341 343 343 344 344 344 344 345 346 349 350 353 356 356 354 353 355 354 354 353 353 354 353 353 353 353 353 354 353 354 355 353 353 354 355 354 352 351 350 351 350 351 351 351 350 350 351 351 351 351 352 353 353 353 352 351 349 348 350 350 345 340 341
339 340 340 341 342 343 343 343 344 345 345 349 353 355 355 355 354 354 353 353 352 352 353 354 353 353 353 353 353 354 356 355 353 355 356 355 352 351 350 350 351 351 350 350 350 349 350 351 352 352 350 349 351 352 351 351 352 350 349 350 349 345 341
337 337 339 340 340 340 340 340 342 343 343 345 348 352 354 354 353 353 352 352 352 352 353 353 353 353 353 353 355 355 356 356 356 356 357 355 352 351 350 349 349 350 351 350 349 349 349 349 350 352 352 349 348 349 349 349 352 353 350 348 348 347 341
335 336 336 337 337 337 337 338 338 339 340 341 343 347 351 353 352 352 352 352 352 351 352 352 352 352 352 351 353 355 356 357 357 356 357 357 354 351 350 348 348 348 349 350 349 348 348 349 349 350 351 351 350 348 347 346 348 351 350 348 349 349 343
335 335 334 334 334 335 335 335 336 336 337 338 340 342 345 349 351 352 352 352 352 352 351 351 352 352 352 349 351 353 354 355 356 356 356 358 356 354 352 350 348 347 347 348 349 348 347 348 348 348 349 349 350 350 347 345 344 346 346 345 348 351 350
335 334 333 333 332 332 333 333 333 333 334 335 337 339 341 343 347 350 352 351 351 351 351 351 351 352 352 351 352 353 353 354 353 354 355 356 356 356 354 351 348 347 346 346 347 348 347 346 346 347 348 347 348 349 349 347 343 343 343 341 342 347 351
331 332 332 331 330 330 330 331 330 331 331 332 334 338 340 340 342 345 348 349 349 350 350 350 351 352 352 352 352 352 353 353 353 353 355 356 356 356 356 353 349 348 346 345 346 347 347 345 345 346 347 348 347 347 347 348 347 343 339 337 336 339 345
330 329 329 329 329 329 328 328 328 328 329 330 331 334 338 339 341 343 344 344 346 348 349 349 350 351 351 351 351 352 352 352 353 353 354 356 356 357 357 354 351 349 347 345 346 346 347 346 344 344 345 347 349 348 347 348 349 347 341 336 334 334 336
328 328 328 327 328 327 326 327 327 326 326 327 326 328 331 334 336 340 343 344 344 346 347 347 348 349 349 350 351 351 351 351 352 352 352 354 354 354 354 354 353 352 350 349 348 346 346 346 345 344 344 344 347 349 350 350 349 348 345 340 337 334 333
327 327 327 326 326 326 325 325 325 325 325 325 324 324 325 327 328 331 336 341 342 344 346 345 346 347 348 350 351 351 351 351 351 352 352 353 352 352 353 354 355 354 352 351 351 349 347 347 346 345 344 344 345 346 349 351 349 347 346 344 340 337 334
326 326 326 326 325 325 325 324 324 324 325 325 324 323 322 324 324 325 329 333 334 337 342 344 344 346 347 348 349 350 351 350 351 352 352 352 351 351 353 355 355 355 353 352 352 351 350 349 348 347 346 345 345 345 346 347 348 347 346 345 342 340 337
325 325 325 324 324 325 324 324 322 323 324 324 324 324 322 322 323 323 325 327 326 329 335 338 339 341 344 346 347 347 348 349 350 351 352 352 351 352 353 354 355 355 354 354 352 352 352 351 350 349 349 347 346 346 346 346 346 346 346 346 344 342 341
324 324 324 323 324 324 323 323 321 321 323 323 324 323 320 320 322 322 323 324 322 324 331 334 335 335 335 339 343 343 344 346 346 348 350 350 351 352 352 352 353 353 353 353 353 352 352 351 351 350 350 350 349 348 348 348 348 348 347 346 345 344 343
324 323 322 322 322 322 322 322 320 320 321 322 324 323 319 319 321 322 323 322 320 321 327 332 334 332 326 329 335 337 338 340 342 344 347 348 349 351 350 351 351 351 352 353 353 353 352 351 351 349 348 349 350 350 349 349 350 351 349 348 348 347 346
322 322 321 321 320 321 322 320 319 320 320 321 322 321 319 320 321 321 323 323 321 321 323 326 329 325 318 319 326 327 330 334 336 337 341 345 347 348 349 350 350 350 352 353 352 352 352 351 350 349 349 348 349 350 350 349 351 352 352 351 351 350 349
321 321 320 319 319 320 319 317 317 319 319 320 321 320 319 320 320 321 323 323 321 322 322 323 324 319 314 314 316 318 323 327 329 329 332 336 342 346 346 348 348 349 351 352 354 353 352 352 351 351 351 351 350 350 350 351 352 353 354 354 354 353 351
320 319 318 318 318 318 317 316 317 318 318 319 319 318 318 319 320 322 323 321 319 321 323 323 322 318 314 313 313 314 316 320 323 326 327 329 336 342 345 346 348 349 350 351 352 353 353 352 351 351 352 351 351 351 351 352 353 354 356 356 356 355 355
318 318 317 317 317 315 315 316 317 317 317 317 317 317 318 319 320 321 321 318 319 322 324 323 322 317 314 313 313 313 314 314 316 320 322 324 328 334 340 344 346 349 350 351 351 352 353 353 353 353 352 352 352 352 352 353 353 354 356 357 356 356 356
317 316 316 316 315 315 315 316 316 316 316 316 316 316 317 318 319 320 319 318 320 322 321 319 317 315 313 313 312 312 313 313 314 314 316 319 321 324 330 335 337 340 344 346 348 349 349 350 350 351 352 352 352 353 354 355 354 354 354 355 356 356 356
317 317 316 316 315 315 315 315 315 316 316 315 315 316 317 317 318 317 315 316 319 321 321 319 316 314 313 312 311 312 312 312 313 314 314 315 316 318 321 323 325 328 330 332 335 338 339 340 341 343 346 349 351 352 354 356 355 353 352 353 353 354 354
317 317 316 316 315 316 316 315 315 315 315 315 315 316 316 316 316 315 316 318 320 321 321 319 316 313 311 311 311 311 311 311 312 312 313 313 314 315 316 318 320 322 323 324 325 325 327 328 329 331 334 338 343 347 351 354 354 352 350 349 350 350 351
317 317 317 316 316 316 316 315 314 313 314 315 316 314 313 314 316 318 320 321 319 316 315 314 313 313 313 313 313 312 310 310 311 311 312 313 313 314 316 317 318 319 319 320 321 321 322 322 323 325 327 329 334 341 347 350 351 352 352 352 351 352 352
318 318 318 317 317 317 316 315 314 313 312 313 313 312 312 312 314 317 318 316 313 311 310 311 312 314 313 312 312 311 310 310 310 310 311 312 312 313 315 315 315 316 317 318 321 325 328 329 330 330 332 335 339 344 347 348 349 351 352 353 353 352 353
317 317 317 317 317 317 316 316 315 315 314 311 310 310 312 311 311 311 311 309 308 308 309 309 309 310 310 311 312 312 312 312 312 312 313 313 312 312 312 313 314 315 318 321 328 334 338 339 340 342 343 346 347 348 349 349 349 349 351 353 353 353 353
317 317 317 317 316 316 316 316 316 316 315 313 310 309 308 308 308 308 307 306 305 307 308 310 311 313 314 316 317 317 318 318 318 318 318 319 318 317 318 320 321 323 326 331 336 341 344 344 345 346 347 348 349 349 350 351 351 351 350 351 353 354 354
316 316 316 315 315 315 315 315 315 315 315 315 313 311 309 307 307 306 305 305 306 306 307 310 313 316 318 319 320 320 321 322 323 322 322 322 322 323 324 325 324 325 327 331 336 341 343 344 346 347 347 347 346 345 345 348 351 353 353 353 352 353 354
315 315 315 314 314 314 314 314 315 315 315 315 315 314 313 312 310 309 308 308 310 311 311 312 313 314 316 318 321 322 322 323 323 323 324 324 324 324 325 326 327 327 328 331 335 337 337 337 338 337 335 332 329 326 327 331 336 343 348 353 355 355 354
314 314 314 314 313 313 313 313 314 314 314 314 314 315 315 315 314 314 313 314 314 314 314 315 315 314 315 318 321 322 322 323 324 323 323 323 322 321 320 321 322 324 326 328 328 326 324 321 319 317 317 316 316 316 317 318 320 323 330 339 347 353 356
313 313 313 312 312 312 312 312 312 313 313 314 314 314 314 315 315 315 315 315 315 315 315 316 316 316 316 318 319 320 320 320 322 322 323 322 321 320 320 321 320 320 319 319 317 316 314 313 314 315 316 315 314 314 314 315 316 318 319 323 330 338 346
312 312 312 311 311 311 312 312 312 312 312 313 313 313 314 314 314 314 314 315 314 315 315 315 315 316 316 317 317 318 318 318 319 320 322 322 322 321 321 322 321 320 318 317 316 316 318 322 325 324 320 315 314 315 315 315 316 317 319 320 322 325 331

ECMWFFLT1_850_thetae_081.txt.gz
Theta_e
355 355 357 357 355 355 354 352 350 349 349 350 349 350 350 349 349 349 349 349 348 349 347 340 334 333 334 334 335 334 334 334 337 343 345 346 349 348 344 344 346 345 342 344 348 347 347 348 346 347 347 343 344 346 345 346 347 346 346 347 350 349 345
357 357 357 357 356 356 356 356 354 352 350 350 351 351 350 349 349 349 349 350 350 349 349 346 338 333 333 334 335 335 335 335 334 337 340 345 350 350 346 343 343 343 341 343 346 346 347 349 347 348 350 345 343 345 345 345 345 345 345 346 349 347 346
356 357 357 357 356 356 357 358 356 355 351 350 352 352 351 350 349 350 350 350 351 351 351 349 343 336 333 333 334 335 336 336 335 335 335 341 349 351 347 344 342 342 342 343 346 348 348 349 349 350 351 348 343 342 343 344 343 344 344 346 346 345 345
355 356 357 358 358 357 357 356 355 355 353 352 352 351 352 352 351 350 351 351 351 352 352 350 344 339 336 334 332 333 334 336 336 336 335 336 342 347 348 346 344 343 344 344 348 351 349 349 351 350 349 349 345 341 341 342 342 343 344 345 345 344 344
352 353 355 356 356 356 355 354 354 356 355 354 354 352 352 353 353 352 352 352 352 352 352 350 346 344 342 339 336 335 335 336 337 336 336 336 337 341 345 345 345 347 347 346 349 352 351 350 351 350 347 348 349 346 343 342 341 342 344 344 344 344 344
351 350 351 352 353 353 353 354 356 356 355 355 354 354 353 353 353 353 352 352 352 353 354 353 350 350 349 345 343 342 340 338 338 337 336 338 338 340 341 343 345 348 348 347 347 350 352 353 352 350 348 347 348 351 351 347 341 339 342 342 344 344 344
349 348 348 348 349 351 353 354 356 356 354 354 354 354 355 354 353 353 351 351 351 353 354 354 353 352 352 351 349 348 346 344 342 340 339 341 344 347 347 344 344 347 349 349 347 347 351 354 353 351 349 346 344 348 351 350 345 340 339 340 342 343 344
345 346 345 345 346 348 350 352 354 355 355 354 354 354 355 354 353 352 351 351 352 353 354 355 355 354 354 355 354 352 351 351 349 345 344 344 347 351 352 349 346 348 350 351 350 348 348 351 353 352 351 349 345 344 345 347 348 344 340 338 339 341 342
343 344 343 343 344 346 347 348 351 354 354 354 354 354 355 355 354 353 352 353 353 354 356 356 355 354 354 355 356 355 354 354 353 351 349 347 347 351 354 351 349 350 351 351 352 351 349 349 350 351 352 352 349 346 344 347 349 348 344 340 338 339 340
341 341 341 341 341 343 344 346 349 352 353 353 354 354 354 354 354 353 353 354 354 354 356 357 355 353 352 353 356 357 356 355 354 354 355 353 351 352 353 351 350 351 351 351 351 352 350 349 350 350 350 351 352 350 348 349 349 350 349 345 341 339 339
340 340 339 339 339 340 342 344 347 351 352 353 354 354 354 355 354 354 354 354 354 354 355 357 356 355 355 355 356 358 358 357 356 356 356 355 353 353 352 350 350 350 350 351 351 351 351 350 350 350 350 350 350 349 350 351 350 350 350 349 347 343 340
338 338 338 338 338 338 339 342 344 347 350 352 353 354 355 355 354 354 354 354 354 354 355 355 355 355 356 356 355 356 356 356 356 356 355 354 352 351 350 348 348 349 350 350 350 350 350 350 349 349 350 350 349 347 348 350 349 349 349 350 349 346 342
336 336 337 337 336 336 336 339 341 342 345 347 349 350 352 354 355 354 354 354 353 353 353 353 352 353 353 353 354 355 355 354 354 354 354 355 354 350 349 348 346 347 349 350 349 348 348 350 350 349 348 349 349 347 346 346 346 345 347 347 346 344 342
334 333 334 334 334 333 334 335 337 340 341 342 344 346 348 350 352 352 352 352 352 352 352 351 351 352 352 352 353 353 353 354 355 354 353 355 355 352 350 348 346 346 347 349 350 347 346 348 349 349 348 347 347 346 345 344 342 341 342 342 340 339 339
333 332 331 331 331 331 331 332 333 336 338 338 339 342 343 344 347 349 349 350 350 350 350 348 349 351 351 352 352 352 352 353 353 353 353 354 353 351 349 348 348 347 346 349 351 349 347 346 347 348 348 348 347 346 345 344 341 338 337 337 336 336 336
331 331 330 329 328 328 328 329 329 330 333 334 335 337 339 340 342 344 345 346 348 348 347 346 348 350 351 351 352 351 351 352 352 351 352 352 351 351 349 348 349 348 346 349 351 350 348 348 348 348 347 347 346 346 346 345 344 341 337 334 333 333 333
329 329 328 327 327 327 326 326 325 325 327 329 330 332 335 338 339 340 341 343 344 344 344 344 347 349 350 351 351 351 351 351 351 351 351 351 351 352 350 349 350 348 347 349 351 349 348 348 348 347 346 346 346 346 345 345 345 344 342 339 335 333 332
327 327 326 326 326 326 326 325 325 324 324 324 325 326 328 331 334 335 336 339 340 342 343 345 346 347 348 349 350 350 350 350 350 351 351 351 351 352 352 351 351 350 350 351 352 349 348 347 347 347 346 346 347 348 348 347 345 345 345 344 342 340 338
326 326 326 325 324 324 325 325 325 324 323 323 323 323 324 326 327 327 329 333 337 340 342 343 344 345 346 347 348 349 349 349 349 350 350 350 351 352 353 353 353 353 353 353 352 351 348 346 346 347 346 346 346 348 349 350 349 348 347 347 346 345 344
325 325 325 323 322 322 323 324 324 324 323 322 322 323 323 323 323 322 324 330 335 336 337 337 339 342 344 345 346 347 348 348 348 349 349 349 350 351 352 352 352 353 353 353 352 352 350 347 347 347 347 346 345 346 347 349 351 351 351 350 349 348 346
324 324 324 323 321 321 321 322 323 323 323 321 320 321 322 323 323 321 322 328 332 335 334 328 326 331 337 341 343 345 346 347 348 348 348 349 350 350 351 351 352 352 353 354 353 353 352 350 349 347 347 347 346 345 345 345 347 349 350 351 351 351 349
323 323 323 323 321 320 320 321 322 322 322 321 319 319 320 322 323 322 321 324 327 329 329 322 316 318 323 329 336 339 341 343 344 345 346 347 348 349 350 351 351 351 352 353 353 353 353 352 351 350 349 349 348 348 347 346 345 345 346 347 349 351 352
321 321 322 321 319 318 318 320 321 320 321 320 319 319 320 321 322 322 322 322 323 324 323 320 316 314 315 317 323 329 332 335 336 339 342 342 342 344 348 350 350 351 351 351 352 352 352 352 352 351 351 351 350 350 349 349 348 347 347 346 346 348 351
320 320 320 319 318 316 316 318 319 318 319 319 318 318 320 321 322 322 319 320 323 323 323 322 318 314 314 313 315 317 320 323 325 328 330 332 333 338 344 347 349 349 350 350 351 351 351 352 352 352 351 351 350 350 349 349 349 348 348 348 347 347 347
318 318 318 318 316 315 316 317 317 317 317 317 317 318 320 320 321 320 317 317 321 323 324 323 318 314 313 313 312 313 313 315 317 317 318 321 325 329 334 340 344 347 348 348 349 350 350 351 351 352 352 352 351 351 350 349 347 346 345 345 347 347 347
317 317 317 316 315 315 316 316 316 316 316 316 317 318 318 318 319 318 315 316 319 322 322 321 317 315 313 311 311 312 312 312 313 314 314 317 318 320 323 328 333 338 342 344 345 347 350 351 351 352 352 352 352 352 351 350 347 345 345 347 349 350 350
317 317 316 316 316 316 315 315 315 315 315 315 316 317 316 316 316 314 313 315 318 320 320 320 318 316 313 310 310 311 311 311 312 312 313 314 315 316 317 319 321 324 328 331 334 338 342 345 346 347 347 347 348 349 350 351 349 349 349 350 351 351 351
317 316 316 316 316 316 315 315 314 313 314 316 316 315 314 314 313 313 314 317 319 318 317 315 313 312 311 309 309 310 310 310 310 310 311 312 313 314 315 316 316 317 318 321 323 325 327 329 331 331 331 333 337 340 344 347 348 349 350 351 352 352 352
317 316 316 317 317 316 316 314 313 313 315 317 316 314 313 314 315 316 316 317 316 314 311 309 308 308 308 308 308 308 309 309 310 310 310 310 311 311 312 313 314 315 315 316 316 317 317 318 319 320 321 323 324 327 331 335 338 342 346 348 351 353 353
317 317 317 317 317 316 315 314 314 315 317 317 316 315 316 316 317 317 315 313 311 308 307 307 307 306 306 307 307 308 308 309 309 310 310 310 310 311 311 311 312 313 313 313 315 318 319 321 325 328 329 331 331 332 336 339 341 344 347 348 350 351 352
317 317 317 317 317 316 314 314 315 316 317 316 315 316 316 316 315 315 314 312 308 306 307 307 307 307 307 308 307 307 307 308 308 309 310 310 311 311 311 311 312 312 314 317 322 326 329 333 338 342 343 344 344 344 346 347 347 348 349 350 350 350 351
317 317 317 316 316 315 313 313 313 314 315 315 314 314 314 313 313 313 313 311 309 309 311 311 311 311 311 310 309 308 308 311 312 312 310 310 310 311 313 316 318 318 320 324 326 328 332 336 340 343 344 346 347 347 348 349 349 349 349 348 350 351 351
317 316 316 315 314 314 313 313 313 314 313 313 312 312 311 312 312 312 312 311 312 314 315 314 313 314 313 312 310 310 311 314 316 317 317 316 317 318 319 321 323 323 325 326 325 327 333 338 340 342 345 347 347 347 346 344 343 342 338 334 334 339 345
316 315 315 314 313 314 313 313 313 313 311 311 310 311 311 312 313 313 313 314 315 315 315 315 314 313 313 312 312 312 314 316 318 320 321 321 321 320 321 322 324 324 325 325 324 325 330 334 337 339 341 342 343 343 341 337 332 327 322 317 317 321 328
315 314 314 314 313 313 313 313 312 311 311 311 311 311 312 312 312 313 314 315 316 315 315 315 314 313 313 313 313 313 315 316 316 317 317 317 316 315 316 317 320 322 324 324 324 325 327 329 332 335 337 339 339 337 333 327 321 317 315 314 314 315 316
314 314 313 313 313 312 312 311 311 311 312 312 312 312 312 312 312 313 313 313 314 314 314 314 314 313 313 313 313 314 315 315 314 314 314 314 313 312 311 311 312 314 316 318 319 320 320 321 324 327 329 331 330 324 319 317 316 315 314 314 314 314 315
314 313 313 312 312 311 311 311 311 312 311 311 311 311 312 312 312 312 312 312 312 312 312 312 313 313 313 313 313 314 314 314 314 314 314 314 314 313 312 310 309 309 310 311 312 313 313 314 316 317 318 318 318 317 317 317 317 316 317 317 316 315 315
313 312 312 312 311 311 311 311 311 311 310 310 311 311 311 311 310 310 310 311 311 312 312 312 312 313 313 312 312 312 312 312 313 313 312 312 312 312 311 311 310 309 308 309 310 311 312 313 314 316 318 319 320 320 320 318 317 320 324 324 320 316 315

ECMWFFLT1_850_thetae_084.txt.gz
Theta_e
354 355 355 354 354 350 345 345 345 344 345 344 345 345 345 346 346 346 345 345 344 344 340 335 331 332 331 330 331 331 334 336 337 339 344 347 347 347 347 347 347 348 348 348 346 345 347 346 345 345 344 344 345 345 345 346 347 347 348 348 346 344 343
354 355 357 356 356 353 349 349 346 345 346 345 345 346 346 347 347 347 346 347 346 346 345 342 335 331 331 331 331 330 332 333 333 336 341 346 349 348 346 345 346 347 347 346 343 344 347 347 345 345 345 342 343 345 345 345 347 347 348 348 348 348 345
353 355 356 355 356 354 353 352 349 346 346 346 346 346 346 347 347 348 347 347 347 347 346 347 343 336 331 331 332 332 332 333 333 336 340 344 347 347 347 347 346 346 345 345 344 343 345 346 345 345 346 344 341 343 344 344 346 347 347 347 348 349 346
354 354 355 353 353 353 352 352 351 348 347 346 347 347 347 348 348 348 348 347 348 347 347 348 348 343 335 331 333 333 333 333 334 336 338 340 341 344 347 348 348 347 344 343 344 345 345 347 347 345 347 347 344 342 342 343 344 344 345 346 347 348 346
353 353 353 352 351 353 353 353 351 349 348 348 348 348 348 348 349 348 348 348 348 348 348 348 349 349 342 334 332 334 334 335 335 336 337 337 338 342 346 347 347 347 344 342 343 346 348 348 348 346 347 348 346 342 340 341 343 343 344 345 346 346 345
350 348 348 349 351 354 354 353 353 351 350 349 348 349 349 349 349 348 348 349 348 348 349 349 350 351 348 339 334 335 335 334 335 335 336 336 337 341 345 346 345 345 344 343 344 347 349 350 351 349 348 347 347 344 340 340 341 342 342 343 345 346 345
347 346 347 348 350 353 353 353 354 353 351 349 349 350 350 349 349 349 348 348 348 349 349 350 350 351 350 347 344 344 343 341 340 338 338 337 337 339 342 344 344 345 345 346 347 349 351 351 351 351 351 350 348 345 342 340 340 340 341 341 343 344 344
344 344 348 350 351 352 353 353 354 353 352 350 350 351 351 351 350 349 349 349 351 351 350 351 354 353 353 352 350 349 348 346 345 343 342 342 340 339 340 341 343 345 346 347 348 350 351 351 351 352 352 351 349 346 343 341 340 340 340 339 340 341 343
342 343 346 348 350 351 353 354 354 354 354 352 351 351 351 351 351 351 351 352 353 353 352 354 355 354 353 351 347 346 346 347 346 345 344 344 344 341 340 342 346 349 348 346 347 349 350 350 351 352 353 352 350 348 345 341 339 340 340 339 338 338 340
342 343 345 346 348 350 351 354 354 355 355 354 354 353 353 353 353 353 353 353 354 351 352 354 354 352 351 350 348 346 346 347 348 348 347 346 345 343 343 345 349 351 350 348 348 349 349 350 350 350 351 351 350 349 348 345 340 339 339 339 338 338 338
340 342 343 345 347 348 349 352 353 354 355 354 354 354 353 353 352 352 352 352 351 349 351 353 354 354 354 353 352 350 348 348 349 350 350 349 347 345 345 347 349 351 351 350 350 350 351 350 350 349 348 347 348 348 348 349 346 342 340 339 340 339 337
339 341 342 344 346 346 347 350 351 353 353 353 353 354 354 354 354 353 353 352 351 352 353 354 354 355 355 354 354 353 351 351 351 351 351 351 350 348 348 349 349 350 350 349 349 349 351 351 351 351 349 347 347 347 348 349 349 347 345 344 344 343 340
337 338 339 341 343 342 343 345 348 350 351 351 352 353 352 352 351 351 352 353 352 353 355 355 353 354 355 355 354 354 352 351 350 351 352 352 350 350 351 350 350 350 349 348 347 347 349 350 351 351 350 349 348 347 346 347 347 348 348 349 348 347 346
335 335 336 338 340 340 340 341 344 346 347 347 348 349 348 348 347 346 348 352 352 353 354 353 353 354 354 354 353 353 352 351 350 352 353 352 351 352 353 352 351 351 350 348 347 347 348 349 350 350 350 349 348 348 347 346 345 346 347 349 349 348 348
332 332 333 334 336 337 338 338 340 342 343 343 344 344 345 346 345 345 346 349 349 351 351 352 352 352 352 352 351 351 351 351 352 352 352 352 352 352 354 353 353 352 350 349 348 348 348 348 349 350 349 349 349 348 348 347 346 345 345 345 346 345 346
329 330 330 330 331 332 334 335 337 339 341 342 342 341 342 342 343 343 345 348 349 349 350 350 351 351 350 351 351 351 352 351 352 353 352 354 353 353 354 354 354 353 351 349 347 347 348 348 349 349 349 349 349 349 349 348 346 345 345 344 344 342 343
328 327 327 327 327 327 329 332 333 333 334 337 339 340 339 339 339 340 343 346 347 348 349 349 349 349 350 351 351 351 351 351 351 352 352 353 353 353 353 353 354 353 352 350 347 346 347 349 349 349 349 348 349 349 349 348 347 345 345 345 344 344 343
327 327 326 326 325 324 326 327 327 326 326 329 333 335 335 336 338 339 341 344 345 345 346 347 348 349 349 350 351 351 351 351 351 352 351 352 352 351 352 351 352 352 351 350 349 347 348 350 350 350 349 348 348 348 349 348 348 347 347 346 346 345 346
326 326 326 326 325 324 324 324 324 323 323 325 327 327 327 332 337 339 340 341 342 344 344 345 346 347 348 349 350 350 350 350 350 351 350 351 351 351 351 351 351 352 352 351 349 347 349 352 351 350 349 349 348 347 347 347 347 348 348 347 347 348 347
325 325 325 325 325 325 324 323 323 323 323 323 324 323 323 329 334 336 337 334 332 336 341 343 344 345 345 346 347 347 347 348 348 349 348 349 350 350 351 352 352 352 352 352 351 348 349 352 352 350 349 349 348 348 347 346 346 347 347 347 347 348 348
323 324 324 325 324 324 323 322 321 322 322 323 323 322 323 326 328 330 331 328 322 322 328 334 338 341 342 342 342 343 344 345 346 347 347 348 349 349 350 351 351 352 352 353 352 351 351 352 353 351 349 348 347 348 347 347 346 347 347 348 348 348 349
321 321 322 323 323 323 324 322 320 320 321 322 323 322 322 324 324 324 324 324 320 317 317 320 326 332 336 339 338 337 337 340 341 344 345 345 346 347 349 350 350 351 351 351 352 353 352 353 354 353 350 348 347 346 346 347 347 347 348 348 349 350 350
320 320 321 321 321 322 323 321 319 319 319 320 322 322 322 323 323 323 322 322 322 319 315 314 315 319 324 329 331 332 332 333 334 337 339 338 337 340 343 347 348 350 350 351 351 352 352 353 353 354 352 350 348 347 346 346 346 347 347 348 348 349 349
321 320 319 319 319 320 320 319 318 318 318 319 320 321 321 322 323 324 323 323 323 321 318 314 313 313 313 316 318 321 323 324 324 325 327 327 326 329 334 339 343 346 348 349 350 350 352 352 352 353 353 353 351 349 348 347 347 348 348 348 347 346 346
320 319 317 318 317 318 318 318 317 317 318 318 319 320 320 320 320 321 322 323 323 320 317 314 313 312 312 312 312 312 313 315 316 316 317 318 319 321 325 330 335 340 343 346 348 348 348 349 350 350 351 351 352 351 351 350 349 350 350 349 349 348 348
318 317 316 317 317 317 317 316 317 316 317 317 318 319 319 318 317 316 316 319 319 316 314 313 312 312 311 311 311 311 311 312 313 313 313 314 315 316 318 321 326 331 336 340 343 345 346 347 347 348 349 350 351 350 351 351 351 351 350 349 349 349 349
317 316 316 316 316 317 316 316 315 315 316 316 317 317 318 317 315 313 312 313 314 313 312 311 310 309 310 310 310 311 311 311 311 312 311 312 313 313 314 315 317 320 323 327 331 335 337 336 334 334 340 345 348 349 349 350 350 350 351 350 350 350 350
316 316 315 315 315 315 315 315 314 314 315 316 316 316 315 314 313 312 313 313 313 312 311 309 308 307 308 309 310 310 310 311 311 311 311 310 311 311 311 312 313 314 315 316 318 320 322 322 321 321 324 330 334 335 336 338 340 341 344 346 348 349 350
316 316 315 315 315 315 315 314 313 313 314 315 315 314 313 312 312 313 315 316 314 311 308 306 306 306 307 308 308 308 309 309 309 310 310 310 310 310 310 311 311 312 312 313 315 317 320 324 328 330 329 329 328 328 332 336 338 338 339 342 344 346 348
316 316 316 316 316 315 314 313 312 313 314 314 313 313 313 313 312 312 313 313 311 308 306 305 305 306 306 307 307 307 308 308 309 310 311 312 312 311 311 311 311 313 316 319 322 324 326 329 333 336 338 339 340 340 343 344 345 345 346 346 346 347 347
317 316 316 316 315 315 313 312 311 311 312 312 312 311 311 311 310 309 308 309 308 307 307 306 306 305 305 306 306 306 307 307 308 310 312 313 314 314 314 315 314 316 320 323 325 326 327 329 332 336 339 340 343 344 346 346 347 348 347 344 342 341 339
317 317 316 315 315 313 312 310 310 310 310 310 310 309 309 309 308 307 307 307 308 310 310 309 308 307 306 306 306 306 306 306 307 308 309 311 314 316 318 320 319 319 320 322 324 325 325 326 331 335 338 340 342 344 344 345 346 347 346 341 336 334 330
317 316 316 315 313 312 310 309 309 310 309 309 309 309 308 309 309 310 310 311 311 311 311 311 310 308 307 306 306 306 306 306 306 307 307 307 309 313 316 319 321 322 322 323 323 324 324 325 329 333 336 338 340 342 343 344 345 346 346 342 337 333 328
317 316 315 314 312 311 310 310 310 310 309 309 310 310 310 310 311 311 313 314 314 313 313 312 312 311 309 308 307 307 306 306 306 306 306 306 307 308 309 312 315 317 320 322 324 324 324 324 325 328 331 333 334 337 339 341 342 343 343 341 338 334 328
316 315 313 312 312 312 312 311 310 310 310 311 311 311 311 311 311 311 312 313 313 314 314 313 313 312 311 310 309 308 308 307 307 307 306 306 307 306 307 307 309 310 312 316 319 322 323 323 322 323 325 326 328 329 332 335 338 339 340 340 338 332 325
314 313 313 312 312 312 312 311 311 311 311 311 311 311 310 310 310 310 310 311 311 311 311 311 311 311 310 310 309 309 308 307 307 307 307 307 307 306 306 307 307 308 308 309 311 313 315 317 318 319 319 320 320 321 321 323 325 326 328 329 328 323 318
314 313 313 312 312 312 311 311 311 311 311 311 311 310 310 309 309 309 308 308 309 309 310 310 310 310 310 309 309 308 307 307 307 306 306 305 306 306 305 305 305 306 307 307 307 308 309 310 311 312 312 313 313 313 314 315 316 317 320 321 319 318 316
313 313 312 312 312 311 311 311 311 311 310 310 310 310 309 309 309 308 308 308 309 309 310 310 310 310 310 309 309 308 308 308 307 307 306 306 305 305 305 305 305 305 305 306 307 307 307 307 307 308 309 309 310 310 311 312 313 315 318 319 320 322 323

ECMWFFLT1_850_thetae_087.txt.gz
Theta_e
350 350 350 349 349 347 343 342 343 342 342 342 341 343 342 343 343 342 343 342 339 339 337 336 336 336 335 336 337 342 345 347 348 348 346 347 347 346 346 347 347 346 346 347 348 347 347 346 345 343 343 344 344 343 343 344 345 346 348 349 349 347 342
350 350 350 351 352 351 344 341 343 342 341 343 342 343 343 343 344 343 343 343 341 338 336 334 333 334 334 333 334 337 341 344 345 346 346 346 347 347 347 348 348 347 345 346 347 347 348 348 347 345 344 344 344 344 344 344 344 345 346 348 348 347 345
351 350 352 351 351 352 346 342 342 343 342 342 343 343 343 343 344 344 344 344 343 339 338 337 335 333 333 332 332 333 335 338 341 342 343 344 345 345 347 348 348 347 346 346 347 347 347 348 348 346 344 344 343 343 344 345 344 344 345 345 346 346 347
350 351 352 352 351 351 348 343 342 343 343 343 343 343 343 344 344 345 344 345 345 343 341 340 340 337 333 332 331 332 332 334 335 337 339 339 341 344 347 347 347 347 346 346 346 346 346 346 348 347 346 345 344 342 343 344 344 344 345 344 344 345 346
350 351 352 353 351 351 349 345 343 343 343 343 343 343 344 344 344 345 345 345 346 346 345 345 344 343 339 335 332 331 332 332 332 333 334 335 337 343 346 347 347 347 347 346 345 344 344 344 346 347 346 346 346 344 342 342 343 344 344 343 344 344 345
350 351 352 352 352 352 350 347 345 343 344 344 344 344 344 344 345 345 345 346 346 347 347 346 345 345 344 342 338 334 333 333 332 331 332 332 333 338 342 344 346 347 347 348 345 342 342 343 345 347 347 347 347 346 343 341 341 342 343 342 343 344 344
351 351 351 352 352 353 352 350 348 345 344 344 345 346 345 345 346 345 345 347 347 347 346 346 346 346 345 346 344 340 336 335 335 333 333 333 334 334 337 339 342 346 348 348 346 344 341 342 344 346 348 348 349 349 345 342 340 340 341 341 342 343 344
350 351 351 351 352 353 353 352 351 349 347 346 345 346 346 346 347 346 347 347 347 346 346 346 347 346 346 346 346 346 341 336 335 335 334 335 336 336 337 337 339 343 346 346 346 345 343 342 344 347 348 350 350 350 349 345 342 341 340 340 340 341 342
348 350 351 351 350 351 352 352 353 352 350 349 348 347 348 348 347 347 348 348 347 346 346 347 347 346 346 347 347 348 345 339 335 334 334 335 335 336 336 337 337 339 342 343 344 346 346 345 345 347 349 350 351 351 351 349 345 342 341 340 340 339 340
349 350 351 351 351 351 352 352 352 353 352 351 351 350 349 349 348 347 348 349 348 347 347 348 347 347 347 347 349 349 346 341 336 335 334 334 334 335 336 336 337 337 338 339 342 346 347 346 346 348 349 350 351 351 351 351 348 344 341 340 340 340 340
347 349 350 351 352 352 352 352 353 353 352 351 351 351 350 350 349 348 348 350 350 348 348 348 347 348 348 348 350 348 347 344 340 339 337 335 335 336 337 337 337 336 337 339 342 346 348 348 348 348 350 350 351 351 350 349 348 347 343 341 340 340 340
345 347 348 349 351 351 352 352 351 350 350 350 352 351 350 349 350 350 349 350 351 349 348 349 348 349 348 349 350 349 349 347 344 343 343 342 341 341 342 340 338 337 338 340 344 347 348 349 349 350 349 349 350 350 349 348 348 347 346 344 342 341 340
343 345 346 347 349 349 349 349 349 348 348 349 350 351 352 351 350 351 350 350 350 348 349 351 350 350 351 351 351 350 350 349 348 347 347 347 347 347 347 346 343 341 341 344 347 349 349 349 349 350 350 350 350 350 350 348 348 348 347 346 345 343 342
340 342 344 345 347 347 347 347 346 346 345 347 348 350 352 352 351 352 351 350 350 350 351 351 350 351 353 353 353 352 352 352 352 352 350 350 351 351 351 350 348 347 346 348 350 350 351 349 349 349 349 349 350 350 350 349 348 348 348 347 347 345 343
337 338 340 342 343 344 345 345 344 343 343 344 346 348 350 351 351 351 351 352 352 352 351 350 349 350 352 353 353 354 355 355 354 354 353 353 353 351 351 352 352 351 350 350 351 351 351 350 349 348 347 347 347 348 350 349 348 348 348 347 347 345 343
333 335 337 338 339 340 341 341 341 341 341 342 344 344 345 347 348 349 351 352 352 350 350 351 351 352 352 351 351 353 355 354 354 354 353 353 352 352 352 352 352 352 352 351 351 351 351 350 349 348 347 346 346 347 348 348 348 348 348 348 346 345 345
329 331 334 335 336 337 338 338 339 340 340 340 341 343 345 346 347 347 349 349 349 348 349 351 352 352 351 351 351 351 352 352 352 353 352 352 351 351 351 351 352 353 353 353 352 352 351 350 349 348 347 347 347 347 347 347 347 348 348 348 347 346 346
328 329 330 332 333 333 334 335 336 338 338 339 341 343 345 346 347 346 348 348 348 348 349 349 349 348 348 349 350 350 350 351 351 351 351 352 352 352 351 352 353 354 353 353 353 353 353 351 349 348 346 347 347 347 347 346 346 348 348 348 348 348 347
326 326 326 327 327 328 328 329 331 333 335 337 339 339 341 342 343 343 345 347 348 347 348 348 348 348 348 348 349 348 349 351 351 351 351 352 352 352 351 352 352 352 352 353 353 353 353 352 350 347 346 346 347 347 346 346 346 347 347 348 347 347 347
325 325 324 324 324 324 325 325 326 327 329 334 338 339 340 341 342 343 344 345 345 346 346 347 347 348 348 348 346 346 347 348 349 350 351 351 351 351 351 351 351 351 351 352 352 352 352 352 350 348 348 349 349 348 347 348 348 347 347 347 346 346 346
325 324 323 323 323 323 323 324 324 324 326 332 337 337 336 334 333 336 339 342 343 344 344 344 345 345 346 345 344 344 345 346 347 347 348 348 348 348 349 350 350 350 351 352 352 352 351 351 350 348 349 351 351 350 349 349 349 348 348 347 347 346 345
325 324 323 322 322 322 323 322 323 323 325 330 333 333 330 325 321 322 326 332 337 340 340 341 342 342 342 342 343 342 343 344 345 345 346 345 345 345 346 348 349 349 350 351 352 352 352 351 351 349 350 351 352 351 350 350 349 349 348 348 348 347 346
324 324 322 321 321 321 322 322 322 323 323 325 327 327 326 323 320 318 318 320 324 330 334 337 338 337 336 337 337 338 339 340 341 343 344 342 342 342 343 345 346 347 348 349 349 350 351 352 352 351 352 352 352 352 351 350 350 349 349 349 349 349 348
322 323 323 321 320 320 320 321 322 323 323 323 323 324 324 323 321 321 320 318 317 318 322 326 329 330 330 330 330 330 331 332 333 335 338 339 337 337 338 339 342 343 345 345 345 346 348 349 350 351 352 352 353 353 352 351 350 349 348 349 350 350 350
320 321 322 321 320 319 319 319 320 321 323 323 322 323 323 323 322 321 320 320 319 316 314 315 316 317 318 319 319 319 321 321 321 322 325 327 327 327 329 332 336 338 340 340 341 342 343 345 347 348 349 350 351 351 351 352 351 350 349 348 348 349 350
319 320 321 321 319 319 318 318 318 319 320 321 321 321 321 321 321 320 318 318 317 315 313 313 312 312 312 312 312 312 314 314 314 315 315 316 316 318 321 324 327 330 332 334 335 337 338 340 343 345 346 347 347 348 349 350 351 351 350 349 348 348 350
319 319 319 319 318 318 318 318 317 317 317 318 319 319 319 318 317 316 315 315 315 314 312 311 311 310 310 310 310 310 311 311 311 312 312 312 313 313 314 316 318 321 324 327 329 331 331 333 335 338 339 339 340 342 343 344 345 346 347 348 347 346 347
318 318 318 317 317 317 317 316 316 315 314 315 316 316 317 316 314 313 312 312 312 312 311 310 309 309 308 309 309 309 310 310 310 310 310 311 311 311 311 312 313 315 317 320 321 322 323 324 325 328 330 331 334 336 337 338 339 339 340 343 345 345 346
317 317 317 316 316 316 316 315 314 313 312 312 313 313 313 313 311 310 309 310 311 311 309 308 307 307 307 307 308 308 308 308 309 310 310 311 311 310 311 311 312 313 314 314 315 316 318 321 323 327 330 333 336 338 338 340 342 341 340 340 339 338 338
317 316 316 316 315 315 315 315 313 312 312 312 311 310 310 310 309 308 308 309 309 309 307 306 306 306 306 306 306 307 307 308 309 310 311 312 312 312 312 312 312 313 313 314 315 316 318 322 325 329 332 335 338 340 340 341 344 344 343 340 336 333 332
317 316 316 315 315 315 315 315 313 311 311 312 312 310 309 308 309 309 308 307 307 306 306 305 305 305 305 306 306 306 306 307 307 309 310 311 312 312 313 313 314 315 316 318 320 320 321 323 325 327 331 334 338 340 341 343 344 345 344 342 338 336 334
317 316 316 316 316 315 315 313 311 310 311 312 312 311 310 309 308 308 308 307 306 306 305 305 305 305 305 305 306 306 306 306 306 307 308 309 310 311 313 313 314 316 318 320 321 322 322 322 323 325 327 330 334 337 339 341 343 344 344 343 342 340 338
317 317 316 316 316 315 314 312 310 309 309 310 310 310 309 308 308 308 308 308 308 308 306 306 306 306 306 306 306 305 306 306 306 306 306 307 308 309 310 311 312 314 315 317 319 320 321 322 323 323 324 326 329 332 334 337 340 341 342 342 342 342 341
317 316 316 316 315 314 312 310 309 308 308 308 309 309 309 309 309 309 310 310 310 311 310 309 308 307 307 307 306 306 306 306 306 306 306 306 306 306 307 308 308 309 310 311 313 314 315 317 318 319 321 321 323 325 327 330 333 336 337 338 339 340 341
317 316 316 315 314 313 311 310 308 308 308 308 309 309 310 309 309 310 310 310 310 311 311 310 309 308 307 307 307 306 306 306 306 306 305 305 305 305 305 306 306 306 307 307 308 309 309 310 311 312 313 315 316 317 318 319 322 325 327 330 332 333 334
317 316 316 315 313 312 310 309 309 309 309 309 310 310 310 309 309 309 309 309 308 308 308 309 308 307 307 307 306 306 306 305 305 305 304 305 304 305 304 305 305 305 305 305 306 306 307 308 308 309 309 309 310 310 311 311 312 313 314 316 318 320 321
317 316 315 313 312 311 310 309 310 309 309 309 310 310 310 309 309 309 308 308 307 307 308 308 308 308 308 307 306 306 306 305 305 305 304 304 304 304 304 304 304 304 304 305 305 305 306 307 307 308 308 308 308 308 309 309 309 309 310 310 310 311 311
316 315 313 312 312 311 310 310 310 310 309 309 309 310 309 309 309 309 308 307 307 307 307 307 307 307 307 306 306 306 305 305 304 304 304 304 304 304 304 304 304 304 305 305 305 305 305 305 306 306 307 307 307 307 307 307 308 308 309 310 310 310 310

ECMWFFLT1_850_thetae_090.txt.gz
Theta_e
348 349 350 347 343 342 342 343 343 343 343 343 343 343 343 342 342 341 341 342 342 342 340 337 338 339 338 337 336 336 337 339 341 343 344 346 347 346 346 345 345 345 345 345 346 347 349 349 348 345 343 343 343 342 343 343 344 344 344 345 347 347 345
349 349 350 349 344 342 341 342 343 342 342 343 343 343 343 342 342 342 342 342 342 341 339 336 335 336 337 337 337 336 336 338 340 342 343 345 346 346 346 345 344 344 344 345 345 346 348 349 349 347 345 343 343 344 343 342 343 344 345 345 346 347 346
349 349 350 350 347 344 341 341 342 342 342 342 342 343 342 342 341 341 342 342 342 342 340 337 334 334 335 336 336 336 335 336 339 341 342 342 344 345 345 345 344 343 344 345 345 345 346 347 348 348 347 345 344 344 344 343 344 344 344 345 346 346 347
349 349 349 349 349 348 345 342 341 342 342 342 342 342 342 341 342 342 342 342 342 342 342 339 335 334 334 334 334 333 332 333 335 338 340 341 343 344 345 345 344 343 342 344 345 344 345 346 346 347 347 346 345 344 343 344 345 345 345 345 345 345 346
348 348 348 348 349 349 349 347 344 342 342 342 342 342 342 342 342 342 342 342 343 343 343 341 338 336 334 333 332 331 330 330 331 333 337 341 343 345 345 344 344 342 342 343 344 344 344 344 344 345 347 347 347 346 345 344 344 345 345 345 345 344 344
349 347 347 348 348 348 349 349 348 344 342 342 342 343 343 342 342 342 342 343 343 343 343 343 342 339 337 335 333 331 331 330 330 331 333 337 340 342 342 342 341 341 342 344 344 344 343 342 342 343 345 347 347 348 347 346 345 344 343 344 344 344 344
350 348 347 347 347 347 347 348 349 346 343 342 342 342 342 342 342 342 342 343 343 343 343 343 343 341 340 340 339 336 333 331 331 331 332 333 335 336 337 338 339 340 342 344 345 346 345 343 341 342 344 346 347 348 349 349 349 346 343 342 342 343 344
350 350 349 348 348 348 347 347 349 348 345 343 342 342 343 343 342 342 342 343 343 343 343 344 344 344 343 344 344 342 339 336 333 333 333 333 332 332 333 334 337 340 341 342 345 348 348 346 342 341 342 345 347 349 350 351 351 350 347 343 342 341 342
350 351 351 351 350 349 349 349 349 349 346 344 344 343 343 344 343 343 343 343 343 343 343 344 345 345 345 345 345 345 344 343 340 337 335 334 332 331 331 332 334 337 338 339 343 346 347 347 345 343 342 345 347 349 351 351 351 351 350 347 344 342 341
349 351 351 351 351 351 351 351 350 350 348 346 345 344 344 344 344 344 343 343 343 343 344 345 345 346 346 345 346 346 345 346 345 343 340 337 334 333 332 332 333 335 335 335 338 341 343 345 346 346 346 346 347 347 349 350 351 351 351 349 346 343 342
348 349 350 350 351 351 351 352 351 351 350 348 346 345 345 345 344 344 344 344 344 344 344 345 345 345 346 346 346 346 346 346 346 347 345 341 338 335 334 334 334 335 335 334 334 335 338 341 344 347 347 347 347 347 347 348 349 350 350 349 347 345 344
347 349 350 349 350 350 350 351 351 352 352 351 349 348 347 346 345 344 344 344 344 344 345 346 346 346 346 346 346 346 346 346 346 348 348 346 344 340 337 335 335 335 336 335 335 334 334 337 342 346 347 347 347 347 347 347 348 349 348 347 348 347 346
346 347 348 348 349 349 349 350 350 351 351 352 351 350 350 348 345 345 345 345 344 345 346 347 347 347 346 346 346 346 346 347 347 348 349 348 348 348 345 341 338 338 338 338 338 337 336 337 340 345 347 347 348 348 348 348 348 349 348 347 347 347 347
344 344 345 346 347 347 348 349 348 349 350 351 351 351 351 350 349 348 347 346 346 346 347 347 348 348 348 347 347 347 347 347 348 349 348 346 347 349 349 348 346 345 345 344 342 340 339 340 343 346 347 347 348 348 349 349 349 349 348 347 347 347 347
342 343 344 345 346 346 347 348 348 348 348 349 350 350 351 351 351 350 349 349 349 348 348 348 349 350 351 351 349 349 349 348 349 350 349 348 347 347 348 349 350 351 350 349 347 343 343 344 346 347 348 348 348 348 348 349 348 348 348 348 348 348 347
341 342 343 343 344 345 346 347 348 348 348 347 347 349 350 350 350 350 350 350 349 349 349 349 349 349 350 352 352 351 351 351 351 351 351 351 350 349 348 348 350 352 352 352 350 348 346 347 347 348 349 349 348 348 347 347 347 347 347 348 348 348 348
339 340 341 341 341 342 344 345 346 346 346 346 346 347 349 349 349 350 351 350 350 350 350 350 349 348 349 351 351 350 351 352 352 352 352 353 352 351 350 349 350 352 353 352 352 351 350 349 349 349 350 350 350 349 348 347 347 347 347 347 347 348 348
338 338 338 338 339 340 341 343 343 343 344 345 345 346 346 346 347 349 349 349 349 349 349 349 348 348 349 349 349 349 350 351 352 352 352 353 353 352 351 350 350 352 353 353 352 352 351 351 351 351 351 351 350 350 349 347 346 347 347 347 347 347 348
335 336 336 336 337 338 339 341 342 342 343 344 345 346 346 346 347 348 348 349 348 347 347 347 347 347 347 348 348 348 349 350 350 350 350 351 352 351 350 350 351 352 353 353 353 352 352 352 351 352 352 352 352 350 349 347 346 347 347 347 347 347 348
332 331 331 332 335 336 337 338 340 341 342 343 343 344 346 346 347 347 347 347 347 346 346 347 347 347 347 347 347 348 348 349 349 349 350 350 351 351 350 350 351 352 352 352 352 352 352 352 352 352 352 352 352 351 348 347 346 346 347 348 347 347 347
328 327 327 329 330 332 333 334 336 339 340 340 340 341 343 344 345 346 346 346 346 345 345 345 346 346 346 345 346 346 347 348 348 349 350 351 350 350 351 350 351 351 351 351 351 351 351 352 352 352 352 352 352 351 349 347 346 346 347 348 348 348 347
326 326 326 327 327 327 328 330 335 337 338 338 338 339 341 343 343 343 343 343 343 343 343 344 344 343 343 344 344 344 344 345 346 347 348 349 348 348 348 349 349 350 350 350 350 350 351 351 351 351 351 351 351 351 349 348 347 348 348 348 348 348 348
325 325 325 325 325 325 325 329 334 336 335 333 331 330 332 335 338 341 340 339 338 338 339 340 340 340 340 342 343 343 343 343 343 344 344 344 344 343 343 345 346 346 347 348 349 350 350 351 351 351 351 350 350 350 350 349 350 350 349 349 349 349 348
324 324 323 323 324 323 325 329 333 334 332 328 324 322 321 323 327 332 334 335 334 335 336 336 336 337 337 338 339 340 341 341 341 341 341 341 341 340 339 341 342 342 343 345 346 347 348 349 349 350 350 351 351 351 350 350 351 350 350 350 350 349 349
323 323 322 322 322 323 323 325 327 328 327 325 323 322 321 320 320 321 323 325 326 327 329 330 329 329 329 332 333 334 334 335 335 334 335 336 336 334 333 333 335 336 338 340 341 343 344 345 346 347 348 349 349 350 350 350 350 350 350 351 350 350 349
321 321 321 321 322 323 323 323 323 323 323 323 323 323 323 322 321 320 318 318 318 318 319 319 318 318 317 319 322 323 323 323 323 323 325 326 326 325 325 327 328 330 331 333 336 337 339 340 341 341 344 346 347 347 347 347 347 348 348 349 350 350 350
320 320 320 320 321 322 322 323 323 323 322 322 322 322 322 322 321 319 317 315 315 316 314 313 313 313 311 311 312 313 314 315 315 315 316 316 316 316 317 319 321 322 323 324 326 329 332 335 335 336 338 341 342 342 340 341 343 345 344 345 346 348 348
321 320 319 319 319 320 320 320 321 322 322 321 321 321 321 320 319 317 315 312 312 313 313 311 311 310 309 308 309 310 311 311 311 312 311 311 312 312 313 314 314 315 316 318 319 321 324 327 328 329 330 332 334 336 336 338 342 343 342 341 341 343 345
322 321 319 319 318 318 318 318 317 318 319 319 320 319 319 318 317 315 313 311 310 311 311 311 310 308 307 307 307 308 309 310 311 311 311 311 312 312 312 313 313 313 314 316 317 318 318 320 323 325 327 328 330 332 335 338 338 337 338 339 338 339 341
321 320 319 318 318 317 316 316 315 314 314 314 315 315 315 314 313 311 310 309 310 310 310 309 307 306 306 306 306 307 308 309 310 311 311 312 312 312 313 313 314 314 315 315 316 316 318 320 324 328 331 333 335 336 338 340 338 333 332 333 334 333 334
319 319 318 317 317 316 316 315 315 314 312 311 310 310 310 309 309 309 309 309 310 309 309 308 306 305 305 305 306 306 306 307 307 308 309 310 311 311 313 313 314 315 316 317 317 318 320 323 325 328 331 334 337 339 339 340 339 337 335 334 334 334 334
317 317 317 316 316 316 315 315 315 314 311 310 309 308 308 308 307 308 308 309 309 308 307 306 305 305 306 305 306 306 306 306 306 306 307 307 308 309 310 311 312 314 315 317 318 319 321 322 323 325 327 328 331 334 336 336 337 338 337 337 338 338 337
316 316 316 316 315 315 315 315 315 313 312 310 310 309 308 307 307 307 307 307 307 307 307 307 306 306 307 307 307 307 306 306 306 306 306 306 306 306 307 307 308 310 311 312 314 315 317 318 319 320 321 322 323 326 328 330 332 334 336 337 338 339 339
316 315 315 315 315 315 316 315 314 312 310 310 309 308 307 307 307 306 306 306 306 307 307 307 307 308 308 308 308 307 307 307 306 306 306 306 306 306 306 305 306 306 307 307 308 308 309 310 311 312 313 313 314 315 317 318 320 323 326 329 332 334 335
316 316 316 316 315 315 315 313 312 311 310 309 308 307 307 307 307 307 306 306 306 306 306 306 307 307 307 307 307 307 307 306 306 306 306 305 305 305 305 305 305 305 305 305 305 306 306 306 306 307 307 307 308 308 309 309 310 311 312 314 316 317 319
316 317 317 316 315 314 314 313 312 311 309 308 308 307 308 308 307 307 307 307 307 306 306 306 306 306 306 306 306 306 306 306 306 305 305 305 305 304 304 304 304 304 304 304 305 305 305 305 306 306 306 306 307 307 307 307 307 307 307 307 308 308 309
316 316 317 316 315 315 314 314 313 311 309 308 308 308 308 308 308 308 308 307 307 307 307 306 306 306 306 305 305 305 305 305 305 304 304 304 304 303 303 304 304 304 304 305 305 305 306 306 306 306 306 306 306 307 307 307 307 307 307 307 306 306 306
316 316 316 316 315 316 315 314 312 310 308 308 308 309 309 309 309 309 308 307 306 306 306 305 305 305 305 304 304 304 304 304 304 303 303 303 303 303 303 303 303 304 304 305 305 305 305 305 306 306 306 306 306 307 307 307 307 307 308 307 307 307 307

ECMWFFLT1_850_thetae_096.txt.gz
Theta_e
354 354 353 352 352 351 350 350 351 350 350 351 352 351 350 351 351 351 349 342 338 339 340 341 343 344 343 342 340 339 339 340 342 345 349 351 352 353 353 353 353 353 353 353 354 354 352 351 350 352 352 348 347 345 342 344 344 344 346 345 345 346 347
354 354 354 353 352 351 351 351 351 351 351 351 352 351 351 352 351 350 348 343 340 341 340 340 342 343 343 343 342 340 338 339 341 342 347 350 350 350 351 353 353 352 352 353 354 353 351 349 349 350 350 349 350 346 341 343 343 344 347 344 344 347 345
353 354 354 354 353 352 351 351 350 350 350 351 351 352 352 351 349 348 346 344 343 342 341 341 341 342 342 343 343 342 339 340 341 341 345 350 350 350 351 351 351 352 352 353 353 352 352 351 349 348 348 350 352 348 344 345 345 344 345 344 346 348 346
352 353 353 354 354 352 351 351 351 350 351 351 351 351 351 348 347 346 346 346 344 343 342 341 341 343 344 344 344 343 341 340 342 344 347 350 350 351 352 351 350 351 352 352 352 352 352 353 352 349 347 346 348 348 345 345 346 344 344 344 345 347 345
352 352 353 354 354 353 351 351 351 351 351 351 350 351 350 348 346 347 346 346 345 344 343 342 344 347 346 346 346 346 343 339 340 343 347 350 351 351 351 351 351 351 351 351 352 351 350 351 353 352 349 346 347 349 347 345 346 345 344 344 345 348 349
353 353 353 354 355 353 352 351 351 352 351 350 348 348 349 347 347 348 347 346 346 345 344 343 346 348 346 346 348 349 346 341 338 338 341 346 349 350 351 351 351 351 351 351 352 352 350 350 353 353 352 352 352 354 353 350 351 351 348 344 345 349 352
354 354 354 355 355 354 352 351 351 352 350 349 347 346 347 346 346 348 347 346 344 344 344 343 345 346 344 345 347 348 346 343 342 339 339 343 345 346 349 351 351 351 351 352 352 352 352 352 352 352 352 353 354 355 355 351 349 351 350 347 344 344 346
353 354 353 354 354 354 353 351 350 351 350 349 348 347 345 344 344 345 345 344 343 343 343 343 343 342 342 343 344 344 342 342 344 342 339 343 345 345 347 349 350 350 351 352 350 350 352 352 353 352 352 353 353 352 353 349 345 349 353 351 348 346 349
353 351 349 350 350 350 349 349 348 348 349 348 348 347 343 342 343 343 343 343 342 342 342 342 342 342 342 343 343 342 341 341 344 342 340 344 346 346 346 346 348 349 349 349 349 349 351 352 353 354 351 352 351 347 348 348 347 350 352 349 346 345 350
353 351 348 348 348 347 346 347 347 346 346 346 347 346 343 342 342 341 341 342 342 342 343 343 343 342 342 343 343 343 343 343 343 343 343 344 345 346 346 345 346 347 347 347 346 348 351 352 353 353 349 349 349 344 344 347 350 353 352 349 346 345 347
352 352 350 348 347 347 347 347 347 346 345 344 344 343 342 344 344 342 342 341 341 342 342 343 344 343 343 344 344 344 344 344 344 344 344 344 343 344 345 346 345 346 347 347 345 346 350 352 352 350 347 349 352 349 345 346 349 352 354 354 352 349 349
351 352 351 348 348 348 348 348 347 347 347 346 344 343 343 344 344 344 343 342 342 342 342 343 344 343 342 342 343 344 344 344 346 345 345 345 344 343 343 345 346 346 346 346 346 345 348 351 352 350 348 348 351 353 351 348 349 350 351 355 356 353 352
352 352 352 350 350 350 349 348 348 348 347 347 347 346 346 345 344 345 345 343 343 343 343 344 344 344 343 342 342 343 343 343 345 346 346 345 346 344 343 344 346 347 348 348 348 346 346 348 350 351 350 347 347 351 352 349 348 348 347 350 355 355 354
351 352 352 351 351 351 350 349 348 348 347 347 347 347 347 346 345 345 345 345 346 345 345 345 345 344 344 342 342 342 342 343 344 345 345 345 347 347 346 345 346 347 348 348 348 349 348 347 348 349 350 349 347 350 351 349 349 349 346 347 352 354 354
350 351 350 350 350 350 350 348 348 349 348 348 348 348 348 347 347 346 347 347 347 347 347 346 345 344 343 342 342 342 342 343 343 344 345 345 346 347 347 347 346 346 345 343 344 348 349 348 348 349 350 350 350 350 351 352 352 352 350 349 351 353 354
349 349 349 349 349 348 348 348 348 349 349 350 350 350 349 349 348 348 348 347 347 347 347 347 346 345 343 343 343 343 343 343 343 344 344 344 345 346 346 346 346 347 346 342 341 344 346 346 347 350 350 351 350 349 350 351 352 352 351 349 350 352 353
348 347 346 347 348 347 346 346 346 347 348 349 349 349 349 349 350 349 348 348 348 348 348 348 348 347 345 344 344 344 344 343 343 344 344 344 345 346 346 346 346 347 347 345 341 340 342 342 343 347 350 351 350 349 349 350 351 351 347 345 346 347 348
347 345 345 345 346 346 345 345 345 346 346 346 347 348 348 349 349 349 349 349 349 349 349 349 349 348 347 347 346 346 345 345 345 345 345 345 346 346 346 346 346 347 347 346 342 340 340 342 344 347 350 352 352 351 351 351 350 349 347 346 347 346 345
345 345 345 345 345 345 344 344 344 344 344 344 346 347 348 348 348 349 349 349 349 350 350 349 350 350 349 349 349 349 349 348 348 348 348 348 347 347 347 346 346 347 348 345 342 343 343 346 349 351 351 353 355 353 354 352 349 347 347 347 348 348 347
345 345 344 344 344 343 342 343 343 343 343 344 344 345 346 347 347 348 348 348 348 349 349 349 349 350 350 350 350 350 350 350 350 350 350 349 349 349 349 348 346 347 348 346 345 347 348 348 351 353 352 354 355 354 354 352 348 347 349 349 349 349 348
344 344 342 342 342 342 342 343 344 344 344 344 344 345 346 346 346 347 347 347 347 347 347 348 349 349 350 350 350 350 350 349 350 350 350 349 349 350 351 350 348 348 348 348 349 350 350 350 351 352 352 353 353 353 354 352 349 348 349 349 350 350 350
342 341 340 340 341 341 341 341 342 344 343 343 343 344 344 345 345 345 345 346 346 347 346 347 348 348 348 348 348 348 348 348 348 348 348 348 348 349 350 350 350 350 350 351 351 351 350 351 352 351 352 353 353 353 353 352 350 349 349 349 350 351 351
339 339 338 339 340 340 339 338 339 341 340 340 341 341 342 342 342 342 343 343 344 345 344 344 345 345 345 345 345 345 345 345 346 346 346 347 347 348 348 348 348 349 350 352 352 351 350 351 351 351 351 351 352 353 353 352 351 351 350 350 350 351 351
335 336 336 336 337 337 336 336 338 339 338 339 338 338 339 339 339 340 340 340 341 341 340 340 340 340 341 340 340 341 341 341 342 342 342 344 346 346 346 347 347 348 349 350 350 350 350 350 350 350 350 350 351 351 351 351 351 350 350 350 350 351 350
331 332 333 334 335 334 333 335 336 336 335 334 333 334 334 334 333 334 335 335 335 336 338 338 337 337 338 337 336 337 338 338 338 337 337 339 341 341 341 342 343 345 347 347 346 346 347 347 347 348 348 348 349 350 350 349 350 350 350 350 350 350 350
329 330 332 333 333 332 331 331 331 329 327 325 324 326 326 323 321 322 324 324 323 325 328 330 330 330 330 329 328 329 329 330 331 330 331 332 333 333 334 334 335 338 341 342 342 343 344 345 345 345 346 346 346 347 347 347 348 349 349 349 349 350 350
327 329 331 332 331 329 329 328 327 326 323 321 322 323 322 319 317 316 317 317 315 315 316 318 320 320 319 317 317 318 319 321 321 320 321 322 323 323 325 326 328 329 331 333 336 336 337 340 341 340 340 341 341 342 343 344 345 346 346 346 346 346 347
326 326 328 331 330 328 328 327 325 324 323 323 324 322 320 319 317 315 315 314 313 312 311 311 313 314 314 313 312 313 315 317 317 315 314 315 316 317 319 321 322 323 324 327 329 329 327 330 333 333 332 334 335 336 336 337 339 340 341 341 342 342 342
326 324 326 329 330 328 328 327 326 325 325 324 323 321 319 318 317 315 314 312 312 311 310 309 308 310 311 311 311 311 312 314 315 314 312 313 315 316 318 319 319 321 323 325 327 327 326 327 330 330 329 330 330 330 329 331 333 335 337 339 340 339 337
327 326 326 327 327 326 326 326 325 325 324 323 322 321 320 317 315 313 312 311 311 311 309 308 307 307 307 308 308 309 309 309 311 311 311 312 313 314 317 318 318 319 322 324 325 327 327 327 329 330 330 330 330 330 330 332 333 334 335 336 336 335 334
327 327 327 326 325 325 324 324 323 322 322 321 319 318 316 313 312 311 310 310 310 310 309 307 307 306 306 306 306 307 307 307 308 309 309 310 311 311 313 315 316 315 318 322 323 324 325 327 328 329 330 330 331 331 332 333 333 333 334 334 335 335 335
326 326 325 324 323 322 322 322 321 318 317 316 314 313 311 310 310 310 309 308 308 308 307 307 307 307 307 306 306 305 306 306 306 306 307 307 308 308 309 311 312 312 315 319 321 321 323 326 327 328 329 329 330 331 332 333 332 332 333 335 336 335 335
324 324 323 322 321 321 321 320 318 315 314 313 312 311 310 309 309 309 309 310 310 308 307 307 307 307 307 307 307 307 306 306 305 306 307 306 306 308 308 306 308 311 313 315 318 319 320 323 324 326 326 327 327 328 328 329 328 329 332 334 334 334 334
321 322 322 322 321 321 320 317 315 314 314 312 312 311 310 309 308 307 308 310 310 309 307 306 308 309 309 311 312 311 310 309 306 305 306 306 305 307 308 307 308 310 309 310 312 314 315 317 318 318 319 321 322 321 322 324 325 324 326 327 327 327 327
321 321 321 321 321 319 317 316 315 315 313 312 312 311 309 308 307 307 308 308 307 307 306 306 307 308 309 312 314 312 311 311 310 307 306 307 307 306 305 305 306 307 306 305 306 307 308 309 309 309 310 313 313 312 314 318 318 314 313 314 314 314 314
322 321 320 320 320 318 316 315 316 315 315 314 312 310 308 307 307 308 310 309 307 306 307 306 307 307 309 311 312 310 309 310 310 306 305 307 308 307 306 304 304 304 305 305 304 304 305 305 305 305 306 307 307 307 307 309 309 306 306 307 306 306 307
321 321 320 319 319 318 316 316 316 316 317 316 313 309 308 308 308 308 309 308 307 307 307 305 306 309 312 312 309 306 305 307 306 304 304 305 305 304 305 306 305 303 303 304 304 303 303 304 304 304 304 304 305 305 305 305 305 305 305 305 305 305 305
321 321 320 319 318 318 316 316 317 318 318 317 313 309 309 309 309 308 308 308 307 307 307 306 306 308 311 312 308 304 305 306 305 304 304 304 303 304 304 305 307 307 304 303 304 304 304 304 304 304 304 304 304 304 304 304 305 305 305 305 305 305 305

ECMWFFLT1_850_thetae_099.txt.gz
Theta_e
354 352 351 352 352 351 350 350 350 350 350 350 349 349 349 348 349 350 352 353 353 353 350 349 352 352 350 351 351 350 350 351 352 352 353 355 355 356 356 354 354 355 353 352 353 354 355 354 353 355 353 348 347 346 343 344 344 345 348 345 346 349 348
355 354 352 352 352 350 350 350 351 351 351 350 350 350 350 349 350 350 351 353 352 353 351 348 350 352 352 351 352 351 350 353 355 354 355 355 355 356 356 355 355 354 354 354 355 355 354 354 352 351 352 350 350 347 342 344 344 346 351 347 344 347 345
355 356 354 352 351 350 351 351 351 351 351 352 351 351 351 350 351 351 352 353 352 351 352 350 349 352 353 352 353 352 350 352 354 353 354 354 353 355 355 355 355 353 354 355 355 355 354 354 352 350 351 353 356 352 344 344 344 346 349 345 347 352 347
356 355 353 352 351 351 352 351 351 352 351 352 351 351 351 351 352 353 353 353 352 350 351 351 350 351 353 353 353 353 351 351 353 353 353 352 351 353 354 354 354 353 354 354 354 353 353 355 354 352 350 349 355 356 350 346 345 346 347 344 349 354 350
355 355 355 355 354 353 352 351 352 353 352 352 352 351 352 353 353 354 354 354 353 350 350 350 350 349 351 352 353 354 353 352 352 353 353 353 352 353 353 352 352 352 353 354 353 354 354 354 355 355 352 348 351 355 353 350 350 349 345 343 348 352 351
356 358 357 356 357 354 352 351 351 352 352 352 351 351 353 354 353 353 355 356 355 353 351 350 349 347 350 352 352 353 354 353 351 350 351 353 353 352 352 352 353 352 352 352 352 353 354 353 353 355 355 353 353 356 356 355 356 355 351 345 347 353 354
357 358 356 355 358 356 352 352 351 352 352 352 351 352 353 355 355 355 355 357 357 355 354 351 349 348 348 349 351 352 354 353 352 350 350 352 352 352 352 352 352 352 352 352 352 353 354 353 353 355 355 354 354 355 356 357 356 358 358 350 345 348 351
356 356 356 356 357 357 355 353 352 353 353 354 353 352 351 352 354 355 355 356 357 356 355 353 350 349 348 349 349 351 352 352 353 352 351 350 350 350 352 352 352 352 352 352 352 353 353 354 354 354 354 354 355 355 357 357 354 354 358 356 350 349 352
354 355 357 356 357 356 356 354 353 353 353 354 355 353 349 347 351 356 356 357 358 357 356 356 353 350 350 349 349 348 349 350 350 351 350 350 349 348 349 348 349 351 351 351 352 351 352 352 353 355 354 354 355 356 356 355 352 353 357 356 352 350 352
354 356 357 356 356 355 354 353 352 352 353 354 355 354 352 350 352 356 356 357 357 356 358 358 356 355 352 349 350 349 349 349 348 349 348 348 347 347 347 346 347 349 350 350 349 349 351 351 353 355 355 354 355 354 352 351 351 352 356 356 351 350 351
354 356 356 355 355 354 352 351 351 351 352 354 356 355 353 352 353 353 354 356 356 356 358 357 355 354 350 348 350 351 350 350 349 348 349 348 346 346 346 344 345 346 347 348 348 346 348 350 354 356 355 354 353 353 351 350 351 352 355 357 356 355 354
352 354 354 354 353 351 349 347 346 347 347 349 353 354 352 351 352 352 350 351 353 354 354 352 349 347 346 345 349 350 350 353 351 350 350 349 348 346 345 345 344 344 346 347 346 345 345 348 352 356 356 353 353 356 354 351 352 353 352 355 358 357 356
352 353 352 352 352 350 348 347 346 347 346 344 346 348 347 348 350 349 346 347 349 349 349 348 345 344 344 344 346 347 348 351 353 352 351 351 348 343 341 344 345 344 344 345 346 346 345 346 350 354 356 354 354 356 355 351 351 352 350 352 357 358 357
353 352 351 352 352 350 349 349 348 349 347 346 345 345 346 345 345 345 344 345 346 345 345 346 345 345 345 345 346 346 345 346 351 353 352 352 351 345 340 342 345 346 344 344 346 346 345 344 347 350 353 354 353 354 355 352 352 353 350 350 353 355 357
353 352 351 351 352 351 350 350 350 348 347 347 346 345 346 346 345 345 344 345 345 344 346 346 346 346 346 347 347 346 344 343 345 348 348 348 349 348 344 343 346 348 347 346 346 348 347 345 344 347 349 351 351 351 352 351 353 355 353 352 353 353 354
353 353 352 352 353 352 351 351 350 349 348 348 347 348 347 346 346 346 345 345 345 345 345 345 346 347 348 348 348 347 346 344 343 344 344 344 345 347 348 346 347 348 350 350 351 351 350 348 346 346 348 349 351 351 350 349 350 352 354 354 353 352 352
353 352 352 351 351 350 350 350 351 350 350 350 349 350 349 348 348 347 346 346 346 345 345 344 345 346 347 348 349 347 346 346 346 345 344 344 343 343 346 348 348 348 349 350 351 351 351 350 349 348 347 348 349 351 350 349 348 349 351 352 352 352 353
350 348 348 348 348 349 349 349 349 350 349 349 349 350 350 351 350 349 349 348 347 347 346 345 345 346 347 349 349 348 346 344 344 344 343 343 343 343 344 346 347 347 348 349 350 350 349 349 350 350 350 349 350 350 349 347 347 348 349 349 350 349 348
345 344 346 347 347 348 348 347 347 347 348 347 348 349 349 350 350 350 350 349 348 349 348 347 348 348 349 351 351 351 349 347 345 344 343 343 343 343 344 345 345 345 346 347 348 348 349 349 350 351 350 350 350 351 350 349 349 348 349 349 349 348 346
343 346 348 347 346 346 345 345 345 345 345 345 345 347 347 348 349 349 350 350 349 349 349 350 350 350 350 351 352 351 351 350 349 348 347 346 346 347 347 346 346 346 346 346 346 347 348 349 350 351 352 352 353 352 352 351 350 350 350 350 349 347 347
344 347 347 345 344 344 343 343 343 343 343 342 343 344 345 346 348 348 348 349 348 347 348 349 350 349 350 350 350 351 350 350 351 350 349 349 348 349 349 349 349 349 349 348 347 347 348 348 349 350 352 353 353 354 354 351 350 352 352 351 349 347 348
344 344 345 345 344 343 342 342 342 342 343 343 344 343 344 345 346 347 347 346 346 347 347 348 349 349 349 349 349 350 350 350 351 351 350 350 350 351 351 351 351 351 350 349 349 348 347 348 347 347 349 351 351 352 353 350 348 351 351 350 349 349 349
342 343 343 343 342 341 341 340 341 341 342 343 343 342 343 343 343 343 344 343 344 344 345 346 346 344 345 346 348 348 349 350 350 350 350 350 350 350 350 350 351 352 351 351 350 349 346 347 348 348 349 351 349 349 349 348 347 349 349 349 349 349 350
340 341 341 340 340 340 339 338 339 339 340 341 341 340 340 340 339 340 340 340 341 341 342 342 342 340 341 344 344 343 344 346 346 347 348 349 348 348 348 348 349 350 351 351 351 350 348 348 350 351 351 349 348 348 348 347 347 348 348 349 350 351 351
337 338 338 338 338 337 337 337 337 337 338 338 338 336 335 335 336 337 338 337 337 338 338 338 338 337 338 339 338 337 338 340 342 342 343 344 345 345 346 347 347 347 349 350 350 350 351 350 350 351 350 349 348 348 347 347 348 349 350 350 350 350 350
336 336 336 336 335 335 335 335 334 333 333 331 330 327 325 325 326 328 328 328 329 333 334 334 334 334 335 334 332 331 332 334 334 335 336 338 339 340 340 341 341 342 344 346 347 348 348 348 348 349 348 349 349 349 349 350 350 350 350 350 350 350 350
335 335 335 334 333 333 332 331 330 329 326 324 322 319 318 320 321 319 318 317 318 322 325 326 327 329 330 328 324 323 325 326 327 327 328 329 330 331 331 332 334 338 341 342 343 344 345 345 345 346 345 344 346 347 348 349 349 349 348 347 347 347 348
335 334 333 333 332 331 330 329 328 328 326 324 322 320 319 319 316 315 317 317 316 315 316 317 318 320 321 320 318 318 320 321 323 322 319 318 319 322 324 325 326 331 335 334 333 337 342 343 343 342 341 340 341 342 343 344 344 343 342 343 343 344 343
334 333 332 332 331 330 329 328 327 328 327 325 323 320 318 315 313 314 315 316 317 317 315 312 311 311 312 312 312 314 316 317 320 318 314 313 314 316 322 323 320 321 325 322 321 329 335 335 334 335 337 337 338 337 335 335 336 336 337 338 339 340 339
332 333 333 332 330 329 329 328 328 327 326 326 324 319 313 310 311 311 311 310 312 313 311 310 311 313 313 312 312 313 314 316 318 317 314 314 313 314 321 324 321 322 325 322 321 327 330 328 328 332 334 335 336 334 331 330 330 332 334 335 336 335 335
331 332 332 331 330 329 328 327 327 326 326 327 325 319 313 309 309 309 310 308 307 307 306 308 313 317 317 314 313 313 315 317 318 317 315 312 312 312 316 318 317 320 325 328 328 328 327 327 330 333 333 334 334 333 332 331 330 330 330 332 333 333 333
331 331 331 330 330 329 327 326 325 325 325 325 323 320 318 316 311 308 307 307 306 307 306 305 307 308 309 309 308 308 312 316 318 316 311 309 311 311 311 313 315 314 318 324 328 328 327 329 332 333 332 333 333 332 331 332 332 331 329 328 330 331 331
331 330 330 329 328 327 326 324 324 323 323 322 322 323 321 317 311 307 309 312 312 309 305 306 310 310 307 308 309 308 309 310 311 314 315 314 316 318 314 312 313 313 313 315 320 325 328 328 329 330 331 332 332 330 329 329 330 329 326 324 326 329 327
331 330 330 329 327 326 326 325 323 321 320 318 318 318 316 314 312 310 313 317 316 310 305 309 316 319 318 317 317 317 315 312 310 315 318 317 317 321 321 319 319 319 318 314 312 318 325 327 328 329 329 329 330 328 329 330 329 327 323 319 319 320 319
331 330 330 329 327 326 326 324 321 319 317 316 315 313 311 310 310 311 314 314 310 308 307 307 310 316 320 322 321 319 319 318 316 316 318 317 316 314 312 314 319 320 316 310 307 311 317 322 324 323 323 327 328 325 325 328 327 324 319 313 310 310 309
330 331 330 329 327 326 325 322 318 316 316 316 316 314 310 308 310 315 318 315 310 309 309 308 312 317 319 320 320 316 317 320 318 313 312 316 319 318 311 306 308 310 308 306 305 306 308 311 313 311 313 318 319 315 314 316 315 313 310 307 305 306 306
331 331 330 329 328 327 325 321 317 316 316 318 317 315 312 310 311 316 317 313 309 309 308 309 316 321 320 319 315 308 310 317 316 310 308 309 311 314 314 311 306 304 304 304 305 305 304 305 306 305 306 308 308 306 306 307 306 305 305 305 305 305 305
330 330 329 328 328 327 323 319 317 316 316 318 317 315 314 312 311 313 313 310 308 310 308 308 314 319 320 319 315 308 309 315 314 311 314 315 310 310 314 316 315 312 309 306 304 304 304 304 304 304 304 304 304 304 305 305 305 305 305 305 305 305 305

ECMWFFLT1_850_thetae_102.txt.gz
Theta_e
353 352 352 350 349 348 347 347 347 347 348 349 348 348 349 349 350 352 353 353 350 348 349 349 346 343 340 342 343 343 346 346 345 346 345 347 350 352 352 352 352 351 351 349 349 352 352 351 352 352 351 347 345 346 343 344 345 344 346 346 345 346 345
353 352 352 351 350 349 348 348 348 348 348 349 349 348 348 349 350 352 353 353 350 348 347 347 347 346 344 344 344 343 346 347 346 346 347 350 353 353 353 353 352 353 353 351 351 352 351 351 352 354 353 348 346 345 343 344 345 346 349 347 345 346 344
354 352 351 351 351 350 349 349 348 348 349 350 349 348 348 348 350 352 353 354 350 348 348 348 348 349 347 348 348 345 346 348 347 346 347 349 352 354 355 354 353 353 353 352 353 353 350 350 352 352 351 350 352 350 346 345 344 345 348 346 346 348 345
355 353 351 351 351 350 350 350 349 349 350 350 349 349 349 348 349 351 352 354 352 349 351 349 348 351 349 349 352 349 347 349 349 349 348 348 351 353 353 355 354 353 352 352 353 352 350 350 350 349 348 349 354 354 348 345 344 344 346 345 346 347 345
355 354 353 352 351 350 351 350 350 350 350 351 350 349 349 348 350 351 352 354 354 352 352 351 351 353 352 351 354 353 350 351 352 352 351 350 350 350 351 353 353 351 352 352 352 351 351 351 351 350 347 346 350 352 347 345 344 343 344 345 345 345 346
356 355 354 353 351 350 350 350 350 351 350 351 350 350 351 350 350 352 352 353 354 354 354 353 352 353 353 353 354 354 352 351 352 353 353 352 351 350 351 352 351 350 351 352 352 351 351 351 352 353 351 348 351 352 349 349 349 347 346 345 344 346 350
356 356 354 354 353 351 351 351 351 351 351 351 351 351 351 352 352 352 353 353 353 352 353 352 351 350 352 352 352 353 353 351 351 352 353 353 352 351 351 351 351 352 352 352 352 352 352 352 352 354 354 353 354 353 350 352 353 351 349 347 345 347 351
356 357 356 354 354 353 351 350 351 351 352 352 352 352 352 352 352 353 353 352 352 351 350 349 349 348 349 350 350 351 353 353 352 352 352 352 353 352 352 351 352 352 352 352 352 352 353 353 352 353 354 354 354 353 351 353 353 351 350 350 349 349 351
356 356 356 354 352 352 350 349 351 352 352 352 351 352 353 352 352 352 352 353 353 351 350 349 348 347 348 349 350 351 352 353 354 353 353 352 351 351 351 351 352 353 352 352 352 352 353 353 353 354 353 353 354 353 353 353 352 351 352 353 352 352 353
355 354 354 354 353 351 351 350 352 352 351 351 352 351 352 353 353 352 351 354 354 352 351 350 349 348 348 348 349 350 351 352 353 353 352 352 351 350 349 349 350 351 351 351 351 352 352 352 353 353 354 353 353 353 353 353 351 349 351 353 353 352 352
354 353 352 354 354 352 352 352 352 352 352 352 351 350 349 351 354 354 352 353 354 352 351 353 352 350 349 349 349 350 350 350 351 351 351 350 351 350 348 347 347 347 349 350 350 350 350 350 350 352 354 354 352 351 352 351 349 347 348 352 353 352 352
353 352 351 354 355 353 353 353 352 352 352 351 351 350 349 350 352 354 352 351 352 352 353 355 354 352 350 350 349 349 349 350 350 350 349 349 350 349 347 347 346 345 346 347 348 348 348 348 349 351 353 353 351 351 351 350 348 347 348 352 353 352 352
352 351 350 352 354 353 353 352 352 352 352 351 351 350 350 350 350 352 352 351 353 355 356 355 354 353 352 351 350 349 349 349 350 350 350 349 349 348 347 346 346 345 344 345 346 348 347 346 347 349 352 353 351 349 351 352 351 349 348 349 352 354 355
351 350 348 350 352 352 351 350 351 353 352 352 353 352 351 351 350 350 351 352 352 352 353 352 352 352 351 350 350 351 350 349 350 351 351 350 350 349 346 344 345 345 344 343 344 345 346 346 346 346 349 353 353 350 351 354 354 352 350 349 351 354 355
352 351 351 351 350 349 349 349 349 351 348 349 353 354 353 353 352 350 349 351 351 349 348 347 347 348 348 345 346 349 349 347 350 352 352 351 351 351 349 344 342 343 344 345 344 344 345 345 345 345 346 351 353 352 352 354 354 353 351 350 351 352 354
352 351 352 353 351 350 349 349 349 349 348 347 349 350 349 351 353 352 351 353 353 351 351 350 347 345 345 345 345 347 346 346 349 352 352 351 351 351 350 345 341 341 342 344 345 345 344 345 345 345 345 346 349 350 351 351 351 351 350 350 352 352 354
350 351 352 353 352 352 352 351 350 350 350 349 347 346 346 348 350 350 350 351 351 351 352 354 353 352 349 348 347 347 348 347 348 349 349 350 351 350 349 347 344 343 342 342 344 345 345 345 346 346 346 345 345 347 349 349 349 349 348 349 352 353 354
348 349 351 351 351 352 351 352 351 350 351 350 349 348 348 349 349 349 348 348 348 348 349 350 351 351 351 351 351 351 351 351 350 349 348 349 350 349 348 346 345 345 344 343 344 345 346 346 347 349 349 347 346 347 347 348 349 349 348 348 349 350 351
346 347 349 349 351 351 350 351 351 350 350 351 351 351 350 351 352 352 351 350 349 349 348 347 347 347 347 349 351 352 353 352 352 351 349 348 348 348 348 346 345 344 344 344 345 346 347 347 347 350 350 349 348 346 345 347 348 348 347 347 347 348 348
344 347 348 348 349 349 349 349 348 348 348 348 348 349 350 351 352 352 352 352 351 350 350 349 349 348 347 347 348 350 350 350 351 351 350 348 347 347 346 344 344 344 343 343 343 345 347 347 347 349 350 349 349 346 343 346 350 350 348 347 347 348 348
346 347 347 347 346 346 346 346 346 346 345 344 343 345 347 348 349 350 350 350 350 350 350 350 349 349 350 349 350 350 350 350 351 351 351 350 348 347 346 345 345 345 344 343 343 344 345 346 347 348 349 349 350 348 344 344 348 351 350 349 349 349 349
347 345 345 345 344 344 344 343 343 343 342 342 342 342 344 346 346 347 347 347 347 348 348 349 348 349 349 350 349 350 350 351 351 351 351 351 351 350 350 349 348 346 345 345 346 346 345 346 346 346 347 348 349 348 345 343 346 351 352 351 350 350 350
345 344 343 343 342 342 342 341 341 341 341 341 342 341 342 343 343 344 345 345 345 345 345 345 346 346 347 348 349 349 349 349 350 350 350 350 351 351 351 350 349 349 349 348 348 348 348 348 348 348 347 347 348 347 346 346 347 349 350 352 351 351 351
342 342 341 341 341 341 341 340 341 341 340 340 340 339 340 340 340 341 342 342 342 342 342 343 343 343 344 345 346 346 346 346 347 348 348 349 349 349 349 349 349 349 350 350 349 350 350 350 351 350 347 347 347 347 348 348 347 346 348 350 349 349 350
339 339 339 339 339 338 339 339 340 340 340 338 335 333 333 335 336 337 338 339 339 338 339 340 340 340 342 342 342 342 343 344 344 344 344 344 345 345 344 346 348 349 349 349 349 350 351 351 351 350 348 347 347 347 348 348 346 345 347 348 347 348 349
337 337 337 337 336 336 336 336 336 336 335 333 330 327 325 326 328 328 329 332 334 335 336 337 338 339 339 340 341 341 340 340 340 341 341 341 342 341 340 341 343 345 346 346 347 348 349 349 350 350 349 348 347 348 348 349 348 348 348 348 347 349 350
336 336 336 334 333 333 333 332 330 328 326 325 324 323 321 319 318 318 319 323 326 328 330 333 334 334 335 337 338 337 336 337 338 338 338 337 335 335 337 338 340 341 343 344 345 346 346 346 346 347 348 347 347 347 348 349 349 348 349 349 349 350 349
336 335 334 332 332 331 330 328 327 325 323 322 322 319 315 313 313 313 313 315 317 319 322 325 326 326 326 327 328 329 329 331 332 332 333 331 329 329 332 334 335 338 339 338 339 342 344 345 344 344 344 344 342 343 345 347 347 348 348 348 348 347 346
335 335 334 332 331 330 329 329 328 326 326 326 324 319 314 312 312 312 314 316 316 313 313 314 314 315 315 316 317 320 322 323 323 323 324 325 325 327 329 330 331 333 331 330 332 337 340 341 340 340 340 339 338 337 338 341 343 344 344 343 343 343 341
334 334 333 332 331 330 330 329 328 327 326 323 318 314 313 312 311 311 312 315 314 311 310 311 312 311 310 312 313 314 314 316 317 318 318 316 316 319 322 324 328 329 327 326 328 331 334 334 335 336 337 337 336 335 333 332 335 337 337 337 338 338 336
335 334 333 331 331 330 329 328 328 328 327 320 312 309 310 310 309 309 310 310 310 311 314 318 317 312 308 309 311 314 316 317 315 313 313 313 314 313 313 316 320 324 328 330 329 329 331 333 334 335 336 336 335 334 332 330 330 330 331 333 335 334 333
334 333 332 331 330 330 328 328 327 327 325 319 315 312 310 309 308 308 306 305 305 307 310 312 311 308 306 306 307 312 318 319 314 311 311 315 319 318 314 315 317 318 324 329 328 326 328 331 330 330 333 334 334 334 333 332 332 331 329 330 330 329 329
332 332 332 331 330 329 327 326 327 326 325 324 323 318 310 307 307 308 311 312 309 306 306 308 310 309 309 310 309 309 311 312 314 317 318 319 322 322 318 318 320 319 318 321 321 320 323 328 329 329 331 332 332 332 330 329 330 331 328 327 325 319 317
331 331 331 330 329 328 326 325 326 325 324 324 322 315 308 306 308 312 318 319 314 307 308 315 321 320 319 318 317 315 314 313 316 320 320 318 321 323 322 321 323 322 318 316 315 315 318 323 326 327 328 328 328 331 331 328 329 329 327 326 323 315 309
331 331 331 329 328 327 326 325 324 322 319 318 316 312 310 309 308 310 313 313 309 306 308 314 320 324 324 323 320 319 320 320 318 317 319 320 321 321 321 321 322 321 318 315 313 314 318 323 325 324 324 323 322 324 327 326 327 328 328 326 322 314 307
332 332 331 329 328 328 326 325 323 320 317 317 316 314 312 310 312 314 314 309 307 309 307 309 315 320 322 322 321 318 319 321 318 312 312 319 322 320 317 317 318 317 315 312 310 310 314 320 320 317 316 316 315 315 318 318 318 319 320 318 314 308 305
332 333 331 330 329 329 327 326 324 321 317 317 317 315 313 314 318 321 318 311 309 310 309 311 318 322 322 321 316 310 311 315 314 308 308 312 315 314 311 310 310 310 309 308 306 305 306 309 309 309 311 312 311 311 312 312 310 308 308 308 306 305 304
332 332 332 330 330 330 328 327 325 321 317 317 318 317 317 319 321 321 318 312 309 310 310 313 321 324 323 321 315 307 309 314 312 310 314 316 312 311 311 311 313 316 316 314 311 307 305 304 304 305 307 308 306 305 306 306 305 305 304 304 304 304 304

ECMWFFLT1_850_thetae_105.txt.gz
Theta_e
350 349 349 346 343 344 344 345 346 346 346 346 347 348 347 349 350 350 352 351 348 347 345 344 343 339 340 343 344 344 345 346 347 347 347 346 346 345 345 348 349 346 344 345 346 348 349 349 349 348 346 345 343 344 345 344 343 343 345 347 350 349 346
351 351 350 348 346 346 345 344 346 346 346 347 347 348 348 349 349 350 351 351 348 347 346 345 343 340 339 340 341 343 344 344 344 345 345 345 346 347 347 349 350 347 346 345 346 349 351 350 348 349 350 348 345 343 343 342 343 343 343 345 346 345 344
353 352 351 350 348 347 346 344 345 347 347 347 347 348 348 348 349 350 351 351 347 346 346 345 344 341 340 340 341 343 344 344 344 344 345 346 346 347 349 350 350 349 350 349 348 350 351 348 347 349 350 348 345 344 343 343 343 343 344 344 344 344 344
353 353 351 351 349 347 346 345 345 347 347 347 347 348 348 349 349 349 351 351 347 346 345 345 345 342 341 340 341 342 343 345 345 345 346 347 347 349 352 351 351 351 351 350 351 352 351 349 348 348 348 348 347 348 347 345 344 344 344 344 343 344 344
353 354 353 352 350 348 346 345 346 347 347 348 347 348 348 349 350 349 351 351 348 345 343 343 345 344 342 342 342 341 342 344 345 344 345 346 347 352 354 353 353 353 352 350 351 352 351 349 348 348 348 346 347 350 350 346 344 343 343 344 345 344 345
353 354 354 352 351 350 348 347 348 347 348 348 348 348 349 348 350 349 350 351 350 347 344 343 346 346 345 344 344 343 342 342 345 345 346 346 348 351 352 351 352 352 351 351 351 351 350 350 350 350 349 347 346 348 349 346 345 344 344 344 344 344 345
354 355 354 352 351 352 350 348 349 349 348 349 348 348 349 349 350 350 351 352 351 349 347 346 346 347 347 347 348 349 347 345 345 347 349 349 349 350 350 350 351 350 350 351 351 352 351 350 351 351 351 352 350 349 350 349 349 348 347 346 345 344 345
354 354 353 351 350 351 351 349 349 349 348 349 349 348 349 350 351 351 352 352 352 351 350 350 350 348 348 348 351 354 353 349 346 347 350 351 351 351 350 350 351 350 351 351 351 352 351 352 352 351 352 353 353 352 352 351 351 350 348 348 347 346 346
353 353 353 352 351 351 351 350 350 349 348 349 350 348 349 351 352 352 352 352 353 353 353 353 352 351 349 348 351 354 354 352 348 347 349 352 352 352 350 351 351 351 352 352 351 351 351 352 353 352 352 353 353 354 354 353 352 351 350 350 349 348 349
353 354 353 353 353 351 350 350 350 350 350 350 350 349 349 351 351 352 352 353 353 354 353 353 353 352 350 348 348 351 352 352 351 350 350 351 352 352 350 350 351 351 352 352 352 352 351 351 352 353 353 353 353 353 354 354 353 351 352 352 350 350 350
354 355 354 354 353 351 350 349 349 350 350 350 349 349 350 351 351 351 352 352 352 352 352 351 351 351 350 348 348 350 351 352 353 353 352 351 351 351 350 349 351 351 351 350 350 351 351 351 352 352 352 353 354 353 354 354 353 352 352 351 351 352 352
352 354 354 353 352 351 351 350 348 350 350 349 349 349 350 351 351 351 352 352 351 350 350 350 350 349 348 348 348 349 350 351 352 353 353 353 352 351 350 349 349 348 348 347 347 349 350 351 350 349 349 350 351 351 352 353 352 352 352 350 351 355 356
351 352 352 352 351 350 350 349 349 350 350 350 350 350 351 351 351 351 352 352 352 351 350 350 349 349 348 348 348 349 349 349 350 351 351 351 351 351 350 349 348 347 347 346 346 346 348 349 348 348 347 347 347 348 350 352 352 352 352 351 352 354 356
350 351 351 351 351 350 350 348 349 350 351 350 350 350 351 351 350 351 351 352 353 353 352 351 350 349 349 349 348 348 348 348 348 349 349 349 350 350 349 348 347 346 346 346 346 346 346 347 347 347 346 346 346 345 346 350 353 354 354 354 354 354 354
349 350 348 349 351 351 351 350 351 351 350 351 351 350 350 350 351 352 352 352 354 354 353 352 351 350 350 350 350 349 349 350 349 349 349 349 349 349 348 347 346 346 346 345 344 345 345 345 346 346 346 347 346 346 347 350 352 353 353 353 354 353 352
348 348 348 348 349 351 352 351 351 351 351 351 351 351 350 350 353 354 355 355 355 354 354 355 354 354 353 353 352 351 350 350 350 350 350 350 350 350 349 348 345 344 345 345 344 344 344 345 345 345 346 348 348 348 349 350 350 350 350 351 351 351 352
347 348 349 348 348 349 351 351 351 351 352 353 353 354 354 353 355 356 357 357 355 353 355 356 356 355 354 353 352 352 352 351 349 349 349 350 351 351 351 350 347 344 342 343 344 343 343 344 344 344 345 345 346 346 346 347 350 350 349 349 349 350 351
348 348 349 348 348 349 350 350 350 350 350 350 351 352 353 354 355 356 356 356 354 354 355 355 355 355 352 350 349 351 353 352 351 349 347 348 350 349 349 350 349 347 344 342 342 342 342 343 344 344 344 344 345 346 345 346 347 348 347 348 349 349 350
348 348 348 348 348 349 350 350 349 349 349 348 349 349 348 349 351 352 354 354 354 353 353 353 354 354 352 351 351 352 353 352 351 351 350 349 349 348 347 349 351 351 349 346 343 342 341 342 342 343 344 344 344 345 346 346 346 345 345 347 348 349 350
347 347 347 347 348 349 349 349 348 349 349 349 349 348 347 347 347 348 350 350 350 350 350 348 348 349 349 349 350 351 351 350 351 351 350 350 350 349 349 351 352 352 350 347 345 344 343 343 343 343 344 345 345 346 347 348 348 347 346 346 347 348 349
346 347 347 347 347 347 348 348 347 348 349 349 349 349 348 348 348 348 349 348 349 348 348 347 347 347 347 347 347 347 347 347 348 349 349 350 350 350 350 350 350 349 348 347 346 345 345 344 344 344 344 345 345 346 347 347 347 348 346 344 346 348 348
345 345 345 346 346 346 347 348 348 348 348 348 348 348 348 348 348 349 349 349 350 350 349 350 349 349 349 348 347 347 347 347 347 348 349 349 349 349 350 349 349 348 347 347 346 345 345 344 343 344 343 343 342 343 345 348 348 348 346 344 345 348 349
344 344 344 344 344 344 345 346 347 346 346 346 346 347 347 347 347 348 348 348 348 349 348 348 348 348 349 349 349 349 349 349 349 349 350 350 350 351 351 350 350 349 348 348 347 346 346 345 344 345 345 344 343 342 343 346 348 349 348 346 343 344 349
342 341 340 341 342 343 343 344 345 344 344 344 344 344 345 345 345 346 346 346 346 346 346 346 346 346 347 347 347 348 348 349 349 349 350 350 350 350 350 350 350 350 350 350 349 348 348 348 347 348 349 348 347 345 343 345 347 349 349 348 344 343 348
340 339 338 340 341 342 342 342 342 341 341 341 341 341 342 342 342 343 343 342 343 343 343 343 344 344 344 344 345 345 346 346 347 347 347 347 348 348 348 349 349 349 349 349 349 349 349 349 350 350 350 350 349 349 347 346 347 348 349 348 346 345 347
338 337 338 338 338 338 337 336 334 332 332 333 333 334 335 336 337 338 338 339 339 339 340 340 340 341 341 341 342 342 343 343 344 344 344 344 344 344 345 346 345 346 346 346 347 347 348 348 348 348 348 348 349 350 350 349 349 349 349 349 348 346 345
336 335 335 336 335 334 332 331 329 328 328 328 327 326 326 327 330 332 333 335 336 336 336 336 337 337 338 338 338 338 338 339 340 340 341 342 342 341 341 342 341 342 343 343 344 345 345 346 345 343 343 343 344 347 350 349 348 349 349 349 348 347 345
334 333 333 332 331 329 327 326 325 325 326 326 324 321 318 318 321 323 326 328 330 331 331 330 330 330 330 331 332 333 333 335 335 336 337 338 339 340 339 340 339 337 337 338 341 343 344 344 342 340 339 339 339 343 346 347 346 346 346 347 348 348 347
333 332 332 331 328 327 326 326 326 326 325 324 322 321 319 316 316 317 318 319 320 321 321 320 320 320 321 322 325 326 327 328 328 328 330 332 332 333 334 334 333 332 332 335 337 339 340 341 338 337 337 336 335 337 339 341 342 342 343 345 347 348 348
332 331 331 330 329 328 327 327 327 325 322 319 317 317 316 314 313 312 312 312 312 312 313 313 313 315 316 316 317 317 318 320 319 318 320 321 321 323 324 325 325 325 328 332 334 335 336 336 336 336 337 336 334 334 333 333 335 338 340 342 343 343 343
333 331 330 330 329 328 327 327 325 319 314 312 311 311 311 309 309 309 309 309 309 310 311 310 310 312 312 313 314 313 312 314 315 315 316 317 315 315 317 322 326 327 327 330 333 335 334 334 335 337 337 336 334 334 332 329 329 332 335 338 338 337 337
333 331 330 330 329 328 328 327 322 314 310 311 310 310 310 309 308 308 307 307 307 307 308 307 307 307 308 311 314 313 311 313 315 316 318 318 315 313 315 319 324 326 328 330 332 334 334 333 334 336 336 335 334 333 332 330 327 327 330 332 332 331 332
332 331 330 330 329 328 328 327 321 317 318 315 310 309 309 308 308 307 307 306 306 306 307 309 310 311 310 310 312 313 316 319 320 319 318 318 318 317 316 317 318 321 326 328 328 328 329 330 332 333 333 333 332 331 330 328 325 324 326 326 325 322 321
332 331 330 330 328 327 328 326 322 321 323 318 310 308 308 307 308 308 306 306 306 306 308 313 317 319 318 314 314 318 320 321 321 319 317 317 319 319 318 317 315 316 319 319 319 320 321 322 326 330 330 331 330 329 327 324 321 321 322 321 321 317 313
332 331 330 329 328 327 327 326 321 319 321 317 310 308 307 308 309 308 307 306 306 306 310 317 321 324 322 318 317 320 321 320 319 319 317 317 320 321 321 319 317 316 318 317 315 315 316 319 323 327 328 329 328 326 323 319 317 317 316 314 314 312 308
332 330 329 328 327 326 327 326 321 317 318 317 314 312 310 309 310 309 308 308 308 308 311 316 320 323 322 320 319 319 319 318 318 318 316 315 317 319 320 320 318 317 318 317 314 311 312 316 321 324 325 325 324 322 320 316 314 314 313 311 310 309 306
332 331 329 328 327 327 327 325 320 316 317 318 317 316 314 314 314 314 312 311 312 311 311 314 318 321 321 321 319 316 314 313 313 313 313 313 313 314 314 314 314 314 315 315 312 308 306 308 313 316 317 316 314 314 313 310 308 308 308 308 308 307 305
332 332 331 329 328 328 327 325 321 318 317 317 317 317 317 317 318 318 315 313 313 313 312 314 319 322 322 320 318 313 310 309 309 308 309 311 311 310 308 309 313 318 320 319 316 314 311 308 307 307 306 306 305 305 306 305 304 304 304 305 305 305 305

ECMWFFLT1_850_thetae_108.txt.gz
Theta_e
347 346 344 341 340 340 341 341 343 344 346 348 349 350 350 350 351 351 350 351 350 344 340 343 344 342 344 344 343 344 347 347 347 348 348 349 349 347 347 347 347 346 345 344 346 347 347 346 345 344 343 343 344 345 345 347 345 344 345 345 346 347 346
347 347 346 344 342 340 341 341 341 343 344 347 349 349 350 350 350 351 350 351 351 345 339 341 342 341 342 344 343 344 346 347 347 348 348 347 346 345 344 345 346 345 344 344 346 348 348 348 349 347 346 345 344 344 344 344 343 343 344 343 344 346 345
347 347 347 346 343 341 342 340 341 342 343 346 349 349 350 350 349 349 350 350 350 347 341 340 342 341 340 343 344 344 345 347 347 347 347 345 344 344 343 345 347 345 344 344 344 346 348 349 349 348 349 348 346 344 344 343 343 342 343 343 343 343 343
348 347 347 347 345 342 342 342 341 342 343 345 348 348 349 349 349 348 349 349 349 349 343 340 341 341 339 340 343 344 344 346 347 346 346 345 343 344 344 346 348 347 346 346 345 347 349 349 349 348 349 349 347 345 343 343 343 343 343 344 344 343 343
349 349 348 348 347 344 343 343 342 343 344 345 347 348 348 348 348 348 349 349 349 348 343 340 341 342 340 339 340 342 343 344 345 345 345 344 344 346 346 346 348 349 349 349 349 350 351 350 349 348 347 347 346 346 345 344 344 344 343 344 344 343 343
350 350 350 349 348 346 344 344 344 344 345 345 346 346 348 348 348 349 348 348 349 346 342 340 341 342 341 339 338 340 342 343 344 344 344 345 346 347 347 347 348 348 351 351 350 350 351 350 349 348 346 345 345 346 347 345 344 343 342 342 343 343 343
350 350 350 350 350 347 345 345 345 345 346 345 345 346 347 348 347 348 348 348 349 348 344 341 341 342 341 340 339 340 341 343 344 345 345 346 348 348 349 350 349 349 351 351 350 350 350 349 349 348 347 347 345 344 346 347 346 345 343 343 343 344 343
351 352 351 350 351 349 347 345 345 346 346 345 346 346 347 348 347 348 348 348 349 349 347 342 340 342 342 341 341 340 341 342 343 345 345 345 347 348 350 350 349 349 351 350 350 351 351 350 350 350 349 349 348 346 348 350 349 349 348 346 345 345 344
351 352 353 351 352 350 347 347 346 346 346 346 347 347 347 348 347 348 349 348 349 349 348 344 341 341 343 343 342 341 342 342 343 345 346 346 347 348 350 349 348 349 350 349 350 351 351 351 351 351 351 351 350 350 351 352 352 351 350 348 347 347 347
350 351 352 352 352 351 349 348 347 347 347 347 347 347 347 348 348 348 349 349 349 349 349 346 342 341 342 343 343 343 343 344 345 346 347 348 348 349 351 350 349 350 350 350 351 351 351 351 351 352 352 351 351 351 351 352 353 353 352 350 349 347 348
351 351 352 352 351 350 349 349 349 348 347 347 348 348 347 347 348 349 349 349 349 349 349 348 345 342 341 343 345 346 346 348 349 349 347 347 348 350 352 351 350 350 351 351 352 352 351 351 351 351 352 352 352 352 352 351 352 352 351 351 349 347 348
351 351 352 352 350 349 349 349 350 350 349 348 347 348 348 348 349 349 349 349 349 349 350 349 346 343 342 344 347 347 347 350 352 351 349 348 349 351 352 350 350 351 351 351 350 350 350 350 351 351 351 350 350 350 350 350 350 350 350 350 349 348 348
351 351 351 351 350 350 349 349 349 349 350 351 350 349 349 349 350 350 350 351 351 350 350 351 350 348 347 348 349 348 348 349 351 351 351 350 349 351 351 350 349 350 351 350 349 348 348 348 349 350 350 349 348 347 348 348 348 349 349 349 349 348 348
351 351 351 351 350 349 349 349 348 348 349 350 351 351 352 353 353 354 354 354 354 354 353 353 353 352 352 352 351 349 348 349 350 351 352 352 351 351 351 350 350 350 349 349 349 348 347 347 348 349 349 348 348 347 347 347 348 349 348 347 347 347 347
351 351 351 351 350 349 349 348 348 349 348 349 350 350 351 352 353 354 355 355 355 354 354 354 352 351 352 353 352 350 349 349 351 351 352 353 352 352 352 351 351 350 349 348 348 348 348 347 347 348 348 348 347 347 346 347 348 348 348 348 348 348 349
350 350 350 350 350 349 349 348 348 349 349 349 349 349 349 350 351 353 353 353 353 352 352 352 351 350 352 352 351 349 349 350 351 351 351 351 351 350 351 351 351 350 349 348 348 347 347 347 347 347 347 346 347 346 346 348 349 349 350 350 351 351 351
349 349 350 350 350 350 349 349 349 349 349 350 349 349 348 349 350 350 350 350 351 350 350 349 350 351 352 352 350 349 349 349 349 350 349 349 349 349 349 350 350 350 349 348 347 347 347 347 346 346 345 345 345 346 347 348 349 349 348 349 350 351 351
348 348 349 350 350 350 350 349 349 349 349 349 349 349 349 349 350 350 349 349 349 349 350 350 349 349 349 350 350 350 349 348 348 348 348 349 349 349 348 349 349 348 347 346 346 346 346 346 346 346 345 345 345 346 346 347 347 346 345 346 348 349 350
348 348 348 350 350 350 350 350 350 350 349 349 350 351 350 350 350 351 351 350 350 350 350 351 352 351 350 351 352 352 351 349 348 348 349 349 349 349 349 349 350 349 348 346 345 345 345 344 345 345 345 345 345 345 346 346 346 345 345 345 345 347 348
348 348 348 348 349 349 350 350 350 349 350 350 351 352 352 351 351 352 353 352 351 351 351 350 352 353 353 352 351 351 351 351 350 350 350 349 349 350 350 350 351 350 350 349 348 346 346 345 345 344 345 344 345 345 345 345 346 346 347 346 345 345 346
347 347 347 347 348 348 348 348 349 349 349 349 349 349 350 351 351 351 352 352 352 352 351 350 350 351 351 349 348 348 349 350 350 349 348 349 349 350 349 350 351 351 351 350 349 349 350 349 347 345 344 344 344 344 345 346 347 348 348 348 348 347 346
344 345 346 347 347 346 346 347 348 348 348 348 348 348 348 348 348 347 348 348 349 348 348 348 347 346 347 346 346 347 348 349 350 349 349 349 350 350 350 350 350 350 350 350 350 351 352 351 349 347 346 344 344 344 346 347 349 348 347 348 349 349 347
343 344 345 346 345 345 346 346 347 348 348 348 348 348 348 348 347 347 347 347 348 348 347 347 347 347 346 347 347 347 347 348 348 348 349 349 349 349 350 350 350 349 349 350 350 351 351 350 348 347 346 345 344 344 344 345 346 345 344 345 348 350 350
341 342 343 343 343 343 344 345 346 346 346 347 347 347 347 347 347 347 347 347 347 348 348 348 348 348 348 348 348 348 348 347 347 347 347 347 347 348 349 349 349 349 349 350 350 350 349 349 347 347 346 346 345 345 345 345 344 343 342 342 343 347 349
340 340 341 341 342 342 342 343 344 344 344 344 345 345 345 345 345 345 345 345 345 345 345 346 346 346 346 347 347 347 348 348 348 348 348 348 348 349 349 350 350 350 350 350 350 350 349 349 349 348 348 348 347 347 346 346 347 346 345 343 341 342 346
338 339 340 341 341 341 341 341 342 342 342 341 342 343 342 343 343 343 343 343 342 343 343 343 343 343 343 343 343 344 344 345 345 346 346 347 347 348 348 348 348 348 348 348 347 347 346 347 347 347 348 348 348 348 348 348 349 348 348 347 344 342 345
337 339 339 339 339 340 339 340 341 341 340 339 338 339 338 339 340 340 340 341 340 340 340 340 339 339 339 340 340 341 341 341 342 342 343 343 344 344 344 345 345 345 345 345 344 344 345 344 344 345 345 345 346 346 347 347 347 347 348 349 348 347 347
338 338 338 337 336 336 336 336 336 336 334 333 331 330 331 332 334 335 337 338 337 337 337 336 337 336 337 337 337 337 338 338 339 339 340 340 340 341 342 341 341 341 341 342 343 343 343 342 341 341 342 342 343 343 343 343 343 343 345 347 348 349 349
334 332 332 331 329 329 329 329 327 326 324 322 321 320 320 322 325 328 330 331 332 332 331 330 330 330 331 332 333 333 335 335 336 337 337 337 337 337 336 335 334 336 338 341 342 341 339 338 337 337 337 338 339 339 339 340 340 340 341 343 345 345 346
330 328 327 327 326 326 325 323 319 316 316 315 314 315 315 315 317 320 321 321 321 321 320 320 319 321 323 325 327 328 329 329 331 332 332 332 331 329 327 326 329 333 336 338 339 339 338 337 337 336 335 334 333 333 333 334 337 338 338 339 340 341 341
329 328 327 327 327 326 325 320 314 311 311 312 312 312 314 313 312 312 312 312 313 313 313 313 314 315 316 317 319 321 320 320 322 323 322 322 322 321 322 325 328 331 334 336 336 336 336 337 337 337 335 333 331 330 328 328 332 335 335 334 334 334 334
329 328 328 327 326 327 326 320 313 309 310 310 309 310 311 311 311 309 310 311 310 309 308 309 311 313 313 312 314 316 316 315 316 317 316 315 315 316 321 327 329 330 331 333 334 334 335 336 336 337 336 334 332 331 328 326 328 331 331 330 328 328 326
329 328 328 328 328 327 324 317 311 311 311 310 309 308 308 309 309 308 308 309 309 308 309 310 311 311 312 313 315 317 318 317 316 317 317 317 316 316 318 323 327 329 331 332 332 332 332 333 335 336 335 333 332 331 329 327 325 326 328 328 326 324 322
329 329 329 329 328 327 323 316 312 313 311 308 308 309 307 308 308 306 306 307 307 310 314 316 315 313 313 316 318 318 318 317 317 317 316 317 319 319 318 319 321 323 325 326 326 327 327 328 331 333 332 332 331 329 327 326 324 322 323 325 324 321 319
330 329 329 328 328 327 325 319 315 315 312 309 308 308 307 308 308 306 306 306 308 311 314 316 317 316 315 316 317 317 317 317 317 316 315 315 317 319 320 319 318 317 317 317 317 319 320 323 327 329 329 329 329 328 327 326 322 318 317 318 317 315 313
330 329 328 328 327 327 327 324 319 317 315 312 308 307 308 308 308 307 307 306 308 312 314 315 317 318 317 316 317 317 316 316 316 315 315 315 316 317 318 318 317 316 316 315 313 313 312 313 318 324 327 327 326 326 326 324 321 318 315 313 314 313 311
330 329 327 327 327 326 327 326 322 318 317 316 313 311 311 311 311 310 310 308 309 312 315 315 316 318 318 318 318 318 316 315 314 313 312 312 312 313 314 315 313 313 313 313 312 310 308 306 308 314 320 323 323 321 319 315 313 312 310 309 309 309 309
330 329 328 328 328 327 327 327 324 319 317 317 317 316 315 316 316 315 314 312 311 311 313 314 315 318 319 318 318 318 316 314 312 310 309 308 309 310 311 311 311 313 315 315 314 312 310 307 306 306 309 312 312 311 308 306 305 305 305 304 305 305 305

ECMWFFLT1_850_thetae_111.txt.gz
Theta_e
345 341 338 341 344 345 345 345 345 345 346 346 345 345 346 347 347 347 346 346 344 343 343 343 344 345 346 346 346 346 347 347 347 347 347 347 347 347 347 348 348 347 347 346 344 343 344 343 343 343 343 343 342 343 344 345 347 347 346 345 345 345 346
346 344 339 339 343 345 345 345 345 345 345 345 344 345 346 347 348 347 345 344 344 344 344 342 343 345 345 345 345 345 346 347 347 346 346 347 347 348 347 348 348 346 346 346 345 345 346 345 344 343 343 342 342 343 345 345 346 346 345 344 344 345 346
347 345 341 338 340 343 345 346 345 345 344 344 344 345 346 347 348 347 345 344 345 347 347 344 342 343 344 345 344 344 344 346 347 346 346 346 348 348 348 347 347 346 346 345 344 346 347 347 346 346 345 344 343 343 344 344 344 344 344 343 343 343 345
347 346 343 340 339 340 343 345 345 345 344 343 343 343 345 346 347 347 347 346 347 348 349 347 343 341 341 343 343 343 343 344 346 347 347 347 347 348 348 346 345 345 346 344 343 344 346 347 348 348 347 347 346 345 344 344 343 343 342 342 343 343 343
347 347 346 344 341 339 341 343 344 345 344 343 342 342 343 344 346 348 348 348 348 348 349 348 344 339 339 341 342 343 343 343 345 347 348 348 347 347 347 345 344 345 346 344 343 344 345 347 348 348 347 348 348 346 345 343 343 342 342 342 343 343 343
348 347 347 346 345 342 340 341 342 344 344 343 342 342 343 345 347 348 347 348 349 349 349 349 345 340 339 340 340 342 344 343 344 346 347 347 347 347 345 344 344 346 347 346 346 347 347 348 350 349 348 348 348 347 345 345 344 344 343 343 343 343 344
348 348 347 347 347 345 343 341 341 343 343 342 342 342 343 345 347 347 348 347 348 349 349 349 347 342 339 339 339 340 343 343 343 345 346 346 347 346 345 345 345 347 348 348 349 349 349 350 350 349 348 348 347 346 346 347 347 346 344 343 342 342 343
348 348 348 347 347 347 345 342 340 342 343 343 343 342 343 346 347 347 348 347 348 348 349 349 349 344 339 339 339 339 340 342 343 343 345 346 345 344 345 346 347 348 349 349 350 350 350 350 349 349 349 348 347 347 346 346 348 348 347 346 345 343 343
347 348 349 348 348 348 346 344 341 342 344 344 344 343 343 345 347 348 348 347 347 348 349 349 348 344 340 339 339 339 339 340 341 342 344 345 344 344 345 347 349 350 350 350 350 350 350 350 350 350 350 350 349 349 348 348 349 350 350 349 348 346 345
349 350 350 349 349 348 347 346 343 342 343 345 346 346 346 345 346 347 348 348 347 347 348 349 347 343 340 340 340 339 338 339 340 342 344 344 344 344 346 347 349 350 349 349 350 350 350 351 350 350 351 351 351 351 350 349 350 350 350 350 350 349 348
350 350 350 350 350 349 348 348 345 343 342 343 345 346 348 350 349 347 347 347 347 347 348 348 348 345 341 340 341 340 339 339 340 341 343 344 344 344 345 347 349 349 348 349 349 349 350 351 351 351 351 351 351 351 350 350 350 350 349 349 349 349 348
350 350 350 350 350 350 349 348 347 345 343 344 344 344 348 350 351 351 350 349 348 347 349 349 349 347 343 341 341 341 341 340 340 341 341 342 344 344 345 347 349 349 349 349 350 350 350 351 351 351 351 351 351 350 349 349 350 350 349 349 349 348 348
350 351 351 351 350 350 349 348 347 346 345 345 344 344 345 347 350 352 353 353 352 349 349 350 351 350 345 342 341 342 342 341 342 343 343 344 344 345 347 349 350 350 350 350 350 350 351 351 351 351 351 351 350 349 348 347 347 348 348 349 350 349 347
350 350 351 351 351 350 350 349 347 347 346 346 345 345 345 345 348 350 352 352 351 350 348 348 350 351 349 345 344 344 344 344 344 346 347 348 348 348 348 348 349 350 350 350 350 350 350 349 349 349 349 350 350 349 348 347 347 347 347 348 349 349 348
350 350 350 350 350 350 350 349 349 348 347 347 347 346 347 346 347 349 350 349 348 349 349 347 348 350 350 348 346 345 345 345 346 348 350 351 351 350 349 349 350 350 350 350 350 350 350 349 348 348 347 348 349 349 348 348 347 346 347 347 348 348 348
350 350 350 350 350 350 349 349 349 349 348 348 348 348 348 349 349 350 350 349 346 347 349 348 348 349 350 348 346 345 346 347 347 348 349 351 351 351 351 350 351 351 351 351 351 350 349 348 348 348 347 347 348 348 349 348 347 346 346 346 347 347 349
350 350 350 350 350 350 349 349 349 349 349 349 349 349 350 350 351 351 352 351 349 348 348 348 347 349 350 348 346 347 349 350 348 349 350 350 351 351 352 351 351 351 352 352 351 350 349 348 348 347 347 346 347 347 347 347 347 346 346 347 347 348 349
350 350 350 350 350 350 349 349 348 348 349 350 350 350 351 352 352 352 352 352 351 350 348 347 349 350 350 349 348 350 351 350 349 349 350 350 350 351 352 351 351 351 352 352 351 350 350 349 348 347 347 346 347 346 346 346 346 346 346 346 347 348 348
349 349 350 350 350 350 350 349 349 348 349 349 349 350 350 351 352 352 353 353 353 352 350 350 351 352 351 349 348 349 350 349 349 350 350 350 351 351 351 351 350 350 350 351 350 350 350 349 349 348 347 346 346 346 346 345 345 345 346 346 347 348 347
348 348 349 350 350 350 350 350 349 348 349 349 349 349 349 349 350 351 352 352 352 352 351 351 351 351 351 348 346 347 350 350 349 350 351 351 350 350 350 349 349 349 349 349 349 349 349 349 348 347 347 346 346 346 345 346 345 346 346 347 347 347 346
348 348 348 349 349 349 349 349 349 349 349 349 349 349 349 349 349 349 349 349 349 349 349 350 350 350 349 348 347 349 350 350 350 350 350 349 349 348 348 348 349 349 349 349 349 348 348 348 348 348 348 347 346 346 345 345 345 345 346 347 347 347 346
348 347 347 347 347 348 348 348 348 348 348 349 349 349 349 350 350 350 349 348 348 348 349 351 352 351 350 349 349 349 349 350 351 351 350 350 349 349 349 349 350 350 350 350 350 350 350 351 352 351 351 350 349 349 348 346 345 344 344 346 348 348 347
347 347 346 345 346 347 348 348 348 348 347 347 348 348 348 348 349 350 350 349 349 350 352 352 352 352 352 352 352 351 351 351 352 352 352 352 352 352 351 350 350 351 351 352 352 352 352 352 351 350 350 350 351 351 350 348 346 345 344 345 346 348 349
346 346 345 345 345 345 345 346 347 346 347 347 347 346 346 346 347 347 348 349 349 349 349 349 349 349 349 350 350 350 349 349 349 349 350 351 351 351 351 350 350 351 352 351 351 350 349 348 347 348 348 349 349 350 350 348 347 346 345 344 345 346 348
344 344 343 342 343 343 343 344 345 345 346 346 346 346 346 346 347 347 347 348 348 347 347 347 347 347 347 347 347 347 347 347 347 347 347 348 348 348 349 349 349 349 349 349 349 348 348 348 348 348 348 349 349 348 348 347 347 346 346 346 346 346 346
341 342 342 341 341 341 341 341 342 343 344 344 345 345 345 345 346 346 347 347 347 347 347 347 347 347 347 347 347 347 347 347 347 347 347 347 347 347 347 347 348 348 347 347 347 347 347 348 348 348 348 348 348 348 348 348 348 347 347 347 347 347 346
338 339 340 339 338 338 338 338 338 339 340 341 341 341 342 342 343 344 344 344 344 345 345 345 345 344 344 344 344 344 345 345 345 345 344 344 344 344 345 345 345 345 344 344 344 344 345 345 346 346 346 346 346 346 347 347 347 347 347 346 346 347 346
335 333 333 332 332 333 333 332 330 330 331 332 334 335 336 338 339 340 340 340 340 341 341 341 341 341 341 341 341 341 341 341 341 342 341 341 341 342 342 342 342 342 341 341 342 342 343 343 343 343 343 343 343 343 343 344 343 343 343 343 343 343 345
331 329 328 327 327 327 326 323 320 319 320 321 325 328 330 332 334 336 337 337 337 337 336 337 337 337 337 337 337 338 338 339 339 339 339 339 339 339 339 338 337 336 337 339 341 341 341 340 340 339 339 339 339 339 339 339 340 339 339 339 339 339 341
327 326 326 325 323 321 318 317 315 315 316 317 319 321 323 325 327 329 330 330 330 329 329 330 331 332 333 334 334 335 335 335 335 335 335 335 334 331 329 328 330 333 336 339 340 340 339 338 338 337 337 336 336 336 334 333 334 335 335 334 334 335 336
326 326 325 323 320 316 312 311 311 312 314 315 315 314 315 316 317 318 319 319 319 319 319 320 323 325 328 330 331 332 331 330 331 330 329 328 326 323 322 322 326 331 335 337 338 338 337 337 337 337 336 335 334 334 332 330 330 332 333 331 330 331 332
327 328 327 324 320 315 311 309 309 310 311 312 311 311 311 311 311 311 311 311 313 313 313 314 316 318 321 324 325 325 324 324 324 323 320 318 317 318 320 323 326 328 331 333 334 335 335 335 335 336 335 334 333 332 331 328 327 328 330 329 329 328 328
328 328 327 323 318 313 311 311 311 311 310 310 310 310 309 309 309 309 308 308 309 310 310 311 312 313 315 316 317 317 317 317 317 317 316 315 315 316 318 321 324 327 330 332 332 333 333 333 333 334 335 334 332 331 329 327 325 325 325 325 326 327 326
329 329 327 324 318 314 313 313 313 312 311 310 309 308 307 307 307 307 307 307 307 307 308 309 310 310 311 312 314 314 315 316 316 316 316 316 317 317 317 318 320 323 326 328 328 329 330 329 329 331 333 333 331 330 329 328 326 324 321 319 320 321 320
329 329 328 326 324 321 317 315 313 312 309 308 308 308 307 307 306 306 307 308 309 310 311 311 311 310 310 312 314 315 315 316 316 316 315 315 317 318 319 319 319 318 319 320 320 321 323 323 323 326 329 330 330 329 329 328 326 325 323 320 317 316 315
329 329 328 327 327 326 324 320 317 314 311 309 307 308 308 307 306 306 307 309 310 311 314 315 315 315 314 315 316 316 316 316 315 315 314 314 314 315 315 315 315 314 314 315 315 315 316 317 317 318 322 326 327 327 327 326 326 324 321 317 313 311 310
329 329 328 327 327 327 327 324 319 316 315 314 312 311 310 310 309 308 308 309 310 311 314 316 317 317 318 318 318 318 318 318 317 317 315 312 311 311 312 313 313 311 311 311 312 312 312 311 310 311 314 319 322 323 322 321 319 316 312 308 306 305 306
329 328 327 327 327 326 327 326 322 318 317 317 316 316 316 315 315 313 311 311 311 312 313 315 316 317 318 319 320 320 320 320 319 318 315 311 309 309 311 312 312 311 311 312 313 313 312 310 308 307 307 309 311 312 312 311 309 307 305 304 304 304 304

ECMWFFLT1_850_thetae_114.txt.gz
Theta_e
341 338 337 339 340 342 342 342 342 343 344 345 344 345 345 345 346 346 345 345 345 345 345 345 344 341 341 342 344 347 348 348 348 348 347 347 347 347 347 347 346 347 347 346 344 344 345 346 346 345 344 344 343 343 343 342 343 345 347 347 347 347 347
343 340 337 338 340 342 342 342 342 342 343 344 344 345 345 345 345 345 346 345 345 344 343 343 343 341 341 341 344 346 347 347 348 348 347 347 347 348 348 347 347 347 348 348 348 347 346 346 346 345 344 344 344 344 343 343 345 346 347 347 345 345 346
344 341 339 338 339 341 342 342 342 342 343 343 344 344 344 344 343 343 345 345 345 343 342 342 342 341 341 341 343 345 346 346 347 347 347 347 348 348 348 348 348 348 349 349 349 349 347 347 347 346 345 345 344 343 343 344 345 345 346 346 345 343 343
345 343 340 339 338 339 341 343 343 343 342 342 343 343 343 343 342 342 344 345 345 344 341 340 340 340 340 341 342 343 343 344 345 346 347 347 348 349 348 348 348 348 348 349 349 348 347 347 348 348 347 347 345 344 344 344 344 343 344 344 344 343 342
345 345 343 340 338 339 341 342 343 342 342 342 342 342 342 342 342 342 343 345 346 344 341 340 339 340 340 340 342 342 342 342 342 344 345 346 347 348 348 349 349 348 348 347 348 347 346 346 348 348 348 349 347 347 347 345 343 343 343 343 342 342 343
345 346 345 342 340 339 339 341 341 342 341 341 342 342 342 342 343 343 343 344 346 345 344 342 340 340 339 339 341 342 342 342 341 342 343 344 346 347 348 348 349 348 347 346 346 347 346 345 345 347 348 349 348 348 348 347 345 343 342 342 342 342 343
346 346 346 344 343 340 339 339 340 341 341 341 342 342 342 343 342 343 343 345 346 346 345 343 342 342 342 341 340 340 341 341 341 342 342 343 345 347 348 347 347 347 346 345 346 346 345 345 346 348 349 349 348 348 348 347 345 345 345 344 343 342 342
346 346 346 345 345 342 340 339 339 340 341 342 343 343 343 343 343 343 343 344 346 346 346 346 346 346 346 344 340 338 339 340 341 342 342 343 345 345 346 346 345 345 345 345 346 346 347 347 348 349 350 349 348 347 347 345 345 346 347 346 344 343 343
346 346 346 345 346 344 342 341 339 340 341 343 344 344 344 344 344 343 343 344 346 346 347 347 347 347 347 346 341 338 338 339 340 342 343 343 344 344 344 344 343 344 344 345 346 347 348 348 348 349 350 349 349 348 347 346 345 346 347 347 346 347 347
347 347 347 346 346 345 343 341 339 339 341 342 343 343 344 345 344 344 344 345 346 346 347 347 347 348 348 348 345 340 338 338 338 340 342 343 343 343 343 343 342 343 344 345 347 348 349 349 349 350 350 350 350 349 349 349 348 347 348 348 349 349 349
347 348 348 347 346 346 345 343 340 339 339 340 341 341 342 343 343 343 344 345 346 347 347 347 347 347 348 348 348 343 339 338 338 338 339 341 342 343 343 343 343 343 345 347 348 349 350 350 350 350 350 350 350 351 351 350 350 350 350 350 350 350 350
348 348 348 348 347 346 346 345 343 342 340 340 340 340 340 341 342 342 343 343 345 346 348 348 348 348 348 348 348 345 340 339 339 338 338 339 341 342 343 343 343 344 345 347 348 348 349 349 350 350 350 350 351 351 351 351 351 351 350 350 351 350 350
349 349 348 349 348 347 347 346 345 344 343 342 341 341 341 341 341 341 342 342 343 345 347 348 348 349 348 349 348 345 341 339 339 338 338 339 340 342 343 344 344 344 345 346 347 347 348 349 349 350 350 350 350 350 351 351 350 351 350 350 351 351 351
349 350 350 349 349 349 347 346 345 343 343 342 342 342 341 341 341 342 342 342 342 344 346 347 348 349 348 349 348 345 341 340 340 340 339 339 340 341 342 343 344 344 345 348 348 348 349 349 349 350 350 350 350 350 350 350 350 350 350 349 350 350 350
348 350 350 349 349 349 348 347 345 343 343 342 342 342 342 342 343 344 345 344 342 344 345 345 347 348 348 348 348 345 341 340 341 341 340 340 340 340 341 343 345 346 347 349 350 349 349 349 350 350 350 350 349 349 349 349 349 349 349 349 349 349 349
347 348 349 350 349 349 349 348 347 345 344 344 343 343 343 343 343 345 346 346 345 345 345 345 346 347 347 348 348 346 343 341 341 341 341 341 341 342 344 345 346 347 349 350 350 350 350 350 350 350 350 349 348 348 348 348 348 348 348 349 349 349 349
346 348 349 350 350 350 349 348 348 347 346 345 345 344 344 344 343 344 345 346 346 346 345 345 346 348 348 348 348 348 345 343 342 342 342 342 343 345 347 348 349 349 349 349 349 350 350 350 350 350 350 349 348 347 347 347 347 347 347 348 348 348 348
348 349 349 349 350 350 350 349 349 348 348 347 347 346 346 345 345 344 345 346 346 347 347 346 346 348 350 349 349 349 348 346 343 343 344 345 346 348 349 350 350 350 349 349 349 350 350 350 350 350 350 349 348 347 346 346 345 345 346 346 346 346 347
349 349 349 349 349 350 350 350 349 349 349 348 348 347 347 347 346 346 346 346 346 346 347 348 349 351 350 348 349 351 351 348 346 345 347 348 347 348 349 350 350 350 350 350 350 350 350 350 350 351 350 349 349 348 347 347 346 346 346 345 345 345 345
349 349 348 349 350 349 349 349 349 349 348 349 348 348 348 348 347 347 347 347 347 347 347 348 350 352 350 346 348 352 353 351 350 349 350 351 349 349 349 350 351 351 351 351 351 350 349 348 348 348 349 349 349 348 348 347 346 346 345 345 345 345 345
349 348 347 348 349 349 349 348 349 349 348 348 348 348 349 349 349 349 349 349 349 350 350 350 351 351 348 346 349 351 352 353 353 352 352 351 350 349 350 351 352 353 352 351 350 349 347 346 347 348 349 349 349 349 349 348 348 347 346 345 345 345 345
348 346 346 348 348 349 349 349 349 349 348 348 348 348 349 350 350 349 349 349 350 351 352 351 350 349 348 348 350 352 353 352 351 350 350 351 350 350 351 351 352 352 351 350 350 349 348 348 349 350 349 348 348 348 349 349 349 349 348 347 346 345 345
345 344 345 346 347 348 348 349 349 348 348 348 348 348 349 349 349 349 349 349 350 351 352 352 350 349 349 350 351 351 351 349 348 348 349 350 350 350 351 351 350 350 349 349 348 349 349 349 351 351 350 349 349 349 349 349 349 350 349 349 348 347 346
342 342 343 344 344 345 346 347 348 347 347 348 347 348 348 348 348 348 348 348 348 349 349 349 348 348 348 349 350 350 349 349 349 350 350 349 350 351 350 350 350 350 350 350 350 349 349 349 350 350 350 350 349 348 347 347 347 348 349 349 349 349 348
340 340 341 342 342 343 344 345 346 346 346 347 347 347 347 347 347 347 347 347 347 347 348 347 348 349 349 350 350 349 349 350 349 349 349 348 349 349 348 348 349 349 349 348 348 348 348 348 348 348 348 348 348 347 347 347 347 348 348 348 349 348 347
340 339 340 340 340 341 342 343 344 345 345 346 346 346 347 347 346 345 345 345 346 346 347 346 347 348 349 349 349 348 348 348 348 347 347 347 347 346 346 346 346 346 346 346 345 345 346 346 346 346 346 346 347 347 347 347 347 347 347 347 347 347 347
339 338 337 336 336 338 340 341 342 343 343 343 343 344 344 345 344 343 343 343 344 345 344 344 344 345 346 346 345 346 347 346 345 345 345 345 345 345 344 344 344 344 344 343 343 343 343 344 344 344 345 345 345 344 344 344 344 344 344 344 344 344 344
337 335 333 331 329 330 333 335 336 338 338 338 340 340 341 342 342 341 341 341 342 342 342 342 342 341 342 343 342 342 343 342 342 342 342 342 342 342 342 341 341 341 340 341 342 341 341 341 341 340 340 340 340 340 339 339 339 339 339 339 340 340 340
331 329 328 326 323 322 323 325 327 329 331 333 335 336 338 339 339 339 339 339 339 338 339 340 339 338 338 339 339 339 339 339 339 339 338 338 338 336 335 334 335 336 337 338 340 340 339 339 338 337 337 336 335 335 334 334 333 333 334 335 335 336 336
324 321 319 317 317 316 316 317 317 319 322 326 328 330 332 333 334 334 334 334 334 334 335 335 335 334 334 335 335 335 335 335 335 335 333 332 330 327 325 325 330 334 336 338 339 339 338 337 337 337 336 335 334 334 332 330 329 330 332 332 332 332 332
323 321 316 313 312 312 312 312 312 312 314 316 318 320 321 322 323 323 323 324 324 326 328 329 330 331 332 332 331 331 330 329 328 327 325 323 321 320 320 322 326 330 333 335 336 337 336 336 335 335 335 335 334 332 331 330 328 327 327 327 327 328 328
325 323 317 312 311 311 310 311 311 310 311 311 312 313 314 315 315 315 315 316 316 317 319 322 324 326 326 325 324 322 321 320 319 319 318 316 315 316 317 318 320 324 328 331 332 333 333 333 333 334 335 334 333 332 331 330 329 327 324 321 321 321 321
326 324 318 313 310 310 309 309 309 309 309 309 309 310 310 310 310 310 311 311 311 312 313 314 316 317 317 317 316 316 316 316 316 316 316 316 316 316 316 316 317 319 323 326 329 330 331 331 330 332 333 333 333 331 330 330 329 328 325 323 321 320 318
325 322 318 314 312 311 309 308 308 308 308 307 307 307 307 307 307 307 308 309 310 311 310 311 312 313 314 315 315 316 316 315 315 314 314 314 315 315 316 316 316 317 318 320 322 323 324 324 325 327 329 331 330 329 328 328 328 327 326 324 323 320 316
325 322 319 318 316 314 311 308 307 307 307 307 307 306 306 307 308 308 309 311 313 314 313 313 312 313 314 316 316 315 315 314 313 312 312 312 311 311 311 312 313 314 314 314 315 315 316 317 318 319 321 322 323 324 325 326 325 324 322 319 315 312 308
326 325 324 324 322 318 314 312 311 309 308 309 309 308 308 308 308 309 310 311 313 315 316 316 316 316 317 318 318 318 318 317 316 315 314 312 310 309 309 309 310 311 310 310 311 312 312 313 313 313 313 313 314 316 317 317 316 314 312 309 306 305 304
327 327 326 327 326 322 317 316 315 314 313 314 314 313 312 311 311 311 310 310 312 313 314 315 316 316 317 318 319 319 319 319 318 315 313 312 311 310 310 310 310 311 310 310 310 311 312 312 311 310 308 307 308 309 309 308 308 308 307 306 304 304 304
327 327 326 327 327 326 323 320 319 317 316 316 317 318 317 316 315 314 313 313 314 314 314 314 314 314 315 317 318 318 317 317 316 315 313 311 310 310 311 311 311 311 311 311 312 313 314 314 313 311 310 310 309 309 309 309 309 308 307 306 305 304 304

ECMWFFLT1_850_thetae_117.txt.gz
Theta_e
341 339 338 339 340 341 341 341 341 342 342 343 344 344 345 345 345 346 346 346 346 345 344 343 342 341 341 342 343 343 344 344 346 347 347 348 348 348 348 348 348 348 347 346 346 345 344 345 347 347 347 345 344 344 343 343 343 344 345 346 347 348 348
341 339 338 338 340 340 340 341 341 341 341 342 343 344 344 345 345 346 345 345 345 345 345 345 344 344 343 341 341 342 343 343 345 347 347 348 348 347 347 347 348 348 348 347 348 348 348 347 347 347 347 345 344 344 343 343 343 343 344 346 348 348 348
342 339 338 338 339 339 340 341 341 341 341 341 343 343 343 344 344 344 345 344 344 344 344 345 345 345 344 343 341 341 342 343 345 347 347 347 347 347 347 347 348 348 348 348 348 349 349 348 348 347 347 346 345 344 344 344 343 343 344 345 346 347 346
343 340 339 338 338 339 339 340 341 340 340 340 341 341 342 343 343 343 344 344 344 344 344 344 344 344 344 343 342 341 341 343 345 346 346 346 347 346 347 347 347 348 348 348 349 349 349 348 348 347 347 346 346 345 344 344 344 344 344 344 344 345 344
345 342 340 338 338 338 339 339 340 339 339 340 340 341 341 341 342 343 344 344 344 345 344 344 345 344 343 343 343 341 341 343 345 346 345 345 346 346 345 346 346 347 348 348 348 348 348 348 347 346 347 347 348 347 346 346 346 346 345 344 343 343 343
347 344 341 339 338 338 338 339 339 339 339 339 339 340 340 341 342 342 343 343 344 345 345 346 346 345 342 341 341 341 341 342 343 345 344 344 345 345 344 344 345 347 348 348 348 347 347 347 346 345 346 347 348 349 349 348 348 348 347 345 343 343 343
347 346 344 341 340 339 339 339 339 338 339 339 339 340 340 341 341 341 342 342 343 344 345 346 346 346 343 342 340 340 340 341 342 344 343 343 344 344 344 344 345 347 347 348 347 345 345 346 345 344 345 346 348 349 350 349 349 350 349 346 344 344 344
346 346 345 343 341 340 339 339 339 339 339 339 339 340 340 341 341 341 342 342 342 343 344 346 346 346 345 342 340 339 339 340 341 342 342 342 342 343 343 345 346 347 347 346 345 344 345 345 345 345 346 348 349 350 349 349 349 349 348 347 347 347 346
346 345 346 346 343 341 340 340 340 339 339 339 340 340 340 340 340 340 341 341 342 342 342 345 346 346 345 342 340 339 339 339 340 341 341 341 341 341 342 345 346 346 346 345 344 344 345 346 346 347 348 349 350 350 349 349 348 348 347 346 347 348 348
346 345 346 346 345 344 342 340 340 339 339 339 339 339 340 340 340 340 340 341 342 341 342 344 346 346 345 342 341 342 341 340 339 339 340 341 341 341 342 344 345 345 345 345 344 344 345 346 347 348 349 349 350 349 349 349 349 349 348 347 347 348 350
346 346 346 346 346 345 343 342 341 339 339 339 339 339 339 339 339 339 340 340 341 341 341 343 346 347 346 345 345 345 345 342 339 339 339 339 340 341 342 343 343 344 344 344 344 345 346 347 348 349 349 350 350 350 350 350 350 351 350 349 349 350 351
347 346 346 346 346 345 343 342 341 340 340 339 339 339 339 339 339 339 340 340 340 341 341 342 345 347 347 347 347 347 347 346 342 339 338 339 339 341 342 342 343 343 343 343 344 345 347 348 349 350 350 350 350 350 350 351 351 351 351 350 351 351 351
348 347 346 346 346 346 345 343 342 341 341 340 340 339 339 339 339 339 339 340 340 341 341 341 344 346 347 347 348 348 348 349 346 342 339 338 339 339 341 341 342 343 343 343 343 345 347 349 350 350 350 350 350 350 350 351 351 351 351 351 351 351 351
348 348 347 347 346 346 346 345 343 342 341 341 340 340 340 340 340 339 340 340 339 341 341 341 342 345 346 347 347 348 348 348 349 346 341 338 338 339 339 340 341 343 343 343 343 345 347 349 350 350 350 350 350 350 350 350 350 350 350 350 351 350 350
349 349 348 348 347 347 346 346 345 344 342 341 340 340 341 341 342 342 342 341 340 340 341 341 341 343 345 346 347 347 347 347 348 347 342 339 339 338 338 338 340 342 343 343 343 344 346 348 349 350 350 350 350 350 351 350 350 350 350 349 350 350 350
347 348 349 349 348 348 348 347 347 346 345 343 342 340 340 341 342 343 343 343 343 342 342 342 342 342 344 346 347 347 347 347 348 346 342 339 339 339 338 338 340 341 342 343 343 344 346 348 349 349 350 350 350 350 350 349 349 349 348 349 349 349 349
345 347 348 349 349 349 349 349 348 347 346 346 344 342 341 340 341 342 344 344 345 345 344 343 343 342 343 345 347 348 348 348 348 347 344 341 341 341 339 338 339 340 342 344 345 346 347 349 350 350 350 350 350 350 349 348 348 348 347 347 347 347 347
346 347 348 348 349 350 350 350 349 349 348 347 346 344 343 341 341 342 343 344 345 346 345 345 345 345 345 346 347 349 350 350 351 350 348 345 344 343 341 341 342 345 347 348 348 349 349 350 351 350 350 350 350 350 349 349 348 348 347 346 346 346 346
348 349 349 349 349 349 350 350 349 349 349 348 347 346 344 343 343 342 343 344 344 345 345 347 347 348 349 348 347 347 347 349 351 352 351 349 349 349 347 345 346 348 350 351 350 349 349 350 350 350 350 350 350 350 350 349 349 348 348 348 347 346 346
349 349 349 349 349 349 349 350 349 349 349 348 348 347 347 346 345 345 344 344 344 344 345 346 346 346 347 348 348 348 347 347 349 350 350 349 349 351 352 349 348 350 351 351 351 350 347 346 348 349 349 349 350 349 349 349 349 349 349 348 348 347 347
346 348 349 348 348 348 348 349 349 349 349 348 348 348 348 348 347 347 346 346 346 345 345 345 346 345 344 345 347 349 349 348 348 348 350 349 346 349 352 351 351 351 351 350 351 350 348 347 349 349 348 347 347 347 348 348 348 349 348 348 347 347 347
343 346 348 348 348 348 348 348 348 348 348 348 348 348 348 348 348 348 348 348 347 347 346 346 347 346 344 344 346 346 348 348 345 346 350 351 348 348 349 350 350 350 349 348 349 350 349 349 350 349 347 347 347 347 348 348 348 348 348 348 348 348 348
341 343 346 347 347 348 348 347 348 348 347 347 347 348 348 348 348 348 349 348 348 348 348 348 348 348 347 347 347 347 347 346 345 346 349 349 349 349 349 349 350 350 348 348 348 349 348 348 348 348 348 348 349 349 349 349 349 349 349 350 349 349 348
340 342 344 345 346 347 347 347 347 346 347 347 347 347 347 347 347 347 348 348 347 348 348 348 348 349 349 349 350 349 348 347 346 348 349 348 348 348 348 349 350 349 349 349 349 349 349 348 349 349 349 349 349 349 349 349 349 349 349 349 348 347 347
341 342 343 344 344 345 345 344 344 346 347 347 347 347 346 346 346 346 347 346 346 346 346 346 346 346 347 349 350 349 349 348 349 349 349 348 348 349 348 348 348 348 348 348 348 348 348 348 348 348 348 348 348 348 347 347 347 347 347 347 347 347 347
340 341 342 342 342 343 343 342 343 345 346 346 345 345 345 344 345 345 345 345 345 345 344 345 345 345 347 348 348 348 348 348 348 347 346 346 346 346 346 346 346 346 346 345 345 345 346 345 345 345 345 346 346 345 345 345 345 345 345 344 344 344 345
339 338 340 340 340 341 342 341 340 341 342 342 343 343 342 343 343 343 343 343 343 343 342 343 344 344 345 346 346 346 345 345 344 344 343 343 343 343 344 344 344 344 344 344 344 344 343 343 343 343 344 344 343 343 343 342 341 340 339 339 339 339 339
332 331 334 336 337 339 339 339 338 337 338 339 340 341 342 342 342 341 341 341 340 339 339 340 340 340 341 341 341 340 340 341 341 341 341 341 342 342 341 341 341 341 341 341 342 342 341 340 340 339 339 338 338 337 337 336 335 334 334 334 334 335 335
323 323 326 329 331 333 334 334 334 335 336 336 337 338 339 340 340 339 339 338 336 335 336 336 336 336 336 337 337 337 337 337 337 336 334 333 333 334 337 338 338 339 339 339 339 339 338 337 337 336 335 334 334 333 332 332 331 330 330 330 330 330 331
317 318 319 320 323 324 325 326 328 329 330 332 333 334 335 336 336 336 335 334 332 332 334 334 333 334 334 333 332 332 333 332 332 330 328 326 325 327 330 334 336 337 338 337 337 337 337 336 336 334 333 332 332 331 331 330 329 328 326 324 323 323 322
314 314 314 314 315 316 316 317 319 320 321 322 322 323 325 326 326 326 326 327 328 329 329 328 327 326 325 323 321 321 322 322 322 321 320 320 320 320 322 326 330 333 334 335 334 334 334 334 334 334 334 333 332 332 331 330 330 328 326 324 323 321 320
313 312 312 312 312 312 312 313 314 314 315 316 316 315 315 315 315 317 318 320 321 322 320 318 317 317 317 316 317 317 316 317 317 317 316 317 317 317 316 319 322 326 328 329 331 332 332 332 333 333 332 331 330 329 328 327 326 326 326 325 324 322 320
312 311 311 310 310 310 310 311 311 312 313 313 312 312 313 313 314 315 316 316 316 316 316 315 316 316 316 316 316 315 315 315 314 314 314 313 313 314 314 315 317 318 319 320 323 326 328 329 330 329 329 328 325 321 319 319 320 319 319 318 316 314 311
310 309 309 309 308 308 308 308 309 309 309 309 309 310 312 314 315 315 316 315 315 315 316 317 317 318 317 317 317 316 315 315 313 312 311 310 310 310 311 311 312 312 312 312 313 315 317 319 320 321 322 323 320 316 314 314 313 311 310 308 307 306 306
311 308 308 308 308 307 307 306 307 307 308 310 311 312 312 313 315 316 317 317 317 316 317 318 318 319 319 318 318 317 316 315 313 312 311 310 310 310 310 310 310 310 309 309 309 310 311 312 312 312 312 312 311 310 309 309 308 307 306 306 306 305 305
314 311 310 310 311 311 310 310 309 310 310 311 312 312 311 311 312 314 315 316 316 316 316 317 317 317 317 316 316 316 315 315 314 313 312 312 311 311 311 311 311 310 310 309 309 310 311 312 312 311 310 310 309 309 308 308 308 309 308 307 307 305 304
317 316 315 314 314 314 315 315 315 315 315 315 315 315 314 314 314 314 315 315 315 315 316 316 316 316 316 315 314 314 314 314 314 314 313 313 312 311 311 311 311 311 311 311 310 311 312 312 313 312 312 312 311 311 311 311 311 310 309 308 306 305 304
323 322 321 319 318 316 316 317 319 320 320 320 319 319 318 317 317 317 317 317 317 317 317 317 317 317 316 316 315 315 315 314 314 313 313 313 312 311 311 310 310 310 310 310 311 311 312 312 313 313 313 312 312 312 311 311 311 310 309 308 307 305 305

ECMWFFLT1_850_thetae_120.txt.gz
Theta_e
347 343 342 343 343 345 345 345 347 346 348 351 351 351 351 350 351 352 352 351 346 340 338 338 340 342 343 344 344 343 342 344 347 348 350 351 351 352 353 353 353 353 353 353 353 353 350 348 347 349 350 345 344 345 343 344 344 344 346 344 343 346 347
347 344 342 343 344 345 346 346 347 347 348 350 350 350 351 351 351 352 353 351 347 344 341 339 339 340 342 344 346 345 341 342 344 346 349 350 349 348 351 353 353 352 351 352 354 354 352 349 347 347 349 349 349 347 343 344 344 343 346 345 343 346 345
348 344 342 343 344 345 346 347 347 347 348 348 349 349 350 352 352 351 352 351 348 346 344 342 339 338 340 342 344 343 341 342 344 345 349 351 350 351 352 352 351 352 353 352 353 353 353 353 350 348 348 351 354 352 348 347 347 346 346 343 345 349 348
348 344 343 344 345 347 347 348 348 348 349 349 348 349 350 350 349 347 347 350 350 347 346 344 342 341 341 342 342 343 342 343 344 347 351 352 353 353 354 352 350 351 353 353 353 353 353 354 354 351 347 347 349 351 350 348 349 350 347 344 347 350 349
348 345 344 345 347 348 348 348 349 348 349 349 349 349 348 346 346 345 345 349 351 350 348 348 348 348 348 347 347 348 347 345 345 348 351 353 354 354 353 353 352 352 353 353 354 353 350 351 354 354 351 347 348 351 350 349 349 350 347 346 349 352 352
348 347 346 347 346 346 345 347 349 348 347 346 346 347 348 346 347 349 349 349 351 351 351 351 352 352 351 351 351 352 350 347 344 346 350 352 353 353 353 353 353 353 353 353 354 354 352 350 352 354 354 352 352 354 354 353 353 353 353 352 351 350 351
349 350 348 346 345 344 343 345 347 348 346 344 343 344 347 347 347 350 352 351 349 350 352 352 352 353 353 353 353 352 352 350 346 346 349 351 351 351 353 353 353 353 354 354 354 354 354 353 352 352 352 353 354 354 355 355 352 353 355 354 351 349 348
349 351 349 345 344 343 345 346 347 349 348 346 346 347 346 346 347 349 352 351 349 350 351 352 352 353 353 353 353 352 351 351 350 349 350 352 352 351 352 353 353 353 353 354 355 353 353 353 353 352 351 353 354 353 354 354 350 351 355 355 354 353 352
349 351 348 345 343 344 348 348 347 349 349 347 348 347 345 345 346 346 347 349 348 347 348 349 353 353 350 350 351 350 349 350 352 351 351 352 353 352 352 352 353 353 352 353 354 354 353 353 354 354 352 352 352 351 352 353 351 353 355 354 353 353 353
350 351 349 346 344 346 348 349 349 349 348 346 345 344 342 342 342 341 341 343 343 343 343 344 348 349 346 346 348 349 349 350 351 352 352 352 353 353 352 352 353 353 353 353 353 353 354 352 354 354 351 350 351 351 351 352 352 353 355 354 354 353 352
349 350 350 349 349 348 348 350 350 349 346 343 341 341 341 340 340 339 339 340 340 341 342 342 343 343 343 345 347 350 352 351 350 352 353 353 353 353 353 351 352 353 353 353 352 353 354 353 354 354 351 351 354 354 353 353 353 353 354 354 355 355 354
349 349 350 351 352 351 351 351 351 349 346 342 340 340 341 340 339 339 339 339 339 340 341 342 342 342 343 345 346 348 350 351 352 353 353 352 351 352 353 352 351 352 353 353 353 353 354 354 354 355 354 354 355 355 355 355 354 354 354 354 355 355 355
350 349 351 353 353 353 352 350 351 351 348 345 343 342 341 340 339 339 339 339 339 340 341 341 342 342 342 344 346 345 345 349 353 354 354 353 350 347 350 352 352 352 352 353 353 353 353 353 354 355 356 356 355 355 355 355 354 354 354 354 354 355 355
349 350 352 354 355 354 353 349 348 349 347 345 345 344 343 342 341 341 340 339 339 340 340 341 341 342 342 344 346 345 342 345 351 353 353 352 348 343 345 349 352 353 353 353 353 352 352 352 353 354 354 355 355 355 355 354 354 353 353 353 354 354 354
349 351 352 353 354 354 353 350 347 346 345 344 343 343 344 345 343 342 340 340 340 341 341 342 342 342 342 343 345 346 346 346 349 350 350 349 347 345 342 344 349 352 353 353 353 352 352 352 352 353 353 353 354 354 354 353 353 352 352 352 353 352 352
350 350 351 352 354 355 355 353 350 347 345 345 343 342 343 344 343 341 341 341 341 341 342 343 343 343 343 343 344 345 347 348 348 349 349 349 349 348 344 342 346 352 353 352 353 353 352 352 352 353 353 353 353 354 353 352 352 351 351 351 350 350 350
347 348 350 351 352 354 354 354 353 351 349 347 346 344 344 344 343 342 342 342 342 343 344 344 345 345 344 343 344 344 346 348 349 350 350 350 350 351 349 346 347 351 352 350 350 350 349 350 352 353 353 353 353 352 351 351 351 351 350 349 348 348 348
347 346 348 349 350 352 353 353 353 353 352 350 349 347 345 344 342 341 342 342 342 344 347 348 346 345 344 344 344 344 346 348 350 351 352 351 350 350 350 349 348 348 346 346 349 349 348 350 351 350 351 353 353 352 351 351 351 350 349 348 348 347 346
348 347 347 348 349 351 351 352 352 352 353 352 352 351 350 347 345 343 341 341 341 343 346 349 346 343 344 345 344 345 347 348 349 349 349 350 349 347 347 348 349 348 346 348 352 351 349 349 349 348 350 353 354 353 352 351 350 349 349 348 348 347 347
346 347 348 348 348 350 350 351 351 351 352 353 352 352 352 351 350 348 346 344 345 344 345 347 346 345 346 347 347 348 349 349 348 347 345 346 348 348 346 346 347 348 348 350 351 350 350 351 350 349 350 351 353 353 352 350 349 350 349 348 348 347 347
343 346 347 346 345 346 347 348 349 349 350 351 351 351 351 352 352 352 350 349 349 347 345 347 347 347 349 350 350 350 350 349 349 348 346 345 345 347 348 347 346 346 348 348 347 347 349 352 352 351 349 349 351 352 351 349 349 349 348 347 348 347 347
343 346 346 346 344 344 344 346 347 348 348 349 350 349 350 350 350 351 351 350 350 349 348 348 348 348 348 350 350 350 349 349 349 350 350 348 345 344 347 348 348 347 347 348 348 347 347 349 351 351 349 350 351 351 350 348 347 347 347 347 347 347 348
343 346 346 346 346 345 345 346 346 347 347 347 348 348 348 349 349 350 350 350 349 350 349 349 348 349 349 349 348 348 347 346 346 348 350 348 345 345 346 347 347 347 347 348 349 349 349 350 350 350 350 350 350 350 349 347 347 347 348 349 349 349 350
342 346 346 345 346 345 345 346 346 347 347 347 347 347 347 348 348 348 348 348 349 349 349 349 350 350 350 349 348 347 347 346 347 348 348 346 345 345 347 348 349 348 349 350 350 351 350 350 350 349 349 349 349 349 348 348 349 349 349 349 349 348 349
341 345 345 345 345 344 344 345 345 345 346 346 346 346 346 347 347 347 347 347 347 347 347 348 349 349 349 349 349 348 349 349 348 348 346 345 345 346 347 349 349 349 349 349 349 350 350 350 349 349 349 349 349 350 349 349 349 349 348 347 347 346 346
340 344 345 344 344 343 343 344 344 344 344 344 344 344 344 345 346 346 346 346 345 345 345 345 346 346 346 346 347 347 348 349 348 348 346 346 347 347 347 348 349 349 348 348 347 347 347 348 349 349 348 348 348 347 347 347 347 346 345 344 343 343 342
338 342 344 343 342 342 342 342 342 342 342 342 342 342 342 343 344 343 343 343 343 342 341 341 342 342 342 343 345 346 346 346 347 347 346 346 346 346 345 346 346 346 345 345 345 345 345 346 346 346 345 345 345 344 343 343 342 341 340 339 338 337 337
336 338 340 340 340 341 341 341 341 340 340 339 339 339 340 341 341 340 339 340 340 339 339 340 340 341 342 343 343 343 344 344 344 345 344 344 344 344 343 343 343 344 343 343 343 343 343 343 342 342 342 341 339 338 336 335 335 334 333 332 331 331 331
334 335 336 337 337 338 338 338 338 338 338 338 338 338 339 339 338 337 337 336 336 336 336 336 337 338 339 340 341 341 341 340 340 341 341 341 341 342 340 339 340 341 342 341 341 340 339 338 338 338 337 336 334 333 332 331 330 330 328 326 325 324 323
333 332 332 333 333 334 335 336 336 336 336 336 335 335 335 336 336 335 334 334 334 335 335 335 335 334 333 333 334 335 335 335 336 336 337 337 338 338 338 337 338 338 339 338 337 337 336 335 335 335 334 334 333 332 331 330 329 328 326 325 324 323 322
330 330 329 329 328 328 328 328 329 329 329 330 330 331 331 331 330 329 328 327 327 327 328 328 328 327 325 323 324 324 325 326 328 329 330 331 333 334 334 334 334 335 336 335 334 335 335 334 334 334 333 333 333 333 332 329 327 326 324 323 322 321 318
328 328 326 325 323 322 321 321 321 322 321 320 321 322 321 320 319 319 319 319 319 319 318 318 318 319 318 318 317 317 318 319 320 320 321 321 322 325 326 326 326 328 330 330 330 332 333 333 334 333 332 331 331 330 329 327 326 324 318 314 313 311 309
328 327 326 325 325 323 322 321 322 322 320 318 319 319 318 318 319 320 320 321 320 318 316 316 316 316 315 314 314 314 314 316 316 317 317 317 316 316 318 318 317 320 325 328 330 332 332 331 329 328 329 329 326 323 325 327 325 319 311 306 306 306 305
326 327 328 327 325 324 322 320 320 319 318 317 319 321 321 321 322 323 323 322 321 318 317 317 317 316 314 312 311 311 311 311 311 312 312 313 313 312 313 313 312 312 315 318 321 324 324 322 317 315 319 322 319 316 318 320 318 312 307 307 307 306 306
323 324 326 326 324 323 322 320 318 318 317 318 319 320 321 322 323 323 322 321 319 318 317 317 318 318 318 316 314 312 312 311 311 311 310 311 311 310 310 310 310 310 310 310 311 313 313 313 311 310 312 313 312 310 311 311 310 309 308 308 307 306 306
322 321 322 322 322 321 320 317 314 313 314 316 317 317 318 320 322 323 323 322 319 317 317 318 318 318 318 318 316 314 313 312 312 313 312 312 312 311 312 311 311 311 311 310 311 311 311 311 311 311 311 310 310 310 310 309 310 309 309 308 307 306 306
320 319 318 318 317 317 318 318 318 318 317 317 317 316 316 317 317 318 318 319 318 317 319 321 322 320 319 318 316 315 314 313 313 313 313 313 312 312 312 312 311 311 311 311 311 311 311 311 311 310 311 310 310 311 310 309 309 309 308 308 307 306 306
317 318 320 320 317 316 318 320 322 323 323 322 321 320 319 319 318 318 317 317 318 318 320 322 324 324 323 321 318 317 317 316 315 315 314 314 314 313 313 314 314 313 311 311 311 311 311 311 310 310 310 310 311 311 310 309 309 309 308 308 307 307 307